<?xml version="1.0" encoding="UTF-8" standalone="no" ?>
<gpx xmlns="http://www.topografix.com/GPX/1/1" xmlns:xsi="http://www.w3.org/2001/XMLSchema-instance" xsi:schemaLocation="http://www.topografix.com/GPX/1/1 http://www.topografix.com/GPX/1/1/gpx.xsd" version="1.1" creator="VisuGPX - https://www.visugpx.com">
  <metadata>
    <name>Tour du Lac - Variante St Lumine - Le Bignon - Chateau Thébaud - Vertou</name>
    <desc><![CDATA[Tour du Lac - Variante St Lumine - Le Bignon - Chateau Thébaud - Vertou]]></desc>
  </metadata>
  <trk>
    <name><![CDATA[2016-12-24 11:39]]></name>
    <desc><![CDATA[<p>Heure de départ: 12/24/2016 11:39</p><p>Heure d'arrivée: 12/24/2016 14:47</p><p>Distance: 74,2 km (03:07)</p><p>Temps déplacement: 03:04</p><p>Vitesse moyenne: 23,69 km/h</p><p>Vitesse moyenne mouv.: 24,16 km/h</p><p>Vitesse Max.: 38,68km/h</p><p>Altitude minimale: -13 m</p><p>Altitude maximale: 63 m</p><p>Vitesse de montée: 743,6 m/h</p><p>Vitesse de descente: -813,6 m/h</p><p>Gain d'altitude: 876 m</p><p>Perte d'altitude: -894 m</p><p>Temps de montée: 01:10</p><p>Temps de descente: 01:06</p><hr align="center" width="480" style="height: 2px; width: 517px"/>]]></desc>
    <trkseg>
      <trkpt lat="47.16779" lon="-1.6262">
        <ele>13.36</ele>
        <time>2016-12-24T10:39:32Z</time>
      </trkpt>
      <trkpt lat="47.16782" lon="-1.62649">
        <ele>-0.54</ele>
        <time>2016-12-24T10:40:58Z</time>
      </trkpt>
      <trkpt lat="47.16769" lon="-1.62672">
        <ele>0.58</ele>
        <time>2016-12-24T10:41:01Z</time>
      </trkpt>
      <trkpt lat="47.16747" lon="-1.62672">
        <ele>11.19</ele>
        <time>2016-12-24T10:41:06Z</time>
      </trkpt>
      <trkpt lat="47.16729" lon="-1.62684">
        <ele>16.13</ele>
        <time>2016-12-24T10:41:10Z</time>
      </trkpt>
      <trkpt lat="47.16721" lon="-1.62711">
        <ele>18.55</ele>
        <time>2016-12-24T10:41:15Z</time>
      </trkpt>
      <trkpt lat="47.16734" lon="-1.62737">
        <ele>19.56</ele>
        <time>2016-12-24T10:41:19Z</time>
      </trkpt>
      <trkpt lat="47.16748" lon="-1.62759">
        <ele>19.59</ele>
        <time>2016-12-24T10:41:22Z</time>
      </trkpt>
      <trkpt lat="47.16767" lon="-1.62779">
        <ele>17.95</ele>
        <time>2016-12-24T10:41:26Z</time>
      </trkpt>
      <trkpt lat="47.16785" lon="-1.62794">
        <ele>18.23</ele>
        <time>2016-12-24T10:41:29Z</time>
      </trkpt>
      <trkpt lat="47.16802" lon="-1.62808">
        <ele>19.32</ele>
        <time>2016-12-24T10:41:32Z</time>
      </trkpt>
      <trkpt lat="47.16819" lon="-1.62823">
        <ele>22.56</ele>
        <time>2016-12-24T10:41:35Z</time>
      </trkpt>
      <trkpt lat="47.16835" lon="-1.62838">
        <ele>23.03</ele>
        <time>2016-12-24T10:41:38Z</time>
      </trkpt>
      <trkpt lat="47.16851" lon="-1.62854">
        <ele>24</ele>
        <time>2016-12-24T10:41:41Z</time>
      </trkpt>
      <trkpt lat="47.16869" lon="-1.62873">
        <ele>24.4</ele>
        <time>2016-12-24T10:41:45Z</time>
      </trkpt>
      <trkpt lat="47.16883" lon="-1.62894">
        <ele>23.35</ele>
        <time>2016-12-24T10:41:48Z</time>
      </trkpt>
      <trkpt lat="47.16893" lon="-1.62925">
        <ele>21.84</ele>
        <time>2016-12-24T10:41:52Z</time>
      </trkpt>
      <trkpt lat="47.16896" lon="-1.62962">
        <ele>22.79</ele>
        <time>2016-12-24T10:41:56Z</time>
      </trkpt>
      <trkpt lat="47.16895" lon="-1.6299">
        <ele>23.06</ele>
        <time>2016-12-24T10:41:59Z</time>
      </trkpt>
      <trkpt lat="47.16891" lon="-1.6302">
        <ele>21.18</ele>
        <time>2016-12-24T10:42:02Z</time>
      </trkpt>
      <trkpt lat="47.16888" lon="-1.63051">
        <ele>20.84</ele>
        <time>2016-12-24T10:42:06Z</time>
      </trkpt>
      <trkpt lat="47.16889" lon="-1.63078">
        <ele>21.02</ele>
        <time>2016-12-24T10:42:09Z</time>
      </trkpt>
      <trkpt lat="47.16893" lon="-1.63112">
        <ele>23.98</ele>
        <time>2016-12-24T10:42:13Z</time>
      </trkpt>
      <trkpt lat="47.16902" lon="-1.63144">
        <ele>24.78</ele>
        <time>2016-12-24T10:42:17Z</time>
      </trkpt>
      <trkpt lat="47.16913" lon="-1.63173">
        <ele>24.44</ele>
        <time>2016-12-24T10:42:21Z</time>
      </trkpt>
      <trkpt lat="47.16925" lon="-1.63194">
        <ele>25.59</ele>
        <time>2016-12-24T10:42:24Z</time>
      </trkpt>
      <trkpt lat="47.1694" lon="-1.63219">
        <ele>25.39</ele>
        <time>2016-12-24T10:42:28Z</time>
      </trkpt>
      <trkpt lat="47.16957" lon="-1.63242">
        <ele>25.17</ele>
        <time>2016-12-24T10:42:32Z</time>
      </trkpt>
      <trkpt lat="47.1696" lon="-1.6327">
        <ele>26.6</ele>
        <time>2016-12-24T10:42:46Z</time>
      </trkpt>
      <trkpt lat="47.16948" lon="-1.63292">
        <ele>27.47</ele>
        <time>2016-12-24T10:42:49Z</time>
      </trkpt>
      <trkpt lat="47.16933" lon="-1.63314">
        <ele>28.29</ele>
        <time>2016-12-24T10:42:52Z</time>
      </trkpt>
      <trkpt lat="47.16917" lon="-1.63337">
        <ele>29.24</ele>
        <time>2016-12-24T10:42:56Z</time>
      </trkpt>
      <trkpt lat="47.16904" lon="-1.63356">
        <ele>29.4</ele>
        <time>2016-12-24T10:42:59Z</time>
      </trkpt>
      <trkpt lat="47.1689" lon="-1.63377">
        <ele>29.58</ele>
        <time>2016-12-24T10:43:02Z</time>
      </trkpt>
      <trkpt lat="47.16875" lon="-1.63403">
        <ele>31.48</ele>
        <time>2016-12-24T10:43:06Z</time>
      </trkpt>
      <trkpt lat="47.16862" lon="-1.63426">
        <ele>32.68</ele>
        <time>2016-12-24T10:43:09Z</time>
      </trkpt>
      <trkpt lat="47.16847" lon="-1.63452">
        <ele>30.6</ele>
        <time>2016-12-24T10:43:13Z</time>
      </trkpt>
      <trkpt lat="47.16831" lon="-1.63477">
        <ele>29.32</ele>
        <time>2016-12-24T10:43:17Z</time>
      </trkpt>
      <trkpt lat="47.16818" lon="-1.63498">
        <ele>29.27</ele>
        <time>2016-12-24T10:43:20Z</time>
      </trkpt>
      <trkpt lat="47.16805" lon="-1.6352">
        <ele>28.86</ele>
        <time>2016-12-24T10:43:23Z</time>
      </trkpt>
      <trkpt lat="47.16793" lon="-1.63541">
        <ele>26.78</ele>
        <time>2016-12-24T10:43:26Z</time>
      </trkpt>
      <trkpt lat="47.16779" lon="-1.63567">
        <ele>26.34</ele>
        <time>2016-12-24T10:43:30Z</time>
      </trkpt>
      <trkpt lat="47.16766" lon="-1.63589">
        <ele>26.24</ele>
        <time>2016-12-24T10:43:33Z</time>
      </trkpt>
      <trkpt lat="47.16754" lon="-1.63611">
        <ele>25.05</ele>
        <time>2016-12-24T10:43:36Z</time>
      </trkpt>
      <trkpt lat="47.16738" lon="-1.63637">
        <ele>26.44</ele>
        <time>2016-12-24T10:43:40Z</time>
      </trkpt>
      <trkpt lat="47.16727" lon="-1.63663">
        <ele>25.58</ele>
        <time>2016-12-24T10:43:43Z</time>
      </trkpt>
      <trkpt lat="47.16718" lon="-1.6369">
        <ele>23.16</ele>
        <time>2016-12-24T10:43:46Z</time>
      </trkpt>
      <trkpt lat="47.1671" lon="-1.63714">
        <ele>22.72</ele>
        <time>2016-12-24T10:43:49Z</time>
      </trkpt>
      <trkpt lat="47.16702" lon="-1.63739">
        <ele>23.98</ele>
        <time>2016-12-24T10:43:52Z</time>
      </trkpt>
      <trkpt lat="47.16694" lon="-1.63771">
        <ele>24.72</ele>
        <time>2016-12-24T10:43:56Z</time>
      </trkpt>
      <trkpt lat="47.16689" lon="-1.63797">
        <ele>25.65</ele>
        <time>2016-12-24T10:43:59Z</time>
      </trkpt>
      <trkpt lat="47.16686" lon="-1.63826">
        <ele>25.49</ele>
        <time>2016-12-24T10:44:02Z</time>
      </trkpt>
      <trkpt lat="47.16682" lon="-1.63853">
        <ele>25.07</ele>
        <time>2016-12-24T10:44:05Z</time>
      </trkpt>
      <trkpt lat="47.16677" lon="-1.63878">
        <ele>25.38</ele>
        <time>2016-12-24T10:44:08Z</time>
      </trkpt>
      <trkpt lat="47.1667" lon="-1.63912">
        <ele>28.32</ele>
        <time>2016-12-24T10:44:12Z</time>
      </trkpt>
      <trkpt lat="47.16665" lon="-1.63938">
        <ele>28.97</ele>
        <time>2016-12-24T10:44:15Z</time>
      </trkpt>
      <trkpt lat="47.16656" lon="-1.63967">
        <ele>28.01</ele>
        <time>2016-12-24T10:44:19Z</time>
      </trkpt>
      <trkpt lat="47.16648" lon="-1.63993">
        <ele>29.43</ele>
        <time>2016-12-24T10:44:22Z</time>
      </trkpt>
      <trkpt lat="47.16637" lon="-1.64021">
        <ele>30.87</ele>
        <time>2016-12-24T10:44:26Z</time>
      </trkpt>
      <trkpt lat="47.16624" lon="-1.6405">
        <ele>29.58</ele>
        <time>2016-12-24T10:44:30Z</time>
      </trkpt>
      <trkpt lat="47.1661" lon="-1.64076">
        <ele>31.77</ele>
        <time>2016-12-24T10:44:34Z</time>
      </trkpt>
      <trkpt lat="47.16596" lon="-1.64104">
        <ele>32.72</ele>
        <time>2016-12-24T10:44:38Z</time>
      </trkpt>
      <trkpt lat="47.16586" lon="-1.64127">
        <ele>32.46</ele>
        <time>2016-12-24T10:44:41Z</time>
      </trkpt>
      <trkpt lat="47.16574" lon="-1.6415">
        <ele>32.35</ele>
        <time>2016-12-24T10:44:44Z</time>
      </trkpt>
      <trkpt lat="47.16561" lon="-1.64173">
        <ele>31.85</ele>
        <time>2016-12-24T10:44:47Z</time>
      </trkpt>
      <trkpt lat="47.16548" lon="-1.64196">
        <ele>32.11</ele>
        <time>2016-12-24T10:44:50Z</time>
      </trkpt>
      <trkpt lat="47.16533" lon="-1.64221">
        <ele>30.75</ele>
        <time>2016-12-24T10:44:53Z</time>
      </trkpt>
      <trkpt lat="47.16519" lon="-1.64241">
        <ele>27.65</ele>
        <time>2016-12-24T10:44:56Z</time>
      </trkpt>
      <trkpt lat="47.16502" lon="-1.64261">
        <ele>26.31</ele>
        <time>2016-12-24T10:44:59Z</time>
      </trkpt>
      <trkpt lat="47.16484" lon="-1.64281">
        <ele>26.7</ele>
        <time>2016-12-24T10:45:02Z</time>
      </trkpt>
      <trkpt lat="47.16469" lon="-1.643">
        <ele>26.89</ele>
        <time>2016-12-24T10:45:05Z</time>
      </trkpt>
      <trkpt lat="47.16454" lon="-1.64321">
        <ele>25.96</ele>
        <time>2016-12-24T10:45:08Z</time>
      </trkpt>
      <trkpt lat="47.1644" lon="-1.64338">
        <ele>25.92</ele>
        <time>2016-12-24T10:45:11Z</time>
      </trkpt>
      <trkpt lat="47.16424" lon="-1.64358">
        <ele>27.74</ele>
        <time>2016-12-24T10:45:14Z</time>
      </trkpt>
      <trkpt lat="47.16408" lon="-1.6438">
        <ele>27.75</ele>
        <time>2016-12-24T10:45:17Z</time>
      </trkpt>
      <trkpt lat="47.16395" lon="-1.64403">
        <ele>27.65</ele>
        <time>2016-12-24T10:45:20Z</time>
      </trkpt>
      <trkpt lat="47.16382" lon="-1.6443">
        <ele>26.01</ele>
        <time>2016-12-24T10:45:23Z</time>
      </trkpt>
      <trkpt lat="47.1637" lon="-1.64456">
        <ele>22.67</ele>
        <time>2016-12-24T10:45:26Z</time>
      </trkpt>
      <trkpt lat="47.16358" lon="-1.64482">
        <ele>21.28</ele>
        <time>2016-12-24T10:45:29Z</time>
      </trkpt>
      <trkpt lat="47.16346" lon="-1.64508">
        <ele>19.49</ele>
        <time>2016-12-24T10:45:32Z</time>
      </trkpt>
      <trkpt lat="47.16333" lon="-1.64532">
        <ele>18.46</ele>
        <time>2016-12-24T10:45:35Z</time>
      </trkpt>
      <trkpt lat="47.1632" lon="-1.64559">
        <ele>18.47</ele>
        <time>2016-12-24T10:45:38Z</time>
      </trkpt>
      <trkpt lat="47.16307" lon="-1.64584">
        <ele>18.84</ele>
        <time>2016-12-24T10:45:41Z</time>
      </trkpt>
      <trkpt lat="47.16294" lon="-1.6461">
        <ele>19.83</ele>
        <time>2016-12-24T10:45:44Z</time>
      </trkpt>
      <trkpt lat="47.16281" lon="-1.64633">
        <ele>20.91</ele>
        <time>2016-12-24T10:45:47Z</time>
      </trkpt>
      <trkpt lat="47.16269" lon="-1.64657">
        <ele>22.04</ele>
        <time>2016-12-24T10:45:50Z</time>
      </trkpt>
      <trkpt lat="47.16257" lon="-1.64681">
        <ele>22.9</ele>
        <time>2016-12-24T10:45:53Z</time>
      </trkpt>
      <trkpt lat="47.16245" lon="-1.64705">
        <ele>21.83</ele>
        <time>2016-12-24T10:45:56Z</time>
      </trkpt>
      <trkpt lat="47.16232" lon="-1.6473">
        <ele>21.72</ele>
        <time>2016-12-24T10:45:59Z</time>
      </trkpt>
      <trkpt lat="47.16221" lon="-1.64753">
        <ele>24.39</ele>
        <time>2016-12-24T10:46:02Z</time>
      </trkpt>
      <trkpt lat="47.16209" lon="-1.64777">
        <ele>24.49</ele>
        <time>2016-12-24T10:46:05Z</time>
      </trkpt>
      <trkpt lat="47.16198" lon="-1.64799">
        <ele>24.45</ele>
        <time>2016-12-24T10:46:08Z</time>
      </trkpt>
      <trkpt lat="47.16186" lon="-1.64821">
        <ele>23.85</ele>
        <time>2016-12-24T10:46:11Z</time>
      </trkpt>
      <trkpt lat="47.16174" lon="-1.64844">
        <ele>23.4</ele>
        <time>2016-12-24T10:46:14Z</time>
      </trkpt>
      <trkpt lat="47.16163" lon="-1.64869">
        <ele>24.89</ele>
        <time>2016-12-24T10:46:17Z</time>
      </trkpt>
      <trkpt lat="47.1615" lon="-1.64893">
        <ele>24.98</ele>
        <time>2016-12-24T10:46:20Z</time>
      </trkpt>
      <trkpt lat="47.16139" lon="-1.64915">
        <ele>25.11</ele>
        <time>2016-12-24T10:46:23Z</time>
      </trkpt>
      <trkpt lat="47.16125" lon="-1.64941">
        <ele>24.74</ele>
        <time>2016-12-24T10:46:26Z</time>
      </trkpt>
      <trkpt lat="47.16112" lon="-1.64964">
        <ele>23.87</ele>
        <time>2016-12-24T10:46:29Z</time>
      </trkpt>
      <trkpt lat="47.16099" lon="-1.64986">
        <ele>21.98</ele>
        <time>2016-12-24T10:46:32Z</time>
      </trkpt>
      <trkpt lat="47.16087" lon="-1.65009">
        <ele>21.68</ele>
        <time>2016-12-24T10:46:35Z</time>
      </trkpt>
      <trkpt lat="47.16076" lon="-1.65033">
        <ele>22.73</ele>
        <time>2016-12-24T10:46:38Z</time>
      </trkpt>
      <trkpt lat="47.16064" lon="-1.65057">
        <ele>23.02</ele>
        <time>2016-12-24T10:46:41Z</time>
      </trkpt>
      <trkpt lat="47.16053" lon="-1.6508">
        <ele>23.91</ele>
        <time>2016-12-24T10:46:44Z</time>
      </trkpt>
      <trkpt lat="47.1604" lon="-1.65104">
        <ele>25.76</ele>
        <time>2016-12-24T10:46:47Z</time>
      </trkpt>
      <trkpt lat="47.16029" lon="-1.65124">
        <ele>25.03</ele>
        <time>2016-12-24T10:46:50Z</time>
      </trkpt>
      <trkpt lat="47.16015" lon="-1.65148">
        <ele>24.59</ele>
        <time>2016-12-24T10:46:53Z</time>
      </trkpt>
      <trkpt lat="47.16003" lon="-1.65173">
        <ele>23.79</ele>
        <time>2016-12-24T10:46:56Z</time>
      </trkpt>
      <trkpt lat="47.15992" lon="-1.65196">
        <ele>22.38</ele>
        <time>2016-12-24T10:46:59Z</time>
      </trkpt>
      <trkpt lat="47.1598" lon="-1.6522">
        <ele>21.97</ele>
        <time>2016-12-24T10:47:02Z</time>
      </trkpt>
      <trkpt lat="47.1597" lon="-1.65243">
        <ele>21.49</ele>
        <time>2016-12-24T10:47:05Z</time>
      </trkpt>
      <trkpt lat="47.15959" lon="-1.65267">
        <ele>21.84</ele>
        <time>2016-12-24T10:47:08Z</time>
      </trkpt>
      <trkpt lat="47.15948" lon="-1.65291">
        <ele>23.74</ele>
        <time>2016-12-24T10:47:11Z</time>
      </trkpt>
      <trkpt lat="47.15938" lon="-1.65313">
        <ele>25.67</ele>
        <time>2016-12-24T10:47:14Z</time>
      </trkpt>
      <trkpt lat="47.15927" lon="-1.65337">
        <ele>25.87</ele>
        <time>2016-12-24T10:47:17Z</time>
      </trkpt>
      <trkpt lat="47.15916" lon="-1.65362">
        <ele>24.09</ele>
        <time>2016-12-24T10:47:20Z</time>
      </trkpt>
      <trkpt lat="47.15906" lon="-1.65384">
        <ele>25.26</ele>
        <time>2016-12-24T10:47:23Z</time>
      </trkpt>
      <trkpt lat="47.15896" lon="-1.65406">
        <ele>26.2</ele>
        <time>2016-12-24T10:47:26Z</time>
      </trkpt>
      <trkpt lat="47.15884" lon="-1.65433">
        <ele>26.31</ele>
        <time>2016-12-24T10:47:29Z</time>
      </trkpt>
      <trkpt lat="47.15871" lon="-1.65463">
        <ele>25.6</ele>
        <time>2016-12-24T10:47:33Z</time>
      </trkpt>
      <trkpt lat="47.1586" lon="-1.65486">
        <ele>26.86</ele>
        <time>2016-12-24T10:47:36Z</time>
      </trkpt>
      <trkpt lat="47.15849" lon="-1.65511">
        <ele>27.32</ele>
        <time>2016-12-24T10:47:39Z</time>
      </trkpt>
      <trkpt lat="47.15836" lon="-1.65542">
        <ele>26.75</ele>
        <time>2016-12-24T10:47:43Z</time>
      </trkpt>
      <trkpt lat="47.15826" lon="-1.65565">
        <ele>25.51</ele>
        <time>2016-12-24T10:47:46Z</time>
      </trkpt>
      <trkpt lat="47.15816" lon="-1.65587">
        <ele>25.6</ele>
        <time>2016-12-24T10:47:49Z</time>
      </trkpt>
      <trkpt lat="47.15804" lon="-1.6561">
        <ele>25.99</ele>
        <time>2016-12-24T10:47:52Z</time>
      </trkpt>
      <trkpt lat="47.15794" lon="-1.65633">
        <ele>25.7</ele>
        <time>2016-12-24T10:47:55Z</time>
      </trkpt>
      <trkpt lat="47.15783" lon="-1.65657">
        <ele>25.42</ele>
        <time>2016-12-24T10:47:58Z</time>
      </trkpt>
      <trkpt lat="47.15769" lon="-1.65686">
        <ele>25.36</ele>
        <time>2016-12-24T10:48:02Z</time>
      </trkpt>
      <trkpt lat="47.15756" lon="-1.65707">
        <ele>25.38</ele>
        <time>2016-12-24T10:48:05Z</time>
      </trkpt>
      <trkpt lat="47.15737" lon="-1.65726">
        <ele>26.62</ele>
        <time>2016-12-24T10:48:09Z</time>
      </trkpt>
      <trkpt lat="47.15722" lon="-1.65743">
        <ele>27.41</ele>
        <time>2016-12-24T10:48:12Z</time>
      </trkpt>
      <trkpt lat="47.15706" lon="-1.6576">
        <ele>26.19</ele>
        <time>2016-12-24T10:48:15Z</time>
      </trkpt>
      <trkpt lat="47.15689" lon="-1.65781">
        <ele>25.26</ele>
        <time>2016-12-24T10:48:18Z</time>
      </trkpt>
      <trkpt lat="47.15669" lon="-1.65801">
        <ele>24.74</ele>
        <time>2016-12-24T10:48:22Z</time>
      </trkpt>
      <trkpt lat="47.15654" lon="-1.65819">
        <ele>24.62</ele>
        <time>2016-12-24T10:48:25Z</time>
      </trkpt>
      <trkpt lat="47.15635" lon="-1.65842">
        <ele>25.26</ele>
        <time>2016-12-24T10:48:29Z</time>
      </trkpt>
      <trkpt lat="47.15619" lon="-1.65859">
        <ele>26.52</ele>
        <time>2016-12-24T10:48:32Z</time>
      </trkpt>
      <trkpt lat="47.15605" lon="-1.65877">
        <ele>27.95</ele>
        <time>2016-12-24T10:48:35Z</time>
      </trkpt>
      <trkpt lat="47.15587" lon="-1.65897">
        <ele>28.78</ele>
        <time>2016-12-24T10:48:38Z</time>
      </trkpt>
      <trkpt lat="47.15571" lon="-1.65913">
        <ele>28.96</ele>
        <time>2016-12-24T10:48:41Z</time>
      </trkpt>
      <trkpt lat="47.15556" lon="-1.6593">
        <ele>29.29</ele>
        <time>2016-12-24T10:48:44Z</time>
      </trkpt>
      <trkpt lat="47.1554" lon="-1.65947">
        <ele>29.32</ele>
        <time>2016-12-24T10:48:47Z</time>
      </trkpt>
      <trkpt lat="47.15522" lon="-1.6597">
        <ele>27.14</ele>
        <time>2016-12-24T10:48:51Z</time>
      </trkpt>
      <trkpt lat="47.15506" lon="-1.65987">
        <ele>27.28</ele>
        <time>2016-12-24T10:48:54Z</time>
      </trkpt>
      <trkpt lat="47.15492" lon="-1.66005">
        <ele>25.51</ele>
        <time>2016-12-24T10:48:57Z</time>
      </trkpt>
      <trkpt lat="47.15476" lon="-1.66022">
        <ele>23.66</ele>
        <time>2016-12-24T10:49:00Z</time>
      </trkpt>
      <trkpt lat="47.15461" lon="-1.66041">
        <ele>22.92</ele>
        <time>2016-12-24T10:49:03Z</time>
      </trkpt>
      <trkpt lat="47.15447" lon="-1.66059">
        <ele>24.39</ele>
        <time>2016-12-24T10:49:06Z</time>
      </trkpt>
      <trkpt lat="47.15432" lon="-1.66075">
        <ele>26.11</ele>
        <time>2016-12-24T10:49:09Z</time>
      </trkpt>
      <trkpt lat="47.15417" lon="-1.66093">
        <ele>25.88</ele>
        <time>2016-12-24T10:49:12Z</time>
      </trkpt>
      <trkpt lat="47.15402" lon="-1.66111">
        <ele>25.63</ele>
        <time>2016-12-24T10:49:15Z</time>
      </trkpt>
      <trkpt lat="47.15386" lon="-1.66129">
        <ele>23.54</ele>
        <time>2016-12-24T10:49:18Z</time>
      </trkpt>
      <trkpt lat="47.15372" lon="-1.66147">
        <ele>23.83</ele>
        <time>2016-12-24T10:49:21Z</time>
      </trkpt>
      <trkpt lat="47.15357" lon="-1.66166">
        <ele>23.66</ele>
        <time>2016-12-24T10:49:24Z</time>
      </trkpt>
      <trkpt lat="47.15342" lon="-1.66183">
        <ele>23.39</ele>
        <time>2016-12-24T10:49:27Z</time>
      </trkpt>
      <trkpt lat="47.15329" lon="-1.66201">
        <ele>23.81</ele>
        <time>2016-12-24T10:49:30Z</time>
      </trkpt>
      <trkpt lat="47.15314" lon="-1.66225">
        <ele>24.4</ele>
        <time>2016-12-24T10:49:34Z</time>
      </trkpt>
      <trkpt lat="47.15306" lon="-1.6625">
        <ele>24.88</ele>
        <time>2016-12-24T10:49:55Z</time>
      </trkpt>
      <trkpt lat="47.15291" lon="-1.66275">
        <ele>24.99</ele>
        <time>2016-12-24T10:50:01Z</time>
      </trkpt>
      <trkpt lat="47.15278" lon="-1.66302">
        <ele>25.35</ele>
        <time>2016-12-24T10:50:05Z</time>
      </trkpt>
      <trkpt lat="47.15268" lon="-1.66326">
        <ele>25.69</ele>
        <time>2016-12-24T10:50:08Z</time>
      </trkpt>
      <trkpt lat="47.15256" lon="-1.66352">
        <ele>24.38</ele>
        <time>2016-12-24T10:50:11Z</time>
      </trkpt>
      <trkpt lat="47.15245" lon="-1.66376">
        <ele>25.9</ele>
        <time>2016-12-24T10:50:14Z</time>
      </trkpt>
      <trkpt lat="47.15232" lon="-1.66402">
        <ele>26.47</ele>
        <time>2016-12-24T10:50:17Z</time>
      </trkpt>
      <trkpt lat="47.15219" lon="-1.66425">
        <ele>27.76</ele>
        <time>2016-12-24T10:50:20Z</time>
      </trkpt>
      <trkpt lat="47.15204" lon="-1.6645">
        <ele>27.56</ele>
        <time>2016-12-24T10:50:23Z</time>
      </trkpt>
      <trkpt lat="47.15191" lon="-1.66474">
        <ele>27.2</ele>
        <time>2016-12-24T10:50:26Z</time>
      </trkpt>
      <trkpt lat="47.1518" lon="-1.66498">
        <ele>28.15</ele>
        <time>2016-12-24T10:50:29Z</time>
      </trkpt>
      <trkpt lat="47.15168" lon="-1.66523">
        <ele>28.41</ele>
        <time>2016-12-24T10:50:32Z</time>
      </trkpt>
      <trkpt lat="47.15154" lon="-1.66544">
        <ele>27.97</ele>
        <time>2016-12-24T10:50:36Z</time>
      </trkpt>
      <trkpt lat="47.15133" lon="-1.66542">
        <ele>26.75</ele>
        <time>2016-12-24T10:50:39Z</time>
      </trkpt>
      <trkpt lat="47.15113" lon="-1.66548">
        <ele>27.09</ele>
        <time>2016-12-24T10:50:42Z</time>
      </trkpt>
      <trkpt lat="47.15095" lon="-1.66555">
        <ele>26.5</ele>
        <time>2016-12-24T10:50:45Z</time>
      </trkpt>
      <trkpt lat="47.15076" lon="-1.66563">
        <ele>25.76</ele>
        <time>2016-12-24T10:50:48Z</time>
      </trkpt>
      <trkpt lat="47.15055" lon="-1.66573">
        <ele>23.89</ele>
        <time>2016-12-24T10:50:51Z</time>
      </trkpt>
      <trkpt lat="47.15035" lon="-1.66584">
        <ele>23.8</ele>
        <time>2016-12-24T10:50:54Z</time>
      </trkpt>
      <trkpt lat="47.15016" lon="-1.66595">
        <ele>24.69</ele>
        <time>2016-12-24T10:50:57Z</time>
      </trkpt>
      <trkpt lat="47.14996" lon="-1.66605">
        <ele>23.78</ele>
        <time>2016-12-24T10:51:00Z</time>
      </trkpt>
      <trkpt lat="47.14977" lon="-1.66615">
        <ele>24.2</ele>
        <time>2016-12-24T10:51:03Z</time>
      </trkpt>
      <trkpt lat="47.14959" lon="-1.6663">
        <ele>22.49</ele>
        <time>2016-12-24T10:51:06Z</time>
      </trkpt>
      <trkpt lat="47.14942" lon="-1.66648">
        <ele>22.39</ele>
        <time>2016-12-24T10:51:09Z</time>
      </trkpt>
      <trkpt lat="47.14928" lon="-1.66669">
        <ele>22.34</ele>
        <time>2016-12-24T10:51:12Z</time>
      </trkpt>
      <trkpt lat="47.14914" lon="-1.66689">
        <ele>22.13</ele>
        <time>2016-12-24T10:51:15Z</time>
      </trkpt>
      <trkpt lat="47.14898" lon="-1.66709">
        <ele>20.65</ele>
        <time>2016-12-24T10:51:18Z</time>
      </trkpt>
      <trkpt lat="47.14882" lon="-1.6673">
        <ele>20.77</ele>
        <time>2016-12-24T10:51:21Z</time>
      </trkpt>
      <trkpt lat="47.14866" lon="-1.6675">
        <ele>21.86</ele>
        <time>2016-12-24T10:51:24Z</time>
      </trkpt>
      <trkpt lat="47.1485" lon="-1.66768">
        <ele>21.18</ele>
        <time>2016-12-24T10:51:27Z</time>
      </trkpt>
      <trkpt lat="47.14834" lon="-1.66787">
        <ele>19.72</ele>
        <time>2016-12-24T10:51:30Z</time>
      </trkpt>
      <trkpt lat="47.14817" lon="-1.66804">
        <ele>20.29</ele>
        <time>2016-12-24T10:51:33Z</time>
      </trkpt>
      <trkpt lat="47.148" lon="-1.6682">
        <ele>20.86</ele>
        <time>2016-12-24T10:51:36Z</time>
      </trkpt>
      <trkpt lat="47.14781" lon="-1.66834">
        <ele>20.47</ele>
        <time>2016-12-24T10:51:40Z</time>
      </trkpt>
      <trkpt lat="47.14762" lon="-1.66846">
        <ele>20.78</ele>
        <time>2016-12-24T10:51:43Z</time>
      </trkpt>
      <trkpt lat="47.14744" lon="-1.66857">
        <ele>22.03</ele>
        <time>2016-12-24T10:51:46Z</time>
      </trkpt>
      <trkpt lat="47.14723" lon="-1.66866">
        <ele>23.2</ele>
        <time>2016-12-24T10:51:49Z</time>
      </trkpt>
      <trkpt lat="47.14702" lon="-1.66873">
        <ele>23.75</ele>
        <time>2016-12-24T10:51:52Z</time>
      </trkpt>
      <trkpt lat="47.14682" lon="-1.6688">
        <ele>22.16</ele>
        <time>2016-12-24T10:51:55Z</time>
      </trkpt>
      <trkpt lat="47.1466" lon="-1.66887">
        <ele>21.79</ele>
        <time>2016-12-24T10:51:58Z</time>
      </trkpt>
      <trkpt lat="47.1464" lon="-1.66892">
        <ele>20.95</ele>
        <time>2016-12-24T10:52:01Z</time>
      </trkpt>
      <trkpt lat="47.14618" lon="-1.669">
        <ele>18.14</ele>
        <time>2016-12-24T10:52:04Z</time>
      </trkpt>
      <trkpt lat="47.14599" lon="-1.66907">
        <ele>17.38</ele>
        <time>2016-12-24T10:52:07Z</time>
      </trkpt>
      <trkpt lat="47.14577" lon="-1.66914">
        <ele>17.91</ele>
        <time>2016-12-24T10:52:10Z</time>
      </trkpt>
      <trkpt lat="47.14557" lon="-1.66924">
        <ele>17.09</ele>
        <time>2016-12-24T10:52:13Z</time>
      </trkpt>
      <trkpt lat="47.14536" lon="-1.66936">
        <ele>16.07</ele>
        <time>2016-12-24T10:52:16Z</time>
      </trkpt>
      <trkpt lat="47.14516" lon="-1.66953">
        <ele>15.4</ele>
        <time>2016-12-24T10:52:19Z</time>
      </trkpt>
      <trkpt lat="47.14501" lon="-1.66979">
        <ele>15.08</ele>
        <time>2016-12-24T10:52:22Z</time>
      </trkpt>
      <trkpt lat="47.14488" lon="-1.67009">
        <ele>15.35</ele>
        <time>2016-12-24T10:52:25Z</time>
      </trkpt>
      <trkpt lat="47.14478" lon="-1.67033">
        <ele>15.13</ele>
        <time>2016-12-24T10:52:28Z</time>
      </trkpt>
      <trkpt lat="47.14464" lon="-1.67055">
        <ele>15.22</ele>
        <time>2016-12-24T10:52:31Z</time>
      </trkpt>
      <trkpt lat="47.14447" lon="-1.6707">
        <ele>14.67</ele>
        <time>2016-12-24T10:52:34Z</time>
      </trkpt>
      <trkpt lat="47.14428" lon="-1.67085">
        <ele>14.78</ele>
        <time>2016-12-24T10:52:37Z</time>
      </trkpt>
      <trkpt lat="47.14408" lon="-1.671">
        <ele>15.8</ele>
        <time>2016-12-24T10:52:40Z</time>
      </trkpt>
      <trkpt lat="47.1439" lon="-1.67113">
        <ele>15.47</ele>
        <time>2016-12-24T10:52:43Z</time>
      </trkpt>
      <trkpt lat="47.1437" lon="-1.67128">
        <ele>15.2</ele>
        <time>2016-12-24T10:52:46Z</time>
      </trkpt>
      <trkpt lat="47.14351" lon="-1.67141">
        <ele>14.59</ele>
        <time>2016-12-24T10:52:49Z</time>
      </trkpt>
      <trkpt lat="47.14333" lon="-1.67154">
        <ele>13.93</ele>
        <time>2016-12-24T10:52:52Z</time>
      </trkpt>
      <trkpt lat="47.14313" lon="-1.67167">
        <ele>14.15</ele>
        <time>2016-12-24T10:52:55Z</time>
      </trkpt>
      <trkpt lat="47.14292" lon="-1.6718">
        <ele>15.13</ele>
        <time>2016-12-24T10:52:58Z</time>
      </trkpt>
      <trkpt lat="47.14272" lon="-1.67193">
        <ele>15.4</ele>
        <time>2016-12-24T10:53:01Z</time>
      </trkpt>
      <trkpt lat="47.14251" lon="-1.6721">
        <ele>15.24</ele>
        <time>2016-12-24T10:53:04Z</time>
      </trkpt>
      <trkpt lat="47.14234" lon="-1.6722">
        <ele>13.21</ele>
        <time>2016-12-24T10:53:06Z</time>
      </trkpt>
      <trkpt lat="47.14217" lon="-1.67231">
        <ele>11.62</ele>
        <time>2016-12-24T10:53:08Z</time>
      </trkpt>
      <trkpt lat="47.14196" lon="-1.67244">
        <ele>10.21</ele>
        <time>2016-12-24T10:53:11Z</time>
      </trkpt>
      <trkpt lat="47.14172" lon="-1.6725">
        <ele>10.09</ele>
        <time>2016-12-24T10:53:14Z</time>
      </trkpt>
      <trkpt lat="47.14147" lon="-1.67251">
        <ele>10.18</ele>
        <time>2016-12-24T10:53:17Z</time>
      </trkpt>
      <trkpt lat="47.14122" lon="-1.67256">
        <ele>9.72</ele>
        <time>2016-12-24T10:53:20Z</time>
      </trkpt>
      <trkpt lat="47.14097" lon="-1.6726">
        <ele>10.43</ele>
        <time>2016-12-24T10:53:23Z</time>
      </trkpt>
      <trkpt lat="47.14076" lon="-1.67265">
        <ele>10.72</ele>
        <time>2016-12-24T10:53:26Z</time>
      </trkpt>
      <trkpt lat="47.14053" lon="-1.67269">
        <ele>10.38</ele>
        <time>2016-12-24T10:53:29Z</time>
      </trkpt>
      <trkpt lat="47.14029" lon="-1.67272">
        <ele>9.94</ele>
        <time>2016-12-24T10:53:32Z</time>
      </trkpt>
      <trkpt lat="47.14004" lon="-1.67275">
        <ele>9.97</ele>
        <time>2016-12-24T10:53:35Z</time>
      </trkpt>
      <trkpt lat="47.13981" lon="-1.67279">
        <ele>9.91</ele>
        <time>2016-12-24T10:53:38Z</time>
      </trkpt>
      <trkpt lat="47.13959" lon="-1.67281">
        <ele>9.4</ele>
        <time>2016-12-24T10:53:41Z</time>
      </trkpt>
      <trkpt lat="47.13936" lon="-1.67284">
        <ele>9.11</ele>
        <time>2016-12-24T10:53:44Z</time>
      </trkpt>
      <trkpt lat="47.13913" lon="-1.67288">
        <ele>7.63</ele>
        <time>2016-12-24T10:53:47Z</time>
      </trkpt>
      <trkpt lat="47.13891" lon="-1.67294">
        <ele>6.75</ele>
        <time>2016-12-24T10:53:50Z</time>
      </trkpt>
      <trkpt lat="47.13866" lon="-1.673">
        <ele>6.32</ele>
        <time>2016-12-24T10:53:53Z</time>
      </trkpt>
      <trkpt lat="47.13842" lon="-1.67308">
        <ele>5.49</ele>
        <time>2016-12-24T10:53:56Z</time>
      </trkpt>
      <trkpt lat="47.1382" lon="-1.67314">
        <ele>5.23</ele>
        <time>2016-12-24T10:53:59Z</time>
      </trkpt>
      <trkpt lat="47.13799" lon="-1.67323">
        <ele>5.57</ele>
        <time>2016-12-24T10:54:02Z</time>
      </trkpt>
      <trkpt lat="47.13792" lon="-1.67349">
        <ele>4.32</ele>
        <time>2016-12-24T10:54:05Z</time>
      </trkpt>
      <trkpt lat="47.13787" lon="-1.67383">
        <ele>3.46</ele>
        <time>2016-12-24T10:54:08Z</time>
      </trkpt>
      <trkpt lat="47.13782" lon="-1.67417">
        <ele>3.21</ele>
        <time>2016-12-24T10:54:11Z</time>
      </trkpt>
      <trkpt lat="47.13778" lon="-1.6745">
        <ele>3.08</ele>
        <time>2016-12-24T10:54:14Z</time>
      </trkpt>
      <trkpt lat="47.13776" lon="-1.67483">
        <ele>4.48</ele>
        <time>2016-12-24T10:54:17Z</time>
      </trkpt>
      <trkpt lat="47.13776" lon="-1.67514">
        <ele>5.13</ele>
        <time>2016-12-24T10:54:20Z</time>
      </trkpt>
      <trkpt lat="47.13778" lon="-1.67546">
        <ele>4.78</ele>
        <time>2016-12-24T10:54:23Z</time>
      </trkpt>
      <trkpt lat="47.1378" lon="-1.67576">
        <ele>4.94</ele>
        <time>2016-12-24T10:54:26Z</time>
      </trkpt>
      <trkpt lat="47.13783" lon="-1.67608">
        <ele>5.46</ele>
        <time>2016-12-24T10:54:29Z</time>
      </trkpt>
      <trkpt lat="47.13785" lon="-1.67639">
        <ele>5.79</ele>
        <time>2016-12-24T10:54:32Z</time>
      </trkpt>
      <trkpt lat="47.13788" lon="-1.67668">
        <ele>5.5</ele>
        <time>2016-12-24T10:54:35Z</time>
      </trkpt>
      <trkpt lat="47.1379" lon="-1.67697">
        <ele>5.79</ele>
        <time>2016-12-24T10:54:38Z</time>
      </trkpt>
      <trkpt lat="47.13793" lon="-1.67729">
        <ele>6.74</ele>
        <time>2016-12-24T10:54:41Z</time>
      </trkpt>
      <trkpt lat="47.13795" lon="-1.67765">
        <ele>6.51</ele>
        <time>2016-12-24T10:54:45Z</time>
      </trkpt>
      <trkpt lat="47.13797" lon="-1.67796">
        <ele>5.16</ele>
        <time>2016-12-24T10:54:48Z</time>
      </trkpt>
      <trkpt lat="47.13798" lon="-1.67824">
        <ele>5.08</ele>
        <time>2016-12-24T10:54:51Z</time>
      </trkpt>
      <trkpt lat="47.13801" lon="-1.67854">
        <ele>4.25</ele>
        <time>2016-12-24T10:54:54Z</time>
      </trkpt>
      <trkpt lat="47.13803" lon="-1.67886">
        <ele>4.4</ele>
        <time>2016-12-24T10:54:57Z</time>
      </trkpt>
      <trkpt lat="47.13805" lon="-1.67916">
        <ele>4.34</ele>
        <time>2016-12-24T10:55:00Z</time>
      </trkpt>
      <trkpt lat="47.13808" lon="-1.67947">
        <ele>3.04</ele>
        <time>2016-12-24T10:55:03Z</time>
      </trkpt>
      <trkpt lat="47.1381" lon="-1.67979">
        <ele>2.71</ele>
        <time>2016-12-24T10:55:06Z</time>
      </trkpt>
      <trkpt lat="47.13814" lon="-1.68011">
        <ele>3.62</ele>
        <time>2016-12-24T10:55:09Z</time>
      </trkpt>
      <trkpt lat="47.13821" lon="-1.68038">
        <ele>3.33</ele>
        <time>2016-12-24T10:55:12Z</time>
      </trkpt>
      <trkpt lat="47.13831" lon="-1.68063">
        <ele>3.75</ele>
        <time>2016-12-24T10:55:15Z</time>
      </trkpt>
      <trkpt lat="47.13842" lon="-1.68088">
        <ele>4.56</ele>
        <time>2016-12-24T10:55:18Z</time>
      </trkpt>
      <trkpt lat="47.13854" lon="-1.68111">
        <ele>4.93</ele>
        <time>2016-12-24T10:55:21Z</time>
      </trkpt>
      <trkpt lat="47.13866" lon="-1.68138">
        <ele>4.13</ele>
        <time>2016-12-24T10:55:24Z</time>
      </trkpt>
      <trkpt lat="47.13877" lon="-1.68162">
        <ele>4.08</ele>
        <time>2016-12-24T10:55:27Z</time>
      </trkpt>
      <trkpt lat="47.13888" lon="-1.68187">
        <ele>4.7</ele>
        <time>2016-12-24T10:55:30Z</time>
      </trkpt>
      <trkpt lat="47.13898" lon="-1.68211">
        <ele>5.25</ele>
        <time>2016-12-24T10:55:33Z</time>
      </trkpt>
      <trkpt lat="47.13909" lon="-1.68237">
        <ele>5.11</ele>
        <time>2016-12-24T10:55:36Z</time>
      </trkpt>
      <trkpt lat="47.1392" lon="-1.68261">
        <ele>4.9</ele>
        <time>2016-12-24T10:55:39Z</time>
      </trkpt>
      <trkpt lat="47.1393" lon="-1.68285">
        <ele>5.48</ele>
        <time>2016-12-24T10:55:42Z</time>
      </trkpt>
      <trkpt lat="47.13941" lon="-1.68311">
        <ele>5.01</ele>
        <time>2016-12-24T10:55:45Z</time>
      </trkpt>
      <trkpt lat="47.13951" lon="-1.68336">
        <ele>3.78</ele>
        <time>2016-12-24T10:55:48Z</time>
      </trkpt>
      <trkpt lat="47.13962" lon="-1.68362">
        <ele>3.74</ele>
        <time>2016-12-24T10:55:51Z</time>
      </trkpt>
      <trkpt lat="47.13976" lon="-1.68394">
        <ele>2.12</ele>
        <time>2016-12-24T10:55:54Z</time>
      </trkpt>
      <trkpt lat="47.13987" lon="-1.68416">
        <ele>1.35</ele>
        <time>2016-12-24T10:55:57Z</time>
      </trkpt>
      <trkpt lat="47.14" lon="-1.68437">
        <ele>2.29</ele>
        <time>2016-12-24T10:56:00Z</time>
      </trkpt>
      <trkpt lat="47.14016" lon="-1.68462">
        <ele>4.09</ele>
        <time>2016-12-24T10:56:04Z</time>
      </trkpt>
      <trkpt lat="47.14031" lon="-1.68483">
        <ele>4.22</ele>
        <time>2016-12-24T10:56:07Z</time>
      </trkpt>
      <trkpt lat="47.14046" lon="-1.68504">
        <ele>4.39</ele>
        <time>2016-12-24T10:56:10Z</time>
      </trkpt>
      <trkpt lat="47.1406" lon="-1.68527">
        <ele>5.09</ele>
        <time>2016-12-24T10:56:13Z</time>
      </trkpt>
      <trkpt lat="47.14074" lon="-1.68548">
        <ele>5.94</ele>
        <time>2016-12-24T10:56:16Z</time>
      </trkpt>
      <trkpt lat="47.14088" lon="-1.6857">
        <ele>5.5</ele>
        <time>2016-12-24T10:56:19Z</time>
      </trkpt>
      <trkpt lat="47.14102" lon="-1.68591">
        <ele>5.75</ele>
        <time>2016-12-24T10:56:22Z</time>
      </trkpt>
      <trkpt lat="47.14115" lon="-1.6861">
        <ele>5.97</ele>
        <time>2016-12-24T10:56:25Z</time>
      </trkpt>
      <trkpt lat="47.14128" lon="-1.68631">
        <ele>5.34</ele>
        <time>2016-12-24T10:56:28Z</time>
      </trkpt>
      <trkpt lat="47.14142" lon="-1.68653">
        <ele>5.41</ele>
        <time>2016-12-24T10:56:31Z</time>
      </trkpt>
      <trkpt lat="47.14156" lon="-1.68675">
        <ele>5.06</ele>
        <time>2016-12-24T10:56:34Z</time>
      </trkpt>
      <trkpt lat="47.1417" lon="-1.68698">
        <ele>3.72</ele>
        <time>2016-12-24T10:56:37Z</time>
      </trkpt>
      <trkpt lat="47.1418" lon="-1.68722">
        <ele>4.9</ele>
        <time>2016-12-24T10:56:40Z</time>
      </trkpt>
      <trkpt lat="47.14189" lon="-1.68747">
        <ele>5.81</ele>
        <time>2016-12-24T10:56:43Z</time>
      </trkpt>
      <trkpt lat="47.14198" lon="-1.68779">
        <ele>6.95</ele>
        <time>2016-12-24T10:56:47Z</time>
      </trkpt>
      <trkpt lat="47.14206" lon="-1.68803">
        <ele>9.46</ele>
        <time>2016-12-24T10:56:50Z</time>
      </trkpt>
      <trkpt lat="47.14213" lon="-1.68828">
        <ele>9.69</ele>
        <time>2016-12-24T10:56:53Z</time>
      </trkpt>
      <trkpt lat="47.14219" lon="-1.68861">
        <ele>6.6</ele>
        <time>2016-12-24T10:56:57Z</time>
      </trkpt>
      <trkpt lat="47.14224" lon="-1.68894">
        <ele>4.03</ele>
        <time>2016-12-24T10:57:01Z</time>
      </trkpt>
      <trkpt lat="47.1422" lon="-1.68921">
        <ele>2.7</ele>
        <time>2016-12-24T10:57:04Z</time>
      </trkpt>
      <trkpt lat="47.14207" lon="-1.68943">
        <ele>3.76</ele>
        <time>2016-12-24T10:57:07Z</time>
      </trkpt>
      <trkpt lat="47.14195" lon="-1.68964">
        <ele>4.03</ele>
        <time>2016-12-24T10:57:10Z</time>
      </trkpt>
      <trkpt lat="47.14184" lon="-1.68986">
        <ele>3.4</ele>
        <time>2016-12-24T10:57:13Z</time>
      </trkpt>
      <trkpt lat="47.14171" lon="-1.69014">
        <ele>2.92</ele>
        <time>2016-12-24T10:57:17Z</time>
      </trkpt>
      <trkpt lat="47.14162" lon="-1.69045">
        <ele>6.14</ele>
        <time>2016-12-24T10:57:21Z</time>
      </trkpt>
      <trkpt lat="47.14157" lon="-1.69077">
        <ele>9.27</ele>
        <time>2016-12-24T10:57:25Z</time>
      </trkpt>
      <trkpt lat="47.14152" lon="-1.69111">
        <ele>9.76</ele>
        <time>2016-12-24T10:57:29Z</time>
      </trkpt>
      <trkpt lat="47.14148" lon="-1.69139">
        <ele>11.01</ele>
        <time>2016-12-24T10:57:33Z</time>
      </trkpt>
      <trkpt lat="47.14143" lon="-1.69173">
        <ele>11.26</ele>
        <time>2016-12-24T10:57:37Z</time>
      </trkpt>
      <trkpt lat="47.14139" lon="-1.69206">
        <ele>12.69</ele>
        <time>2016-12-24T10:57:41Z</time>
      </trkpt>
      <trkpt lat="47.14134" lon="-1.69238">
        <ele>12.31</ele>
        <time>2016-12-24T10:57:45Z</time>
      </trkpt>
      <trkpt lat="47.14127" lon="-1.69271">
        <ele>11.86</ele>
        <time>2016-12-24T10:57:49Z</time>
      </trkpt>
      <trkpt lat="47.14122" lon="-1.69304">
        <ele>12.57</ele>
        <time>2016-12-24T10:57:53Z</time>
      </trkpt>
      <trkpt lat="47.14118" lon="-1.69333">
        <ele>11.13</ele>
        <time>2016-12-24T10:57:57Z</time>
      </trkpt>
      <trkpt lat="47.14115" lon="-1.69364">
        <ele>13.28</ele>
        <time>2016-12-24T10:58:01Z</time>
      </trkpt>
      <trkpt lat="47.14112" lon="-1.69393">
        <ele>15.07</ele>
        <time>2016-12-24T10:58:04Z</time>
      </trkpt>
      <trkpt lat="47.14108" lon="-1.69424">
        <ele>14.04</ele>
        <time>2016-12-24T10:58:08Z</time>
      </trkpt>
      <trkpt lat="47.14105" lon="-1.69451">
        <ele>15.29</ele>
        <time>2016-12-24T10:58:11Z</time>
      </trkpt>
      <trkpt lat="47.14102" lon="-1.69486">
        <ele>14.25</ele>
        <time>2016-12-24T10:58:15Z</time>
      </trkpt>
      <trkpt lat="47.14099" lon="-1.69513">
        <ele>13.08</ele>
        <time>2016-12-24T10:58:18Z</time>
      </trkpt>
      <trkpt lat="47.14094" lon="-1.69549">
        <ele>12.23</ele>
        <time>2016-12-24T10:58:22Z</time>
      </trkpt>
      <trkpt lat="47.1409" lon="-1.6958">
        <ele>9.25</ele>
        <time>2016-12-24T10:58:25Z</time>
      </trkpt>
      <trkpt lat="47.1409" lon="-1.69608">
        <ele>6.1</ele>
        <time>2016-12-24T10:58:28Z</time>
      </trkpt>
      <trkpt lat="47.14094" lon="-1.69637">
        <ele>3.59</ele>
        <time>2016-12-24T10:58:31Z</time>
      </trkpt>
      <trkpt lat="47.14097" lon="-1.69665">
        <ele>3.3</ele>
        <time>2016-12-24T10:58:34Z</time>
      </trkpt>
      <trkpt lat="47.14101" lon="-1.69697">
        <ele>4.78</ele>
        <time>2016-12-24T10:58:37Z</time>
      </trkpt>
      <trkpt lat="47.14104" lon="-1.69725">
        <ele>6.84</ele>
        <time>2016-12-24T10:58:42Z</time>
      </trkpt>
      <trkpt lat="47.14087" lon="-1.69733">
        <ele>5.98</ele>
        <time>2016-12-24T10:58:47Z</time>
      </trkpt>
      <trkpt lat="47.14063" lon="-1.69733">
        <ele>4.21</ele>
        <time>2016-12-24T10:58:51Z</time>
      </trkpt>
      <trkpt lat="47.14044" lon="-1.69732">
        <ele>4.73</ele>
        <time>2016-12-24T10:58:54Z</time>
      </trkpt>
      <trkpt lat="47.14021" lon="-1.69729">
        <ele>4.85</ele>
        <time>2016-12-24T10:58:58Z</time>
      </trkpt>
      <trkpt lat="47.13998" lon="-1.69727">
        <ele>6.8</ele>
        <time>2016-12-24T10:59:02Z</time>
      </trkpt>
      <trkpt lat="47.13974" lon="-1.69724">
        <ele>6.61</ele>
        <time>2016-12-24T10:59:06Z</time>
      </trkpt>
      <trkpt lat="47.13952" lon="-1.69722">
        <ele>5.24</ele>
        <time>2016-12-24T10:59:10Z</time>
      </trkpt>
      <trkpt lat="47.13932" lon="-1.6972">
        <ele>5.77</ele>
        <time>2016-12-24T10:59:13Z</time>
      </trkpt>
      <trkpt lat="47.13909" lon="-1.69719">
        <ele>6.08</ele>
        <time>2016-12-24T10:59:16Z</time>
      </trkpt>
      <trkpt lat="47.13887" lon="-1.6972">
        <ele>7.09</ele>
        <time>2016-12-24T10:59:19Z</time>
      </trkpt>
      <trkpt lat="47.13866" lon="-1.69725">
        <ele>6.73</ele>
        <time>2016-12-24T10:59:22Z</time>
      </trkpt>
      <trkpt lat="47.13846" lon="-1.6973">
        <ele>5.63</ele>
        <time>2016-12-24T10:59:25Z</time>
      </trkpt>
      <trkpt lat="47.13827" lon="-1.69732">
        <ele>6.3</ele>
        <time>2016-12-24T10:59:28Z</time>
      </trkpt>
      <trkpt lat="47.13805" lon="-1.69731">
        <ele>5.77</ele>
        <time>2016-12-24T10:59:31Z</time>
      </trkpt>
      <trkpt lat="47.13785" lon="-1.69729">
        <ele>5.03</ele>
        <time>2016-12-24T10:59:34Z</time>
      </trkpt>
      <trkpt lat="47.13764" lon="-1.69729">
        <ele>2.01</ele>
        <time>2016-12-24T10:59:37Z</time>
      </trkpt>
      <trkpt lat="47.13745" lon="-1.69732">
        <ele>1.39</ele>
        <time>2016-12-24T10:59:40Z</time>
      </trkpt>
      <trkpt lat="47.13726" lon="-1.69736">
        <ele>1.49</ele>
        <time>2016-12-24T10:59:43Z</time>
      </trkpt>
      <trkpt lat="47.13707" lon="-1.6974">
        <ele>1.56</ele>
        <time>2016-12-24T10:59:46Z</time>
      </trkpt>
      <trkpt lat="47.13687" lon="-1.69743">
        <ele>1.71</ele>
        <time>2016-12-24T10:59:49Z</time>
      </trkpt>
      <trkpt lat="47.13666" lon="-1.69743">
        <ele>1.75</ele>
        <time>2016-12-24T10:59:52Z</time>
      </trkpt>
      <trkpt lat="47.13646" lon="-1.69743">
        <ele>1.9</ele>
        <time>2016-12-24T10:59:55Z</time>
      </trkpt>
      <trkpt lat="47.13624" lon="-1.69743">
        <ele>3.68</ele>
        <time>2016-12-24T10:59:58Z</time>
      </trkpt>
      <trkpt lat="47.13602" lon="-1.69743">
        <ele>3.61</ele>
        <time>2016-12-24T11:00:01Z</time>
      </trkpt>
      <trkpt lat="47.13584" lon="-1.69743">
        <ele>4.5</ele>
        <time>2016-12-24T11:00:04Z</time>
      </trkpt>
      <trkpt lat="47.13562" lon="-1.69743">
        <ele>4.71</ele>
        <time>2016-12-24T11:00:07Z</time>
      </trkpt>
      <trkpt lat="47.1354" lon="-1.69744">
        <ele>4.57</ele>
        <time>2016-12-24T11:00:10Z</time>
      </trkpt>
      <trkpt lat="47.1352" lon="-1.69744">
        <ele>3.51</ele>
        <time>2016-12-24T11:00:13Z</time>
      </trkpt>
      <trkpt lat="47.13499" lon="-1.69745">
        <ele>3.51</ele>
        <time>2016-12-24T11:00:16Z</time>
      </trkpt>
      <trkpt lat="47.13479" lon="-1.69747">
        <ele>1.59</ele>
        <time>2016-12-24T11:00:19Z</time>
      </trkpt>
      <trkpt lat="47.13459" lon="-1.69752">
        <ele>1.29</ele>
        <time>2016-12-24T11:00:22Z</time>
      </trkpt>
      <trkpt lat="47.13438" lon="-1.69758">
        <ele>2.42</ele>
        <time>2016-12-24T11:00:25Z</time>
      </trkpt>
      <trkpt lat="47.13416" lon="-1.69766">
        <ele>1.35</ele>
        <time>2016-12-24T11:00:28Z</time>
      </trkpt>
      <trkpt lat="47.13395" lon="-1.69774">
        <ele>-1.68</ele>
        <time>2016-12-24T11:00:31Z</time>
      </trkpt>
      <trkpt lat="47.13378" lon="-1.69783">
        <ele>-1.63</ele>
        <time>2016-12-24T11:00:34Z</time>
      </trkpt>
      <trkpt lat="47.13359" lon="-1.69793">
        <ele>0.03</ele>
        <time>2016-12-24T11:00:37Z</time>
      </trkpt>
      <trkpt lat="47.13339" lon="-1.69805">
        <ele>1.99</ele>
        <time>2016-12-24T11:00:40Z</time>
      </trkpt>
      <trkpt lat="47.1332" lon="-1.69816">
        <ele>2.37</ele>
        <time>2016-12-24T11:00:43Z</time>
      </trkpt>
      <trkpt lat="47.13302" lon="-1.69825">
        <ele>4.1</ele>
        <time>2016-12-24T11:00:46Z</time>
      </trkpt>
      <trkpt lat="47.13278" lon="-1.6984">
        <ele>5.62</ele>
        <time>2016-12-24T11:00:50Z</time>
      </trkpt>
      <trkpt lat="47.13261" lon="-1.69848">
        <ele>6.01</ele>
        <time>2016-12-24T11:00:53Z</time>
      </trkpt>
      <trkpt lat="47.13243" lon="-1.69857">
        <ele>7.29</ele>
        <time>2016-12-24T11:00:56Z</time>
      </trkpt>
      <trkpt lat="47.1322" lon="-1.69869">
        <ele>6.9</ele>
        <time>2016-12-24T11:01:00Z</time>
      </trkpt>
      <trkpt lat="47.13203" lon="-1.69878">
        <ele>5.24</ele>
        <time>2016-12-24T11:01:02Z</time>
      </trkpt>
      <trkpt lat="47.13183" lon="-1.69889">
        <ele>3.46</ele>
        <time>2016-12-24T11:01:05Z</time>
      </trkpt>
      <trkpt lat="47.13163" lon="-1.69899">
        <ele>3.28</ele>
        <time>2016-12-24T11:01:08Z</time>
      </trkpt>
      <trkpt lat="47.13143" lon="-1.69911">
        <ele>2.34</ele>
        <time>2016-12-24T11:01:11Z</time>
      </trkpt>
      <trkpt lat="47.13121" lon="-1.69921">
        <ele>0.99</ele>
        <time>2016-12-24T11:01:14Z</time>
      </trkpt>
      <trkpt lat="47.13101" lon="-1.69932">
        <ele>1.95</ele>
        <time>2016-12-24T11:01:17Z</time>
      </trkpt>
      <trkpt lat="47.13083" lon="-1.69941">
        <ele>1.54</ele>
        <time>2016-12-24T11:01:20Z</time>
      </trkpt>
      <trkpt lat="47.13062" lon="-1.69953">
        <ele>1.28</ele>
        <time>2016-12-24T11:01:23Z</time>
      </trkpt>
      <trkpt lat="47.13043" lon="-1.69964">
        <ele>2.36</ele>
        <time>2016-12-24T11:01:26Z</time>
      </trkpt>
      <trkpt lat="47.13023" lon="-1.69973">
        <ele>1.84</ele>
        <time>2016-12-24T11:01:29Z</time>
      </trkpt>
      <trkpt lat="47.13003" lon="-1.69984">
        <ele>3.2</ele>
        <time>2016-12-24T11:01:32Z</time>
      </trkpt>
      <trkpt lat="47.12979" lon="-1.69997">
        <ele>4.1</ele>
        <time>2016-12-24T11:01:36Z</time>
      </trkpt>
      <trkpt lat="47.12961" lon="-1.70007">
        <ele>4.44</ele>
        <time>2016-12-24T11:01:39Z</time>
      </trkpt>
      <trkpt lat="47.12941" lon="-1.70018">
        <ele>4.45</ele>
        <time>2016-12-24T11:01:42Z</time>
      </trkpt>
      <trkpt lat="47.12924" lon="-1.70027">
        <ele>4.37</ele>
        <time>2016-12-24T11:01:45Z</time>
      </trkpt>
      <trkpt lat="47.12904" lon="-1.70037">
        <ele>5.03</ele>
        <time>2016-12-24T11:01:48Z</time>
      </trkpt>
      <trkpt lat="47.12884" lon="-1.70047">
        <ele>3.93</ele>
        <time>2016-12-24T11:01:51Z</time>
      </trkpt>
      <trkpt lat="47.12864" lon="-1.70056">
        <ele>3.73</ele>
        <time>2016-12-24T11:01:54Z</time>
      </trkpt>
      <trkpt lat="47.12845" lon="-1.70066">
        <ele>4.06</ele>
        <time>2016-12-24T11:01:57Z</time>
      </trkpt>
      <trkpt lat="47.12826" lon="-1.70077">
        <ele>3.91</ele>
        <time>2016-12-24T11:02:00Z</time>
      </trkpt>
      <trkpt lat="47.12807" lon="-1.70086">
        <ele>1.63</ele>
        <time>2016-12-24T11:02:03Z</time>
      </trkpt>
      <trkpt lat="47.12786" lon="-1.70097">
        <ele>0.87</ele>
        <time>2016-12-24T11:02:06Z</time>
      </trkpt>
      <trkpt lat="47.12766" lon="-1.70107">
        <ele>1.51</ele>
        <time>2016-12-24T11:02:09Z</time>
      </trkpt>
      <trkpt lat="47.12745" lon="-1.70119">
        <ele>3.17</ele>
        <time>2016-12-24T11:02:13Z</time>
      </trkpt>
      <trkpt lat="47.12721" lon="-1.70131">
        <ele>5.05</ele>
        <time>2016-12-24T11:02:17Z</time>
      </trkpt>
      <trkpt lat="47.12701" lon="-1.7014">
        <ele>5.38</ele>
        <time>2016-12-24T11:02:20Z</time>
      </trkpt>
      <trkpt lat="47.12682" lon="-1.70151">
        <ele>6.27</ele>
        <time>2016-12-24T11:02:23Z</time>
      </trkpt>
      <trkpt lat="47.12662" lon="-1.70162">
        <ele>5.03</ele>
        <time>2016-12-24T11:02:26Z</time>
      </trkpt>
      <trkpt lat="47.12643" lon="-1.70173">
        <ele>3.24</ele>
        <time>2016-12-24T11:02:29Z</time>
      </trkpt>
      <trkpt lat="47.12624" lon="-1.70184">
        <ele>2.95</ele>
        <time>2016-12-24T11:02:32Z</time>
      </trkpt>
      <trkpt lat="47.12602" lon="-1.70196">
        <ele>3.71</ele>
        <time>2016-12-24T11:02:36Z</time>
      </trkpt>
      <trkpt lat="47.12581" lon="-1.70206">
        <ele>4.78</ele>
        <time>2016-12-24T11:02:39Z</time>
      </trkpt>
      <trkpt lat="47.12563" lon="-1.70215">
        <ele>3.18</ele>
        <time>2016-12-24T11:02:42Z</time>
      </trkpt>
      <trkpt lat="47.12541" lon="-1.70225">
        <ele>1.64</ele>
        <time>2016-12-24T11:02:45Z</time>
      </trkpt>
      <trkpt lat="47.12524" lon="-1.70233">
        <ele>3.11</ele>
        <time>2016-12-24T11:02:48Z</time>
      </trkpt>
      <trkpt lat="47.12505" lon="-1.70243">
        <ele>3.68</ele>
        <time>2016-12-24T11:02:51Z</time>
      </trkpt>
      <trkpt lat="47.12483" lon="-1.70252">
        <ele>4.08</ele>
        <time>2016-12-24T11:02:54Z</time>
      </trkpt>
      <trkpt lat="47.12465" lon="-1.70261">
        <ele>4.33</ele>
        <time>2016-12-24T11:02:57Z</time>
      </trkpt>
      <trkpt lat="47.12447" lon="-1.70276">
        <ele>4.59</ele>
        <time>2016-12-24T11:03:00Z</time>
      </trkpt>
      <trkpt lat="47.12431" lon="-1.70298">
        <ele>3.27</ele>
        <time>2016-12-24T11:03:03Z</time>
      </trkpt>
      <trkpt lat="47.12419" lon="-1.70323">
        <ele>2.45</ele>
        <time>2016-12-24T11:03:06Z</time>
      </trkpt>
      <trkpt lat="47.12411" lon="-1.7035">
        <ele>2.22</ele>
        <time>2016-12-24T11:03:09Z</time>
      </trkpt>
      <trkpt lat="47.12404" lon="-1.70377">
        <ele>2.32</ele>
        <time>2016-12-24T11:03:12Z</time>
      </trkpt>
      <trkpt lat="47.12395" lon="-1.70402">
        <ele>2.55</ele>
        <time>2016-12-24T11:03:15Z</time>
      </trkpt>
      <trkpt lat="47.12387" lon="-1.70428">
        <ele>-1.06</ele>
        <time>2016-12-24T11:03:18Z</time>
      </trkpt>
      <trkpt lat="47.12381" lon="-1.70458">
        <ele>-2.76</ele>
        <time>2016-12-24T11:03:21Z</time>
      </trkpt>
      <trkpt lat="47.12375" lon="-1.70489">
        <ele>-3.31</ele>
        <time>2016-12-24T11:03:24Z</time>
      </trkpt>
      <trkpt lat="47.12369" lon="-1.70516">
        <ele>-3.36</ele>
        <time>2016-12-24T11:03:27Z</time>
      </trkpt>
      <trkpt lat="47.1236" lon="-1.70541">
        <ele>-2.59</ele>
        <time>2016-12-24T11:03:30Z</time>
      </trkpt>
      <trkpt lat="47.1235" lon="-1.70564">
        <ele>-1.57</ele>
        <time>2016-12-24T11:03:33Z</time>
      </trkpt>
      <trkpt lat="47.12337" lon="-1.70587">
        <ele>-2.09</ele>
        <time>2016-12-24T11:03:36Z</time>
      </trkpt>
      <trkpt lat="47.1232" lon="-1.70612">
        <ele>-1.65</ele>
        <time>2016-12-24T11:03:40Z</time>
      </trkpt>
      <trkpt lat="47.12306" lon="-1.70633">
        <ele>-0.72</ele>
        <time>2016-12-24T11:03:43Z</time>
      </trkpt>
      <trkpt lat="47.12288" lon="-1.70658">
        <ele>-0.56</ele>
        <time>2016-12-24T11:03:47Z</time>
      </trkpt>
      <trkpt lat="47.12274" lon="-1.7068">
        <ele>-0.9</ele>
        <time>2016-12-24T11:03:50Z</time>
      </trkpt>
      <trkpt lat="47.1226" lon="-1.70699">
        <ele>-0.31</ele>
        <time>2016-12-24T11:03:53Z</time>
      </trkpt>
      <trkpt lat="47.12243" lon="-1.70721">
        <ele>0.61</ele>
        <time>2016-12-24T11:03:57Z</time>
      </trkpt>
      <trkpt lat="47.12226" lon="-1.70738">
        <ele>1.08</ele>
        <time>2016-12-24T11:04:00Z</time>
      </trkpt>
      <trkpt lat="47.12206" lon="-1.70757">
        <ele>2.16</ele>
        <time>2016-12-24T11:04:04Z</time>
      </trkpt>
      <trkpt lat="47.1219" lon="-1.70769">
        <ele>3.1</ele>
        <time>2016-12-24T11:04:07Z</time>
      </trkpt>
      <trkpt lat="47.12168" lon="-1.70784">
        <ele>4.78</ele>
        <time>2016-12-24T11:04:11Z</time>
      </trkpt>
      <trkpt lat="47.1215" lon="-1.70796">
        <ele>5.47</ele>
        <time>2016-12-24T11:04:14Z</time>
      </trkpt>
      <trkpt lat="47.12133" lon="-1.70807">
        <ele>5.92</ele>
        <time>2016-12-24T11:04:17Z</time>
      </trkpt>
      <trkpt lat="47.12116" lon="-1.70818">
        <ele>5.36</ele>
        <time>2016-12-24T11:04:20Z</time>
      </trkpt>
      <trkpt lat="47.12097" lon="-1.7083">
        <ele>4.61</ele>
        <time>2016-12-24T11:04:23Z</time>
      </trkpt>
      <trkpt lat="47.1208" lon="-1.70841">
        <ele>4.11</ele>
        <time>2016-12-24T11:04:26Z</time>
      </trkpt>
      <trkpt lat="47.12058" lon="-1.70855">
        <ele>4.6</ele>
        <time>2016-12-24T11:04:30Z</time>
      </trkpt>
      <trkpt lat="47.12036" lon="-1.70869">
        <ele>5.24</ele>
        <time>2016-12-24T11:04:34Z</time>
      </trkpt>
      <trkpt lat="47.1202" lon="-1.7088">
        <ele>4.32</ele>
        <time>2016-12-24T11:04:37Z</time>
      </trkpt>
      <trkpt lat="47.12003" lon="-1.70892">
        <ele>4.48</ele>
        <time>2016-12-24T11:04:40Z</time>
      </trkpt>
      <trkpt lat="47.11984" lon="-1.70903">
        <ele>4.07</ele>
        <time>2016-12-24T11:04:43Z</time>
      </trkpt>
      <trkpt lat="47.11967" lon="-1.70914">
        <ele>3.63</ele>
        <time>2016-12-24T11:04:46Z</time>
      </trkpt>
      <trkpt lat="47.1195" lon="-1.70925">
        <ele>4.14</ele>
        <time>2016-12-24T11:04:49Z</time>
      </trkpt>
      <trkpt lat="47.11931" lon="-1.70937">
        <ele>3.45</ele>
        <time>2016-12-24T11:04:52Z</time>
      </trkpt>
      <trkpt lat="47.11913" lon="-1.70949">
        <ele>3.15</ele>
        <time>2016-12-24T11:04:55Z</time>
      </trkpt>
      <trkpt lat="47.11895" lon="-1.70962">
        <ele>1.66</ele>
        <time>2016-12-24T11:04:58Z</time>
      </trkpt>
      <trkpt lat="47.11879" lon="-1.70973">
        <ele>0.93</ele>
        <time>2016-12-24T11:05:01Z</time>
      </trkpt>
      <trkpt lat="47.1186" lon="-1.70985">
        <ele>1.04</ele>
        <time>2016-12-24T11:05:04Z</time>
      </trkpt>
      <trkpt lat="47.11841" lon="-1.70997">
        <ele>1.97</ele>
        <time>2016-12-24T11:05:07Z</time>
      </trkpt>
      <trkpt lat="47.11823" lon="-1.71007">
        <ele>2.76</ele>
        <time>2016-12-24T11:05:10Z</time>
      </trkpt>
      <trkpt lat="47.11806" lon="-1.71017">
        <ele>3.72</ele>
        <time>2016-12-24T11:05:13Z</time>
      </trkpt>
      <trkpt lat="47.11787" lon="-1.71029">
        <ele>4.03</ele>
        <time>2016-12-24T11:05:16Z</time>
      </trkpt>
      <trkpt lat="47.11766" lon="-1.71045">
        <ele>3.51</ele>
        <time>2016-12-24T11:05:20Z</time>
      </trkpt>
      <trkpt lat="47.11749" lon="-1.71057">
        <ele>3.14</ele>
        <time>2016-12-24T11:05:23Z</time>
      </trkpt>
      <trkpt lat="47.11727" lon="-1.71071">
        <ele>4.82</ele>
        <time>2016-12-24T11:05:27Z</time>
      </trkpt>
      <trkpt lat="47.1171" lon="-1.71084">
        <ele>5.65</ele>
        <time>2016-12-24T11:05:30Z</time>
      </trkpt>
      <trkpt lat="47.11693" lon="-1.71096">
        <ele>4.99</ele>
        <time>2016-12-24T11:05:33Z</time>
      </trkpt>
      <trkpt lat="47.11677" lon="-1.71107">
        <ele>3.66</ele>
        <time>2016-12-24T11:05:36Z</time>
      </trkpt>
      <trkpt lat="47.11659" lon="-1.71119">
        <ele>2.12</ele>
        <time>2016-12-24T11:05:39Z</time>
      </trkpt>
      <trkpt lat="47.11642" lon="-1.71131">
        <ele>2.4</ele>
        <time>2016-12-24T11:05:42Z</time>
      </trkpt>
      <trkpt lat="47.11624" lon="-1.71146">
        <ele>2.27</ele>
        <time>2016-12-24T11:05:45Z</time>
      </trkpt>
      <trkpt lat="47.11608" lon="-1.71161">
        <ele>2.78</ele>
        <time>2016-12-24T11:05:48Z</time>
      </trkpt>
      <trkpt lat="47.11593" lon="-1.71177">
        <ele>4.13</ele>
        <time>2016-12-24T11:05:51Z</time>
      </trkpt>
      <trkpt lat="47.11577" lon="-1.71197">
        <ele>4.52</ele>
        <time>2016-12-24T11:05:54Z</time>
      </trkpt>
      <trkpt lat="47.11563" lon="-1.71217">
        <ele>3.72</ele>
        <time>2016-12-24T11:05:57Z</time>
      </trkpt>
      <trkpt lat="47.11549" lon="-1.71237">
        <ele>4.45</ele>
        <time>2016-12-24T11:06:00Z</time>
      </trkpt>
      <trkpt lat="47.11537" lon="-1.71258">
        <ele>3.43</ele>
        <time>2016-12-24T11:06:03Z</time>
      </trkpt>
      <trkpt lat="47.11526" lon="-1.71279">
        <ele>3.55</ele>
        <time>2016-12-24T11:06:06Z</time>
      </trkpt>
      <trkpt lat="47.11514" lon="-1.71301">
        <ele>3.34</ele>
        <time>2016-12-24T11:06:09Z</time>
      </trkpt>
      <trkpt lat="47.11503" lon="-1.71324">
        <ele>3.81</ele>
        <time>2016-12-24T11:06:12Z</time>
      </trkpt>
      <trkpt lat="47.11491" lon="-1.71347">
        <ele>4.99</ele>
        <time>2016-12-24T11:06:15Z</time>
      </trkpt>
      <trkpt lat="47.11479" lon="-1.71372">
        <ele>4.17</ele>
        <time>2016-12-24T11:06:18Z</time>
      </trkpt>
      <trkpt lat="47.11465" lon="-1.71401">
        <ele>2.88</ele>
        <time>2016-12-24T11:06:22Z</time>
      </trkpt>
      <trkpt lat="47.11454" lon="-1.71422">
        <ele>2.39</ele>
        <time>2016-12-24T11:06:25Z</time>
      </trkpt>
      <trkpt lat="47.11443" lon="-1.71445">
        <ele>1.21</ele>
        <time>2016-12-24T11:06:28Z</time>
      </trkpt>
      <trkpt lat="47.11432" lon="-1.71467">
        <ele>-0.08</ele>
        <time>2016-12-24T11:06:31Z</time>
      </trkpt>
      <trkpt lat="47.11419" lon="-1.71494">
        <ele>-0.67</ele>
        <time>2016-12-24T11:06:35Z</time>
      </trkpt>
      <trkpt lat="47.11408" lon="-1.71516">
        <ele>-0.91</ele>
        <time>2016-12-24T11:06:38Z</time>
      </trkpt>
      <trkpt lat="47.11395" lon="-1.7154">
        <ele>-0.6</ele>
        <time>2016-12-24T11:06:41Z</time>
      </trkpt>
      <trkpt lat="47.11381" lon="-1.71568">
        <ele>0.41</ele>
        <time>2016-12-24T11:06:45Z</time>
      </trkpt>
      <trkpt lat="47.11367" lon="-1.71596">
        <ele>-0.17</ele>
        <time>2016-12-24T11:06:49Z</time>
      </trkpt>
      <trkpt lat="47.11355" lon="-1.71618">
        <ele>-1.03</ele>
        <time>2016-12-24T11:06:52Z</time>
      </trkpt>
      <trkpt lat="47.11344" lon="-1.7164">
        <ele>-0.82</ele>
        <time>2016-12-24T11:06:55Z</time>
      </trkpt>
      <trkpt lat="47.11327" lon="-1.71655">
        <ele>-0.54</ele>
        <time>2016-12-24T11:06:58Z</time>
      </trkpt>
      <trkpt lat="47.11308" lon="-1.71667">
        <ele>-0.02</ele>
        <time>2016-12-24T11:07:01Z</time>
      </trkpt>
      <trkpt lat="47.11289" lon="-1.71677">
        <ele>0.64</ele>
        <time>2016-12-24T11:07:04Z</time>
      </trkpt>
      <trkpt lat="47.11268" lon="-1.71679">
        <ele>1.82</ele>
        <time>2016-12-24T11:07:07Z</time>
      </trkpt>
      <trkpt lat="47.11248" lon="-1.7168">
        <ele>4.26</ele>
        <time>2016-12-24T11:07:10Z</time>
      </trkpt>
      <trkpt lat="47.11229" lon="-1.7169">
        <ele>4.5</ele>
        <time>2016-12-24T11:07:13Z</time>
      </trkpt>
      <trkpt lat="47.1121" lon="-1.71705">
        <ele>3.56</ele>
        <time>2016-12-24T11:07:16Z</time>
      </trkpt>
      <trkpt lat="47.11194" lon="-1.71718">
        <ele>2.96</ele>
        <time>2016-12-24T11:07:19Z</time>
      </trkpt>
      <trkpt lat="47.11178" lon="-1.71734">
        <ele>2.28</ele>
        <time>2016-12-24T11:07:22Z</time>
      </trkpt>
      <trkpt lat="47.11162" lon="-1.71748">
        <ele>1.63</ele>
        <time>2016-12-24T11:07:25Z</time>
      </trkpt>
      <trkpt lat="47.11146" lon="-1.71761">
        <ele>1.64</ele>
        <time>2016-12-24T11:07:28Z</time>
      </trkpt>
      <trkpt lat="47.11126" lon="-1.7178">
        <ele>3.86</ele>
        <time>2016-12-24T11:07:32Z</time>
      </trkpt>
      <trkpt lat="47.11106" lon="-1.71797">
        <ele>4.85</ele>
        <time>2016-12-24T11:07:36Z</time>
      </trkpt>
      <trkpt lat="47.11091" lon="-1.71811">
        <ele>4.1</ele>
        <time>2016-12-24T11:07:39Z</time>
      </trkpt>
      <trkpt lat="47.11071" lon="-1.71832">
        <ele>3.96</ele>
        <time>2016-12-24T11:07:43Z</time>
      </trkpt>
      <trkpt lat="47.11053" lon="-1.71853">
        <ele>4.51</ele>
        <time>2016-12-24T11:07:47Z</time>
      </trkpt>
      <trkpt lat="47.11036" lon="-1.71875">
        <ele>6.68</ele>
        <time>2016-12-24T11:07:51Z</time>
      </trkpt>
      <trkpt lat="47.11023" lon="-1.71894">
        <ele>7.32</ele>
        <time>2016-12-24T11:07:54Z</time>
      </trkpt>
      <trkpt lat="47.11008" lon="-1.71917">
        <ele>8.26</ele>
        <time>2016-12-24T11:07:58Z</time>
      </trkpt>
      <trkpt lat="47.10994" lon="-1.71936">
        <ele>7.83</ele>
        <time>2016-12-24T11:08:01Z</time>
      </trkpt>
      <trkpt lat="47.10981" lon="-1.71957">
        <ele>6.64</ele>
        <time>2016-12-24T11:08:04Z</time>
      </trkpt>
      <trkpt lat="47.10968" lon="-1.71977">
        <ele>5.97</ele>
        <time>2016-12-24T11:08:07Z</time>
      </trkpt>
      <trkpt lat="47.1095" lon="-1.72001">
        <ele>5.73</ele>
        <time>2016-12-24T11:08:11Z</time>
      </trkpt>
      <trkpt lat="47.10937" lon="-1.7202">
        <ele>4.83</ele>
        <time>2016-12-24T11:08:14Z</time>
      </trkpt>
      <trkpt lat="47.10924" lon="-1.7204">
        <ele>4.73</ele>
        <time>2016-12-24T11:08:17Z</time>
      </trkpt>
      <trkpt lat="47.10909" lon="-1.72058">
        <ele>5.74</ele>
        <time>2016-12-24T11:08:20Z</time>
      </trkpt>
      <trkpt lat="47.10895" lon="-1.72079">
        <ele>6.1</ele>
        <time>2016-12-24T11:08:23Z</time>
      </trkpt>
      <trkpt lat="47.10881" lon="-1.72099">
        <ele>4.99</ele>
        <time>2016-12-24T11:08:26Z</time>
      </trkpt>
      <trkpt lat="47.10867" lon="-1.72118">
        <ele>5.06</ele>
        <time>2016-12-24T11:08:29Z</time>
      </trkpt>
      <trkpt lat="47.10853" lon="-1.72135">
        <ele>4.36</ele>
        <time>2016-12-24T11:08:32Z</time>
      </trkpt>
      <trkpt lat="47.10834" lon="-1.72145">
        <ele>4.39</ele>
        <time>2016-12-24T11:08:36Z</time>
      </trkpt>
      <trkpt lat="47.10816" lon="-1.72134">
        <ele>3.47</ele>
        <time>2016-12-24T11:08:41Z</time>
      </trkpt>
      <trkpt lat="47.10801" lon="-1.72116">
        <ele>2.59</ele>
        <time>2016-12-24T11:08:44Z</time>
      </trkpt>
      <trkpt lat="47.10781" lon="-1.72104">
        <ele>2.38</ele>
        <time>2016-12-24T11:08:47Z</time>
      </trkpt>
      <trkpt lat="47.10761" lon="-1.72097">
        <ele>1.58</ele>
        <time>2016-12-24T11:08:50Z</time>
      </trkpt>
      <trkpt lat="47.10741" lon="-1.72095">
        <ele>1.91</ele>
        <time>2016-12-24T11:08:53Z</time>
      </trkpt>
      <trkpt lat="47.10722" lon="-1.72099">
        <ele>2.02</ele>
        <time>2016-12-24T11:08:56Z</time>
      </trkpt>
      <trkpt lat="47.10702" lon="-1.72106">
        <ele>1.46</ele>
        <time>2016-12-24T11:08:59Z</time>
      </trkpt>
      <trkpt lat="47.10684" lon="-1.72113">
        <ele>1.42</ele>
        <time>2016-12-24T11:09:02Z</time>
      </trkpt>
      <trkpt lat="47.10662" lon="-1.72121">
        <ele>2.04</ele>
        <time>2016-12-24T11:09:06Z</time>
      </trkpt>
      <trkpt lat="47.10644" lon="-1.72128">
        <ele>3</ele>
        <time>2016-12-24T11:09:09Z</time>
      </trkpt>
      <trkpt lat="47.10625" lon="-1.72135">
        <ele>4.06</ele>
        <time>2016-12-24T11:09:12Z</time>
      </trkpt>
      <trkpt lat="47.10605" lon="-1.72146">
        <ele>4.38</ele>
        <time>2016-12-24T11:09:15Z</time>
      </trkpt>
      <trkpt lat="47.10588" lon="-1.72164">
        <ele>3.8</ele>
        <time>2016-12-24T11:09:18Z</time>
      </trkpt>
      <trkpt lat="47.10572" lon="-1.72187">
        <ele>3</ele>
        <time>2016-12-24T11:09:21Z</time>
      </trkpt>
      <trkpt lat="47.10559" lon="-1.72208">
        <ele>1.43</ele>
        <time>2016-12-24T11:09:24Z</time>
      </trkpt>
      <trkpt lat="47.10547" lon="-1.72228">
        <ele>2.33</ele>
        <time>2016-12-24T11:09:27Z</time>
      </trkpt>
      <trkpt lat="47.10534" lon="-1.7225">
        <ele>3.82</ele>
        <time>2016-12-24T11:09:30Z</time>
      </trkpt>
      <trkpt lat="47.1052" lon="-1.72268">
        <ele>3.53</ele>
        <time>2016-12-24T11:09:33Z</time>
      </trkpt>
      <trkpt lat="47.10501" lon="-1.72284">
        <ele>3.01</ele>
        <time>2016-12-24T11:09:36Z</time>
      </trkpt>
      <trkpt lat="47.1048" lon="-1.72299">
        <ele>2.21</ele>
        <time>2016-12-24T11:09:40Z</time>
      </trkpt>
      <trkpt lat="47.10462" lon="-1.72309">
        <ele>2.56</ele>
        <time>2016-12-24T11:09:43Z</time>
      </trkpt>
      <trkpt lat="47.10444" lon="-1.72317">
        <ele>2.69</ele>
        <time>2016-12-24T11:09:46Z</time>
      </trkpt>
      <trkpt lat="47.10425" lon="-1.72325">
        <ele>3.55</ele>
        <time>2016-12-24T11:09:49Z</time>
      </trkpt>
      <trkpt lat="47.10407" lon="-1.72335">
        <ele>3.26</ele>
        <time>2016-12-24T11:09:52Z</time>
      </trkpt>
      <trkpt lat="47.10386" lon="-1.72348">
        <ele>4.6</ele>
        <time>2016-12-24T11:09:56Z</time>
      </trkpt>
      <trkpt lat="47.10368" lon="-1.72357">
        <ele>4.68</ele>
        <time>2016-12-24T11:09:59Z</time>
      </trkpt>
      <trkpt lat="47.10346" lon="-1.72369">
        <ele>4.18</ele>
        <time>2016-12-24T11:10:03Z</time>
      </trkpt>
      <trkpt lat="47.10329" lon="-1.72377">
        <ele>4.84</ele>
        <time>2016-12-24T11:10:06Z</time>
      </trkpt>
      <trkpt lat="47.10308" lon="-1.72387">
        <ele>7.28</ele>
        <time>2016-12-24T11:10:10Z</time>
      </trkpt>
      <trkpt lat="47.10285" lon="-1.724">
        <ele>6.72</ele>
        <time>2016-12-24T11:10:14Z</time>
      </trkpt>
      <trkpt lat="47.10265" lon="-1.72413">
        <ele>7.04</ele>
        <time>2016-12-24T11:10:17Z</time>
      </trkpt>
      <trkpt lat="47.1025" lon="-1.72427">
        <ele>8.32</ele>
        <time>2016-12-24T11:10:20Z</time>
      </trkpt>
      <trkpt lat="47.10236" lon="-1.72447">
        <ele>8.06</ele>
        <time>2016-12-24T11:10:23Z</time>
      </trkpt>
      <trkpt lat="47.10222" lon="-1.72474">
        <ele>6.89</ele>
        <time>2016-12-24T11:10:27Z</time>
      </trkpt>
      <trkpt lat="47.10211" lon="-1.72496">
        <ele>6.52</ele>
        <time>2016-12-24T11:10:30Z</time>
      </trkpt>
      <trkpt lat="47.10198" lon="-1.72522">
        <ele>5.42</ele>
        <time>2016-12-24T11:10:34Z</time>
      </trkpt>
      <trkpt lat="47.10184" lon="-1.72548">
        <ele>5.66</ele>
        <time>2016-12-24T11:10:38Z</time>
      </trkpt>
      <trkpt lat="47.1017" lon="-1.72567">
        <ele>5.5</ele>
        <time>2016-12-24T11:10:41Z</time>
      </trkpt>
      <trkpt lat="47.10156" lon="-1.72585">
        <ele>5.47</ele>
        <time>2016-12-24T11:10:44Z</time>
      </trkpt>
      <trkpt lat="47.10136" lon="-1.72607">
        <ele>7.52</ele>
        <time>2016-12-24T11:10:48Z</time>
      </trkpt>
      <trkpt lat="47.10116" lon="-1.72627">
        <ele>7.92</ele>
        <time>2016-12-24T11:10:52Z</time>
      </trkpt>
      <trkpt lat="47.10099" lon="-1.72641">
        <ele>7.88</ele>
        <time>2016-12-24T11:10:55Z</time>
      </trkpt>
      <trkpt lat="47.10083" lon="-1.72656">
        <ele>6.96</ele>
        <time>2016-12-24T11:10:58Z</time>
      </trkpt>
      <trkpt lat="47.10067" lon="-1.72671">
        <ele>6.89</ele>
        <time>2016-12-24T11:11:01Z</time>
      </trkpt>
      <trkpt lat="47.10052" lon="-1.72686">
        <ele>7.28</ele>
        <time>2016-12-24T11:11:04Z</time>
      </trkpt>
      <trkpt lat="47.10036" lon="-1.72702">
        <ele>7.02</ele>
        <time>2016-12-24T11:11:07Z</time>
      </trkpt>
      <trkpt lat="47.1002" lon="-1.72717">
        <ele>7.58</ele>
        <time>2016-12-24T11:11:10Z</time>
      </trkpt>
      <trkpt lat="47.10003" lon="-1.7273">
        <ele>8.3</ele>
        <time>2016-12-24T11:11:13Z</time>
      </trkpt>
      <trkpt lat="47.09985" lon="-1.72743">
        <ele>9.34</ele>
        <time>2016-12-24T11:11:16Z</time>
      </trkpt>
      <trkpt lat="47.09964" lon="-1.72756">
        <ele>9.41</ele>
        <time>2016-12-24T11:11:20Z</time>
      </trkpt>
      <trkpt lat="47.09945" lon="-1.72766">
        <ele>8.83</ele>
        <time>2016-12-24T11:11:23Z</time>
      </trkpt>
      <trkpt lat="47.09922" lon="-1.72777">
        <ele>7.89</ele>
        <time>2016-12-24T11:11:27Z</time>
      </trkpt>
      <trkpt lat="47.09899" lon="-1.72788">
        <ele>8.22</ele>
        <time>2016-12-24T11:11:31Z</time>
      </trkpt>
      <trkpt lat="47.09882" lon="-1.72798">
        <ele>7.29</ele>
        <time>2016-12-24T11:11:34Z</time>
      </trkpt>
      <trkpt lat="47.0986" lon="-1.72808">
        <ele>7.81</ele>
        <time>2016-12-24T11:11:38Z</time>
      </trkpt>
      <trkpt lat="47.09841" lon="-1.72818">
        <ele>7.06</ele>
        <time>2016-12-24T11:11:41Z</time>
      </trkpt>
      <trkpt lat="47.09823" lon="-1.72827">
        <ele>6.73</ele>
        <time>2016-12-24T11:11:44Z</time>
      </trkpt>
      <trkpt lat="47.09806" lon="-1.72837">
        <ele>6.52</ele>
        <time>2016-12-24T11:11:47Z</time>
      </trkpt>
      <trkpt lat="47.09789" lon="-1.72851">
        <ele>7.27</ele>
        <time>2016-12-24T11:11:50Z</time>
      </trkpt>
      <trkpt lat="47.09774" lon="-1.72869">
        <ele>6.97</ele>
        <time>2016-12-24T11:11:53Z</time>
      </trkpt>
      <trkpt lat="47.09756" lon="-1.72864">
        <ele>6.71</ele>
        <time>2016-12-24T11:11:57Z</time>
      </trkpt>
      <trkpt lat="47.09743" lon="-1.72839">
        <ele>7.25</ele>
        <time>2016-12-24T11:12:00Z</time>
      </trkpt>
      <trkpt lat="47.09732" lon="-1.72814">
        <ele>6.88</ele>
        <time>2016-12-24T11:12:03Z</time>
      </trkpt>
      <trkpt lat="47.09721" lon="-1.72787">
        <ele>5.81</ele>
        <time>2016-12-24T11:12:06Z</time>
      </trkpt>
      <trkpt lat="47.09711" lon="-1.72764">
        <ele>5.3</ele>
        <time>2016-12-24T11:12:09Z</time>
      </trkpt>
      <trkpt lat="47.09699" lon="-1.72741">
        <ele>4.95</ele>
        <time>2016-12-24T11:12:12Z</time>
      </trkpt>
      <trkpt lat="47.09681" lon="-1.72728">
        <ele>3.24</ele>
        <time>2016-12-24T11:12:15Z</time>
      </trkpt>
      <trkpt lat="47.09661" lon="-1.72724">
        <ele>2.86</ele>
        <time>2016-12-24T11:12:18Z</time>
      </trkpt>
      <trkpt lat="47.09641" lon="-1.72719">
        <ele>2.43</ele>
        <time>2016-12-24T11:12:21Z</time>
      </trkpt>
      <trkpt lat="47.0962" lon="-1.72712">
        <ele>2.95</ele>
        <time>2016-12-24T11:12:24Z</time>
      </trkpt>
      <trkpt lat="47.09601" lon="-1.72704">
        <ele>3.42</ele>
        <time>2016-12-24T11:12:27Z</time>
      </trkpt>
      <trkpt lat="47.09581" lon="-1.72694">
        <ele>5.2</ele>
        <time>2016-12-24T11:12:30Z</time>
      </trkpt>
      <trkpt lat="47.0956" lon="-1.72683">
        <ele>5.75</ele>
        <time>2016-12-24T11:12:33Z</time>
      </trkpt>
      <trkpt lat="47.09539" lon="-1.72679">
        <ele>5.4</ele>
        <time>2016-12-24T11:12:36Z</time>
      </trkpt>
      <trkpt lat="47.0952" lon="-1.72696">
        <ele>3.59</ele>
        <time>2016-12-24T11:12:39Z</time>
      </trkpt>
      <trkpt lat="47.09509" lon="-1.7272">
        <ele>2.71</ele>
        <time>2016-12-24T11:12:42Z</time>
      </trkpt>
      <trkpt lat="47.09498" lon="-1.72745">
        <ele>0.4</ele>
        <time>2016-12-24T11:12:45Z</time>
      </trkpt>
      <trkpt lat="47.09486" lon="-1.7277">
        <ele>-0.98</ele>
        <time>2016-12-24T11:12:48Z</time>
      </trkpt>
      <trkpt lat="47.09475" lon="-1.72793">
        <ele>-0.97</ele>
        <time>2016-12-24T11:12:51Z</time>
      </trkpt>
      <trkpt lat="47.09464" lon="-1.72816">
        <ele>-1.77</ele>
        <time>2016-12-24T11:12:54Z</time>
      </trkpt>
      <trkpt lat="47.09453" lon="-1.72839">
        <ele>-1.97</ele>
        <time>2016-12-24T11:12:57Z</time>
      </trkpt>
      <trkpt lat="47.09443" lon="-1.72862">
        <ele>-1.11</ele>
        <time>2016-12-24T11:13:00Z</time>
      </trkpt>
      <trkpt lat="47.09432" lon="-1.72885">
        <ele>-0.54</ele>
        <time>2016-12-24T11:13:03Z</time>
      </trkpt>
      <trkpt lat="47.09421" lon="-1.72908">
        <ele>-0.85</ele>
        <time>2016-12-24T11:13:06Z</time>
      </trkpt>
      <trkpt lat="47.0941" lon="-1.7293">
        <ele>-0.64</ele>
        <time>2016-12-24T11:13:09Z</time>
      </trkpt>
      <trkpt lat="47.09397" lon="-1.72955">
        <ele>-0.1</ele>
        <time>2016-12-24T11:13:12Z</time>
      </trkpt>
      <trkpt lat="47.0939" lon="-1.7298">
        <ele>-0.5</ele>
        <time>2016-12-24T11:13:15Z</time>
      </trkpt>
      <trkpt lat="47.09386" lon="-1.73008">
        <ele>-0.22</ele>
        <time>2016-12-24T11:13:18Z</time>
      </trkpt>
      <trkpt lat="47.09384" lon="-1.73035">
        <ele>0.06</ele>
        <time>2016-12-24T11:13:21Z</time>
      </trkpt>
      <trkpt lat="47.09382" lon="-1.73063">
        <ele>-0.23</ele>
        <time>2016-12-24T11:13:24Z</time>
      </trkpt>
      <trkpt lat="47.09372" lon="-1.73087">
        <ele>-0.04</ele>
        <time>2016-12-24T11:13:27Z</time>
      </trkpt>
      <trkpt lat="47.09353" lon="-1.73109">
        <ele>0.46</ele>
        <time>2016-12-24T11:13:31Z</time>
      </trkpt>
      <trkpt lat="47.09334" lon="-1.73125">
        <ele>0.94</ele>
        <time>2016-12-24T11:13:34Z</time>
      </trkpt>
      <trkpt lat="47.09316" lon="-1.7314">
        <ele>0.45</ele>
        <time>2016-12-24T11:13:37Z</time>
      </trkpt>
      <trkpt lat="47.09296" lon="-1.73157">
        <ele>-0.84</ele>
        <time>2016-12-24T11:13:41Z</time>
      </trkpt>
      <trkpt lat="47.09275" lon="-1.73172">
        <ele>0.58</ele>
        <time>2016-12-24T11:13:45Z</time>
      </trkpt>
      <trkpt lat="47.09258" lon="-1.73185">
        <ele>0.47</ele>
        <time>2016-12-24T11:13:48Z</time>
      </trkpt>
      <trkpt lat="47.09238" lon="-1.73201">
        <ele>-0.27</ele>
        <time>2016-12-24T11:13:52Z</time>
      </trkpt>
      <trkpt lat="47.09219" lon="-1.73214">
        <ele>-0.08</ele>
        <time>2016-12-24T11:13:55Z</time>
      </trkpt>
      <trkpt lat="47.09201" lon="-1.73229">
        <ele>0.7</ele>
        <time>2016-12-24T11:13:58Z</time>
      </trkpt>
      <trkpt lat="47.0918" lon="-1.73246">
        <ele>1.74</ele>
        <time>2016-12-24T11:14:02Z</time>
      </trkpt>
      <trkpt lat="47.09164" lon="-1.7326">
        <ele>1.17</ele>
        <time>2016-12-24T11:14:05Z</time>
      </trkpt>
      <trkpt lat="47.09144" lon="-1.73277">
        <ele>1.95</ele>
        <time>2016-12-24T11:14:09Z</time>
      </trkpt>
      <trkpt lat="47.09127" lon="-1.73291">
        <ele>1.51</ele>
        <time>2016-12-24T11:14:12Z</time>
      </trkpt>
      <trkpt lat="47.0911" lon="-1.73304">
        <ele>0.36</ele>
        <time>2016-12-24T11:14:15Z</time>
      </trkpt>
      <trkpt lat="47.09089" lon="-1.73322">
        <ele>-0.11</ele>
        <time>2016-12-24T11:14:19Z</time>
      </trkpt>
      <trkpt lat="47.09072" lon="-1.73337">
        <ele>-0.39</ele>
        <time>2016-12-24T11:14:22Z</time>
      </trkpt>
      <trkpt lat="47.09054" lon="-1.73354">
        <ele>1.79</ele>
        <time>2016-12-24T11:14:26Z</time>
      </trkpt>
      <trkpt lat="47.09038" lon="-1.73366">
        <ele>3.68</ele>
        <time>2016-12-24T11:14:29Z</time>
      </trkpt>
      <trkpt lat="47.09021" lon="-1.7338">
        <ele>1.46</ele>
        <time>2016-12-24T11:14:32Z</time>
      </trkpt>
      <trkpt lat="47.09005" lon="-1.73395">
        <ele>0.46</ele>
        <time>2016-12-24T11:14:35Z</time>
      </trkpt>
      <trkpt lat="47.08989" lon="-1.73411">
        <ele>0.55</ele>
        <time>2016-12-24T11:14:38Z</time>
      </trkpt>
      <trkpt lat="47.08972" lon="-1.73433">
        <ele>0.7</ele>
        <time>2016-12-24T11:14:42Z</time>
      </trkpt>
      <trkpt lat="47.0896" lon="-1.73453">
        <ele>-0.27</ele>
        <time>2016-12-24T11:14:45Z</time>
      </trkpt>
      <trkpt lat="47.08949" lon="-1.73476">
        <ele>-1.66</ele>
        <time>2016-12-24T11:14:48Z</time>
      </trkpt>
      <trkpt lat="47.08942" lon="-1.73501">
        <ele>-1.01</ele>
        <time>2016-12-24T11:14:51Z</time>
      </trkpt>
      <trkpt lat="47.08935" lon="-1.73532">
        <ele>-0.11</ele>
        <time>2016-12-24T11:14:55Z</time>
      </trkpt>
      <trkpt lat="47.0893" lon="-1.73559">
        <ele>-1.19</ele>
        <time>2016-12-24T11:14:58Z</time>
      </trkpt>
      <trkpt lat="47.08924" lon="-1.73585">
        <ele>-2.37</ele>
        <time>2016-12-24T11:15:01Z</time>
      </trkpt>
      <trkpt lat="47.0892" lon="-1.73612">
        <ele>-3.16</ele>
        <time>2016-12-24T11:15:04Z</time>
      </trkpt>
      <trkpt lat="47.08917" lon="-1.7364">
        <ele>-2.91</ele>
        <time>2016-12-24T11:15:07Z</time>
      </trkpt>
      <trkpt lat="47.08908" lon="-1.73672">
        <ele>-2.79</ele>
        <time>2016-12-24T11:15:11Z</time>
      </trkpt>
      <trkpt lat="47.08895" lon="-1.737">
        <ele>-2.15</ele>
        <time>2016-12-24T11:15:15Z</time>
      </trkpt>
      <trkpt lat="47.08883" lon="-1.73723">
        <ele>-3.01</ele>
        <time>2016-12-24T11:15:18Z</time>
      </trkpt>
      <trkpt lat="47.08869" lon="-1.73751">
        <ele>-4.15</ele>
        <time>2016-12-24T11:15:22Z</time>
      </trkpt>
      <trkpt lat="47.08854" lon="-1.73778">
        <ele>-4.52</ele>
        <time>2016-12-24T11:15:26Z</time>
      </trkpt>
      <trkpt lat="47.08841" lon="-1.73798">
        <ele>-3.59</ele>
        <time>2016-12-24T11:15:29Z</time>
      </trkpt>
      <trkpt lat="47.08827" lon="-1.73816">
        <ele>-3.05</ele>
        <time>2016-12-24T11:15:32Z</time>
      </trkpt>
      <trkpt lat="47.08811" lon="-1.73835">
        <ele>-1.21</ele>
        <time>2016-12-24T11:15:35Z</time>
      </trkpt>
      <trkpt lat="47.08795" lon="-1.73852">
        <ele>0.37</ele>
        <time>2016-12-24T11:15:38Z</time>
      </trkpt>
      <trkpt lat="47.08781" lon="-1.73872">
        <ele>0.6</ele>
        <time>2016-12-24T11:15:41Z</time>
      </trkpt>
      <trkpt lat="47.08768" lon="-1.73896">
        <ele>0.33</ele>
        <time>2016-12-24T11:15:44Z</time>
      </trkpt>
      <trkpt lat="47.08757" lon="-1.73919">
        <ele>0.47</ele>
        <time>2016-12-24T11:15:47Z</time>
      </trkpt>
      <trkpt lat="47.08746" lon="-1.73945">
        <ele>-0.84</ele>
        <time>2016-12-24T11:15:50Z</time>
      </trkpt>
      <trkpt lat="47.08736" lon="-1.73968">
        <ele>-0.92</ele>
        <time>2016-12-24T11:15:53Z</time>
      </trkpt>
      <trkpt lat="47.08722" lon="-1.73999">
        <ele>-1.17</ele>
        <time>2016-12-24T11:15:57Z</time>
      </trkpt>
      <trkpt lat="47.08711" lon="-1.74023">
        <ele>-0.33</ele>
        <time>2016-12-24T11:16:00Z</time>
      </trkpt>
      <trkpt lat="47.087" lon="-1.74047">
        <ele>-1.25</ele>
        <time>2016-12-24T11:16:03Z</time>
      </trkpt>
      <trkpt lat="47.0869" lon="-1.74074">
        <ele>-1.77</ele>
        <time>2016-12-24T11:16:06Z</time>
      </trkpt>
      <trkpt lat="47.08679" lon="-1.74098">
        <ele>-4.23</ele>
        <time>2016-12-24T11:16:09Z</time>
      </trkpt>
      <trkpt lat="47.08669" lon="-1.74121">
        <ele>-3.9</ele>
        <time>2016-12-24T11:16:12Z</time>
      </trkpt>
      <trkpt lat="47.08659" lon="-1.74145">
        <ele>-3.71</ele>
        <time>2016-12-24T11:16:15Z</time>
      </trkpt>
      <trkpt lat="47.08643" lon="-1.7417">
        <ele>-3.06</ele>
        <time>2016-12-24T11:16:19Z</time>
      </trkpt>
      <trkpt lat="47.08629" lon="-1.74188">
        <ele>-1.71</ele>
        <time>2016-12-24T11:16:22Z</time>
      </trkpt>
      <trkpt lat="47.08613" lon="-1.74206">
        <ele>-0.53</ele>
        <time>2016-12-24T11:16:25Z</time>
      </trkpt>
      <trkpt lat="47.08596" lon="-1.74224">
        <ele>-0.22</ele>
        <time>2016-12-24T11:16:28Z</time>
      </trkpt>
      <trkpt lat="47.08581" lon="-1.74241">
        <ele>-1.31</ele>
        <time>2016-12-24T11:16:31Z</time>
      </trkpt>
      <trkpt lat="47.08565" lon="-1.74258">
        <ele>-0.87</ele>
        <time>2016-12-24T11:16:34Z</time>
      </trkpt>
      <trkpt lat="47.08551" lon="-1.74275">
        <ele>0.88</ele>
        <time>2016-12-24T11:16:37Z</time>
      </trkpt>
      <trkpt lat="47.08539" lon="-1.74302">
        <ele>0.63</ele>
        <time>2016-12-24T11:16:41Z</time>
      </trkpt>
      <trkpt lat="47.08533" lon="-1.74332">
        <ele>-0.07</ele>
        <time>2016-12-24T11:16:44Z</time>
      </trkpt>
      <trkpt lat="47.08529" lon="-1.74359">
        <ele>0.37</ele>
        <time>2016-12-24T11:16:47Z</time>
      </trkpt>
      <trkpt lat="47.08516" lon="-1.74383">
        <ele>-1.37</ele>
        <time>2016-12-24T11:16:51Z</time>
      </trkpt>
      <trkpt lat="47.08499" lon="-1.74402">
        <ele>-1.02</ele>
        <time>2016-12-24T11:16:54Z</time>
      </trkpt>
      <trkpt lat="47.08482" lon="-1.7442">
        <ele>-0.95</ele>
        <time>2016-12-24T11:16:57Z</time>
      </trkpt>
      <trkpt lat="47.08464" lon="-1.74439">
        <ele>-1.28</ele>
        <time>2016-12-24T11:17:00Z</time>
      </trkpt>
      <trkpt lat="47.0845" lon="-1.74457">
        <ele>-1.15</ele>
        <time>2016-12-24T11:17:03Z</time>
      </trkpt>
      <trkpt lat="47.08436" lon="-1.74474">
        <ele>-0.77</ele>
        <time>2016-12-24T11:17:06Z</time>
      </trkpt>
      <trkpt lat="47.08416" lon="-1.74496">
        <ele>0.36</ele>
        <time>2016-12-24T11:17:10Z</time>
      </trkpt>
      <trkpt lat="47.084" lon="-1.74513">
        <ele>1.06</ele>
        <time>2016-12-24T11:17:13Z</time>
      </trkpt>
      <trkpt lat="47.08384" lon="-1.74532">
        <ele>1.83</ele>
        <time>2016-12-24T11:17:16Z</time>
      </trkpt>
      <trkpt lat="47.08369" lon="-1.74548">
        <ele>0.2</ele>
        <time>2016-12-24T11:17:19Z</time>
      </trkpt>
      <trkpt lat="47.08352" lon="-1.74562">
        <ele>-0.43</ele>
        <time>2016-12-24T11:17:22Z</time>
      </trkpt>
      <trkpt lat="47.0833" lon="-1.74573">
        <ele>0.26</ele>
        <time>2016-12-24T11:17:26Z</time>
      </trkpt>
      <trkpt lat="47.08309" lon="-1.74587">
        <ele>2.26</ele>
        <time>2016-12-24T11:17:30Z</time>
      </trkpt>
      <trkpt lat="47.08293" lon="-1.74606">
        <ele>3.52</ele>
        <time>2016-12-24T11:17:33Z</time>
      </trkpt>
      <trkpt lat="47.08279" lon="-1.74625">
        <ele>3.62</ele>
        <time>2016-12-24T11:17:36Z</time>
      </trkpt>
      <trkpt lat="47.08266" lon="-1.74644">
        <ele>1.68</ele>
        <time>2016-12-24T11:17:39Z</time>
      </trkpt>
      <trkpt lat="47.0825" lon="-1.74665">
        <ele>1.11</ele>
        <time>2016-12-24T11:17:42Z</time>
      </trkpt>
      <trkpt lat="47.08236" lon="-1.74686">
        <ele>1.18</ele>
        <time>2016-12-24T11:17:45Z</time>
      </trkpt>
      <trkpt lat="47.08222" lon="-1.74707">
        <ele>1.95</ele>
        <time>2016-12-24T11:17:48Z</time>
      </trkpt>
      <trkpt lat="47.08209" lon="-1.74732">
        <ele>0.36</ele>
        <time>2016-12-24T11:17:51Z</time>
      </trkpt>
      <trkpt lat="47.08202" lon="-1.74759">
        <ele>0.25</ele>
        <time>2016-12-24T11:17:54Z</time>
      </trkpt>
      <trkpt lat="47.082" lon="-1.74789">
        <ele>-1.42</ele>
        <time>2016-12-24T11:17:57Z</time>
      </trkpt>
      <trkpt lat="47.08196" lon="-1.74818">
        <ele>-1.93</ele>
        <time>2016-12-24T11:18:00Z</time>
      </trkpt>
      <trkpt lat="47.08181" lon="-1.74842">
        <ele>0.96</ele>
        <time>2016-12-24T11:18:04Z</time>
      </trkpt>
      <trkpt lat="47.08164" lon="-1.74855">
        <ele>1.73</ele>
        <time>2016-12-24T11:18:07Z</time>
      </trkpt>
      <trkpt lat="47.08145" lon="-1.74867">
        <ele>3.14</ele>
        <time>2016-12-24T11:18:10Z</time>
      </trkpt>
      <trkpt lat="47.08126" lon="-1.74877">
        <ele>2.53</ele>
        <time>2016-12-24T11:18:13Z</time>
      </trkpt>
      <trkpt lat="47.08104" lon="-1.74882">
        <ele>0.06</ele>
        <time>2016-12-24T11:18:17Z</time>
      </trkpt>
      <trkpt lat="47.0808" lon="-1.74889">
        <ele>2.16</ele>
        <time>2016-12-24T11:18:21Z</time>
      </trkpt>
      <trkpt lat="47.08061" lon="-1.74903">
        <ele>2.59</ele>
        <time>2016-12-24T11:18:24Z</time>
      </trkpt>
      <trkpt lat="47.08046" lon="-1.7492">
        <ele>1.23</ele>
        <time>2016-12-24T11:18:27Z</time>
      </trkpt>
      <trkpt lat="47.08029" lon="-1.74938">
        <ele>-0.13</ele>
        <time>2016-12-24T11:18:30Z</time>
      </trkpt>
      <trkpt lat="47.0801" lon="-1.74951">
        <ele>-0.48</ele>
        <time>2016-12-24T11:18:34Z</time>
      </trkpt>
      <trkpt lat="47.07993" lon="-1.74962">
        <ele>-1.52</ele>
        <time>2016-12-24T11:18:37Z</time>
      </trkpt>
      <trkpt lat="47.07975" lon="-1.74971">
        <ele>-1.71</ele>
        <time>2016-12-24T11:18:40Z</time>
      </trkpt>
      <trkpt lat="47.07956" lon="-1.74982">
        <ele>-1.04</ele>
        <time>2016-12-24T11:18:43Z</time>
      </trkpt>
      <trkpt lat="47.07934" lon="-1.74995">
        <ele>-0.41</ele>
        <time>2016-12-24T11:18:47Z</time>
      </trkpt>
      <trkpt lat="47.07915" lon="-1.75004">
        <ele>0.29</ele>
        <time>2016-12-24T11:18:50Z</time>
      </trkpt>
      <trkpt lat="47.07896" lon="-1.75015">
        <ele>-0.09</ele>
        <time>2016-12-24T11:18:53Z</time>
      </trkpt>
      <trkpt lat="47.07876" lon="-1.75027">
        <ele>0.12</ele>
        <time>2016-12-24T11:18:57Z</time>
      </trkpt>
      <trkpt lat="47.07855" lon="-1.7504">
        <ele>1.48</ele>
        <time>2016-12-24T11:19:01Z</time>
      </trkpt>
      <trkpt lat="47.07837" lon="-1.75048">
        <ele>0.83</ele>
        <time>2016-12-24T11:19:04Z</time>
      </trkpt>
      <trkpt lat="47.07817" lon="-1.75054">
        <ele>-0.29</ele>
        <time>2016-12-24T11:19:07Z</time>
      </trkpt>
      <trkpt lat="47.07795" lon="-1.75055">
        <ele>1.95</ele>
        <time>2016-12-24T11:19:11Z</time>
      </trkpt>
      <trkpt lat="47.07773" lon="-1.75054">
        <ele>3.61</ele>
        <time>2016-12-24T11:19:15Z</time>
      </trkpt>
      <trkpt lat="47.0775" lon="-1.75055">
        <ele>2.94</ele>
        <time>2016-12-24T11:19:19Z</time>
      </trkpt>
      <trkpt lat="47.07727" lon="-1.75057">
        <ele>3.46</ele>
        <time>2016-12-24T11:19:23Z</time>
      </trkpt>
      <trkpt lat="47.07712" lon="-1.75037">
        <ele>3.43</ele>
        <time>2016-12-24T11:19:31Z</time>
      </trkpt>
      <trkpt lat="47.07716" lon="-1.7501">
        <ele>3.57</ele>
        <time>2016-12-24T11:19:34Z</time>
      </trkpt>
      <trkpt lat="47.07718" lon="-1.74984">
        <ele>4.36</ele>
        <time>2016-12-24T11:19:37Z</time>
      </trkpt>
      <trkpt lat="47.07722" lon="-1.74952">
        <ele>4.46</ele>
        <time>2016-12-24T11:19:41Z</time>
      </trkpt>
      <trkpt lat="47.07727" lon="-1.74916">
        <ele>4.31</ele>
        <time>2016-12-24T11:19:45Z</time>
      </trkpt>
      <trkpt lat="47.0773" lon="-1.74881">
        <ele>4.39</ele>
        <time>2016-12-24T11:19:49Z</time>
      </trkpt>
      <trkpt lat="47.07732" lon="-1.74854">
        <ele>3.42</ele>
        <time>2016-12-24T11:19:52Z</time>
      </trkpt>
      <trkpt lat="47.07731" lon="-1.74825">
        <ele>4.7</ele>
        <time>2016-12-24T11:19:57Z</time>
      </trkpt>
      <trkpt lat="47.07712" lon="-1.74825">
        <ele>4.47</ele>
        <time>2016-12-24T11:20:01Z</time>
      </trkpt>
      <trkpt lat="47.0769" lon="-1.74835">
        <ele>4.6</ele>
        <time>2016-12-24T11:20:05Z</time>
      </trkpt>
      <trkpt lat="47.07669" lon="-1.74841">
        <ele>5.16</ele>
        <time>2016-12-24T11:20:09Z</time>
      </trkpt>
      <trkpt lat="47.07649" lon="-1.74845">
        <ele>4.3</ele>
        <time>2016-12-24T11:20:13Z</time>
      </trkpt>
      <trkpt lat="47.07627" lon="-1.74847">
        <ele>6.17</ele>
        <time>2016-12-24T11:20:17Z</time>
      </trkpt>
      <trkpt lat="47.07604" lon="-1.74844">
        <ele>6.74</ele>
        <time>2016-12-24T11:20:21Z</time>
      </trkpt>
      <trkpt lat="47.07581" lon="-1.74838">
        <ele>7.02</ele>
        <time>2016-12-24T11:20:25Z</time>
      </trkpt>
      <trkpt lat="47.07561" lon="-1.74835">
        <ele>4.58</ele>
        <time>2016-12-24T11:20:28Z</time>
      </trkpt>
      <trkpt lat="47.07542" lon="-1.74833">
        <ele>2.76</ele>
        <time>2016-12-24T11:20:31Z</time>
      </trkpt>
      <trkpt lat="47.07524" lon="-1.74837">
        <ele>3.6</ele>
        <time>2016-12-24T11:20:34Z</time>
      </trkpt>
      <trkpt lat="47.07506" lon="-1.74844">
        <ele>3.34</ele>
        <time>2016-12-24T11:20:37Z</time>
      </trkpt>
      <trkpt lat="47.07483" lon="-1.74853">
        <ele>4.17</ele>
        <time>2016-12-24T11:20:41Z</time>
      </trkpt>
      <trkpt lat="47.07461" lon="-1.74857">
        <ele>4.45</ele>
        <time>2016-12-24T11:20:45Z</time>
      </trkpt>
      <trkpt lat="47.07443" lon="-1.74862">
        <ele>3.75</ele>
        <time>2016-12-24T11:20:48Z</time>
      </trkpt>
      <trkpt lat="47.0742" lon="-1.74866">
        <ele>3.83</ele>
        <time>2016-12-24T11:20:52Z</time>
      </trkpt>
      <trkpt lat="47.07402" lon="-1.74866">
        <ele>2.73</ele>
        <time>2016-12-24T11:20:55Z</time>
      </trkpt>
      <trkpt lat="47.07381" lon="-1.7486">
        <ele>1.81</ele>
        <time>2016-12-24T11:20:59Z</time>
      </trkpt>
      <trkpt lat="47.07357" lon="-1.74856">
        <ele>2.33</ele>
        <time>2016-12-24T11:21:03Z</time>
      </trkpt>
      <trkpt lat="47.07339" lon="-1.74855">
        <ele>1.89</ele>
        <time>2016-12-24T11:21:06Z</time>
      </trkpt>
      <trkpt lat="47.07317" lon="-1.74855">
        <ele>1.86</ele>
        <time>2016-12-24T11:21:10Z</time>
      </trkpt>
      <trkpt lat="47.07298" lon="-1.74854">
        <ele>0.79</ele>
        <time>2016-12-24T11:21:13Z</time>
      </trkpt>
      <trkpt lat="47.07275" lon="-1.74851">
        <ele>0.27</ele>
        <time>2016-12-24T11:21:17Z</time>
      </trkpt>
      <trkpt lat="47.07254" lon="-1.7485">
        <ele>1.9</ele>
        <time>2016-12-24T11:21:21Z</time>
      </trkpt>
      <trkpt lat="47.07236" lon="-1.74854">
        <ele>3.22</ele>
        <time>2016-12-24T11:21:24Z</time>
      </trkpt>
      <trkpt lat="47.07214" lon="-1.74861">
        <ele>3.88</ele>
        <time>2016-12-24T11:21:28Z</time>
      </trkpt>
      <trkpt lat="47.07193" lon="-1.7486">
        <ele>4.16</ele>
        <time>2016-12-24T11:21:32Z</time>
      </trkpt>
      <trkpt lat="47.07172" lon="-1.74852">
        <ele>4.72</ele>
        <time>2016-12-24T11:21:36Z</time>
      </trkpt>
      <trkpt lat="47.0715" lon="-1.74852">
        <ele>3.6</ele>
        <time>2016-12-24T11:21:40Z</time>
      </trkpt>
      <trkpt lat="47.07127" lon="-1.74847">
        <ele>2.6</ele>
        <time>2016-12-24T11:21:44Z</time>
      </trkpt>
      <trkpt lat="47.07106" lon="-1.74839">
        <ele>1.76</ele>
        <time>2016-12-24T11:21:48Z</time>
      </trkpt>
      <trkpt lat="47.07087" lon="-1.74836">
        <ele>1.38</ele>
        <time>2016-12-24T11:21:51Z</time>
      </trkpt>
      <trkpt lat="47.07064" lon="-1.74834">
        <ele>1.39</ele>
        <time>2016-12-24T11:21:55Z</time>
      </trkpt>
      <trkpt lat="47.07041" lon="-1.74834">
        <ele>-0.8</ele>
        <time>2016-12-24T11:21:59Z</time>
      </trkpt>
      <trkpt lat="47.07023" lon="-1.74834">
        <ele>-1.34</ele>
        <time>2016-12-24T11:22:02Z</time>
      </trkpt>
      <trkpt lat="47.07004" lon="-1.74842">
        <ele>-0.64</ele>
        <time>2016-12-24T11:22:05Z</time>
      </trkpt>
      <trkpt lat="47.06984" lon="-1.74856">
        <ele>0.19</ele>
        <time>2016-12-24T11:22:09Z</time>
      </trkpt>
      <trkpt lat="47.06961" lon="-1.74861">
        <ele>0.88</ele>
        <time>2016-12-24T11:22:13Z</time>
      </trkpt>
      <trkpt lat="47.06941" lon="-1.74858">
        <ele>2.04</ele>
        <time>2016-12-24T11:22:16Z</time>
      </trkpt>
      <trkpt lat="47.06923" lon="-1.74856">
        <ele>2.26</ele>
        <time>2016-12-24T11:22:19Z</time>
      </trkpt>
      <trkpt lat="47.06905" lon="-1.74854">
        <ele>4.07</ele>
        <time>2016-12-24T11:22:22Z</time>
      </trkpt>
      <trkpt lat="47.06885" lon="-1.74853">
        <ele>3.37</ele>
        <time>2016-12-24T11:22:25Z</time>
      </trkpt>
      <trkpt lat="47.06864" lon="-1.74852">
        <ele>3.81</ele>
        <time>2016-12-24T11:22:29Z</time>
      </trkpt>
      <trkpt lat="47.0684" lon="-1.7485">
        <ele>5.35</ele>
        <time>2016-12-24T11:22:33Z</time>
      </trkpt>
      <trkpt lat="47.06816" lon="-1.74849">
        <ele>4.63</ele>
        <time>2016-12-24T11:22:37Z</time>
      </trkpt>
      <trkpt lat="47.06797" lon="-1.74846">
        <ele>4.82</ele>
        <time>2016-12-24T11:22:40Z</time>
      </trkpt>
      <trkpt lat="47.06779" lon="-1.74828">
        <ele>5.71</ele>
        <time>2016-12-24T11:22:44Z</time>
      </trkpt>
      <trkpt lat="47.06762" lon="-1.74806">
        <ele>1.74</ele>
        <time>2016-12-24T11:22:48Z</time>
      </trkpt>
      <trkpt lat="47.06744" lon="-1.74785">
        <ele>0.13</ele>
        <time>2016-12-24T11:22:52Z</time>
      </trkpt>
      <trkpt lat="47.06723" lon="-1.74775">
        <ele>1.41</ele>
        <time>2016-12-24T11:22:56Z</time>
      </trkpt>
      <trkpt lat="47.06702" lon="-1.74771">
        <ele>0.96</ele>
        <time>2016-12-24T11:22:59Z</time>
      </trkpt>
      <trkpt lat="47.06684" lon="-1.74775">
        <ele>1.3</ele>
        <time>2016-12-24T11:23:02Z</time>
      </trkpt>
      <trkpt lat="47.06667" lon="-1.74784">
        <ele>2.38</ele>
        <time>2016-12-24T11:23:05Z</time>
      </trkpt>
      <trkpt lat="47.06645" lon="-1.74795">
        <ele>2.85</ele>
        <time>2016-12-24T11:23:09Z</time>
      </trkpt>
      <trkpt lat="47.06624" lon="-1.74807">
        <ele>1.97</ele>
        <time>2016-12-24T11:23:13Z</time>
      </trkpt>
      <trkpt lat="47.06601" lon="-1.74817">
        <ele>2.9</ele>
        <time>2016-12-24T11:23:17Z</time>
      </trkpt>
      <trkpt lat="47.06582" lon="-1.74821">
        <ele>2.15</ele>
        <time>2016-12-24T11:23:21Z</time>
      </trkpt>
      <trkpt lat="47.06563" lon="-1.74813">
        <ele>2.22</ele>
        <time>2016-12-24T11:23:25Z</time>
      </trkpt>
      <trkpt lat="47.06545" lon="-1.74802">
        <ele>2.62</ele>
        <time>2016-12-24T11:23:30Z</time>
      </trkpt>
      <trkpt lat="47.06527" lon="-1.74793">
        <ele>3.01</ele>
        <time>2016-12-24T11:23:36Z</time>
      </trkpt>
      <trkpt lat="47.06506" lon="-1.74782">
        <ele>1.93</ele>
        <time>2016-12-24T11:24:19Z</time>
      </trkpt>
      <trkpt lat="47.06485" lon="-1.74782">
        <ele>3.26</ele>
        <time>2016-12-24T11:24:23Z</time>
      </trkpt>
      <trkpt lat="47.06462" lon="-1.74791">
        <ele>4.12</ele>
        <time>2016-12-24T11:24:27Z</time>
      </trkpt>
      <trkpt lat="47.06438" lon="-1.74796">
        <ele>3.02</ele>
        <time>2016-12-24T11:24:31Z</time>
      </trkpt>
      <trkpt lat="47.0642" lon="-1.74791">
        <ele>4.36</ele>
        <time>2016-12-24T11:24:34Z</time>
      </trkpt>
      <trkpt lat="47.064" lon="-1.74786">
        <ele>5.86</ele>
        <time>2016-12-24T11:24:37Z</time>
      </trkpt>
      <trkpt lat="47.06381" lon="-1.74781">
        <ele>7.21</ele>
        <time>2016-12-24T11:24:40Z</time>
      </trkpt>
      <trkpt lat="47.06359" lon="-1.74779">
        <ele>5.58</ele>
        <time>2016-12-24T11:24:44Z</time>
      </trkpt>
      <trkpt lat="47.06339" lon="-1.74782">
        <ele>3.58</ele>
        <time>2016-12-24T11:24:47Z</time>
      </trkpt>
      <trkpt lat="47.06318" lon="-1.74785">
        <ele>2.02</ele>
        <time>2016-12-24T11:24:51Z</time>
      </trkpt>
      <trkpt lat="47.06303" lon="-1.74766">
        <ele>1.11</ele>
        <time>2016-12-24T11:24:56Z</time>
      </trkpt>
      <trkpt lat="47.06294" lon="-1.74743">
        <ele>1.34</ele>
        <time>2016-12-24T11:25:01Z</time>
      </trkpt>
      <trkpt lat="47.06284" lon="-1.74721">
        <ele>1.64</ele>
        <time>2016-12-24T11:25:13Z</time>
      </trkpt>
      <trkpt lat="47.06272" lon="-1.74701">
        <ele>1.86</ele>
        <time>2016-12-24T11:25:17Z</time>
      </trkpt>
      <trkpt lat="47.0626" lon="-1.74676">
        <ele>2.96</ele>
        <time>2016-12-24T11:25:21Z</time>
      </trkpt>
      <trkpt lat="47.06249" lon="-1.74655">
        <ele>2.32</ele>
        <time>2016-12-24T11:25:24Z</time>
      </trkpt>
      <trkpt lat="47.06238" lon="-1.74635">
        <ele>2.85</ele>
        <time>2016-12-24T11:25:27Z</time>
      </trkpt>
      <trkpt lat="47.06226" lon="-1.7461">
        <ele>3.69</ele>
        <time>2016-12-24T11:25:30Z</time>
      </trkpt>
      <trkpt lat="47.06215" lon="-1.74585">
        <ele>1.42</ele>
        <time>2016-12-24T11:25:33Z</time>
      </trkpt>
      <trkpt lat="47.06204" lon="-1.74561">
        <ele>0.96</ele>
        <time>2016-12-24T11:25:36Z</time>
      </trkpt>
      <trkpt lat="47.06192" lon="-1.74533">
        <ele>2.2</ele>
        <time>2016-12-24T11:25:40Z</time>
      </trkpt>
      <trkpt lat="47.0618" lon="-1.7451">
        <ele>1.2</ele>
        <time>2016-12-24T11:25:43Z</time>
      </trkpt>
      <trkpt lat="47.06169" lon="-1.74487">
        <ele>2.32</ele>
        <time>2016-12-24T11:25:46Z</time>
      </trkpt>
      <trkpt lat="47.06156" lon="-1.74464">
        <ele>1.78</ele>
        <time>2016-12-24T11:25:49Z</time>
      </trkpt>
      <trkpt lat="47.06143" lon="-1.74442">
        <ele>1.68</ele>
        <time>2016-12-24T11:25:52Z</time>
      </trkpt>
      <trkpt lat="47.06128" lon="-1.74413">
        <ele>0.8</ele>
        <time>2016-12-24T11:25:56Z</time>
      </trkpt>
      <trkpt lat="47.06116" lon="-1.74391">
        <ele>1.01</ele>
        <time>2016-12-24T11:25:59Z</time>
      </trkpt>
      <trkpt lat="47.06103" lon="-1.74363">
        <ele>0.73</ele>
        <time>2016-12-24T11:26:03Z</time>
      </trkpt>
      <trkpt lat="47.06089" lon="-1.74342">
        <ele>-0.45</ele>
        <time>2016-12-24T11:26:06Z</time>
      </trkpt>
      <trkpt lat="47.06075" lon="-1.7432">
        <ele>0.39</ele>
        <time>2016-12-24T11:26:10Z</time>
      </trkpt>
      <trkpt lat="47.0606" lon="-1.74293">
        <ele>-0.02</ele>
        <time>2016-12-24T11:26:14Z</time>
      </trkpt>
      <trkpt lat="47.06049" lon="-1.74271">
        <ele>-0.59</ele>
        <time>2016-12-24T11:26:17Z</time>
      </trkpt>
      <trkpt lat="47.06036" lon="-1.74244">
        <ele>0.89</ele>
        <time>2016-12-24T11:26:21Z</time>
      </trkpt>
      <trkpt lat="47.06024" lon="-1.74221">
        <ele>1.9</ele>
        <time>2016-12-24T11:26:24Z</time>
      </trkpt>
      <trkpt lat="47.06012" lon="-1.74196">
        <ele>2.01</ele>
        <time>2016-12-24T11:26:28Z</time>
      </trkpt>
      <trkpt lat="47.05999" lon="-1.74169">
        <ele>0.84</ele>
        <time>2016-12-24T11:26:31Z</time>
      </trkpt>
      <trkpt lat="47.05984" lon="-1.74141">
        <ele>0.57</ele>
        <time>2016-12-24T11:26:35Z</time>
      </trkpt>
      <trkpt lat="47.05972" lon="-1.7412">
        <ele>1.4</ele>
        <time>2016-12-24T11:26:38Z</time>
      </trkpt>
      <trkpt lat="47.05956" lon="-1.74093">
        <ele>0.65</ele>
        <time>2016-12-24T11:26:42Z</time>
      </trkpt>
      <trkpt lat="47.05942" lon="-1.74064">
        <ele>-1.22</ele>
        <time>2016-12-24T11:26:46Z</time>
      </trkpt>
      <trkpt lat="47.05931" lon="-1.74043">
        <ele>0.2</ele>
        <time>2016-12-24T11:26:49Z</time>
      </trkpt>
      <trkpt lat="47.05918" lon="-1.74018">
        <ele>1.69</ele>
        <time>2016-12-24T11:26:53Z</time>
      </trkpt>
      <trkpt lat="47.05907" lon="-1.73994">
        <ele>2.51</ele>
        <time>2016-12-24T11:26:57Z</time>
      </trkpt>
      <trkpt lat="47.05894" lon="-1.73975">
        <ele>2.38</ele>
        <time>2016-12-24T11:27:07Z</time>
      </trkpt>
      <trkpt lat="47.05882" lon="-1.73954">
        <ele>1.85</ele>
        <time>2016-12-24T11:27:12Z</time>
      </trkpt>
      <trkpt lat="47.05871" lon="-1.73932">
        <ele>0.79</ele>
        <time>2016-12-24T11:27:16Z</time>
      </trkpt>
      <trkpt lat="47.05858" lon="-1.73912">
        <ele>1.09</ele>
        <time>2016-12-24T11:27:19Z</time>
      </trkpt>
      <trkpt lat="47.05842" lon="-1.73886">
        <ele>1.87</ele>
        <time>2016-12-24T11:27:23Z</time>
      </trkpt>
      <trkpt lat="47.05833" lon="-1.73863">
        <ele>1.55</ele>
        <time>2016-12-24T11:27:26Z</time>
      </trkpt>
      <trkpt lat="47.05825" lon="-1.73831">
        <ele>1.78</ele>
        <time>2016-12-24T11:27:30Z</time>
      </trkpt>
      <trkpt lat="47.0582" lon="-1.73804">
        <ele>2.02</ele>
        <time>2016-12-24T11:27:33Z</time>
      </trkpt>
      <trkpt lat="47.05815" lon="-1.73768">
        <ele>0.51</ele>
        <time>2016-12-24T11:27:37Z</time>
      </trkpt>
      <trkpt lat="47.05815" lon="-1.73739">
        <ele>0.31</ele>
        <time>2016-12-24T11:27:40Z</time>
      </trkpt>
      <trkpt lat="47.05817" lon="-1.73712">
        <ele>1.28</ele>
        <time>2016-12-24T11:27:43Z</time>
      </trkpt>
      <trkpt lat="47.05819" lon="-1.73683">
        <ele>1.79</ele>
        <time>2016-12-24T11:27:46Z</time>
      </trkpt>
      <trkpt lat="47.05822" lon="-1.73656">
        <ele>1.75</ele>
        <time>2016-12-24T11:27:49Z</time>
      </trkpt>
      <trkpt lat="47.05826" lon="-1.7362">
        <ele>2.13</ele>
        <time>2016-12-24T11:27:53Z</time>
      </trkpt>
      <trkpt lat="47.05826" lon="-1.73593">
        <ele>2.7</ele>
        <time>2016-12-24T11:27:56Z</time>
      </trkpt>
      <trkpt lat="47.05828" lon="-1.73564">
        <ele>2.56</ele>
        <time>2016-12-24T11:27:59Z</time>
      </trkpt>
      <trkpt lat="47.0583" lon="-1.73536">
        <ele>2.17</ele>
        <time>2016-12-24T11:28:02Z</time>
      </trkpt>
      <trkpt lat="47.05834" lon="-1.73506">
        <ele>1.25</ele>
        <time>2016-12-24T11:28:05Z</time>
      </trkpt>
      <trkpt lat="47.05837" lon="-1.73479">
        <ele>0.84</ele>
        <time>2016-12-24T11:28:08Z</time>
      </trkpt>
      <trkpt lat="47.0584" lon="-1.7345">
        <ele>1.92</ele>
        <time>2016-12-24T11:28:11Z</time>
      </trkpt>
      <trkpt lat="47.05845" lon="-1.73421">
        <ele>1.96</ele>
        <time>2016-12-24T11:28:14Z</time>
      </trkpt>
      <trkpt lat="47.05849" lon="-1.73387">
        <ele>2.61</ele>
        <time>2016-12-24T11:28:18Z</time>
      </trkpt>
      <trkpt lat="47.05852" lon="-1.7335">
        <ele>0.23</ele>
        <time>2016-12-24T11:28:22Z</time>
      </trkpt>
      <trkpt lat="47.05855" lon="-1.73321">
        <ele>0.82</ele>
        <time>2016-12-24T11:28:25Z</time>
      </trkpt>
      <trkpt lat="47.05857" lon="-1.73286">
        <ele>2.1</ele>
        <time>2016-12-24T11:28:29Z</time>
      </trkpt>
      <trkpt lat="47.0586" lon="-1.73256">
        <ele>1.6</ele>
        <time>2016-12-24T11:28:32Z</time>
      </trkpt>
      <trkpt lat="47.0586" lon="-1.73229">
        <ele>1.07</ele>
        <time>2016-12-24T11:28:35Z</time>
      </trkpt>
      <trkpt lat="47.05852" lon="-1.73201">
        <ele>-0.17</ele>
        <time>2016-12-24T11:28:38Z</time>
      </trkpt>
      <trkpt lat="47.0584" lon="-1.73179">
        <ele>0.79</ele>
        <time>2016-12-24T11:28:41Z</time>
      </trkpt>
      <trkpt lat="47.05826" lon="-1.73159">
        <ele>1.35</ele>
        <time>2016-12-24T11:28:44Z</time>
      </trkpt>
      <trkpt lat="47.05813" lon="-1.73139">
        <ele>2.46</ele>
        <time>2016-12-24T11:28:47Z</time>
      </trkpt>
      <trkpt lat="47.05799" lon="-1.73116">
        <ele>4.97</ele>
        <time>2016-12-24T11:28:51Z</time>
      </trkpt>
      <trkpt lat="47.05785" lon="-1.73095">
        <ele>4.04</ele>
        <time>2016-12-24T11:28:54Z</time>
      </trkpt>
      <trkpt lat="47.05772" lon="-1.73074">
        <ele>3.76</ele>
        <time>2016-12-24T11:28:57Z</time>
      </trkpt>
      <trkpt lat="47.05756" lon="-1.73049">
        <ele>5.3</ele>
        <time>2016-12-24T11:29:01Z</time>
      </trkpt>
      <trkpt lat="47.05741" lon="-1.73023">
        <ele>6.68</ele>
        <time>2016-12-24T11:29:05Z</time>
      </trkpt>
      <trkpt lat="47.05725" lon="-1.72997">
        <ele>8.9</ele>
        <time>2016-12-24T11:29:09Z</time>
      </trkpt>
      <trkpt lat="47.05709" lon="-1.72973">
        <ele>9.02</ele>
        <time>2016-12-24T11:29:13Z</time>
      </trkpt>
      <trkpt lat="47.05696" lon="-1.72953">
        <ele>9.38</ele>
        <time>2016-12-24T11:29:17Z</time>
      </trkpt>
      <trkpt lat="47.05682" lon="-1.72924">
        <ele>10.16</ele>
        <time>2016-12-24T11:29:21Z</time>
      </trkpt>
      <trkpt lat="47.05672" lon="-1.72893">
        <ele>9.67</ele>
        <time>2016-12-24T11:29:25Z</time>
      </trkpt>
      <trkpt lat="47.05665" lon="-1.72866">
        <ele>10.27</ele>
        <time>2016-12-24T11:29:29Z</time>
      </trkpt>
      <trkpt lat="47.05659" lon="-1.72837">
        <ele>12.44</ele>
        <time>2016-12-24T11:29:33Z</time>
      </trkpt>
      <trkpt lat="47.05653" lon="-1.7281">
        <ele>14.51</ele>
        <time>2016-12-24T11:29:36Z</time>
      </trkpt>
      <trkpt lat="47.05647" lon="-1.72782">
        <ele>18.03</ele>
        <time>2016-12-24T11:29:40Z</time>
      </trkpt>
      <trkpt lat="47.05637" lon="-1.72756">
        <ele>18.49</ele>
        <time>2016-12-24T11:29:44Z</time>
      </trkpt>
      <trkpt lat="47.05629" lon="-1.72729">
        <ele>18.66</ele>
        <time>2016-12-24T11:29:48Z</time>
      </trkpt>
      <trkpt lat="47.05619" lon="-1.72704">
        <ele>19.95</ele>
        <time>2016-12-24T11:29:52Z</time>
      </trkpt>
      <trkpt lat="47.05608" lon="-1.72678">
        <ele>19.21</ele>
        <time>2016-12-24T11:29:56Z</time>
      </trkpt>
      <trkpt lat="47.05598" lon="-1.7265">
        <ele>18.46</ele>
        <time>2016-12-24T11:30:01Z</time>
      </trkpt>
      <trkpt lat="47.05582" lon="-1.72636">
        <ele>18.91</ele>
        <time>2016-12-24T11:30:08Z</time>
      </trkpt>
      <trkpt lat="47.05569" lon="-1.72613">
        <ele>19.3</ele>
        <time>2016-12-24T11:30:12Z</time>
      </trkpt>
      <trkpt lat="47.05563" lon="-1.72588">
        <ele>20.57</ele>
        <time>2016-12-24T11:30:15Z</time>
      </trkpt>
      <trkpt lat="47.05557" lon="-1.72557">
        <ele>22.8</ele>
        <time>2016-12-24T11:30:19Z</time>
      </trkpt>
      <trkpt lat="47.05551" lon="-1.72526">
        <ele>23.89</ele>
        <time>2016-12-24T11:30:23Z</time>
      </trkpt>
      <trkpt lat="47.05547" lon="-1.725">
        <ele>22.32</ele>
        <time>2016-12-24T11:30:26Z</time>
      </trkpt>
      <trkpt lat="47.05539" lon="-1.72467">
        <ele>22.66</ele>
        <time>2016-12-24T11:30:30Z</time>
      </trkpt>
      <trkpt lat="47.05531" lon="-1.72437">
        <ele>23.66</ele>
        <time>2016-12-24T11:30:34Z</time>
      </trkpt>
      <trkpt lat="47.05523" lon="-1.72407">
        <ele>23.41</ele>
        <time>2016-12-24T11:30:38Z</time>
      </trkpt>
      <trkpt lat="47.05514" lon="-1.72376">
        <ele>23.45</ele>
        <time>2016-12-24T11:30:42Z</time>
      </trkpt>
      <trkpt lat="47.05505" lon="-1.72343">
        <ele>22.25</ele>
        <time>2016-12-24T11:30:46Z</time>
      </trkpt>
      <trkpt lat="47.05496" lon="-1.72311">
        <ele>21.74</ele>
        <time>2016-12-24T11:30:50Z</time>
      </trkpt>
      <trkpt lat="47.05485" lon="-1.72279">
        <ele>21.12</ele>
        <time>2016-12-24T11:30:54Z</time>
      </trkpt>
      <trkpt lat="47.05478" lon="-1.72252">
        <ele>20.84</ele>
        <time>2016-12-24T11:30:57Z</time>
      </trkpt>
      <trkpt lat="47.05473" lon="-1.72224">
        <ele>20.5</ele>
        <time>2016-12-24T11:31:00Z</time>
      </trkpt>
      <trkpt lat="47.05466" lon="-1.72194">
        <ele>19.07</ele>
        <time>2016-12-24T11:31:03Z</time>
      </trkpt>
      <trkpt lat="47.05459" lon="-1.72163">
        <ele>17.97</ele>
        <time>2016-12-24T11:31:06Z</time>
      </trkpt>
      <trkpt lat="47.05452" lon="-1.72131">
        <ele>16.38</ele>
        <time>2016-12-24T11:31:09Z</time>
      </trkpt>
      <trkpt lat="47.05446" lon="-1.72096">
        <ele>14.45</ele>
        <time>2016-12-24T11:31:12Z</time>
      </trkpt>
      <trkpt lat="47.05438" lon="-1.72063">
        <ele>13.26</ele>
        <time>2016-12-24T11:31:15Z</time>
      </trkpt>
      <trkpt lat="47.0543" lon="-1.72029">
        <ele>11.63</ele>
        <time>2016-12-24T11:31:18Z</time>
      </trkpt>
      <trkpt lat="47.05424" lon="-1.71994">
        <ele>11.09</ele>
        <time>2016-12-24T11:31:21Z</time>
      </trkpt>
      <trkpt lat="47.05416" lon="-1.71961">
        <ele>10.31</ele>
        <time>2016-12-24T11:31:24Z</time>
      </trkpt>
      <trkpt lat="47.0541" lon="-1.71933">
        <ele>9.72</ele>
        <time>2016-12-24T11:31:27Z</time>
      </trkpt>
      <trkpt lat="47.05404" lon="-1.71903">
        <ele>9.3</ele>
        <time>2016-12-24T11:31:30Z</time>
      </trkpt>
      <trkpt lat="47.05397" lon="-1.71873">
        <ele>10.63</ele>
        <time>2016-12-24T11:31:33Z</time>
      </trkpt>
      <trkpt lat="47.05391" lon="-1.71848">
        <ele>10.22</ele>
        <time>2016-12-24T11:31:36Z</time>
      </trkpt>
      <trkpt lat="47.05385" lon="-1.7182">
        <ele>9.78</ele>
        <time>2016-12-24T11:31:39Z</time>
      </trkpt>
      <trkpt lat="47.05379" lon="-1.71789">
        <ele>9.89</ele>
        <time>2016-12-24T11:31:42Z</time>
      </trkpt>
      <trkpt lat="47.05377" lon="-1.71759">
        <ele>11.43</ele>
        <time>2016-12-24T11:31:45Z</time>
      </trkpt>
      <trkpt lat="47.05379" lon="-1.71731">
        <ele>12.8</ele>
        <time>2016-12-24T11:31:48Z</time>
      </trkpt>
      <trkpt lat="47.05383" lon="-1.71698">
        <ele>13.77</ele>
        <time>2016-12-24T11:31:51Z</time>
      </trkpt>
      <trkpt lat="47.05387" lon="-1.71667">
        <ele>13.49</ele>
        <time>2016-12-24T11:31:54Z</time>
      </trkpt>
      <trkpt lat="47.0539" lon="-1.71636">
        <ele>12.17</ele>
        <time>2016-12-24T11:31:57Z</time>
      </trkpt>
      <trkpt lat="47.05393" lon="-1.71604">
        <ele>11.3</ele>
        <time>2016-12-24T11:32:00Z</time>
      </trkpt>
      <trkpt lat="47.05395" lon="-1.71575">
        <ele>9.63</ele>
        <time>2016-12-24T11:32:03Z</time>
      </trkpt>
      <trkpt lat="47.05398" lon="-1.71545">
        <ele>7.97</ele>
        <time>2016-12-24T11:32:06Z</time>
      </trkpt>
      <trkpt lat="47.05402" lon="-1.71514">
        <ele>9.46</ele>
        <time>2016-12-24T11:32:09Z</time>
      </trkpt>
      <trkpt lat="47.05404" lon="-1.71484">
        <ele>10.19</ele>
        <time>2016-12-24T11:32:12Z</time>
      </trkpt>
      <trkpt lat="47.05406" lon="-1.71456">
        <ele>9.95</ele>
        <time>2016-12-24T11:32:15Z</time>
      </trkpt>
      <trkpt lat="47.05407" lon="-1.71426">
        <ele>9.23</ele>
        <time>2016-12-24T11:32:18Z</time>
      </trkpt>
      <trkpt lat="47.05407" lon="-1.71396">
        <ele>8.97</ele>
        <time>2016-12-24T11:32:21Z</time>
      </trkpt>
      <trkpt lat="47.05404" lon="-1.71367">
        <ele>8.58</ele>
        <time>2016-12-24T11:32:24Z</time>
      </trkpt>
      <trkpt lat="47.05399" lon="-1.7134">
        <ele>7.67</ele>
        <time>2016-12-24T11:32:27Z</time>
      </trkpt>
      <trkpt lat="47.05394" lon="-1.71311">
        <ele>7.71</ele>
        <time>2016-12-24T11:32:30Z</time>
      </trkpt>
      <trkpt lat="47.0539" lon="-1.71284">
        <ele>8.1</ele>
        <time>2016-12-24T11:32:33Z</time>
      </trkpt>
      <trkpt lat="47.05386" lon="-1.71255">
        <ele>7.3</ele>
        <time>2016-12-24T11:32:36Z</time>
      </trkpt>
      <trkpt lat="47.05385" lon="-1.71226">
        <ele>8.7</ele>
        <time>2016-12-24T11:32:39Z</time>
      </trkpt>
      <trkpt lat="47.05386" lon="-1.71196">
        <ele>9.58</ele>
        <time>2016-12-24T11:32:42Z</time>
      </trkpt>
      <trkpt lat="47.05388" lon="-1.71166">
        <ele>10.14</ele>
        <time>2016-12-24T11:32:45Z</time>
      </trkpt>
      <trkpt lat="47.05391" lon="-1.71139">
        <ele>10.84</ele>
        <time>2016-12-24T11:32:48Z</time>
      </trkpt>
      <trkpt lat="47.05395" lon="-1.7111">
        <ele>10.66</ele>
        <time>2016-12-24T11:32:51Z</time>
      </trkpt>
      <trkpt lat="47.05399" lon="-1.71079">
        <ele>9.57</ele>
        <time>2016-12-24T11:32:54Z</time>
      </trkpt>
      <trkpt lat="47.05401" lon="-1.71052">
        <ele>8.54</ele>
        <time>2016-12-24T11:32:57Z</time>
      </trkpt>
      <trkpt lat="47.05404" lon="-1.71022">
        <ele>9.66</ele>
        <time>2016-12-24T11:33:00Z</time>
      </trkpt>
      <trkpt lat="47.05407" lon="-1.70994">
        <ele>10.5</ele>
        <time>2016-12-24T11:33:03Z</time>
      </trkpt>
      <trkpt lat="47.0541" lon="-1.70964">
        <ele>10.46</ele>
        <time>2016-12-24T11:33:06Z</time>
      </trkpt>
      <trkpt lat="47.05412" lon="-1.70934">
        <ele>10.33</ele>
        <time>2016-12-24T11:33:09Z</time>
      </trkpt>
      <trkpt lat="47.05415" lon="-1.70901">
        <ele>10.57</ele>
        <time>2016-12-24T11:33:12Z</time>
      </trkpt>
      <trkpt lat="47.05416" lon="-1.70868">
        <ele>10.86</ele>
        <time>2016-12-24T11:33:15Z</time>
      </trkpt>
      <trkpt lat="47.05413" lon="-1.70839">
        <ele>9.66</ele>
        <time>2016-12-24T11:33:18Z</time>
      </trkpt>
      <trkpt lat="47.05409" lon="-1.7081">
        <ele>9.68</ele>
        <time>2016-12-24T11:33:21Z</time>
      </trkpt>
      <trkpt lat="47.05402" lon="-1.70781">
        <ele>8.69</ele>
        <time>2016-12-24T11:33:24Z</time>
      </trkpt>
      <trkpt lat="47.05398" lon="-1.70752">
        <ele>8.58</ele>
        <time>2016-12-24T11:33:27Z</time>
      </trkpt>
      <trkpt lat="47.05392" lon="-1.70724">
        <ele>8.25</ele>
        <time>2016-12-24T11:33:30Z</time>
      </trkpt>
      <trkpt lat="47.05386" lon="-1.70699">
        <ele>6.38</ele>
        <time>2016-12-24T11:33:33Z</time>
      </trkpt>
      <trkpt lat="47.05382" lon="-1.7067">
        <ele>6.34</ele>
        <time>2016-12-24T11:33:36Z</time>
      </trkpt>
      <trkpt lat="47.05377" lon="-1.70643">
        <ele>6.92</ele>
        <time>2016-12-24T11:33:39Z</time>
      </trkpt>
      <trkpt lat="47.05373" lon="-1.70616">
        <ele>7.31</ele>
        <time>2016-12-24T11:33:42Z</time>
      </trkpt>
      <trkpt lat="47.05368" lon="-1.70583">
        <ele>7.34</ele>
        <time>2016-12-24T11:33:46Z</time>
      </trkpt>
      <trkpt lat="47.05363" lon="-1.70553">
        <ele>7.34</ele>
        <time>2016-12-24T11:33:49Z</time>
      </trkpt>
      <trkpt lat="47.05359" lon="-1.70527">
        <ele>8.01</ele>
        <time>2016-12-24T11:33:52Z</time>
      </trkpt>
      <trkpt lat="47.05354" lon="-1.70497">
        <ele>7.55</ele>
        <time>2016-12-24T11:33:55Z</time>
      </trkpt>
      <trkpt lat="47.05349" lon="-1.7047">
        <ele>8</ele>
        <time>2016-12-24T11:33:58Z</time>
      </trkpt>
      <trkpt lat="47.05344" lon="-1.70444">
        <ele>8.17</ele>
        <time>2016-12-24T11:34:01Z</time>
      </trkpt>
      <trkpt lat="47.05337" lon="-1.70415">
        <ele>7.9</ele>
        <time>2016-12-24T11:34:04Z</time>
      </trkpt>
      <trkpt lat="47.0533" lon="-1.70388">
        <ele>7.66</ele>
        <time>2016-12-24T11:34:07Z</time>
      </trkpt>
      <trkpt lat="47.05322" lon="-1.70363">
        <ele>7.3</ele>
        <time>2016-12-24T11:34:10Z</time>
      </trkpt>
      <trkpt lat="47.05313" lon="-1.70338">
        <ele>7.59</ele>
        <time>2016-12-24T11:34:13Z</time>
      </trkpt>
      <trkpt lat="47.05302" lon="-1.70306">
        <ele>6.94</ele>
        <time>2016-12-24T11:34:17Z</time>
      </trkpt>
      <trkpt lat="47.05291" lon="-1.7028">
        <ele>6.54</ele>
        <time>2016-12-24T11:34:20Z</time>
      </trkpt>
      <trkpt lat="47.05281" lon="-1.70254">
        <ele>6.28</ele>
        <time>2016-12-24T11:34:23Z</time>
      </trkpt>
      <trkpt lat="47.0527" lon="-1.70226">
        <ele>6.15</ele>
        <time>2016-12-24T11:34:26Z</time>
      </trkpt>
      <trkpt lat="47.05261" lon="-1.70202">
        <ele>5.96</ele>
        <time>2016-12-24T11:34:29Z</time>
      </trkpt>
      <trkpt lat="47.0525" lon="-1.70172">
        <ele>4.62</ele>
        <time>2016-12-24T11:34:32Z</time>
      </trkpt>
      <trkpt lat="47.0524" lon="-1.70145">
        <ele>4.44</ele>
        <time>2016-12-24T11:34:35Z</time>
      </trkpt>
      <trkpt lat="47.0523" lon="-1.70119">
        <ele>3.62</ele>
        <time>2016-12-24T11:34:38Z</time>
      </trkpt>
      <trkpt lat="47.05219" lon="-1.70089">
        <ele>3.47</ele>
        <time>2016-12-24T11:34:41Z</time>
      </trkpt>
      <trkpt lat="47.05209" lon="-1.7006">
        <ele>2.71</ele>
        <time>2016-12-24T11:34:44Z</time>
      </trkpt>
      <trkpt lat="47.05199" lon="-1.70035">
        <ele>3.26</ele>
        <time>2016-12-24T11:34:47Z</time>
      </trkpt>
      <trkpt lat="47.0519" lon="-1.70009">
        <ele>2.81</ele>
        <time>2016-12-24T11:34:50Z</time>
      </trkpt>
      <trkpt lat="47.0518" lon="-1.69983">
        <ele>2.65</ele>
        <time>2016-12-24T11:34:53Z</time>
      </trkpt>
      <trkpt lat="47.0517" lon="-1.69956">
        <ele>2.78</ele>
        <time>2016-12-24T11:34:56Z</time>
      </trkpt>
      <trkpt lat="47.05161" lon="-1.69929">
        <ele>2.98</ele>
        <time>2016-12-24T11:34:59Z</time>
      </trkpt>
      <trkpt lat="47.05154" lon="-1.69902">
        <ele>1.94</ele>
        <time>2016-12-24T11:35:02Z</time>
      </trkpt>
      <trkpt lat="47.05151" lon="-1.6987">
        <ele>0.76</ele>
        <time>2016-12-24T11:35:05Z</time>
      </trkpt>
      <trkpt lat="47.05146" lon="-1.69841">
        <ele>-1.29</ele>
        <time>2016-12-24T11:35:08Z</time>
      </trkpt>
      <trkpt lat="47.05135" lon="-1.69816">
        <ele>-1.55</ele>
        <time>2016-12-24T11:35:11Z</time>
      </trkpt>
      <trkpt lat="47.05123" lon="-1.69794">
        <ele>-0.54</ele>
        <time>2016-12-24T11:35:14Z</time>
      </trkpt>
      <trkpt lat="47.05109" lon="-1.69776">
        <ele>1.86</ele>
        <time>2016-12-24T11:35:17Z</time>
      </trkpt>
      <trkpt lat="47.05094" lon="-1.69757">
        <ele>3.99</ele>
        <time>2016-12-24T11:35:20Z</time>
      </trkpt>
      <trkpt lat="47.05074" lon="-1.69736">
        <ele>4.96</ele>
        <time>2016-12-24T11:35:24Z</time>
      </trkpt>
      <trkpt lat="47.05059" lon="-1.69718">
        <ele>5.44</ele>
        <time>2016-12-24T11:35:27Z</time>
      </trkpt>
      <trkpt lat="47.05045" lon="-1.69702">
        <ele>5.79</ele>
        <time>2016-12-24T11:35:30Z</time>
      </trkpt>
      <trkpt lat="47.05031" lon="-1.69684">
        <ele>5.95</ele>
        <time>2016-12-24T11:35:33Z</time>
      </trkpt>
      <trkpt lat="47.05016" lon="-1.69664">
        <ele>4.21</ele>
        <time>2016-12-24T11:35:36Z</time>
      </trkpt>
      <trkpt lat="47.05" lon="-1.69637">
        <ele>3.74</ele>
        <time>2016-12-24T11:35:40Z</time>
      </trkpt>
      <trkpt lat="47.04987" lon="-1.69611">
        <ele>4.58</ele>
        <time>2016-12-24T11:35:43Z</time>
      </trkpt>
      <trkpt lat="47.04978" lon="-1.69582">
        <ele>4.85</ele>
        <time>2016-12-24T11:35:46Z</time>
      </trkpt>
      <trkpt lat="47.04971" lon="-1.69554">
        <ele>4.34</ele>
        <time>2016-12-24T11:35:49Z</time>
      </trkpt>
      <trkpt lat="47.04964" lon="-1.69527">
        <ele>4.33</ele>
        <time>2016-12-24T11:35:52Z</time>
      </trkpt>
      <trkpt lat="47.04956" lon="-1.69496">
        <ele>3.16</ele>
        <time>2016-12-24T11:35:55Z</time>
      </trkpt>
      <trkpt lat="47.0495" lon="-1.69469">
        <ele>1.46</ele>
        <time>2016-12-24T11:35:58Z</time>
      </trkpt>
      <trkpt lat="47.04942" lon="-1.69442">
        <ele>0.44</ele>
        <time>2016-12-24T11:36:01Z</time>
      </trkpt>
      <trkpt lat="47.04936" lon="-1.69415">
        <ele>1.75</ele>
        <time>2016-12-24T11:36:04Z</time>
      </trkpt>
      <trkpt lat="47.04929" lon="-1.69389">
        <ele>2.13</ele>
        <time>2016-12-24T11:36:07Z</time>
      </trkpt>
      <trkpt lat="47.04921" lon="-1.69361">
        <ele>2.78</ele>
        <time>2016-12-24T11:36:10Z</time>
      </trkpt>
      <trkpt lat="47.04913" lon="-1.69334">
        <ele>3.28</ele>
        <time>2016-12-24T11:36:13Z</time>
      </trkpt>
      <trkpt lat="47.04904" lon="-1.69305">
        <ele>2.75</ele>
        <time>2016-12-24T11:36:16Z</time>
      </trkpt>
      <trkpt lat="47.04898" lon="-1.69279">
        <ele>2.97</ele>
        <time>2016-12-24T11:36:19Z</time>
      </trkpt>
      <trkpt lat="47.04891" lon="-1.69251">
        <ele>2.42</ele>
        <time>2016-12-24T11:36:22Z</time>
      </trkpt>
      <trkpt lat="47.04884" lon="-1.69224">
        <ele>2.11</ele>
        <time>2016-12-24T11:36:25Z</time>
      </trkpt>
      <trkpt lat="47.04878" lon="-1.69199">
        <ele>3.27</ele>
        <time>2016-12-24T11:36:28Z</time>
      </trkpt>
      <trkpt lat="47.04871" lon="-1.69172">
        <ele>2.56</ele>
        <time>2016-12-24T11:36:31Z</time>
      </trkpt>
      <trkpt lat="47.04863" lon="-1.69143">
        <ele>1.52</ele>
        <time>2016-12-24T11:36:34Z</time>
      </trkpt>
      <trkpt lat="47.04856" lon="-1.69112">
        <ele>1.27</ele>
        <time>2016-12-24T11:36:38Z</time>
      </trkpt>
      <trkpt lat="47.04849" lon="-1.69083">
        <ele>0.35</ele>
        <time>2016-12-24T11:36:41Z</time>
      </trkpt>
      <trkpt lat="47.04842" lon="-1.69057">
        <ele>0.21</ele>
        <time>2016-12-24T11:36:44Z</time>
      </trkpt>
      <trkpt lat="47.04836" lon="-1.69032">
        <ele>-0.32</ele>
        <time>2016-12-24T11:36:47Z</time>
      </trkpt>
      <trkpt lat="47.04828" lon="-1.69007">
        <ele>1.38</ele>
        <time>2016-12-24T11:36:50Z</time>
      </trkpt>
      <trkpt lat="47.04822" lon="-1.6898">
        <ele>2.18</ele>
        <time>2016-12-24T11:36:53Z</time>
      </trkpt>
      <trkpt lat="47.04815" lon="-1.68952">
        <ele>1.31</ele>
        <time>2016-12-24T11:36:56Z</time>
      </trkpt>
      <trkpt lat="47.04807" lon="-1.68924">
        <ele>1.39</ele>
        <time>2016-12-24T11:36:59Z</time>
      </trkpt>
      <trkpt lat="47.04797" lon="-1.68891">
        <ele>2.75</ele>
        <time>2016-12-24T11:37:03Z</time>
      </trkpt>
      <trkpt lat="47.0479" lon="-1.68864">
        <ele>4.04</ele>
        <time>2016-12-24T11:37:06Z</time>
      </trkpt>
      <trkpt lat="47.04783" lon="-1.68838">
        <ele>5.12</ele>
        <time>2016-12-24T11:37:09Z</time>
      </trkpt>
      <trkpt lat="47.04776" lon="-1.68811">
        <ele>5.16</ele>
        <time>2016-12-24T11:37:12Z</time>
      </trkpt>
      <trkpt lat="47.04769" lon="-1.68784">
        <ele>4.58</ele>
        <time>2016-12-24T11:37:15Z</time>
      </trkpt>
      <trkpt lat="47.04761" lon="-1.68752">
        <ele>3.95</ele>
        <time>2016-12-24T11:37:19Z</time>
      </trkpt>
      <trkpt lat="47.04754" lon="-1.68724">
        <ele>4.17</ele>
        <time>2016-12-24T11:37:22Z</time>
      </trkpt>
      <trkpt lat="47.04746" lon="-1.68691">
        <ele>3.04</ele>
        <time>2016-12-24T11:37:26Z</time>
      </trkpt>
      <trkpt lat="47.04739" lon="-1.68665">
        <ele>4.32</ele>
        <time>2016-12-24T11:37:29Z</time>
      </trkpt>
      <trkpt lat="47.04732" lon="-1.6864">
        <ele>4.31</ele>
        <time>2016-12-24T11:37:32Z</time>
      </trkpt>
      <trkpt lat="47.04725" lon="-1.68612">
        <ele>5.05</ele>
        <time>2016-12-24T11:37:35Z</time>
      </trkpt>
      <trkpt lat="47.04718" lon="-1.68587">
        <ele>5.03</ele>
        <time>2016-12-24T11:37:38Z</time>
      </trkpt>
      <trkpt lat="47.04711" lon="-1.6856">
        <ele>4.64</ele>
        <time>2016-12-24T11:37:41Z</time>
      </trkpt>
      <trkpt lat="47.04703" lon="-1.68526">
        <ele>5.83</ele>
        <time>2016-12-24T11:37:45Z</time>
      </trkpt>
      <trkpt lat="47.04696" lon="-1.68501">
        <ele>5.08</ele>
        <time>2016-12-24T11:37:48Z</time>
      </trkpt>
      <trkpt lat="47.0469" lon="-1.68476">
        <ele>4.97</ele>
        <time>2016-12-24T11:37:51Z</time>
      </trkpt>
      <trkpt lat="47.04683" lon="-1.68451">
        <ele>6.64</ele>
        <time>2016-12-24T11:37:54Z</time>
      </trkpt>
      <trkpt lat="47.04676" lon="-1.68424">
        <ele>6.2</ele>
        <time>2016-12-24T11:37:57Z</time>
      </trkpt>
      <trkpt lat="47.0467" lon="-1.68398">
        <ele>5.59</ele>
        <time>2016-12-24T11:38:00Z</time>
      </trkpt>
      <trkpt lat="47.04662" lon="-1.68371">
        <ele>4.87</ele>
        <time>2016-12-24T11:38:03Z</time>
      </trkpt>
      <trkpt lat="47.04655" lon="-1.68342">
        <ele>4.26</ele>
        <time>2016-12-24T11:38:06Z</time>
      </trkpt>
      <trkpt lat="47.04648" lon="-1.68314">
        <ele>3.46</ele>
        <time>2016-12-24T11:38:09Z</time>
      </trkpt>
      <trkpt lat="47.04641" lon="-1.68286">
        <ele>3.2</ele>
        <time>2016-12-24T11:38:12Z</time>
      </trkpt>
      <trkpt lat="47.04634" lon="-1.68259">
        <ele>3.07</ele>
        <time>2016-12-24T11:38:15Z</time>
      </trkpt>
      <trkpt lat="47.04627" lon="-1.68229">
        <ele>2.26</ele>
        <time>2016-12-24T11:38:18Z</time>
      </trkpt>
      <trkpt lat="47.0462" lon="-1.68204">
        <ele>3.24</ele>
        <time>2016-12-24T11:38:21Z</time>
      </trkpt>
      <trkpt lat="47.04613" lon="-1.68177">
        <ele>3.69</ele>
        <time>2016-12-24T11:38:24Z</time>
      </trkpt>
      <trkpt lat="47.04605" lon="-1.68147">
        <ele>2.53</ele>
        <time>2016-12-24T11:38:27Z</time>
      </trkpt>
      <trkpt lat="47.04598" lon="-1.68119">
        <ele>3.26</ele>
        <time>2016-12-24T11:38:30Z</time>
      </trkpt>
      <trkpt lat="47.04591" lon="-1.6809">
        <ele>3.13</ele>
        <time>2016-12-24T11:38:33Z</time>
      </trkpt>
      <trkpt lat="47.04583" lon="-1.68057">
        <ele>3.49</ele>
        <time>2016-12-24T11:38:37Z</time>
      </trkpt>
      <trkpt lat="47.04576" lon="-1.68031">
        <ele>2.56</ele>
        <time>2016-12-24T11:38:40Z</time>
      </trkpt>
      <trkpt lat="47.0457" lon="-1.68003">
        <ele>1.46</ele>
        <time>2016-12-24T11:38:43Z</time>
      </trkpt>
      <trkpt lat="47.04564" lon="-1.67977">
        <ele>0.17</ele>
        <time>2016-12-24T11:38:46Z</time>
      </trkpt>
      <trkpt lat="47.04556" lon="-1.67943">
        <ele>0.18</ele>
        <time>2016-12-24T11:38:50Z</time>
      </trkpt>
      <trkpt lat="47.04548" lon="-1.67919">
        <ele>2.55</ele>
        <time>2016-12-24T11:38:53Z</time>
      </trkpt>
      <trkpt lat="47.04541" lon="-1.67894">
        <ele>4.39</ele>
        <time>2016-12-24T11:38:56Z</time>
      </trkpt>
      <trkpt lat="47.04533" lon="-1.6786">
        <ele>6.04</ele>
        <time>2016-12-24T11:39:00Z</time>
      </trkpt>
      <trkpt lat="47.04524" lon="-1.6783">
        <ele>6.91</ele>
        <time>2016-12-24T11:39:04Z</time>
      </trkpt>
      <trkpt lat="47.04517" lon="-1.67799">
        <ele>6.5</ele>
        <time>2016-12-24T11:39:08Z</time>
      </trkpt>
      <trkpt lat="47.04509" lon="-1.67771">
        <ele>6.45</ele>
        <time>2016-12-24T11:39:11Z</time>
      </trkpt>
      <trkpt lat="47.04502" lon="-1.67745">
        <ele>5.83</ele>
        <time>2016-12-24T11:39:14Z</time>
      </trkpt>
      <trkpt lat="47.04496" lon="-1.6772">
        <ele>4.89</ele>
        <time>2016-12-24T11:39:17Z</time>
      </trkpt>
      <trkpt lat="47.04489" lon="-1.67692">
        <ele>5.02</ele>
        <time>2016-12-24T11:39:20Z</time>
      </trkpt>
      <trkpt lat="47.04481" lon="-1.67667">
        <ele>4.87</ele>
        <time>2016-12-24T11:39:23Z</time>
      </trkpt>
      <trkpt lat="47.04473" lon="-1.67638">
        <ele>4.9</ele>
        <time>2016-12-24T11:39:26Z</time>
      </trkpt>
      <trkpt lat="47.04466" lon="-1.67612">
        <ele>5.11</ele>
        <time>2016-12-24T11:39:29Z</time>
      </trkpt>
      <trkpt lat="47.04458" lon="-1.67582">
        <ele>4.85</ele>
        <time>2016-12-24T11:39:32Z</time>
      </trkpt>
      <trkpt lat="47.04452" lon="-1.67554">
        <ele>4.68</ele>
        <time>2016-12-24T11:39:35Z</time>
      </trkpt>
      <trkpt lat="47.04445" lon="-1.67526">
        <ele>3.87</ele>
        <time>2016-12-24T11:39:38Z</time>
      </trkpt>
      <trkpt lat="47.04438" lon="-1.67497">
        <ele>3.85</ele>
        <time>2016-12-24T11:39:41Z</time>
      </trkpt>
      <trkpt lat="47.0443" lon="-1.67464">
        <ele>3.14</ele>
        <time>2016-12-24T11:39:44Z</time>
      </trkpt>
      <trkpt lat="47.04424" lon="-1.67438">
        <ele>3.54</ele>
        <time>2016-12-24T11:39:47Z</time>
      </trkpt>
      <trkpt lat="47.04417" lon="-1.6741">
        <ele>2.73</ele>
        <time>2016-12-24T11:39:50Z</time>
      </trkpt>
      <trkpt lat="47.0441" lon="-1.6738">
        <ele>0.86</ele>
        <time>2016-12-24T11:39:53Z</time>
      </trkpt>
      <trkpt lat="47.04402" lon="-1.67352">
        <ele>0.38</ele>
        <time>2016-12-24T11:39:56Z</time>
      </trkpt>
      <trkpt lat="47.04393" lon="-1.67321">
        <ele>2.28</ele>
        <time>2016-12-24T11:39:59Z</time>
      </trkpt>
      <trkpt lat="47.04385" lon="-1.67291">
        <ele>1.92</ele>
        <time>2016-12-24T11:40:02Z</time>
      </trkpt>
      <trkpt lat="47.04378" lon="-1.67264">
        <ele>0.37</ele>
        <time>2016-12-24T11:40:05Z</time>
      </trkpt>
      <trkpt lat="47.0437" lon="-1.67234">
        <ele>1.01</ele>
        <time>2016-12-24T11:40:08Z</time>
      </trkpt>
      <trkpt lat="47.04363" lon="-1.67208">
        <ele>0.8</ele>
        <time>2016-12-24T11:40:11Z</time>
      </trkpt>
      <trkpt lat="47.04357" lon="-1.67181">
        <ele>1.2</ele>
        <time>2016-12-24T11:40:14Z</time>
      </trkpt>
      <trkpt lat="47.0435" lon="-1.67154">
        <ele>0.96</ele>
        <time>2016-12-24T11:40:17Z</time>
      </trkpt>
      <trkpt lat="47.04344" lon="-1.67129">
        <ele>1.67</ele>
        <time>2016-12-24T11:40:20Z</time>
      </trkpt>
      <trkpt lat="47.04336" lon="-1.671">
        <ele>1.17</ele>
        <time>2016-12-24T11:40:23Z</time>
      </trkpt>
      <trkpt lat="47.04328" lon="-1.67071">
        <ele>1.38</ele>
        <time>2016-12-24T11:40:26Z</time>
      </trkpt>
      <trkpt lat="47.0432" lon="-1.67041">
        <ele>1.22</ele>
        <time>2016-12-24T11:40:29Z</time>
      </trkpt>
      <trkpt lat="47.04312" lon="-1.67013">
        <ele>2.05</ele>
        <time>2016-12-24T11:40:32Z</time>
      </trkpt>
      <trkpt lat="47.04306" lon="-1.66987">
        <ele>1.85</ele>
        <time>2016-12-24T11:40:35Z</time>
      </trkpt>
      <trkpt lat="47.04299" lon="-1.66958">
        <ele>-0.23</ele>
        <time>2016-12-24T11:40:38Z</time>
      </trkpt>
      <trkpt lat="47.04293" lon="-1.66931">
        <ele>-0.63</ele>
        <time>2016-12-24T11:40:41Z</time>
      </trkpt>
      <trkpt lat="47.04285" lon="-1.66901">
        <ele>-0.98</ele>
        <time>2016-12-24T11:40:44Z</time>
      </trkpt>
      <trkpt lat="47.04278" lon="-1.66872">
        <ele>-1.76</ele>
        <time>2016-12-24T11:40:47Z</time>
      </trkpt>
      <trkpt lat="47.0427" lon="-1.66846">
        <ele>-2.03</ele>
        <time>2016-12-24T11:40:50Z</time>
      </trkpt>
      <trkpt lat="47.04263" lon="-1.66817">
        <ele>-2.48</ele>
        <time>2016-12-24T11:40:53Z</time>
      </trkpt>
      <trkpt lat="47.04256" lon="-1.66791">
        <ele>-2.55</ele>
        <time>2016-12-24T11:40:56Z</time>
      </trkpt>
      <trkpt lat="47.0425" lon="-1.66765">
        <ele>-2.88</ele>
        <time>2016-12-24T11:40:59Z</time>
      </trkpt>
      <trkpt lat="47.04244" lon="-1.66737">
        <ele>-2.58</ele>
        <time>2016-12-24T11:41:02Z</time>
      </trkpt>
      <trkpt lat="47.04236" lon="-1.66709">
        <ele>-1.68</ele>
        <time>2016-12-24T11:41:05Z</time>
      </trkpt>
      <trkpt lat="47.04228" lon="-1.66684">
        <ele>-0.77</ele>
        <time>2016-12-24T11:41:08Z</time>
      </trkpt>
      <trkpt lat="47.04221" lon="-1.66658">
        <ele>1.26</ele>
        <time>2016-12-24T11:41:11Z</time>
      </trkpt>
      <trkpt lat="47.04214" lon="-1.66631">
        <ele>2.18</ele>
        <time>2016-12-24T11:41:14Z</time>
      </trkpt>
      <trkpt lat="47.04209" lon="-1.66605">
        <ele>1.27</ele>
        <time>2016-12-24T11:41:17Z</time>
      </trkpt>
      <trkpt lat="47.04201" lon="-1.66575">
        <ele>-0.25</ele>
        <time>2016-12-24T11:41:20Z</time>
      </trkpt>
      <trkpt lat="47.04193" lon="-1.66548">
        <ele>1.16</ele>
        <time>2016-12-24T11:41:23Z</time>
      </trkpt>
      <trkpt lat="47.04184" lon="-1.66515">
        <ele>1.19</ele>
        <time>2016-12-24T11:41:27Z</time>
      </trkpt>
      <trkpt lat="47.04178" lon="-1.66488">
        <ele>1.82</ele>
        <time>2016-12-24T11:41:30Z</time>
      </trkpt>
      <trkpt lat="47.04171" lon="-1.66462">
        <ele>2.63</ele>
        <time>2016-12-24T11:41:33Z</time>
      </trkpt>
      <trkpt lat="47.04163" lon="-1.66436">
        <ele>2.89</ele>
        <time>2016-12-24T11:41:36Z</time>
      </trkpt>
      <trkpt lat="47.04156" lon="-1.66407">
        <ele>2.91</ele>
        <time>2016-12-24T11:41:39Z</time>
      </trkpt>
      <trkpt lat="47.04147" lon="-1.66375">
        <ele>3.9</ele>
        <time>2016-12-24T11:41:43Z</time>
      </trkpt>
      <trkpt lat="47.0414" lon="-1.66347">
        <ele>2.64</ele>
        <time>2016-12-24T11:41:46Z</time>
      </trkpt>
      <trkpt lat="47.04134" lon="-1.66322">
        <ele>2.29</ele>
        <time>2016-12-24T11:41:49Z</time>
      </trkpt>
      <trkpt lat="47.04127" lon="-1.66294">
        <ele>1.63</ele>
        <time>2016-12-24T11:41:52Z</time>
      </trkpt>
      <trkpt lat="47.0412" lon="-1.66267">
        <ele>1.02</ele>
        <time>2016-12-24T11:41:55Z</time>
      </trkpt>
      <trkpt lat="47.04113" lon="-1.66241">
        <ele>0.19</ele>
        <time>2016-12-24T11:41:58Z</time>
      </trkpt>
      <trkpt lat="47.04106" lon="-1.66214">
        <ele>1.18</ele>
        <time>2016-12-24T11:42:01Z</time>
      </trkpt>
      <trkpt lat="47.04097" lon="-1.66182">
        <ele>3.14</ele>
        <time>2016-12-24T11:42:05Z</time>
      </trkpt>
      <trkpt lat="47.04091" lon="-1.66155">
        <ele>3.06</ele>
        <time>2016-12-24T11:42:08Z</time>
      </trkpt>
      <trkpt lat="47.04082" lon="-1.66122">
        <ele>4.19</ele>
        <time>2016-12-24T11:42:12Z</time>
      </trkpt>
      <trkpt lat="47.04074" lon="-1.66089">
        <ele>6.2</ele>
        <time>2016-12-24T11:42:16Z</time>
      </trkpt>
      <trkpt lat="47.04068" lon="-1.66064">
        <ele>6.35</ele>
        <time>2016-12-24T11:42:19Z</time>
      </trkpt>
      <trkpt lat="47.04062" lon="-1.66036">
        <ele>5.98</ele>
        <time>2016-12-24T11:42:22Z</time>
      </trkpt>
      <trkpt lat="47.04055" lon="-1.6601">
        <ele>6.34</ele>
        <time>2016-12-24T11:42:25Z</time>
      </trkpt>
      <trkpt lat="47.04045" lon="-1.65977">
        <ele>5.8</ele>
        <time>2016-12-24T11:42:29Z</time>
      </trkpt>
      <trkpt lat="47.04038" lon="-1.65953">
        <ele>4.78</ele>
        <time>2016-12-24T11:42:32Z</time>
      </trkpt>
      <trkpt lat="47.0403" lon="-1.65925">
        <ele>5.05</ele>
        <time>2016-12-24T11:42:35Z</time>
      </trkpt>
      <trkpt lat="47.04024" lon="-1.65898">
        <ele>5.99</ele>
        <time>2016-12-24T11:42:38Z</time>
      </trkpt>
      <trkpt lat="47.04016" lon="-1.65871">
        <ele>4.85</ele>
        <time>2016-12-24T11:42:41Z</time>
      </trkpt>
      <trkpt lat="47.04009" lon="-1.65846">
        <ele>4.48</ele>
        <time>2016-12-24T11:42:44Z</time>
      </trkpt>
      <trkpt lat="47.04003" lon="-1.65819">
        <ele>4.54</ele>
        <time>2016-12-24T11:42:47Z</time>
      </trkpt>
      <trkpt lat="47.03994" lon="-1.65793">
        <ele>3.58</ele>
        <time>2016-12-24T11:42:50Z</time>
      </trkpt>
      <trkpt lat="47.03986" lon="-1.65767">
        <ele>2.53</ele>
        <time>2016-12-24T11:42:53Z</time>
      </trkpt>
      <trkpt lat="47.03978" lon="-1.65742">
        <ele>2.27</ele>
        <time>2016-12-24T11:42:56Z</time>
      </trkpt>
      <trkpt lat="47.03971" lon="-1.65714">
        <ele>1.93</ele>
        <time>2016-12-24T11:42:59Z</time>
      </trkpt>
      <trkpt lat="47.03963" lon="-1.65689">
        <ele>1.19</ele>
        <time>2016-12-24T11:43:02Z</time>
      </trkpt>
      <trkpt lat="47.03956" lon="-1.65663">
        <ele>0.42</ele>
        <time>2016-12-24T11:43:05Z</time>
      </trkpt>
      <trkpt lat="47.03948" lon="-1.65636">
        <ele>0.66</ele>
        <time>2016-12-24T11:43:08Z</time>
      </trkpt>
      <trkpt lat="47.0394" lon="-1.65609">
        <ele>0.8</ele>
        <time>2016-12-24T11:43:11Z</time>
      </trkpt>
      <trkpt lat="47.03932" lon="-1.65582">
        <ele>0.71</ele>
        <time>2016-12-24T11:43:14Z</time>
      </trkpt>
      <trkpt lat="47.03926" lon="-1.65556">
        <ele>0.66</ele>
        <time>2016-12-24T11:43:17Z</time>
      </trkpt>
      <trkpt lat="47.03918" lon="-1.6553">
        <ele>1.32</ele>
        <time>2016-12-24T11:43:20Z</time>
      </trkpt>
      <trkpt lat="47.03911" lon="-1.65504">
        <ele>1.48</ele>
        <time>2016-12-24T11:43:23Z</time>
      </trkpt>
      <trkpt lat="47.03903" lon="-1.65479">
        <ele>2.44</ele>
        <time>2016-12-24T11:43:26Z</time>
      </trkpt>
      <trkpt lat="47.03896" lon="-1.65451">
        <ele>3.18</ele>
        <time>2016-12-24T11:43:29Z</time>
      </trkpt>
      <trkpt lat="47.03887" lon="-1.65418">
        <ele>3.36</ele>
        <time>2016-12-24T11:43:33Z</time>
      </trkpt>
      <trkpt lat="47.0388" lon="-1.65393">
        <ele>2.77</ele>
        <time>2016-12-24T11:43:36Z</time>
      </trkpt>
      <trkpt lat="47.03871" lon="-1.65367">
        <ele>2.77</ele>
        <time>2016-12-24T11:43:39Z</time>
      </trkpt>
      <trkpt lat="47.0386" lon="-1.65339">
        <ele>3.79</ele>
        <time>2016-12-24T11:43:43Z</time>
      </trkpt>
      <trkpt lat="47.03851" lon="-1.65312">
        <ele>4.7</ele>
        <time>2016-12-24T11:43:47Z</time>
      </trkpt>
      <trkpt lat="47.03864" lon="-1.65289">
        <ele>4.73</ele>
        <time>2016-12-24T11:43:50Z</time>
      </trkpt>
      <trkpt lat="47.03881" lon="-1.65275">
        <ele>5.45</ele>
        <time>2016-12-24T11:43:53Z</time>
      </trkpt>
      <trkpt lat="47.03899" lon="-1.65263">
        <ele>3.91</ele>
        <time>2016-12-24T11:43:56Z</time>
      </trkpt>
      <trkpt lat="47.03918" lon="-1.65253">
        <ele>2.38</ele>
        <time>2016-12-24T11:43:59Z</time>
      </trkpt>
      <trkpt lat="47.03936" lon="-1.65242">
        <ele>0.87</ele>
        <time>2016-12-24T11:44:02Z</time>
      </trkpt>
      <trkpt lat="47.03956" lon="-1.65231">
        <ele>0.01</ele>
        <time>2016-12-24T11:44:05Z</time>
      </trkpt>
      <trkpt lat="47.03974" lon="-1.65218">
        <ele>-0.32</ele>
        <time>2016-12-24T11:44:08Z</time>
      </trkpt>
      <trkpt lat="47.03992" lon="-1.65206">
        <ele>-0.69</ele>
        <time>2016-12-24T11:44:11Z</time>
      </trkpt>
      <trkpt lat="47.04011" lon="-1.65193">
        <ele>-1.59</ele>
        <time>2016-12-24T11:44:14Z</time>
      </trkpt>
      <trkpt lat="47.0403" lon="-1.6518">
        <ele>-2.82</ele>
        <time>2016-12-24T11:44:17Z</time>
      </trkpt>
      <trkpt lat="47.04049" lon="-1.65168">
        <ele>-3.11</ele>
        <time>2016-12-24T11:44:20Z</time>
      </trkpt>
      <trkpt lat="47.04067" lon="-1.65156">
        <ele>-3.4</ele>
        <time>2016-12-24T11:44:23Z</time>
      </trkpt>
      <trkpt lat="47.04084" lon="-1.65144">
        <ele>-3.31</ele>
        <time>2016-12-24T11:44:26Z</time>
      </trkpt>
      <trkpt lat="47.04103" lon="-1.65131">
        <ele>-3.42</ele>
        <time>2016-12-24T11:44:29Z</time>
      </trkpt>
      <trkpt lat="47.04122" lon="-1.65117">
        <ele>-3.61</ele>
        <time>2016-12-24T11:44:32Z</time>
      </trkpt>
      <trkpt lat="47.0414" lon="-1.65105">
        <ele>-3.86</ele>
        <time>2016-12-24T11:44:35Z</time>
      </trkpt>
      <trkpt lat="47.04158" lon="-1.65094">
        <ele>-3.95</ele>
        <time>2016-12-24T11:44:38Z</time>
      </trkpt>
      <trkpt lat="47.04175" lon="-1.65082">
        <ele>-3.59</ele>
        <time>2016-12-24T11:44:41Z</time>
      </trkpt>
      <trkpt lat="47.04194" lon="-1.6507">
        <ele>-4.15</ele>
        <time>2016-12-24T11:44:44Z</time>
      </trkpt>
      <trkpt lat="47.04212" lon="-1.65058">
        <ele>-3.95</ele>
        <time>2016-12-24T11:44:47Z</time>
      </trkpt>
      <trkpt lat="47.0423" lon="-1.65044">
        <ele>-4.03</ele>
        <time>2016-12-24T11:44:50Z</time>
      </trkpt>
      <trkpt lat="47.04248" lon="-1.65032">
        <ele>-4.78</ele>
        <time>2016-12-24T11:44:53Z</time>
      </trkpt>
      <trkpt lat="47.04267" lon="-1.65019">
        <ele>-5.17</ele>
        <time>2016-12-24T11:44:56Z</time>
      </trkpt>
      <trkpt lat="47.04285" lon="-1.65006">
        <ele>-5.73</ele>
        <time>2016-12-24T11:44:59Z</time>
      </trkpt>
      <trkpt lat="47.04303" lon="-1.64991">
        <ele>-5.62</ele>
        <time>2016-12-24T11:45:02Z</time>
      </trkpt>
      <trkpt lat="47.0432" lon="-1.64976">
        <ele>-4.23</ele>
        <time>2016-12-24T11:45:05Z</time>
      </trkpt>
      <trkpt lat="47.04336" lon="-1.64962">
        <ele>-2.64</ele>
        <time>2016-12-24T11:45:08Z</time>
      </trkpt>
      <trkpt lat="47.04353" lon="-1.64948">
        <ele>-2.35</ele>
        <time>2016-12-24T11:45:11Z</time>
      </trkpt>
      <trkpt lat="47.0437" lon="-1.64934">
        <ele>-2.11</ele>
        <time>2016-12-24T11:45:14Z</time>
      </trkpt>
      <trkpt lat="47.04386" lon="-1.64919">
        <ele>-1.53</ele>
        <time>2016-12-24T11:45:17Z</time>
      </trkpt>
      <trkpt lat="47.04404" lon="-1.64901">
        <ele>-2.44</ele>
        <time>2016-12-24T11:45:21Z</time>
      </trkpt>
      <trkpt lat="47.04424" lon="-1.64891">
        <ele>-1.2</ele>
        <time>2016-12-24T11:45:25Z</time>
      </trkpt>
      <trkpt lat="47.04444" lon="-1.64898">
        <ele>0.44</ele>
        <time>2016-12-24T11:45:29Z</time>
      </trkpt>
      <trkpt lat="47.04464" lon="-1.64908">
        <ele>-1.32</ele>
        <time>2016-12-24T11:45:33Z</time>
      </trkpt>
      <trkpt lat="47.04471" lon="-1.64884">
        <ele>-1.38</ele>
        <time>2016-12-24T11:45:40Z</time>
      </trkpt>
      <trkpt lat="47.04456" lon="-1.64867">
        <ele>-1.4</ele>
        <time>2016-12-24T11:45:45Z</time>
      </trkpt>
      <trkpt lat="47.04468" lon="-1.64848">
        <ele>-0.86</ele>
        <time>2016-12-24T11:45:51Z</time>
      </trkpt>
      <trkpt lat="47.04485" lon="-1.64827">
        <ele>-0.26</ele>
        <time>2016-12-24T11:45:55Z</time>
      </trkpt>
      <trkpt lat="47.04501" lon="-1.64805">
        <ele>1.55</ele>
        <time>2016-12-24T11:45:59Z</time>
      </trkpt>
      <trkpt lat="47.04513" lon="-1.64779">
        <ele>2.5</ele>
        <time>2016-12-24T11:46:03Z</time>
      </trkpt>
      <trkpt lat="47.04522" lon="-1.64754">
        <ele>2.63</ele>
        <time>2016-12-24T11:46:07Z</time>
      </trkpt>
      <trkpt lat="47.04534" lon="-1.64736">
        <ele>3.59</ele>
        <time>2016-12-24T11:46:11Z</time>
      </trkpt>
      <trkpt lat="47.04549" lon="-1.64711">
        <ele>3.35</ele>
        <time>2016-12-24T11:46:15Z</time>
      </trkpt>
      <trkpt lat="47.04565" lon="-1.64694">
        <ele>1.56</ele>
        <time>2016-12-24T11:46:19Z</time>
      </trkpt>
      <trkpt lat="47.04581" lon="-1.6467">
        <ele>2.45</ele>
        <time>2016-12-24T11:46:24Z</time>
      </trkpt>
      <trkpt lat="47.04592" lon="-1.64647">
        <ele>2.63</ele>
        <time>2016-12-24T11:46:27Z</time>
      </trkpt>
      <trkpt lat="47.04605" lon="-1.64624">
        <ele>4.91</ele>
        <time>2016-12-24T11:46:31Z</time>
      </trkpt>
      <trkpt lat="47.04618" lon="-1.64598">
        <ele>7.3</ele>
        <time>2016-12-24T11:46:35Z</time>
      </trkpt>
      <trkpt lat="47.04632" lon="-1.6457">
        <ele>5.78</ele>
        <time>2016-12-24T11:46:39Z</time>
      </trkpt>
      <trkpt lat="47.04645" lon="-1.64541">
        <ele>4.98</ele>
        <time>2016-12-24T11:46:43Z</time>
      </trkpt>
      <trkpt lat="47.04659" lon="-1.6451">
        <ele>2.56</ele>
        <time>2016-12-24T11:46:47Z</time>
      </trkpt>
      <trkpt lat="47.04671" lon="-1.64483">
        <ele>2.75</ele>
        <time>2016-12-24T11:46:51Z</time>
      </trkpt>
      <trkpt lat="47.0468" lon="-1.6446">
        <ele>2.79</ele>
        <time>2016-12-24T11:46:54Z</time>
      </trkpt>
      <trkpt lat="47.04694" lon="-1.64435">
        <ele>4.92</ele>
        <time>2016-12-24T11:46:58Z</time>
      </trkpt>
      <trkpt lat="47.04708" lon="-1.64411">
        <ele>5.58</ele>
        <time>2016-12-24T11:47:02Z</time>
      </trkpt>
      <trkpt lat="47.04722" lon="-1.64385">
        <ele>2.78</ele>
        <time>2016-12-24T11:47:06Z</time>
      </trkpt>
      <trkpt lat="47.04733" lon="-1.64355">
        <ele>3.46</ele>
        <time>2016-12-24T11:47:10Z</time>
      </trkpt>
      <trkpt lat="47.0473" lon="-1.64324">
        <ele>3.24</ele>
        <time>2016-12-24T11:47:14Z</time>
      </trkpt>
      <trkpt lat="47.04734" lon="-1.64297">
        <ele>2.96</ele>
        <time>2016-12-24T11:47:17Z</time>
      </trkpt>
      <trkpt lat="47.0474" lon="-1.64269">
        <ele>3.69</ele>
        <time>2016-12-24T11:47:20Z</time>
      </trkpt>
      <trkpt lat="47.04748" lon="-1.64236">
        <ele>3.71</ele>
        <time>2016-12-24T11:47:24Z</time>
      </trkpt>
      <trkpt lat="47.04755" lon="-1.64205">
        <ele>3.08</ele>
        <time>2016-12-24T11:47:28Z</time>
      </trkpt>
      <trkpt lat="47.04761" lon="-1.64177">
        <ele>2.21</ele>
        <time>2016-12-24T11:47:31Z</time>
      </trkpt>
      <trkpt lat="47.04768" lon="-1.64144">
        <ele>1.5</ele>
        <time>2016-12-24T11:47:35Z</time>
      </trkpt>
      <trkpt lat="47.04776" lon="-1.64113">
        <ele>0.53</ele>
        <time>2016-12-24T11:47:39Z</time>
      </trkpt>
      <trkpt lat="47.04783" lon="-1.64084">
        <ele>-1.17</ele>
        <time>2016-12-24T11:47:42Z</time>
      </trkpt>
      <trkpt lat="47.0479" lon="-1.64057">
        <ele>-0.73</ele>
        <time>2016-12-24T11:47:45Z</time>
      </trkpt>
      <trkpt lat="47.04798" lon="-1.64026">
        <ele>0.55</ele>
        <time>2016-12-24T11:47:49Z</time>
      </trkpt>
      <trkpt lat="47.04805" lon="-1.63999">
        <ele>1.12</ele>
        <time>2016-12-24T11:47:52Z</time>
      </trkpt>
      <trkpt lat="47.04815" lon="-1.63976">
        <ele>0.72</ele>
        <time>2016-12-24T11:47:55Z</time>
      </trkpt>
      <trkpt lat="47.04829" lon="-1.63958">
        <ele>1.08</ele>
        <time>2016-12-24T11:47:58Z</time>
      </trkpt>
      <trkpt lat="47.04849" lon="-1.63941">
        <ele>0.85</ele>
        <time>2016-12-24T11:48:02Z</time>
      </trkpt>
      <trkpt lat="47.04867" lon="-1.63927">
        <ele>1.15</ele>
        <time>2016-12-24T11:48:05Z</time>
      </trkpt>
      <trkpt lat="47.04883" lon="-1.63913">
        <ele>0.73</ele>
        <time>2016-12-24T11:48:08Z</time>
      </trkpt>
      <trkpt lat="47.049" lon="-1.63899">
        <ele>0.18</ele>
        <time>2016-12-24T11:48:11Z</time>
      </trkpt>
      <trkpt lat="47.04916" lon="-1.63885">
        <ele>-0.66</ele>
        <time>2016-12-24T11:48:14Z</time>
      </trkpt>
      <trkpt lat="47.04932" lon="-1.63871">
        <ele>-0.74</ele>
        <time>2016-12-24T11:48:17Z</time>
      </trkpt>
      <trkpt lat="47.04948" lon="-1.63856">
        <ele>-0.64</ele>
        <time>2016-12-24T11:48:20Z</time>
      </trkpt>
      <trkpt lat="47.04966" lon="-1.63837">
        <ele>0.58</ele>
        <time>2016-12-24T11:48:24Z</time>
      </trkpt>
      <trkpt lat="47.04986" lon="-1.63818">
        <ele>1.18</ele>
        <time>2016-12-24T11:48:28Z</time>
      </trkpt>
      <trkpt lat="47.05004" lon="-1.63793">
        <ele>0.85</ele>
        <time>2016-12-24T11:48:32Z</time>
      </trkpt>
      <trkpt lat="47.05004" lon="-1.63764">
        <ele>1.21</ele>
        <time>2016-12-24T11:48:36Z</time>
      </trkpt>
      <trkpt lat="47.05006" lon="-1.63737">
        <ele>1.74</ele>
        <time>2016-12-24T11:48:40Z</time>
      </trkpt>
      <trkpt lat="47.05003" lon="-1.63708">
        <ele>1.36</ele>
        <time>2016-12-24T11:48:43Z</time>
      </trkpt>
      <trkpt lat="47.04995" lon="-1.63683">
        <ele>1.21</ele>
        <time>2016-12-24T11:48:46Z</time>
      </trkpt>
      <trkpt lat="47.04988" lon="-1.63657">
        <ele>0.43</ele>
        <time>2016-12-24T11:48:49Z</time>
      </trkpt>
      <trkpt lat="47.04982" lon="-1.63631">
        <ele>-0.06</ele>
        <time>2016-12-24T11:48:52Z</time>
      </trkpt>
      <trkpt lat="47.04975" lon="-1.63601">
        <ele>0.63</ele>
        <time>2016-12-24T11:48:56Z</time>
      </trkpt>
      <trkpt lat="47.04987" lon="-1.6358">
        <ele>1.11</ele>
        <time>2016-12-24T11:49:00Z</time>
      </trkpt>
      <trkpt lat="47.05006" lon="-1.63565">
        <ele>1.57</ele>
        <time>2016-12-24T11:49:04Z</time>
      </trkpt>
      <trkpt lat="47.05023" lon="-1.63553">
        <ele>2.27</ele>
        <time>2016-12-24T11:49:07Z</time>
      </trkpt>
      <trkpt lat="47.05041" lon="-1.63547">
        <ele>1.89</ele>
        <time>2016-12-24T11:49:10Z</time>
      </trkpt>
      <trkpt lat="47.05063" lon="-1.63539">
        <ele>-1.91</ele>
        <time>2016-12-24T11:49:15Z</time>
      </trkpt>
      <trkpt lat="47.05082" lon="-1.63533">
        <ele>-2.27</ele>
        <time>2016-12-24T11:49:19Z</time>
      </trkpt>
      <trkpt lat="47.05101" lon="-1.63527">
        <ele>-1.13</ele>
        <time>2016-12-24T11:49:23Z</time>
      </trkpt>
      <trkpt lat="47.05119" lon="-1.63519">
        <ele>-0.27</ele>
        <time>2016-12-24T11:49:26Z</time>
      </trkpt>
      <trkpt lat="47.05142" lon="-1.63508">
        <ele>0.44</ele>
        <time>2016-12-24T11:49:30Z</time>
      </trkpt>
      <trkpt lat="47.0516" lon="-1.63503">
        <ele>0.57</ele>
        <time>2016-12-24T11:49:33Z</time>
      </trkpt>
      <trkpt lat="47.05182" lon="-1.63495">
        <ele>0.96</ele>
        <time>2016-12-24T11:49:37Z</time>
      </trkpt>
      <trkpt lat="47.05203" lon="-1.63488">
        <ele>-0.21</ele>
        <time>2016-12-24T11:49:41Z</time>
      </trkpt>
      <trkpt lat="47.05221" lon="-1.63482">
        <ele>-0.75</ele>
        <time>2016-12-24T11:49:44Z</time>
      </trkpt>
      <trkpt lat="47.05239" lon="-1.63476">
        <ele>-1.4</ele>
        <time>2016-12-24T11:49:47Z</time>
      </trkpt>
      <trkpt lat="47.0526" lon="-1.6347">
        <ele>-1.8</ele>
        <time>2016-12-24T11:49:51Z</time>
      </trkpt>
      <trkpt lat="47.05282" lon="-1.63465">
        <ele>-1.2</ele>
        <time>2016-12-24T11:49:55Z</time>
      </trkpt>
      <trkpt lat="47.05303" lon="-1.63463">
        <ele>-1.8</ele>
        <time>2016-12-24T11:49:59Z</time>
      </trkpt>
      <trkpt lat="47.05326" lon="-1.6346">
        <ele>-2.07</ele>
        <time>2016-12-24T11:50:03Z</time>
      </trkpt>
      <trkpt lat="47.05349" lon="-1.63459">
        <ele>-2.69</ele>
        <time>2016-12-24T11:50:07Z</time>
      </trkpt>
      <trkpt lat="47.05368" lon="-1.63473">
        <ele>-1.74</ele>
        <time>2016-12-24T11:50:11Z</time>
      </trkpt>
      <trkpt lat="47.05389" lon="-1.63484">
        <ele>-1.89</ele>
        <time>2016-12-24T11:50:16Z</time>
      </trkpt>
      <trkpt lat="47.05403" lon="-1.63468">
        <ele>-3.02</ele>
        <time>2016-12-24T11:50:21Z</time>
      </trkpt>
      <trkpt lat="47.05414" lon="-1.63445">
        <ele>-3.05</ele>
        <time>2016-12-24T11:50:26Z</time>
      </trkpt>
      <trkpt lat="47.05433" lon="-1.6343">
        <ele>-1.36</ele>
        <time>2016-12-24T11:50:30Z</time>
      </trkpt>
      <trkpt lat="47.05455" lon="-1.63421">
        <ele>0.34</ele>
        <time>2016-12-24T11:50:34Z</time>
      </trkpt>
      <trkpt lat="47.05478" lon="-1.63419">
        <ele>2.93</ele>
        <time>2016-12-24T11:50:38Z</time>
      </trkpt>
      <trkpt lat="47.05497" lon="-1.63416">
        <ele>2.38</ele>
        <time>2016-12-24T11:50:41Z</time>
      </trkpt>
      <trkpt lat="47.05517" lon="-1.63412">
        <ele>1.47</ele>
        <time>2016-12-24T11:50:43Z</time>
      </trkpt>
      <trkpt lat="47.05535" lon="-1.63408">
        <ele>1.74</ele>
        <time>2016-12-24T11:50:46Z</time>
      </trkpt>
      <trkpt lat="47.05553" lon="-1.63403">
        <ele>0.29</ele>
        <time>2016-12-24T11:50:49Z</time>
      </trkpt>
      <trkpt lat="47.05576" lon="-1.63395">
        <ele>1.39</ele>
        <time>2016-12-24T11:50:53Z</time>
      </trkpt>
      <trkpt lat="47.05593" lon="-1.63386">
        <ele>0.96</ele>
        <time>2016-12-24T11:50:56Z</time>
      </trkpt>
      <trkpt lat="47.05611" lon="-1.63379">
        <ele>0.48</ele>
        <time>2016-12-24T11:50:59Z</time>
      </trkpt>
      <trkpt lat="47.05628" lon="-1.63371">
        <ele>-0.29</ele>
        <time>2016-12-24T11:51:02Z</time>
      </trkpt>
      <trkpt lat="47.05646" lon="-1.63363">
        <ele>-1.99</ele>
        <time>2016-12-24T11:51:05Z</time>
      </trkpt>
      <trkpt lat="47.05665" lon="-1.63355">
        <ele>-3.72</ele>
        <time>2016-12-24T11:51:08Z</time>
      </trkpt>
      <trkpt lat="47.05683" lon="-1.63347">
        <ele>-4.29</ele>
        <time>2016-12-24T11:51:11Z</time>
      </trkpt>
      <trkpt lat="47.05706" lon="-1.63335">
        <ele>-3.66</ele>
        <time>2016-12-24T11:51:15Z</time>
      </trkpt>
      <trkpt lat="47.05724" lon="-1.63326">
        <ele>-4.19</ele>
        <time>2016-12-24T11:51:18Z</time>
      </trkpt>
      <trkpt lat="47.05741" lon="-1.63317">
        <ele>-2.71</ele>
        <time>2016-12-24T11:51:21Z</time>
      </trkpt>
      <trkpt lat="47.05761" lon="-1.63308">
        <ele>-2.16</ele>
        <time>2016-12-24T11:51:24Z</time>
      </trkpt>
      <trkpt lat="47.05783" lon="-1.63296">
        <ele>-2.14</ele>
        <time>2016-12-24T11:51:28Z</time>
      </trkpt>
      <trkpt lat="47.05805" lon="-1.63285">
        <ele>-1.09</ele>
        <time>2016-12-24T11:51:32Z</time>
      </trkpt>
      <trkpt lat="47.05824" lon="-1.63275">
        <ele>-0.82</ele>
        <time>2016-12-24T11:51:35Z</time>
      </trkpt>
      <trkpt lat="47.05842" lon="-1.63267">
        <ele>-1</ele>
        <time>2016-12-24T11:51:38Z</time>
      </trkpt>
      <trkpt lat="47.05864" lon="-1.63258">
        <ele>-0.67</ele>
        <time>2016-12-24T11:51:42Z</time>
      </trkpt>
      <trkpt lat="47.05883" lon="-1.63249">
        <ele>0.79</ele>
        <time>2016-12-24T11:51:45Z</time>
      </trkpt>
      <trkpt lat="47.05906" lon="-1.63239">
        <ele>0.27</ele>
        <time>2016-12-24T11:51:49Z</time>
      </trkpt>
      <trkpt lat="47.05929" lon="-1.63229">
        <ele>-0.76</ele>
        <time>2016-12-24T11:51:53Z</time>
      </trkpt>
      <trkpt lat="47.0595" lon="-1.63219">
        <ele>-0.78</ele>
        <time>2016-12-24T11:51:56Z</time>
      </trkpt>
      <trkpt lat="47.05973" lon="-1.63209">
        <ele>-1.79</ele>
        <time>2016-12-24T11:52:00Z</time>
      </trkpt>
      <trkpt lat="47.05991" lon="-1.632">
        <ele>-1.6</ele>
        <time>2016-12-24T11:52:03Z</time>
      </trkpt>
      <trkpt lat="47.06009" lon="-1.6319">
        <ele>-1.4</ele>
        <time>2016-12-24T11:52:06Z</time>
      </trkpt>
      <trkpt lat="47.06028" lon="-1.63181">
        <ele>-1.37</ele>
        <time>2016-12-24T11:52:09Z</time>
      </trkpt>
      <trkpt lat="47.06046" lon="-1.63173">
        <ele>-1.29</ele>
        <time>2016-12-24T11:52:12Z</time>
      </trkpt>
      <trkpt lat="47.06065" lon="-1.63164">
        <ele>-1.7</ele>
        <time>2016-12-24T11:52:15Z</time>
      </trkpt>
      <trkpt lat="47.06082" lon="-1.63156">
        <ele>-1.36</ele>
        <time>2016-12-24T11:52:18Z</time>
      </trkpt>
      <trkpt lat="47.06101" lon="-1.63147">
        <ele>-0.47</ele>
        <time>2016-12-24T11:52:21Z</time>
      </trkpt>
      <trkpt lat="47.0612" lon="-1.63139">
        <ele>-0.33</ele>
        <time>2016-12-24T11:52:24Z</time>
      </trkpt>
      <trkpt lat="47.06138" lon="-1.63131">
        <ele>-1.56</ele>
        <time>2016-12-24T11:52:27Z</time>
      </trkpt>
      <trkpt lat="47.06156" lon="-1.63122">
        <ele>-1.14</ele>
        <time>2016-12-24T11:52:30Z</time>
      </trkpt>
      <trkpt lat="47.06178" lon="-1.6311">
        <ele>-1.05</ele>
        <time>2016-12-24T11:52:34Z</time>
      </trkpt>
      <trkpt lat="47.06201" lon="-1.63098">
        <ele>-0.11</ele>
        <time>2016-12-24T11:52:38Z</time>
      </trkpt>
      <trkpt lat="47.06223" lon="-1.6309">
        <ele>1.17</ele>
        <time>2016-12-24T11:52:42Z</time>
      </trkpt>
      <trkpt lat="47.06244" lon="-1.6308">
        <ele>1.08</ele>
        <time>2016-12-24T11:52:45Z</time>
      </trkpt>
      <trkpt lat="47.06263" lon="-1.63071">
        <ele>-0.05</ele>
        <time>2016-12-24T11:52:48Z</time>
      </trkpt>
      <trkpt lat="47.06281" lon="-1.63063">
        <ele>-0.5</ele>
        <time>2016-12-24T11:52:51Z</time>
      </trkpt>
      <trkpt lat="47.063" lon="-1.63053">
        <ele>-1.03</ele>
        <time>2016-12-24T11:52:54Z</time>
      </trkpt>
      <trkpt lat="47.06318" lon="-1.63045">
        <ele>-0.58</ele>
        <time>2016-12-24T11:52:57Z</time>
      </trkpt>
      <trkpt lat="47.06336" lon="-1.63037">
        <ele>-0.69</ele>
        <time>2016-12-24T11:53:00Z</time>
      </trkpt>
      <trkpt lat="47.06356" lon="-1.63029">
        <ele>-0.25</ele>
        <time>2016-12-24T11:53:03Z</time>
      </trkpt>
      <trkpt lat="47.06379" lon="-1.6302">
        <ele>-0.02</ele>
        <time>2016-12-24T11:53:07Z</time>
      </trkpt>
      <trkpt lat="47.06398" lon="-1.63011">
        <ele>-0.35</ele>
        <time>2016-12-24T11:53:10Z</time>
      </trkpt>
      <trkpt lat="47.06416" lon="-1.63001">
        <ele>0.44</ele>
        <time>2016-12-24T11:53:13Z</time>
      </trkpt>
      <trkpt lat="47.06434" lon="-1.62992">
        <ele>0.97</ele>
        <time>2016-12-24T11:53:16Z</time>
      </trkpt>
      <trkpt lat="47.06455" lon="-1.62979">
        <ele>1.53</ele>
        <time>2016-12-24T11:53:20Z</time>
      </trkpt>
      <trkpt lat="47.06474" lon="-1.62969">
        <ele>1.57</ele>
        <time>2016-12-24T11:53:23Z</time>
      </trkpt>
      <trkpt lat="47.06492" lon="-1.62958">
        <ele>1.11</ele>
        <time>2016-12-24T11:53:26Z</time>
      </trkpt>
      <trkpt lat="47.06509" lon="-1.62946">
        <ele>1.23</ele>
        <time>2016-12-24T11:53:29Z</time>
      </trkpt>
      <trkpt lat="47.06526" lon="-1.62929">
        <ele>1.31</ele>
        <time>2016-12-24T11:53:32Z</time>
      </trkpt>
      <trkpt lat="47.06539" lon="-1.6291">
        <ele>1.05</ele>
        <time>2016-12-24T11:53:35Z</time>
      </trkpt>
      <trkpt lat="47.06552" lon="-1.62889">
        <ele>2.95</ele>
        <time>2016-12-24T11:53:38Z</time>
      </trkpt>
      <trkpt lat="47.06566" lon="-1.62868">
        <ele>3.69</ele>
        <time>2016-12-24T11:53:41Z</time>
      </trkpt>
      <trkpt lat="47.0658" lon="-1.62846">
        <ele>3.4</ele>
        <time>2016-12-24T11:53:44Z</time>
      </trkpt>
      <trkpt lat="47.06592" lon="-1.62827">
        <ele>2.46</ele>
        <time>2016-12-24T11:53:47Z</time>
      </trkpt>
      <trkpt lat="47.06607" lon="-1.62805">
        <ele>1.48</ele>
        <time>2016-12-24T11:53:50Z</time>
      </trkpt>
      <trkpt lat="47.0662" lon="-1.62784">
        <ele>1.62</ele>
        <time>2016-12-24T11:53:53Z</time>
      </trkpt>
      <trkpt lat="47.06633" lon="-1.62765">
        <ele>1.29</ele>
        <time>2016-12-24T11:53:56Z</time>
      </trkpt>
      <trkpt lat="47.06646" lon="-1.62746">
        <ele>2.29</ele>
        <time>2016-12-24T11:53:59Z</time>
      </trkpt>
      <trkpt lat="47.06658" lon="-1.62725">
        <ele>2.89</ele>
        <time>2016-12-24T11:54:02Z</time>
      </trkpt>
      <trkpt lat="47.06672" lon="-1.62704">
        <ele>3.18</ele>
        <time>2016-12-24T11:54:05Z</time>
      </trkpt>
      <trkpt lat="47.06688" lon="-1.62678">
        <ele>3.57</ele>
        <time>2016-12-24T11:54:09Z</time>
      </trkpt>
      <trkpt lat="47.06701" lon="-1.62658">
        <ele>3.81</ele>
        <time>2016-12-24T11:54:12Z</time>
      </trkpt>
      <trkpt lat="47.06715" lon="-1.6264">
        <ele>3.86</ele>
        <time>2016-12-24T11:54:15Z</time>
      </trkpt>
      <trkpt lat="47.0673" lon="-1.62622">
        <ele>4.07</ele>
        <time>2016-12-24T11:54:18Z</time>
      </trkpt>
      <trkpt lat="47.06747" lon="-1.62605">
        <ele>3.55</ele>
        <time>2016-12-24T11:54:21Z</time>
      </trkpt>
      <trkpt lat="47.06764" lon="-1.62589">
        <ele>3.98</ele>
        <time>2016-12-24T11:54:24Z</time>
      </trkpt>
      <trkpt lat="47.06781" lon="-1.62575">
        <ele>4.67</ele>
        <time>2016-12-24T11:54:27Z</time>
      </trkpt>
      <trkpt lat="47.06801" lon="-1.62555">
        <ele>4.11</ele>
        <time>2016-12-24T11:54:31Z</time>
      </trkpt>
      <trkpt lat="47.06818" lon="-1.62541">
        <ele>4.36</ele>
        <time>2016-12-24T11:54:34Z</time>
      </trkpt>
      <trkpt lat="47.06835" lon="-1.62526">
        <ele>4.05</ele>
        <time>2016-12-24T11:54:37Z</time>
      </trkpt>
      <trkpt lat="47.06854" lon="-1.62513">
        <ele>2.54</ele>
        <time>2016-12-24T11:54:40Z</time>
      </trkpt>
      <trkpt lat="47.0687" lon="-1.62502">
        <ele>2.47</ele>
        <time>2016-12-24T11:54:43Z</time>
      </trkpt>
      <trkpt lat="47.06887" lon="-1.62492">
        <ele>4.03</ele>
        <time>2016-12-24T11:54:46Z</time>
      </trkpt>
      <trkpt lat="47.06905" lon="-1.62482">
        <ele>5.67</ele>
        <time>2016-12-24T11:54:49Z</time>
      </trkpt>
      <trkpt lat="47.06922" lon="-1.62473">
        <ele>6.34</ele>
        <time>2016-12-24T11:54:52Z</time>
      </trkpt>
      <trkpt lat="47.0694" lon="-1.62464">
        <ele>7.44</ele>
        <time>2016-12-24T11:54:55Z</time>
      </trkpt>
      <trkpt lat="47.06961" lon="-1.62455">
        <ele>7.15</ele>
        <time>2016-12-24T11:54:58Z</time>
      </trkpt>
      <trkpt lat="47.06981" lon="-1.62445">
        <ele>6.42</ele>
        <time>2016-12-24T11:55:01Z</time>
      </trkpt>
      <trkpt lat="47.07003" lon="-1.62436">
        <ele>5.32</ele>
        <time>2016-12-24T11:55:05Z</time>
      </trkpt>
      <trkpt lat="47.07022" lon="-1.62428">
        <ele>4.3</ele>
        <time>2016-12-24T11:55:08Z</time>
      </trkpt>
      <trkpt lat="47.0704" lon="-1.62419">
        <ele>3.38</ele>
        <time>2016-12-24T11:55:11Z</time>
      </trkpt>
      <trkpt lat="47.07063" lon="-1.62406">
        <ele>5.08</ele>
        <time>2016-12-24T11:55:15Z</time>
      </trkpt>
      <trkpt lat="47.07081" lon="-1.62395">
        <ele>6.6</ele>
        <time>2016-12-24T11:55:18Z</time>
      </trkpt>
      <trkpt lat="47.07098" lon="-1.62383">
        <ele>6.55</ele>
        <time>2016-12-24T11:55:21Z</time>
      </trkpt>
      <trkpt lat="47.07116" lon="-1.62371">
        <ele>3.86</ele>
        <time>2016-12-24T11:55:24Z</time>
      </trkpt>
      <trkpt lat="47.07134" lon="-1.62359">
        <ele>2.85</ele>
        <time>2016-12-24T11:55:27Z</time>
      </trkpt>
      <trkpt lat="47.0715" lon="-1.62347">
        <ele>3.45</ele>
        <time>2016-12-24T11:55:30Z</time>
      </trkpt>
      <trkpt lat="47.07169" lon="-1.62335">
        <ele>3.37</ele>
        <time>2016-12-24T11:55:33Z</time>
      </trkpt>
      <trkpt lat="47.07186" lon="-1.62324">
        <ele>3.13</ele>
        <time>2016-12-24T11:55:36Z</time>
      </trkpt>
      <trkpt lat="47.07204" lon="-1.62313">
        <ele>3.95</ele>
        <time>2016-12-24T11:55:39Z</time>
      </trkpt>
      <trkpt lat="47.07223" lon="-1.62301">
        <ele>4.56</ele>
        <time>2016-12-24T11:55:42Z</time>
      </trkpt>
      <trkpt lat="47.07241" lon="-1.62289">
        <ele>4.34</ele>
        <time>2016-12-24T11:55:45Z</time>
      </trkpt>
      <trkpt lat="47.07259" lon="-1.62276">
        <ele>4.59</ele>
        <time>2016-12-24T11:55:48Z</time>
      </trkpt>
      <trkpt lat="47.07275" lon="-1.62262">
        <ele>3.95</ele>
        <time>2016-12-24T11:55:51Z</time>
      </trkpt>
      <trkpt lat="47.0729" lon="-1.62246">
        <ele>2.45</ele>
        <time>2016-12-24T11:55:54Z</time>
      </trkpt>
      <trkpt lat="47.07308" lon="-1.62224">
        <ele>2.73</ele>
        <time>2016-12-24T11:55:58Z</time>
      </trkpt>
      <trkpt lat="47.07321" lon="-1.62205">
        <ele>2.81</ele>
        <time>2016-12-24T11:56:01Z</time>
      </trkpt>
      <trkpt lat="47.07334" lon="-1.62185">
        <ele>3.49</ele>
        <time>2016-12-24T11:56:04Z</time>
      </trkpt>
      <trkpt lat="47.07347" lon="-1.62163">
        <ele>2.74</ele>
        <time>2016-12-24T11:56:07Z</time>
      </trkpt>
      <trkpt lat="47.0736" lon="-1.62143">
        <ele>2.92</ele>
        <time>2016-12-24T11:56:10Z</time>
      </trkpt>
      <trkpt lat="47.07373" lon="-1.62122">
        <ele>2.68</ele>
        <time>2016-12-24T11:56:13Z</time>
      </trkpt>
      <trkpt lat="47.07385" lon="-1.62102">
        <ele>2.91</ele>
        <time>2016-12-24T11:56:16Z</time>
      </trkpt>
      <trkpt lat="47.07399" lon="-1.6208">
        <ele>2.7</ele>
        <time>2016-12-24T11:56:19Z</time>
      </trkpt>
      <trkpt lat="47.07411" lon="-1.6206">
        <ele>2.07</ele>
        <time>2016-12-24T11:56:22Z</time>
      </trkpt>
      <trkpt lat="47.07427" lon="-1.62033">
        <ele>2.53</ele>
        <time>2016-12-24T11:56:26Z</time>
      </trkpt>
      <trkpt lat="47.0744" lon="-1.62012">
        <ele>2.89</ele>
        <time>2016-12-24T11:56:29Z</time>
      </trkpt>
      <trkpt lat="47.07454" lon="-1.61993">
        <ele>3.16</ele>
        <time>2016-12-24T11:56:32Z</time>
      </trkpt>
      <trkpt lat="47.07468" lon="-1.61974">
        <ele>3.27</ele>
        <time>2016-12-24T11:56:35Z</time>
      </trkpt>
      <trkpt lat="47.07486" lon="-1.61955">
        <ele>2.97</ele>
        <time>2016-12-24T11:56:39Z</time>
      </trkpt>
      <trkpt lat="47.07502" lon="-1.61938">
        <ele>3</ele>
        <time>2016-12-24T11:56:42Z</time>
      </trkpt>
      <trkpt lat="47.07516" lon="-1.61921">
        <ele>2.91</ele>
        <time>2016-12-24T11:56:45Z</time>
      </trkpt>
      <trkpt lat="47.07535" lon="-1.61898">
        <ele>3.41</ele>
        <time>2016-12-24T11:56:49Z</time>
      </trkpt>
      <trkpt lat="47.07548" lon="-1.6188">
        <ele>4.09</ele>
        <time>2016-12-24T11:56:52Z</time>
      </trkpt>
      <trkpt lat="47.07563" lon="-1.61862">
        <ele>4.21</ele>
        <time>2016-12-24T11:56:55Z</time>
      </trkpt>
      <trkpt lat="47.07579" lon="-1.61845">
        <ele>3.64</ele>
        <time>2016-12-24T11:56:58Z</time>
      </trkpt>
      <trkpt lat="47.07594" lon="-1.61828">
        <ele>4.15</ele>
        <time>2016-12-24T11:57:01Z</time>
      </trkpt>
      <trkpt lat="47.0761" lon="-1.61809">
        <ele>3.83</ele>
        <time>2016-12-24T11:57:04Z</time>
      </trkpt>
      <trkpt lat="47.07626" lon="-1.61792">
        <ele>4.21</ele>
        <time>2016-12-24T11:57:07Z</time>
      </trkpt>
      <trkpt lat="47.0764" lon="-1.61776">
        <ele>3.54</ele>
        <time>2016-12-24T11:57:10Z</time>
      </trkpt>
      <trkpt lat="47.07657" lon="-1.61757">
        <ele>2.52</ele>
        <time>2016-12-24T11:57:13Z</time>
      </trkpt>
      <trkpt lat="47.07671" lon="-1.61739">
        <ele>2.36</ele>
        <time>2016-12-24T11:57:16Z</time>
      </trkpt>
      <trkpt lat="47.07688" lon="-1.61721">
        <ele>2.47</ele>
        <time>2016-12-24T11:57:19Z</time>
      </trkpt>
      <trkpt lat="47.07705" lon="-1.61704">
        <ele>0.67</ele>
        <time>2016-12-24T11:57:22Z</time>
      </trkpt>
      <trkpt lat="47.07721" lon="-1.61687">
        <ele>-0.39</ele>
        <time>2016-12-24T11:57:25Z</time>
      </trkpt>
      <trkpt lat="47.07737" lon="-1.61669">
        <ele>-0.97</ele>
        <time>2016-12-24T11:57:28Z</time>
      </trkpt>
      <trkpt lat="47.07754" lon="-1.61646">
        <ele>-1.02</ele>
        <time>2016-12-24T11:57:32Z</time>
      </trkpt>
      <trkpt lat="47.07769" lon="-1.61629">
        <ele>-1.71</ele>
        <time>2016-12-24T11:57:35Z</time>
      </trkpt>
      <trkpt lat="47.07786" lon="-1.6161">
        <ele>-2.42</ele>
        <time>2016-12-24T11:57:38Z</time>
      </trkpt>
      <trkpt lat="47.07802" lon="-1.61596">
        <ele>-2.36</ele>
        <time>2016-12-24T11:57:41Z</time>
      </trkpt>
      <trkpt lat="47.07819" lon="-1.61583">
        <ele>-2.13</ele>
        <time>2016-12-24T11:57:44Z</time>
      </trkpt>
      <trkpt lat="47.07837" lon="-1.61573">
        <ele>-0.33</ele>
        <time>2016-12-24T11:57:47Z</time>
      </trkpt>
      <trkpt lat="47.07856" lon="-1.61564">
        <ele>0.44</ele>
        <time>2016-12-24T11:57:50Z</time>
      </trkpt>
      <trkpt lat="47.07874" lon="-1.61554">
        <ele>-0.04</ele>
        <time>2016-12-24T11:57:53Z</time>
      </trkpt>
      <trkpt lat="47.07896" lon="-1.61542">
        <ele>0.01</ele>
        <time>2016-12-24T11:57:57Z</time>
      </trkpt>
      <trkpt lat="47.07919" lon="-1.61533">
        <ele>0.69</ele>
        <time>2016-12-24T11:58:01Z</time>
      </trkpt>
      <trkpt lat="47.07937" lon="-1.61525">
        <ele>0.26</ele>
        <time>2016-12-24T11:58:04Z</time>
      </trkpt>
      <trkpt lat="47.07957" lon="-1.61517">
        <ele>0.4</ele>
        <time>2016-12-24T11:58:07Z</time>
      </trkpt>
      <trkpt lat="47.07974" lon="-1.61509">
        <ele>1.19</ele>
        <time>2016-12-24T11:58:10Z</time>
      </trkpt>
      <trkpt lat="47.07992" lon="-1.61502">
        <ele>1.28</ele>
        <time>2016-12-24T11:58:13Z</time>
      </trkpt>
      <trkpt lat="47.08011" lon="-1.61494">
        <ele>2.86</ele>
        <time>2016-12-24T11:58:16Z</time>
      </trkpt>
      <trkpt lat="47.0803" lon="-1.61485">
        <ele>2.45</ele>
        <time>2016-12-24T11:58:19Z</time>
      </trkpt>
      <trkpt lat="47.08048" lon="-1.61477">
        <ele>0.35</ele>
        <time>2016-12-24T11:58:22Z</time>
      </trkpt>
      <trkpt lat="47.08067" lon="-1.61469">
        <ele>-0.54</ele>
        <time>2016-12-24T11:58:25Z</time>
      </trkpt>
      <trkpt lat="47.08089" lon="-1.6146">
        <ele>0.26</ele>
        <time>2016-12-24T11:58:29Z</time>
      </trkpt>
      <trkpt lat="47.08109" lon="-1.61452">
        <ele>1.04</ele>
        <time>2016-12-24T11:58:32Z</time>
      </trkpt>
      <trkpt lat="47.08128" lon="-1.61442">
        <ele>-0.39</ele>
        <time>2016-12-24T11:58:35Z</time>
      </trkpt>
      <trkpt lat="47.08145" lon="-1.61435">
        <ele>-1.02</ele>
        <time>2016-12-24T11:58:38Z</time>
      </trkpt>
      <trkpt lat="47.08163" lon="-1.61427">
        <ele>-1.04</ele>
        <time>2016-12-24T11:58:41Z</time>
      </trkpt>
      <trkpt lat="47.08185" lon="-1.61417">
        <ele>0.35</ele>
        <time>2016-12-24T11:58:45Z</time>
      </trkpt>
      <trkpt lat="47.08203" lon="-1.6141">
        <ele>0.8</ele>
        <time>2016-12-24T11:58:48Z</time>
      </trkpt>
      <trkpt lat="47.08222" lon="-1.61402">
        <ele>1.48</ele>
        <time>2016-12-24T11:58:51Z</time>
      </trkpt>
      <trkpt lat="47.08241" lon="-1.61394">
        <ele>0.2</ele>
        <time>2016-12-24T11:58:54Z</time>
      </trkpt>
      <trkpt lat="47.08264" lon="-1.61386">
        <ele>0.46</ele>
        <time>2016-12-24T11:58:58Z</time>
      </trkpt>
      <trkpt lat="47.08282" lon="-1.61378">
        <ele>1.06</ele>
        <time>2016-12-24T11:59:01Z</time>
      </trkpt>
      <trkpt lat="47.083" lon="-1.61368">
        <ele>1.11</ele>
        <time>2016-12-24T11:59:04Z</time>
      </trkpt>
      <trkpt lat="47.08318" lon="-1.61362">
        <ele>1.52</ele>
        <time>2016-12-24T11:59:07Z</time>
      </trkpt>
      <trkpt lat="47.08336" lon="-1.61354">
        <ele>0.54</ele>
        <time>2016-12-24T11:59:10Z</time>
      </trkpt>
      <trkpt lat="47.08357" lon="-1.61345">
        <ele>-0.52</ele>
        <time>2016-12-24T11:59:13Z</time>
      </trkpt>
      <trkpt lat="47.08375" lon="-1.61338">
        <ele>-0.42</ele>
        <time>2016-12-24T11:59:16Z</time>
      </trkpt>
      <trkpt lat="47.08393" lon="-1.6133">
        <ele>0.92</ele>
        <time>2016-12-24T11:59:19Z</time>
      </trkpt>
      <trkpt lat="47.08416" lon="-1.6132">
        <ele>-0.37</ele>
        <time>2016-12-24T11:59:23Z</time>
      </trkpt>
      <trkpt lat="47.08434" lon="-1.61312">
        <ele>-0.99</ele>
        <time>2016-12-24T11:59:26Z</time>
      </trkpt>
      <trkpt lat="47.08453" lon="-1.61302">
        <ele>-0.39</ele>
        <time>2016-12-24T11:59:29Z</time>
      </trkpt>
      <trkpt lat="47.0847" lon="-1.61295">
        <ele>1.33</ele>
        <time>2016-12-24T11:59:32Z</time>
      </trkpt>
      <trkpt lat="47.08489" lon="-1.61288">
        <ele>2.23</ele>
        <time>2016-12-24T11:59:35Z</time>
      </trkpt>
      <trkpt lat="47.08508" lon="-1.6128">
        <ele>2</ele>
        <time>2016-12-24T11:59:38Z</time>
      </trkpt>
      <trkpt lat="47.08526" lon="-1.61273">
        <ele>2.29</ele>
        <time>2016-12-24T11:59:41Z</time>
      </trkpt>
      <trkpt lat="47.08544" lon="-1.61266">
        <ele>2.63</ele>
        <time>2016-12-24T11:59:44Z</time>
      </trkpt>
      <trkpt lat="47.08566" lon="-1.61256">
        <ele>2.29</ele>
        <time>2016-12-24T11:59:48Z</time>
      </trkpt>
      <trkpt lat="47.08586" lon="-1.61247">
        <ele>1.05</ele>
        <time>2016-12-24T11:59:51Z</time>
      </trkpt>
      <trkpt lat="47.08604" lon="-1.6124">
        <ele>0.4</ele>
        <time>2016-12-24T11:59:54Z</time>
      </trkpt>
      <trkpt lat="47.08622" lon="-1.61232">
        <ele>1.19</ele>
        <time>2016-12-24T11:59:57Z</time>
      </trkpt>
      <trkpt lat="47.08644" lon="-1.61223">
        <ele>3.34</ele>
        <time>2016-12-24T12:00:01Z</time>
      </trkpt>
      <trkpt lat="47.08663" lon="-1.61216">
        <ele>4.34</ele>
        <time>2016-12-24T12:00:04Z</time>
      </trkpt>
      <trkpt lat="47.08683" lon="-1.61208">
        <ele>5.71</ele>
        <time>2016-12-24T12:00:08Z</time>
      </trkpt>
      <trkpt lat="47.08702" lon="-1.612">
        <ele>4.68</ele>
        <time>2016-12-24T12:00:11Z</time>
      </trkpt>
      <trkpt lat="47.08724" lon="-1.6119">
        <ele>3.57</ele>
        <time>2016-12-24T12:00:15Z</time>
      </trkpt>
      <trkpt lat="47.08745" lon="-1.61179">
        <ele>5.09</ele>
        <time>2016-12-24T12:00:19Z</time>
      </trkpt>
      <trkpt lat="47.08763" lon="-1.61172">
        <ele>5.35</ele>
        <time>2016-12-24T12:00:22Z</time>
      </trkpt>
      <trkpt lat="47.08781" lon="-1.61165">
        <ele>5.09</ele>
        <time>2016-12-24T12:00:25Z</time>
      </trkpt>
      <trkpt lat="47.08799" lon="-1.61158">
        <ele>4.29</ele>
        <time>2016-12-24T12:00:28Z</time>
      </trkpt>
      <trkpt lat="47.08817" lon="-1.6115">
        <ele>2.99</ele>
        <time>2016-12-24T12:00:31Z</time>
      </trkpt>
      <trkpt lat="47.08837" lon="-1.61141">
        <ele>3.57</ele>
        <time>2016-12-24T12:00:35Z</time>
      </trkpt>
      <trkpt lat="47.08859" lon="-1.61129">
        <ele>3.86</ele>
        <time>2016-12-24T12:00:39Z</time>
      </trkpt>
      <trkpt lat="47.08878" lon="-1.61121">
        <ele>3.29</ele>
        <time>2016-12-24T12:00:42Z</time>
      </trkpt>
      <trkpt lat="47.08895" lon="-1.61114">
        <ele>3.55</ele>
        <time>2016-12-24T12:00:45Z</time>
      </trkpt>
      <trkpt lat="47.08913" lon="-1.61107">
        <ele>2.97</ele>
        <time>2016-12-24T12:00:48Z</time>
      </trkpt>
      <trkpt lat="47.08931" lon="-1.61099">
        <ele>3.59</ele>
        <time>2016-12-24T12:00:51Z</time>
      </trkpt>
      <trkpt lat="47.08951" lon="-1.61091">
        <ele>4.13</ele>
        <time>2016-12-24T12:00:54Z</time>
      </trkpt>
      <trkpt lat="47.0897" lon="-1.61084">
        <ele>3.79</ele>
        <time>2016-12-24T12:00:57Z</time>
      </trkpt>
      <trkpt lat="47.08988" lon="-1.6108">
        <ele>4.1</ele>
        <time>2016-12-24T12:01:00Z</time>
      </trkpt>
      <trkpt lat="47.09008" lon="-1.61083">
        <ele>5.11</ele>
        <time>2016-12-24T12:01:03Z</time>
      </trkpt>
      <trkpt lat="47.09029" lon="-1.61088">
        <ele>6.17</ele>
        <time>2016-12-24T12:01:06Z</time>
      </trkpt>
      <trkpt lat="47.09048" lon="-1.61095">
        <ele>6.77</ele>
        <time>2016-12-24T12:01:09Z</time>
      </trkpt>
      <trkpt lat="47.09069" lon="-1.61103">
        <ele>5.8</ele>
        <time>2016-12-24T12:01:12Z</time>
      </trkpt>
      <trkpt lat="47.09093" lon="-1.61111">
        <ele>5.94</ele>
        <time>2016-12-24T12:01:16Z</time>
      </trkpt>
      <trkpt lat="47.09116" lon="-1.6112">
        <ele>6.53</ele>
        <time>2016-12-24T12:01:20Z</time>
      </trkpt>
      <trkpt lat="47.09134" lon="-1.61127">
        <ele>5.32</ele>
        <time>2016-12-24T12:01:23Z</time>
      </trkpt>
      <trkpt lat="47.09154" lon="-1.61133">
        <ele>3.71</ele>
        <time>2016-12-24T12:01:26Z</time>
      </trkpt>
      <trkpt lat="47.09177" lon="-1.61139">
        <ele>3.55</ele>
        <time>2016-12-24T12:01:30Z</time>
      </trkpt>
      <trkpt lat="47.09199" lon="-1.61145">
        <ele>8.24</ele>
        <time>2016-12-24T12:01:35Z</time>
      </trkpt>
      <trkpt lat="47.09213" lon="-1.61126">
        <ele>9.58</ele>
        <time>2016-12-24T12:01:39Z</time>
      </trkpt>
      <trkpt lat="47.09211" lon="-1.61091">
        <ele>7.3</ele>
        <time>2016-12-24T12:01:42Z</time>
      </trkpt>
      <trkpt lat="47.09209" lon="-1.61064">
        <ele>6.68</ele>
        <time>2016-12-24T12:01:45Z</time>
      </trkpt>
      <trkpt lat="47.09204" lon="-1.61032">
        <ele>6.63</ele>
        <time>2016-12-24T12:01:48Z</time>
      </trkpt>
      <trkpt lat="47.09202" lon="-1.61001">
        <ele>6.87</ele>
        <time>2016-12-24T12:01:51Z</time>
      </trkpt>
      <trkpt lat="47.092" lon="-1.60974">
        <ele>8.19</ele>
        <time>2016-12-24T12:01:54Z</time>
      </trkpt>
      <trkpt lat="47.09198" lon="-1.60944">
        <ele>8.19</ele>
        <time>2016-12-24T12:01:57Z</time>
      </trkpt>
      <trkpt lat="47.09194" lon="-1.60916">
        <ele>8.21</ele>
        <time>2016-12-24T12:02:00Z</time>
      </trkpt>
      <trkpt lat="47.09189" lon="-1.60889">
        <ele>8.07</ele>
        <time>2016-12-24T12:02:03Z</time>
      </trkpt>
      <trkpt lat="47.09182" lon="-1.60862">
        <ele>5.99</ele>
        <time>2016-12-24T12:02:06Z</time>
      </trkpt>
      <trkpt lat="47.09176" lon="-1.60835">
        <ele>5.45</ele>
        <time>2016-12-24T12:02:09Z</time>
      </trkpt>
      <trkpt lat="47.0917" lon="-1.60808">
        <ele>5.79</ele>
        <time>2016-12-24T12:02:12Z</time>
      </trkpt>
      <trkpt lat="47.09163" lon="-1.60778">
        <ele>5.85</ele>
        <time>2016-12-24T12:02:15Z</time>
      </trkpt>
      <trkpt lat="47.09157" lon="-1.6075">
        <ele>7.39</ele>
        <time>2016-12-24T12:02:18Z</time>
      </trkpt>
      <trkpt lat="47.09148" lon="-1.60714">
        <ele>7.01</ele>
        <time>2016-12-24T12:02:22Z</time>
      </trkpt>
      <trkpt lat="47.09143" lon="-1.60688">
        <ele>7.25</ele>
        <time>2016-12-24T12:02:25Z</time>
      </trkpt>
      <trkpt lat="47.09136" lon="-1.60662">
        <ele>6.66</ele>
        <time>2016-12-24T12:02:28Z</time>
      </trkpt>
      <trkpt lat="47.09129" lon="-1.60636">
        <ele>6.34</ele>
        <time>2016-12-24T12:02:31Z</time>
      </trkpt>
      <trkpt lat="47.09121" lon="-1.60611">
        <ele>6.16</ele>
        <time>2016-12-24T12:02:34Z</time>
      </trkpt>
      <trkpt lat="47.09113" lon="-1.60585">
        <ele>5.8</ele>
        <time>2016-12-24T12:02:37Z</time>
      </trkpt>
      <trkpt lat="47.09103" lon="-1.6056">
        <ele>4.58</ele>
        <time>2016-12-24T12:02:40Z</time>
      </trkpt>
      <trkpt lat="47.09089" lon="-1.60529">
        <ele>3.62</ele>
        <time>2016-12-24T12:02:44Z</time>
      </trkpt>
      <trkpt lat="47.09076" lon="-1.60499">
        <ele>3.63</ele>
        <time>2016-12-24T12:02:48Z</time>
      </trkpt>
      <trkpt lat="47.09065" lon="-1.60477">
        <ele>4.79</ele>
        <time>2016-12-24T12:02:51Z</time>
      </trkpt>
      <trkpt lat="47.09053" lon="-1.60452">
        <ele>6.2</ele>
        <time>2016-12-24T12:02:54Z</time>
      </trkpt>
      <trkpt lat="47.09039" lon="-1.60424">
        <ele>5.85</ele>
        <time>2016-12-24T12:02:58Z</time>
      </trkpt>
      <trkpt lat="47.09028" lon="-1.60402">
        <ele>5</ele>
        <time>2016-12-24T12:03:01Z</time>
      </trkpt>
      <trkpt lat="47.09016" lon="-1.60379">
        <ele>4.55</ele>
        <time>2016-12-24T12:03:04Z</time>
      </trkpt>
      <trkpt lat="47.09005" lon="-1.60358">
        <ele>4.27</ele>
        <time>2016-12-24T12:03:07Z</time>
      </trkpt>
      <trkpt lat="47.08994" lon="-1.60336">
        <ele>4.31</ele>
        <time>2016-12-24T12:03:10Z</time>
      </trkpt>
      <trkpt lat="47.0898" lon="-1.60307">
        <ele>4.65</ele>
        <time>2016-12-24T12:03:14Z</time>
      </trkpt>
      <trkpt lat="47.08969" lon="-1.60285">
        <ele>4.96</ele>
        <time>2016-12-24T12:03:17Z</time>
      </trkpt>
      <trkpt lat="47.08956" lon="-1.60263">
        <ele>5.46</ele>
        <time>2016-12-24T12:03:20Z</time>
      </trkpt>
      <trkpt lat="47.08944" lon="-1.60239">
        <ele>5.19</ele>
        <time>2016-12-24T12:03:23Z</time>
      </trkpt>
      <trkpt lat="47.08932" lon="-1.60211">
        <ele>5.44</ele>
        <time>2016-12-24T12:03:27Z</time>
      </trkpt>
      <trkpt lat="47.0892" lon="-1.60189">
        <ele>6.36</ele>
        <time>2016-12-24T12:03:30Z</time>
      </trkpt>
      <trkpt lat="47.08908" lon="-1.60167">
        <ele>6.78</ele>
        <time>2016-12-24T12:03:33Z</time>
      </trkpt>
      <trkpt lat="47.08896" lon="-1.60145">
        <ele>6.04</ele>
        <time>2016-12-24T12:03:36Z</time>
      </trkpt>
      <trkpt lat="47.08882" lon="-1.60117">
        <ele>5.89</ele>
        <time>2016-12-24T12:03:40Z</time>
      </trkpt>
      <trkpt lat="47.08868" lon="-1.60088">
        <ele>6.69</ele>
        <time>2016-12-24T12:03:44Z</time>
      </trkpt>
      <trkpt lat="47.08855" lon="-1.60063">
        <ele>6.33</ele>
        <time>2016-12-24T12:03:47Z</time>
      </trkpt>
      <trkpt lat="47.08842" lon="-1.60039">
        <ele>6.06</ele>
        <time>2016-12-24T12:03:50Z</time>
      </trkpt>
      <trkpt lat="47.0883" lon="-1.60019">
        <ele>5.37</ele>
        <time>2016-12-24T12:03:53Z</time>
      </trkpt>
      <trkpt lat="47.08818" lon="-1.59997">
        <ele>4.57</ele>
        <time>2016-12-24T12:03:56Z</time>
      </trkpt>
      <trkpt lat="47.08807" lon="-1.59973">
        <ele>3.63</ele>
        <time>2016-12-24T12:03:59Z</time>
      </trkpt>
      <trkpt lat="47.08795" lon="-1.59947">
        <ele>3.24</ele>
        <time>2016-12-24T12:04:02Z</time>
      </trkpt>
      <trkpt lat="47.08782" lon="-1.59921">
        <ele>2.9</ele>
        <time>2016-12-24T12:04:05Z</time>
      </trkpt>
      <trkpt lat="47.08771" lon="-1.59899">
        <ele>2.33</ele>
        <time>2016-12-24T12:04:08Z</time>
      </trkpt>
      <trkpt lat="47.08758" lon="-1.59876">
        <ele>3.23</ele>
        <time>2016-12-24T12:04:11Z</time>
      </trkpt>
      <trkpt lat="47.08746" lon="-1.59853">
        <ele>3.95</ele>
        <time>2016-12-24T12:04:14Z</time>
      </trkpt>
      <trkpt lat="47.08732" lon="-1.59828">
        <ele>4.47</ele>
        <time>2016-12-24T12:04:17Z</time>
      </trkpt>
      <trkpt lat="47.0872" lon="-1.59805">
        <ele>4.75</ele>
        <time>2016-12-24T12:04:20Z</time>
      </trkpt>
      <trkpt lat="47.08708" lon="-1.59782">
        <ele>4.03</ele>
        <time>2016-12-24T12:04:23Z</time>
      </trkpt>
      <trkpt lat="47.08697" lon="-1.59756">
        <ele>3.96</ele>
        <time>2016-12-24T12:04:26Z</time>
      </trkpt>
      <trkpt lat="47.08685" lon="-1.5973">
        <ele>3.73</ele>
        <time>2016-12-24T12:04:29Z</time>
      </trkpt>
      <trkpt lat="47.08675" lon="-1.59704">
        <ele>3.05</ele>
        <time>2016-12-24T12:04:32Z</time>
      </trkpt>
      <trkpt lat="47.08665" lon="-1.59678">
        <ele>2.45</ele>
        <time>2016-12-24T12:04:35Z</time>
      </trkpt>
      <trkpt lat="47.08653" lon="-1.59649">
        <ele>2.46</ele>
        <time>2016-12-24T12:04:38Z</time>
      </trkpt>
      <trkpt lat="47.08644" lon="-1.59625">
        <ele>3.8</ele>
        <time>2016-12-24T12:04:41Z</time>
      </trkpt>
      <trkpt lat="47.08634" lon="-1.59599">
        <ele>3.71</ele>
        <time>2016-12-24T12:04:44Z</time>
      </trkpt>
      <trkpt lat="47.08624" lon="-1.59574">
        <ele>3.22</ele>
        <time>2016-12-24T12:04:47Z</time>
      </trkpt>
      <trkpt lat="47.08614" lon="-1.5955">
        <ele>2.7</ele>
        <time>2016-12-24T12:04:50Z</time>
      </trkpt>
      <trkpt lat="47.08603" lon="-1.59524">
        <ele>1.81</ele>
        <time>2016-12-24T12:04:53Z</time>
      </trkpt>
      <trkpt lat="47.08592" lon="-1.59494">
        <ele>2.38</ele>
        <time>2016-12-24T12:04:57Z</time>
      </trkpt>
      <trkpt lat="47.08582" lon="-1.59468">
        <ele>2.25</ele>
        <time>2016-12-24T12:05:00Z</time>
      </trkpt>
      <trkpt lat="47.08571" lon="-1.59441">
        <ele>2.78</ele>
        <time>2016-12-24T12:05:03Z</time>
      </trkpt>
      <trkpt lat="47.08561" lon="-1.59416">
        <ele>2.34</ele>
        <time>2016-12-24T12:05:06Z</time>
      </trkpt>
      <trkpt lat="47.0855" lon="-1.59389">
        <ele>2.69</ele>
        <time>2016-12-24T12:05:09Z</time>
      </trkpt>
      <trkpt lat="47.0854" lon="-1.59364">
        <ele>2.09</ele>
        <time>2016-12-24T12:05:12Z</time>
      </trkpt>
      <trkpt lat="47.0853" lon="-1.59339">
        <ele>1.1</ele>
        <time>2016-12-24T12:05:15Z</time>
      </trkpt>
      <trkpt lat="47.0852" lon="-1.59314">
        <ele>0.88</ele>
        <time>2016-12-24T12:05:18Z</time>
      </trkpt>
      <trkpt lat="47.08509" lon="-1.59287">
        <ele>1.64</ele>
        <time>2016-12-24T12:05:21Z</time>
      </trkpt>
      <trkpt lat="47.08499" lon="-1.59263">
        <ele>2.59</ele>
        <time>2016-12-24T12:05:24Z</time>
      </trkpt>
      <trkpt lat="47.08488" lon="-1.59237">
        <ele>2.36</ele>
        <time>2016-12-24T12:05:27Z</time>
      </trkpt>
      <trkpt lat="47.08478" lon="-1.59213">
        <ele>2.24</ele>
        <time>2016-12-24T12:05:30Z</time>
      </trkpt>
      <trkpt lat="47.08468" lon="-1.59189">
        <ele>2.32</ele>
        <time>2016-12-24T12:05:33Z</time>
      </trkpt>
      <trkpt lat="47.08458" lon="-1.59164">
        <ele>2.5</ele>
        <time>2016-12-24T12:05:36Z</time>
      </trkpt>
      <trkpt lat="47.08448" lon="-1.5914">
        <ele>2.91</ele>
        <time>2016-12-24T12:05:39Z</time>
      </trkpt>
      <trkpt lat="47.08438" lon="-1.59115">
        <ele>3.87</ele>
        <time>2016-12-24T12:05:42Z</time>
      </trkpt>
      <trkpt lat="47.08429" lon="-1.59092">
        <ele>3</ele>
        <time>2016-12-24T12:05:45Z</time>
      </trkpt>
      <trkpt lat="47.08419" lon="-1.59067">
        <ele>3.18</ele>
        <time>2016-12-24T12:05:48Z</time>
      </trkpt>
      <trkpt lat="47.08409" lon="-1.5904">
        <ele>3.18</ele>
        <time>2016-12-24T12:05:51Z</time>
      </trkpt>
      <trkpt lat="47.08399" lon="-1.59015">
        <ele>3.3</ele>
        <time>2016-12-24T12:05:54Z</time>
      </trkpt>
      <trkpt lat="47.08389" lon="-1.5899">
        <ele>3.51</ele>
        <time>2016-12-24T12:05:57Z</time>
      </trkpt>
      <trkpt lat="47.08377" lon="-1.58963">
        <ele>2.49</ele>
        <time>2016-12-24T12:06:00Z</time>
      </trkpt>
      <trkpt lat="47.08367" lon="-1.58939">
        <ele>1.5</ele>
        <time>2016-12-24T12:06:03Z</time>
      </trkpt>
      <trkpt lat="47.08357" lon="-1.58912">
        <ele>0.29</ele>
        <time>2016-12-24T12:06:06Z</time>
      </trkpt>
      <trkpt lat="47.08346" lon="-1.58883">
        <ele>-0.34</ele>
        <time>2016-12-24T12:06:09Z</time>
      </trkpt>
      <trkpt lat="47.08337" lon="-1.58857">
        <ele>0.36</ele>
        <time>2016-12-24T12:06:12Z</time>
      </trkpt>
      <trkpt lat="47.08327" lon="-1.58833">
        <ele>-0.42</ele>
        <time>2016-12-24T12:06:15Z</time>
      </trkpt>
      <trkpt lat="47.08316" lon="-1.58807">
        <ele>-0.42</ele>
        <time>2016-12-24T12:06:18Z</time>
      </trkpt>
      <trkpt lat="47.08305" lon="-1.58781">
        <ele>0.39</ele>
        <time>2016-12-24T12:06:21Z</time>
      </trkpt>
      <trkpt lat="47.08294" lon="-1.58754">
        <ele>0.65</ele>
        <time>2016-12-24T12:06:24Z</time>
      </trkpt>
      <trkpt lat="47.08283" lon="-1.58728">
        <ele>1.07</ele>
        <time>2016-12-24T12:06:27Z</time>
      </trkpt>
      <trkpt lat="47.08272" lon="-1.58703">
        <ele>2.22</ele>
        <time>2016-12-24T12:06:30Z</time>
      </trkpt>
      <trkpt lat="47.08263" lon="-1.58679">
        <ele>2.08</ele>
        <time>2016-12-24T12:06:33Z</time>
      </trkpt>
      <trkpt lat="47.08253" lon="-1.58655">
        <ele>2.28</ele>
        <time>2016-12-24T12:06:36Z</time>
      </trkpt>
      <trkpt lat="47.08243" lon="-1.58631">
        <ele>3</ele>
        <time>2016-12-24T12:06:39Z</time>
      </trkpt>
      <trkpt lat="47.08234" lon="-1.58608">
        <ele>3.2</ele>
        <time>2016-12-24T12:06:42Z</time>
      </trkpt>
      <trkpt lat="47.08226" lon="-1.58583">
        <ele>3.61</ele>
        <time>2016-12-24T12:06:45Z</time>
      </trkpt>
      <trkpt lat="47.08215" lon="-1.58555">
        <ele>4.23</ele>
        <time>2016-12-24T12:06:48Z</time>
      </trkpt>
      <trkpt lat="47.08204" lon="-1.58527">
        <ele>4.87</ele>
        <time>2016-12-24T12:06:51Z</time>
      </trkpt>
      <trkpt lat="47.08194" lon="-1.58505">
        <ele>4.74</ele>
        <time>2016-12-24T12:06:54Z</time>
      </trkpt>
      <trkpt lat="47.08183" lon="-1.58479">
        <ele>3.86</ele>
        <time>2016-12-24T12:06:57Z</time>
      </trkpt>
      <trkpt lat="47.08172" lon="-1.58454">
        <ele>3.28</ele>
        <time>2016-12-24T12:07:00Z</time>
      </trkpt>
      <trkpt lat="47.08162" lon="-1.5843">
        <ele>2.76</ele>
        <time>2016-12-24T12:07:03Z</time>
      </trkpt>
      <trkpt lat="47.08153" lon="-1.58405">
        <ele>3.35</ele>
        <time>2016-12-24T12:07:06Z</time>
      </trkpt>
      <trkpt lat="47.08145" lon="-1.5838">
        <ele>2.87</ele>
        <time>2016-12-24T12:07:09Z</time>
      </trkpt>
      <trkpt lat="47.08138" lon="-1.58353">
        <ele>3.04</ele>
        <time>2016-12-24T12:07:12Z</time>
      </trkpt>
      <trkpt lat="47.08134" lon="-1.58326">
        <ele>3.49</ele>
        <time>2016-12-24T12:07:15Z</time>
      </trkpt>
      <trkpt lat="47.08131" lon="-1.58298">
        <ele>3.94</ele>
        <time>2016-12-24T12:07:18Z</time>
      </trkpt>
      <trkpt lat="47.08127" lon="-1.58268">
        <ele>3.68</ele>
        <time>2016-12-24T12:07:21Z</time>
      </trkpt>
      <trkpt lat="47.08124" lon="-1.5824">
        <ele>2.98</ele>
        <time>2016-12-24T12:07:24Z</time>
      </trkpt>
      <trkpt lat="47.08118" lon="-1.58214">
        <ele>1.65</ele>
        <time>2016-12-24T12:07:27Z</time>
      </trkpt>
      <trkpt lat="47.08108" lon="-1.58189">
        <ele>2.26</ele>
        <time>2016-12-24T12:07:30Z</time>
      </trkpt>
      <trkpt lat="47.08095" lon="-1.58167">
        <ele>3.24</ele>
        <time>2016-12-24T12:07:33Z</time>
      </trkpt>
      <trkpt lat="47.08083" lon="-1.58146">
        <ele>5.74</ele>
        <time>2016-12-24T12:07:36Z</time>
      </trkpt>
      <trkpt lat="47.08071" lon="-1.58125">
        <ele>6.42</ele>
        <time>2016-12-24T12:07:39Z</time>
      </trkpt>
      <trkpt lat="47.08058" lon="-1.58103">
        <ele>6.23</ele>
        <time>2016-12-24T12:07:42Z</time>
      </trkpt>
      <trkpt lat="47.08046" lon="-1.58082">
        <ele>6.21</ele>
        <time>2016-12-24T12:07:45Z</time>
      </trkpt>
      <trkpt lat="47.08034" lon="-1.58058">
        <ele>6.11</ele>
        <time>2016-12-24T12:07:48Z</time>
      </trkpt>
      <trkpt lat="47.08019" lon="-1.5803">
        <ele>7.12</ele>
        <time>2016-12-24T12:07:52Z</time>
      </trkpt>
      <trkpt lat="47.08007" lon="-1.58004">
        <ele>6.36</ele>
        <time>2016-12-24T12:07:55Z</time>
      </trkpt>
      <trkpt lat="47.07993" lon="-1.57975">
        <ele>7.07</ele>
        <time>2016-12-24T12:07:59Z</time>
      </trkpt>
      <trkpt lat="47.07983" lon="-1.5795">
        <ele>7.86</ele>
        <time>2016-12-24T12:08:02Z</time>
      </trkpt>
      <trkpt lat="47.07972" lon="-1.57925">
        <ele>7.46</ele>
        <time>2016-12-24T12:08:05Z</time>
      </trkpt>
      <trkpt lat="47.07963" lon="-1.579">
        <ele>8.08</ele>
        <time>2016-12-24T12:08:08Z</time>
      </trkpt>
      <trkpt lat="47.07951" lon="-1.57873">
        <ele>7.33</ele>
        <time>2016-12-24T12:08:11Z</time>
      </trkpt>
      <trkpt lat="47.07943" lon="-1.57848">
        <ele>5.53</ele>
        <time>2016-12-24T12:08:14Z</time>
      </trkpt>
      <trkpt lat="47.07932" lon="-1.57822">
        <ele>4.85</ele>
        <time>2016-12-24T12:08:17Z</time>
      </trkpt>
      <trkpt lat="47.07922" lon="-1.57797">
        <ele>5.08</ele>
        <time>2016-12-24T12:08:20Z</time>
      </trkpt>
      <trkpt lat="47.07912" lon="-1.57772">
        <ele>4.28</ele>
        <time>2016-12-24T12:08:23Z</time>
      </trkpt>
      <trkpt lat="47.07903" lon="-1.57749">
        <ele>4.39</ele>
        <time>2016-12-24T12:08:26Z</time>
      </trkpt>
      <trkpt lat="47.0789" lon="-1.57719">
        <ele>5.1</ele>
        <time>2016-12-24T12:08:30Z</time>
      </trkpt>
      <trkpt lat="47.07881" lon="-1.57692">
        <ele>5.4</ele>
        <time>2016-12-24T12:08:33Z</time>
      </trkpt>
      <trkpt lat="47.07871" lon="-1.57669">
        <ele>4.27</ele>
        <time>2016-12-24T12:08:36Z</time>
      </trkpt>
      <trkpt lat="47.07862" lon="-1.57642">
        <ele>4.52</ele>
        <time>2016-12-24T12:08:39Z</time>
      </trkpt>
      <trkpt lat="47.07852" lon="-1.57615">
        <ele>3.32</ele>
        <time>2016-12-24T12:08:42Z</time>
      </trkpt>
      <trkpt lat="47.07842" lon="-1.57586">
        <ele>2.6</ele>
        <time>2016-12-24T12:08:45Z</time>
      </trkpt>
      <trkpt lat="47.07835" lon="-1.57559">
        <ele>4.12</ele>
        <time>2016-12-24T12:08:48Z</time>
      </trkpt>
      <trkpt lat="47.07828" lon="-1.57531">
        <ele>5.45</ele>
        <time>2016-12-24T12:08:51Z</time>
      </trkpt>
      <trkpt lat="47.0782" lon="-1.57507">
        <ele>5.15</ele>
        <time>2016-12-24T12:08:54Z</time>
      </trkpt>
      <trkpt lat="47.07813" lon="-1.57483">
        <ele>5.07</ele>
        <time>2016-12-24T12:08:57Z</time>
      </trkpt>
      <trkpt lat="47.07804" lon="-1.57452">
        <ele>4.15</ele>
        <time>2016-12-24T12:09:00Z</time>
      </trkpt>
      <trkpt lat="47.07797" lon="-1.57426">
        <ele>3.41</ele>
        <time>2016-12-24T12:09:03Z</time>
      </trkpt>
      <trkpt lat="47.0779" lon="-1.57401">
        <ele>2.78</ele>
        <time>2016-12-24T12:09:06Z</time>
      </trkpt>
      <trkpt lat="47.07779" lon="-1.5737">
        <ele>2.66</ele>
        <time>2016-12-24T12:09:10Z</time>
      </trkpt>
      <trkpt lat="47.07783" lon="-1.57339">
        <ele>0.1</ele>
        <time>2016-12-24T12:09:15Z</time>
      </trkpt>
      <trkpt lat="47.07798" lon="-1.5732">
        <ele>-0.7</ele>
        <time>2016-12-24T12:09:18Z</time>
      </trkpt>
      <trkpt lat="47.07814" lon="-1.57303">
        <ele>0.66</ele>
        <time>2016-12-24T12:09:21Z</time>
      </trkpt>
      <trkpt lat="47.07829" lon="-1.57288">
        <ele>3.05</ele>
        <time>2016-12-24T12:09:24Z</time>
      </trkpt>
      <trkpt lat="47.07847" lon="-1.57265">
        <ele>5.42</ele>
        <time>2016-12-24T12:09:28Z</time>
      </trkpt>
      <trkpt lat="47.0786" lon="-1.57242">
        <ele>5.67</ele>
        <time>2016-12-24T12:09:31Z</time>
      </trkpt>
      <trkpt lat="47.07867" lon="-1.57215">
        <ele>6.37</ele>
        <time>2016-12-24T12:09:34Z</time>
      </trkpt>
      <trkpt lat="47.07874" lon="-1.57185">
        <ele>7.54</ele>
        <time>2016-12-24T12:09:38Z</time>
      </trkpt>
      <trkpt lat="47.0788" lon="-1.57151">
        <ele>9.48</ele>
        <time>2016-12-24T12:09:42Z</time>
      </trkpt>
      <trkpt lat="47.07885" lon="-1.57119">
        <ele>12.29</ele>
        <time>2016-12-24T12:09:46Z</time>
      </trkpt>
      <trkpt lat="47.0789" lon="-1.57092">
        <ele>13.32</ele>
        <time>2016-12-24T12:09:49Z</time>
      </trkpt>
      <trkpt lat="47.07896" lon="-1.57061">
        <ele>14.22</ele>
        <time>2016-12-24T12:09:53Z</time>
      </trkpt>
      <trkpt lat="47.07901" lon="-1.57031">
        <ele>13.7</ele>
        <time>2016-12-24T12:09:57Z</time>
      </trkpt>
      <trkpt lat="47.07906" lon="-1.56998">
        <ele>13.46</ele>
        <time>2016-12-24T12:10:01Z</time>
      </trkpt>
      <trkpt lat="47.07912" lon="-1.56964">
        <ele>12.92</ele>
        <time>2016-12-24T12:10:05Z</time>
      </trkpt>
      <trkpt lat="47.07918" lon="-1.56933">
        <ele>14.12</ele>
        <time>2016-12-24T12:10:09Z</time>
      </trkpt>
      <trkpt lat="47.07924" lon="-1.56904">
        <ele>14.29</ele>
        <time>2016-12-24T12:10:13Z</time>
      </trkpt>
      <trkpt lat="47.07929" lon="-1.56873">
        <ele>14.9</ele>
        <time>2016-12-24T12:10:17Z</time>
      </trkpt>
      <trkpt lat="47.07933" lon="-1.56841">
        <ele>15.63</ele>
        <time>2016-12-24T12:10:21Z</time>
      </trkpt>
      <trkpt lat="47.07935" lon="-1.56815">
        <ele>16.45</ele>
        <time>2016-12-24T12:10:24Z</time>
      </trkpt>
      <trkpt lat="47.07936" lon="-1.56785">
        <ele>15.17</ele>
        <time>2016-12-24T12:10:28Z</time>
      </trkpt>
      <trkpt lat="47.07929" lon="-1.56757">
        <ele>16.24</ele>
        <time>2016-12-24T12:10:32Z</time>
      </trkpt>
      <trkpt lat="47.07914" lon="-1.56732">
        <ele>16.24</ele>
        <time>2016-12-24T12:10:36Z</time>
      </trkpt>
      <trkpt lat="47.07918" lon="-1.56701">
        <ele>17.36</ele>
        <time>2016-12-24T12:10:40Z</time>
      </trkpt>
      <trkpt lat="47.07927" lon="-1.56671">
        <ele>19.44</ele>
        <time>2016-12-24T12:10:44Z</time>
      </trkpt>
      <trkpt lat="47.0793" lon="-1.56638">
        <ele>20.4</ele>
        <time>2016-12-24T12:10:48Z</time>
      </trkpt>
      <trkpt lat="47.07932" lon="-1.56608">
        <ele>19.52</ele>
        <time>2016-12-24T12:10:52Z</time>
      </trkpt>
      <trkpt lat="47.07933" lon="-1.56576">
        <ele>18.6</ele>
        <time>2016-12-24T12:10:56Z</time>
      </trkpt>
      <trkpt lat="47.07934" lon="-1.56547">
        <ele>18.32</ele>
        <time>2016-12-24T12:11:00Z</time>
      </trkpt>
      <trkpt lat="47.07935" lon="-1.56511">
        <ele>17.73</ele>
        <time>2016-12-24T12:11:04Z</time>
      </trkpt>
      <trkpt lat="47.07935" lon="-1.56475">
        <ele>19.25</ele>
        <time>2016-12-24T12:11:08Z</time>
      </trkpt>
      <trkpt lat="47.07929" lon="-1.56442">
        <ele>18.97</ele>
        <time>2016-12-24T12:11:12Z</time>
      </trkpt>
      <trkpt lat="47.07919" lon="-1.56419">
        <ele>17.28</ele>
        <time>2016-12-24T12:11:15Z</time>
      </trkpt>
      <trkpt lat="47.07923" lon="-1.56389">
        <ele>16.3</ele>
        <time>2016-12-24T12:11:18Z</time>
      </trkpt>
      <trkpt lat="47.07929" lon="-1.56362">
        <ele>14.96</ele>
        <time>2016-12-24T12:11:21Z</time>
      </trkpt>
      <trkpt lat="47.07938" lon="-1.56334">
        <ele>12.51</ele>
        <time>2016-12-24T12:11:24Z</time>
      </trkpt>
      <trkpt lat="47.07954" lon="-1.56315">
        <ele>11.33</ele>
        <time>2016-12-24T12:11:27Z</time>
      </trkpt>
      <trkpt lat="47.07974" lon="-1.56308">
        <ele>12.06</ele>
        <time>2016-12-24T12:11:30Z</time>
      </trkpt>
      <trkpt lat="47.07993" lon="-1.56302">
        <ele>12.47</ele>
        <time>2016-12-24T12:11:33Z</time>
      </trkpt>
      <trkpt lat="47.08014" lon="-1.56297">
        <ele>11.81</ele>
        <time>2016-12-24T12:11:36Z</time>
      </trkpt>
      <trkpt lat="47.08033" lon="-1.56292">
        <ele>11.63</ele>
        <time>2016-12-24T12:11:39Z</time>
      </trkpt>
      <trkpt lat="47.08052" lon="-1.56284">
        <ele>11.34</ele>
        <time>2016-12-24T12:11:42Z</time>
      </trkpt>
      <trkpt lat="47.0807" lon="-1.56274">
        <ele>10.73</ele>
        <time>2016-12-24T12:11:45Z</time>
      </trkpt>
      <trkpt lat="47.08086" lon="-1.5626">
        <ele>9.88</ele>
        <time>2016-12-24T12:11:48Z</time>
      </trkpt>
      <trkpt lat="47.081" lon="-1.56241">
        <ele>11.58</ele>
        <time>2016-12-24T12:11:51Z</time>
      </trkpt>
      <trkpt lat="47.08113" lon="-1.56212">
        <ele>13.61</ele>
        <time>2016-12-24T12:11:55Z</time>
      </trkpt>
      <trkpt lat="47.08123" lon="-1.56188">
        <ele>13.91</ele>
        <time>2016-12-24T12:11:58Z</time>
      </trkpt>
      <trkpt lat="47.08132" lon="-1.56157">
        <ele>14.17</ele>
        <time>2016-12-24T12:12:02Z</time>
      </trkpt>
      <trkpt lat="47.08139" lon="-1.56131">
        <ele>14.21</ele>
        <time>2016-12-24T12:12:05Z</time>
      </trkpt>
      <trkpt lat="47.08146" lon="-1.56099">
        <ele>13.66</ele>
        <time>2016-12-24T12:12:09Z</time>
      </trkpt>
      <trkpt lat="47.08155" lon="-1.56067">
        <ele>13.7</ele>
        <time>2016-12-24T12:12:13Z</time>
      </trkpt>
      <trkpt lat="47.08165" lon="-1.56036">
        <ele>13.89</ele>
        <time>2016-12-24T12:12:17Z</time>
      </trkpt>
      <trkpt lat="47.08175" lon="-1.56008">
        <ele>15.24</ele>
        <time>2016-12-24T12:12:21Z</time>
      </trkpt>
      <trkpt lat="47.08183" lon="-1.55983">
        <ele>16.08</ele>
        <time>2016-12-24T12:12:24Z</time>
      </trkpt>
      <trkpt lat="47.08192" lon="-1.55953">
        <ele>15.82</ele>
        <time>2016-12-24T12:12:28Z</time>
      </trkpt>
      <trkpt lat="47.08201" lon="-1.55921">
        <ele>16.2</ele>
        <time>2016-12-24T12:12:32Z</time>
      </trkpt>
      <trkpt lat="47.08209" lon="-1.55896">
        <ele>16.04</ele>
        <time>2016-12-24T12:12:35Z</time>
      </trkpt>
      <trkpt lat="47.08219" lon="-1.55867">
        <ele>14.98</ele>
        <time>2016-12-24T12:12:39Z</time>
      </trkpt>
      <trkpt lat="47.08227" lon="-1.55843">
        <ele>13.31</ele>
        <time>2016-12-24T12:12:42Z</time>
      </trkpt>
      <trkpt lat="47.08235" lon="-1.55818">
        <ele>13</ele>
        <time>2016-12-24T12:12:45Z</time>
      </trkpt>
      <trkpt lat="47.08244" lon="-1.55787">
        <ele>12.47</ele>
        <time>2016-12-24T12:12:49Z</time>
      </trkpt>
      <trkpt lat="47.08252" lon="-1.55762">
        <ele>13.37</ele>
        <time>2016-12-24T12:12:52Z</time>
      </trkpt>
      <trkpt lat="47.08261" lon="-1.55736">
        <ele>14.28</ele>
        <time>2016-12-24T12:12:55Z</time>
      </trkpt>
      <trkpt lat="47.0827" lon="-1.55709">
        <ele>15.56</ele>
        <time>2016-12-24T12:12:58Z</time>
      </trkpt>
      <trkpt lat="47.08282" lon="-1.55677">
        <ele>17.3</ele>
        <time>2016-12-24T12:13:02Z</time>
      </trkpt>
      <trkpt lat="47.08292" lon="-1.55651">
        <ele>18.03</ele>
        <time>2016-12-24T12:13:05Z</time>
      </trkpt>
      <trkpt lat="47.083" lon="-1.55627">
        <ele>18.84</ele>
        <time>2016-12-24T12:13:08Z</time>
      </trkpt>
      <trkpt lat="47.08309" lon="-1.55602">
        <ele>19.03</ele>
        <time>2016-12-24T12:13:11Z</time>
      </trkpt>
      <trkpt lat="47.08317" lon="-1.55578">
        <ele>18.77</ele>
        <time>2016-12-24T12:13:14Z</time>
      </trkpt>
      <trkpt lat="47.08325" lon="-1.55552">
        <ele>19.04</ele>
        <time>2016-12-24T12:13:17Z</time>
      </trkpt>
      <trkpt lat="47.08335" lon="-1.55525">
        <ele>17.3</ele>
        <time>2016-12-24T12:13:20Z</time>
      </trkpt>
      <trkpt lat="47.08343" lon="-1.55499">
        <ele>16.58</ele>
        <time>2016-12-24T12:13:23Z</time>
      </trkpt>
      <trkpt lat="47.08351" lon="-1.55474">
        <ele>17</ele>
        <time>2016-12-24T12:13:26Z</time>
      </trkpt>
      <trkpt lat="47.0836" lon="-1.55447">
        <ele>18.54</ele>
        <time>2016-12-24T12:13:29Z</time>
      </trkpt>
      <trkpt lat="47.08369" lon="-1.5542">
        <ele>18.75</ele>
        <time>2016-12-24T12:13:32Z</time>
      </trkpt>
      <trkpt lat="47.08377" lon="-1.55393">
        <ele>18.67</ele>
        <time>2016-12-24T12:13:35Z</time>
      </trkpt>
      <trkpt lat="47.08384" lon="-1.55368">
        <ele>17.96</ele>
        <time>2016-12-24T12:13:38Z</time>
      </trkpt>
      <trkpt lat="47.08391" lon="-1.55343">
        <ele>17.64</ele>
        <time>2016-12-24T12:13:41Z</time>
      </trkpt>
      <trkpt lat="47.08398" lon="-1.55313">
        <ele>17.75</ele>
        <time>2016-12-24T12:13:44Z</time>
      </trkpt>
      <trkpt lat="47.08403" lon="-1.55284">
        <ele>16.89</ele>
        <time>2016-12-24T12:13:47Z</time>
      </trkpt>
      <trkpt lat="47.08408" lon="-1.55256">
        <ele>16.58</ele>
        <time>2016-12-24T12:13:50Z</time>
      </trkpt>
      <trkpt lat="47.08413" lon="-1.55227">
        <ele>17.18</ele>
        <time>2016-12-24T12:13:53Z</time>
      </trkpt>
      <trkpt lat="47.08418" lon="-1.55202">
        <ele>17.08</ele>
        <time>2016-12-24T12:13:56Z</time>
      </trkpt>
      <trkpt lat="47.08422" lon="-1.55175">
        <ele>17.71</ele>
        <time>2016-12-24T12:13:59Z</time>
      </trkpt>
      <trkpt lat="47.08425" lon="-1.55147">
        <ele>18.14</ele>
        <time>2016-12-24T12:14:02Z</time>
      </trkpt>
      <trkpt lat="47.0843" lon="-1.55115">
        <ele>18.54</ele>
        <time>2016-12-24T12:14:05Z</time>
      </trkpt>
      <trkpt lat="47.08434" lon="-1.55088">
        <ele>18.41</ele>
        <time>2016-12-24T12:14:08Z</time>
      </trkpt>
      <trkpt lat="47.08439" lon="-1.5506">
        <ele>19.73</ele>
        <time>2016-12-24T12:14:11Z</time>
      </trkpt>
      <trkpt lat="47.08445" lon="-1.55031">
        <ele>19.78</ele>
        <time>2016-12-24T12:14:14Z</time>
      </trkpt>
      <trkpt lat="47.08452" lon="-1.54999">
        <ele>19.61</ele>
        <time>2016-12-24T12:14:17Z</time>
      </trkpt>
      <trkpt lat="47.08456" lon="-1.54973">
        <ele>19.79</ele>
        <time>2016-12-24T12:14:20Z</time>
      </trkpt>
      <trkpt lat="47.08458" lon="-1.54946">
        <ele>19.13</ele>
        <time>2016-12-24T12:14:23Z</time>
      </trkpt>
      <trkpt lat="47.08464" lon="-1.54919">
        <ele>18.14</ele>
        <time>2016-12-24T12:14:26Z</time>
      </trkpt>
      <trkpt lat="47.08467" lon="-1.54889">
        <ele>20.63</ele>
        <time>2016-12-24T12:14:30Z</time>
      </trkpt>
      <trkpt lat="47.08472" lon="-1.54858">
        <ele>21.63</ele>
        <time>2016-12-24T12:14:33Z</time>
      </trkpt>
      <trkpt lat="47.08478" lon="-1.54831">
        <ele>19.45</ele>
        <time>2016-12-24T12:14:36Z</time>
      </trkpt>
      <trkpt lat="47.08483" lon="-1.54805">
        <ele>17.27</ele>
        <time>2016-12-24T12:14:39Z</time>
      </trkpt>
      <trkpt lat="47.08489" lon="-1.54772">
        <ele>17</ele>
        <time>2016-12-24T12:14:43Z</time>
      </trkpt>
      <trkpt lat="47.08495" lon="-1.5474">
        <ele>19.95</ele>
        <time>2016-12-24T12:14:47Z</time>
      </trkpt>
      <trkpt lat="47.085" lon="-1.54708">
        <ele>21.66</ele>
        <time>2016-12-24T12:14:51Z</time>
      </trkpt>
      <trkpt lat="47.08504" lon="-1.54677">
        <ele>23.77</ele>
        <time>2016-12-24T12:14:55Z</time>
      </trkpt>
      <trkpt lat="47.08508" lon="-1.54643">
        <ele>23.84</ele>
        <time>2016-12-24T12:14:59Z</time>
      </trkpt>
      <trkpt lat="47.08512" lon="-1.54616">
        <ele>23.01</ele>
        <time>2016-12-24T12:15:02Z</time>
      </trkpt>
      <trkpt lat="47.08516" lon="-1.54589">
        <ele>23.35</ele>
        <time>2016-12-24T12:15:05Z</time>
      </trkpt>
      <trkpt lat="47.08522" lon="-1.54559">
        <ele>24.46</ele>
        <time>2016-12-24T12:15:09Z</time>
      </trkpt>
      <trkpt lat="47.08527" lon="-1.5453">
        <ele>25.71</ele>
        <time>2016-12-24T12:15:12Z</time>
      </trkpt>
      <trkpt lat="47.0853" lon="-1.54504">
        <ele>25.95</ele>
        <time>2016-12-24T12:15:15Z</time>
      </trkpt>
      <trkpt lat="47.08539" lon="-1.54471">
        <ele>24.82</ele>
        <time>2016-12-24T12:15:19Z</time>
      </trkpt>
      <trkpt lat="47.08546" lon="-1.54446">
        <ele>24.29</ele>
        <time>2016-12-24T12:15:22Z</time>
      </trkpt>
      <trkpt lat="47.08555" lon="-1.54421">
        <ele>24.12</ele>
        <time>2016-12-24T12:15:25Z</time>
      </trkpt>
      <trkpt lat="47.08564" lon="-1.54389">
        <ele>23.3</ele>
        <time>2016-12-24T12:15:29Z</time>
      </trkpt>
      <trkpt lat="47.08572" lon="-1.54363">
        <ele>22.92</ele>
        <time>2016-12-24T12:15:32Z</time>
      </trkpt>
      <trkpt lat="47.08581" lon="-1.54338">
        <ele>21.8</ele>
        <time>2016-12-24T12:15:35Z</time>
      </trkpt>
      <trkpt lat="47.08591" lon="-1.54311">
        <ele>21.28</ele>
        <time>2016-12-24T12:15:38Z</time>
      </trkpt>
      <trkpt lat="47.086" lon="-1.54285">
        <ele>22.05</ele>
        <time>2016-12-24T12:15:41Z</time>
      </trkpt>
      <trkpt lat="47.08609" lon="-1.54258">
        <ele>22.4</ele>
        <time>2016-12-24T12:15:44Z</time>
      </trkpt>
      <trkpt lat="47.08617" lon="-1.54232">
        <ele>20.86</ele>
        <time>2016-12-24T12:15:47Z</time>
      </trkpt>
      <trkpt lat="47.08626" lon="-1.54207">
        <ele>20.91</ele>
        <time>2016-12-24T12:15:50Z</time>
      </trkpt>
      <trkpt lat="47.08632" lon="-1.54181">
        <ele>19.99</ele>
        <time>2016-12-24T12:15:53Z</time>
      </trkpt>
      <trkpt lat="47.08634" lon="-1.54155">
        <ele>18.36</ele>
        <time>2016-12-24T12:15:56Z</time>
      </trkpt>
      <trkpt lat="47.08633" lon="-1.54125">
        <ele>18.44</ele>
        <time>2016-12-24T12:15:59Z</time>
      </trkpt>
      <trkpt lat="47.0863" lon="-1.54097">
        <ele>19.04</ele>
        <time>2016-12-24T12:16:02Z</time>
      </trkpt>
      <trkpt lat="47.08627" lon="-1.54069">
        <ele>18.05</ele>
        <time>2016-12-24T12:16:05Z</time>
      </trkpt>
      <trkpt lat="47.08624" lon="-1.54043">
        <ele>17.76</ele>
        <time>2016-12-24T12:16:08Z</time>
      </trkpt>
      <trkpt lat="47.0862" lon="-1.54015">
        <ele>16.5</ele>
        <time>2016-12-24T12:16:11Z</time>
      </trkpt>
      <trkpt lat="47.08616" lon="-1.53989">
        <ele>15.69</ele>
        <time>2016-12-24T12:16:14Z</time>
      </trkpt>
      <trkpt lat="47.08613" lon="-1.53953">
        <ele>16.67</ele>
        <time>2016-12-24T12:16:18Z</time>
      </trkpt>
      <trkpt lat="47.08612" lon="-1.53925">
        <ele>15.25</ele>
        <time>2016-12-24T12:16:21Z</time>
      </trkpt>
      <trkpt lat="47.08616" lon="-1.53891">
        <ele>15.05</ele>
        <time>2016-12-24T12:16:25Z</time>
      </trkpt>
      <trkpt lat="47.08623" lon="-1.53859">
        <ele>16.12</ele>
        <time>2016-12-24T12:16:29Z</time>
      </trkpt>
      <trkpt lat="47.08631" lon="-1.53832">
        <ele>16.79</ele>
        <time>2016-12-24T12:16:32Z</time>
      </trkpt>
      <trkpt lat="47.08642" lon="-1.53804">
        <ele>17.58</ele>
        <time>2016-12-24T12:16:35Z</time>
      </trkpt>
      <trkpt lat="47.08654" lon="-1.53774">
        <ele>18.07</ele>
        <time>2016-12-24T12:16:39Z</time>
      </trkpt>
      <trkpt lat="47.08662" lon="-1.53749">
        <ele>16.18</ele>
        <time>2016-12-24T12:16:42Z</time>
      </trkpt>
      <trkpt lat="47.08671" lon="-1.53724">
        <ele>16.96</ele>
        <time>2016-12-24T12:16:45Z</time>
      </trkpt>
      <trkpt lat="47.08681" lon="-1.53691">
        <ele>18.17</ele>
        <time>2016-12-24T12:16:49Z</time>
      </trkpt>
      <trkpt lat="47.08691" lon="-1.53658">
        <ele>19.31</ele>
        <time>2016-12-24T12:16:53Z</time>
      </trkpt>
      <trkpt lat="47.08701" lon="-1.53626">
        <ele>19.92</ele>
        <time>2016-12-24T12:16:57Z</time>
      </trkpt>
      <trkpt lat="47.0871" lon="-1.53594">
        <ele>20.26</ele>
        <time>2016-12-24T12:17:01Z</time>
      </trkpt>
      <trkpt lat="47.08721" lon="-1.53563">
        <ele>20.89</ele>
        <time>2016-12-24T12:17:05Z</time>
      </trkpt>
      <trkpt lat="47.08731" lon="-1.53533">
        <ele>20.35</ele>
        <time>2016-12-24T12:17:09Z</time>
      </trkpt>
      <trkpt lat="47.08741" lon="-1.53501">
        <ele>20.53</ele>
        <time>2016-12-24T12:17:13Z</time>
      </trkpt>
      <trkpt lat="47.08751" lon="-1.53468">
        <ele>19.54</ele>
        <time>2016-12-24T12:17:17Z</time>
      </trkpt>
      <trkpt lat="47.0876" lon="-1.53442">
        <ele>18.73</ele>
        <time>2016-12-24T12:17:20Z</time>
      </trkpt>
      <trkpt lat="47.08767" lon="-1.53417">
        <ele>17.71</ele>
        <time>2016-12-24T12:17:23Z</time>
      </trkpt>
      <trkpt lat="47.08775" lon="-1.53392">
        <ele>17.89</ele>
        <time>2016-12-24T12:17:26Z</time>
      </trkpt>
      <trkpt lat="47.08783" lon="-1.53368">
        <ele>18.28</ele>
        <time>2016-12-24T12:17:29Z</time>
      </trkpt>
      <trkpt lat="47.08792" lon="-1.53339">
        <ele>18.33</ele>
        <time>2016-12-24T12:17:33Z</time>
      </trkpt>
      <trkpt lat="47.08801" lon="-1.53313">
        <ele>18.33</ele>
        <time>2016-12-24T12:17:36Z</time>
      </trkpt>
      <trkpt lat="47.08811" lon="-1.5329">
        <ele>18.73</ele>
        <time>2016-12-24T12:17:39Z</time>
      </trkpt>
      <trkpt lat="47.08821" lon="-1.53266">
        <ele>19.56</ele>
        <time>2016-12-24T12:17:42Z</time>
      </trkpt>
      <trkpt lat="47.08832" lon="-1.53243">
        <ele>19.41</ele>
        <time>2016-12-24T12:17:45Z</time>
      </trkpt>
      <trkpt lat="47.08843" lon="-1.5322">
        <ele>20.33</ele>
        <time>2016-12-24T12:17:48Z</time>
      </trkpt>
      <trkpt lat="47.08854" lon="-1.53196">
        <ele>21.08</ele>
        <time>2016-12-24T12:17:51Z</time>
      </trkpt>
      <trkpt lat="47.08865" lon="-1.53173">
        <ele>20.19</ele>
        <time>2016-12-24T12:17:54Z</time>
      </trkpt>
      <trkpt lat="47.08884" lon="-1.53147">
        <ele>20.11</ele>
        <time>2016-12-24T12:17:58Z</time>
      </trkpt>
      <trkpt lat="47.089" lon="-1.5313">
        <ele>19.39</ele>
        <time>2016-12-24T12:18:01Z</time>
      </trkpt>
      <trkpt lat="47.08917" lon="-1.53117">
        <ele>17.77</ele>
        <time>2016-12-24T12:18:04Z</time>
      </trkpt>
      <trkpt lat="47.08934" lon="-1.53107">
        <ele>17.62</ele>
        <time>2016-12-24T12:18:07Z</time>
      </trkpt>
      <trkpt lat="47.08952" lon="-1.53099">
        <ele>17.81</ele>
        <time>2016-12-24T12:18:10Z</time>
      </trkpt>
      <trkpt lat="47.0897" lon="-1.53092">
        <ele>18.02</ele>
        <time>2016-12-24T12:18:13Z</time>
      </trkpt>
      <trkpt lat="47.0899" lon="-1.53086">
        <ele>17.11</ele>
        <time>2016-12-24T12:18:16Z</time>
      </trkpt>
      <trkpt lat="47.09008" lon="-1.53082">
        <ele>16.5</ele>
        <time>2016-12-24T12:18:19Z</time>
      </trkpt>
      <trkpt lat="47.09029" lon="-1.53078">
        <ele>16.68</ele>
        <time>2016-12-24T12:18:22Z</time>
      </trkpt>
      <trkpt lat="47.09049" lon="-1.53073">
        <ele>15.49</ele>
        <time>2016-12-24T12:18:25Z</time>
      </trkpt>
      <trkpt lat="47.09067" lon="-1.53066">
        <ele>16.7</ele>
        <time>2016-12-24T12:18:28Z</time>
      </trkpt>
      <trkpt lat="47.09085" lon="-1.53054">
        <ele>16.36</ele>
        <time>2016-12-24T12:18:31Z</time>
      </trkpt>
      <trkpt lat="47.09099" lon="-1.53035">
        <ele>16.99</ele>
        <time>2016-12-24T12:18:34Z</time>
      </trkpt>
      <trkpt lat="47.09113" lon="-1.53009">
        <ele>17.35</ele>
        <time>2016-12-24T12:18:38Z</time>
      </trkpt>
      <trkpt lat="47.09118" lon="-1.52983">
        <ele>16.99</ele>
        <time>2016-12-24T12:18:42Z</time>
      </trkpt>
      <trkpt lat="47.09126" lon="-1.52958">
        <ele>17.72</ele>
        <time>2016-12-24T12:18:45Z</time>
      </trkpt>
      <trkpt lat="47.09135" lon="-1.52931">
        <ele>16.62</ele>
        <time>2016-12-24T12:18:48Z</time>
      </trkpt>
      <trkpt lat="47.09138" lon="-1.52904">
        <ele>15.3</ele>
        <time>2016-12-24T12:18:51Z</time>
      </trkpt>
      <trkpt lat="47.09138" lon="-1.52872">
        <ele>14.05</ele>
        <time>2016-12-24T12:18:54Z</time>
      </trkpt>
      <trkpt lat="47.09137" lon="-1.52843">
        <ele>14.71</ele>
        <time>2016-12-24T12:18:57Z</time>
      </trkpt>
      <trkpt lat="47.09135" lon="-1.52811">
        <ele>14.56</ele>
        <time>2016-12-24T12:19:00Z</time>
      </trkpt>
      <trkpt lat="47.09134" lon="-1.52783">
        <ele>15.64</ele>
        <time>2016-12-24T12:19:03Z</time>
      </trkpt>
      <trkpt lat="47.09134" lon="-1.52753">
        <ele>16.52</ele>
        <time>2016-12-24T12:19:06Z</time>
      </trkpt>
      <trkpt lat="47.09129" lon="-1.52721">
        <ele>15.92</ele>
        <time>2016-12-24T12:19:10Z</time>
      </trkpt>
      <trkpt lat="47.09118" lon="-1.52693">
        <ele>15.33</ele>
        <time>2016-12-24T12:19:13Z</time>
      </trkpt>
      <trkpt lat="47.09101" lon="-1.52667">
        <ele>16.35</ele>
        <time>2016-12-24T12:19:17Z</time>
      </trkpt>
      <trkpt lat="47.09096" lon="-1.52638">
        <ele>16.26</ele>
        <time>2016-12-24T12:19:20Z</time>
      </trkpt>
      <trkpt lat="47.09102" lon="-1.52613">
        <ele>17.1</ele>
        <time>2016-12-24T12:19:23Z</time>
      </trkpt>
      <trkpt lat="47.0911" lon="-1.52583">
        <ele>17.44</ele>
        <time>2016-12-24T12:19:26Z</time>
      </trkpt>
      <trkpt lat="47.09115" lon="-1.52552">
        <ele>17.83</ele>
        <time>2016-12-24T12:19:29Z</time>
      </trkpt>
      <trkpt lat="47.09119" lon="-1.5252">
        <ele>17.34</ele>
        <time>2016-12-24T12:19:32Z</time>
      </trkpt>
      <trkpt lat="47.09122" lon="-1.52484">
        <ele>18.54</ele>
        <time>2016-12-24T12:19:35Z</time>
      </trkpt>
      <trkpt lat="47.09125" lon="-1.52453">
        <ele>19.72</ele>
        <time>2016-12-24T12:19:38Z</time>
      </trkpt>
      <trkpt lat="47.09127" lon="-1.52418">
        <ele>18.86</ele>
        <time>2016-12-24T12:19:41Z</time>
      </trkpt>
      <trkpt lat="47.09128" lon="-1.52385">
        <ele>17.28</ele>
        <time>2016-12-24T12:19:44Z</time>
      </trkpt>
      <trkpt lat="47.0913" lon="-1.52352">
        <ele>15.6</ele>
        <time>2016-12-24T12:19:47Z</time>
      </trkpt>
      <trkpt lat="47.09131" lon="-1.52319">
        <ele>14.26</ele>
        <time>2016-12-24T12:19:50Z</time>
      </trkpt>
      <trkpt lat="47.09133" lon="-1.52291">
        <ele>14.22</ele>
        <time>2016-12-24T12:19:53Z</time>
      </trkpt>
      <trkpt lat="47.09136" lon="-1.52261">
        <ele>16.05</ele>
        <time>2016-12-24T12:19:56Z</time>
      </trkpt>
      <trkpt lat="47.0914" lon="-1.52234">
        <ele>16.48</ele>
        <time>2016-12-24T12:19:59Z</time>
      </trkpt>
      <trkpt lat="47.09149" lon="-1.52205">
        <ele>15.5</ele>
        <time>2016-12-24T12:20:02Z</time>
      </trkpt>
      <trkpt lat="47.09159" lon="-1.52179">
        <ele>16.41</ele>
        <time>2016-12-24T12:20:05Z</time>
      </trkpt>
      <trkpt lat="47.0917" lon="-1.52153">
        <ele>16.77</ele>
        <time>2016-12-24T12:20:08Z</time>
      </trkpt>
      <trkpt lat="47.09183" lon="-1.52124">
        <ele>14.51</ele>
        <time>2016-12-24T12:20:11Z</time>
      </trkpt>
      <trkpt lat="47.09195" lon="-1.52099">
        <ele>14.22</ele>
        <time>2016-12-24T12:20:14Z</time>
      </trkpt>
      <trkpt lat="47.09208" lon="-1.5207">
        <ele>13.85</ele>
        <time>2016-12-24T12:20:17Z</time>
      </trkpt>
      <trkpt lat="47.0922" lon="-1.52044">
        <ele>12.9</ele>
        <time>2016-12-24T12:20:20Z</time>
      </trkpt>
      <trkpt lat="47.09231" lon="-1.52017">
        <ele>13.36</ele>
        <time>2016-12-24T12:20:23Z</time>
      </trkpt>
      <trkpt lat="47.09242" lon="-1.51994">
        <ele>13.61</ele>
        <time>2016-12-24T12:20:26Z</time>
      </trkpt>
      <trkpt lat="47.09253" lon="-1.51968">
        <ele>13.88</ele>
        <time>2016-12-24T12:20:29Z</time>
      </trkpt>
      <trkpt lat="47.09265" lon="-1.51941">
        <ele>13.71</ele>
        <time>2016-12-24T12:20:32Z</time>
      </trkpt>
      <trkpt lat="47.09275" lon="-1.51916">
        <ele>13.55</ele>
        <time>2016-12-24T12:20:35Z</time>
      </trkpt>
      <trkpt lat="47.09286" lon="-1.51891">
        <ele>12.6</ele>
        <time>2016-12-24T12:20:38Z</time>
      </trkpt>
      <trkpt lat="47.09297" lon="-1.51865">
        <ele>12.59</ele>
        <time>2016-12-24T12:20:41Z</time>
      </trkpt>
      <trkpt lat="47.09307" lon="-1.51841">
        <ele>11.77</ele>
        <time>2016-12-24T12:20:44Z</time>
      </trkpt>
      <trkpt lat="47.09319" lon="-1.51813">
        <ele>10.74</ele>
        <time>2016-12-24T12:20:47Z</time>
      </trkpt>
      <trkpt lat="47.0933" lon="-1.51788">
        <ele>10.49</ele>
        <time>2016-12-24T12:20:50Z</time>
      </trkpt>
      <trkpt lat="47.09344" lon="-1.51757">
        <ele>9.3</ele>
        <time>2016-12-24T12:20:53Z</time>
      </trkpt>
      <trkpt lat="47.09354" lon="-1.51732">
        <ele>10.04</ele>
        <time>2016-12-24T12:20:56Z</time>
      </trkpt>
      <trkpt lat="47.09368" lon="-1.51701">
        <ele>8.88</ele>
        <time>2016-12-24T12:20:59Z</time>
      </trkpt>
      <trkpt lat="47.0938" lon="-1.51674">
        <ele>7.34</ele>
        <time>2016-12-24T12:21:02Z</time>
      </trkpt>
      <trkpt lat="47.09393" lon="-1.51647">
        <ele>7.81</ele>
        <time>2016-12-24T12:21:05Z</time>
      </trkpt>
      <trkpt lat="47.09404" lon="-1.51619">
        <ele>8.76</ele>
        <time>2016-12-24T12:21:08Z</time>
      </trkpt>
      <trkpt lat="47.09417" lon="-1.51589">
        <ele>9.78</ele>
        <time>2016-12-24T12:21:11Z</time>
      </trkpt>
      <trkpt lat="47.09429" lon="-1.51561">
        <ele>10.47</ele>
        <time>2016-12-24T12:21:14Z</time>
      </trkpt>
      <trkpt lat="47.09441" lon="-1.51533">
        <ele>10.07</ele>
        <time>2016-12-24T12:21:17Z</time>
      </trkpt>
      <trkpt lat="47.09452" lon="-1.51508">
        <ele>9.32</ele>
        <time>2016-12-24T12:21:20Z</time>
      </trkpt>
      <trkpt lat="47.09463" lon="-1.51484">
        <ele>9.82</ele>
        <time>2016-12-24T12:21:23Z</time>
      </trkpt>
      <trkpt lat="47.09472" lon="-1.51457">
        <ele>9.64</ele>
        <time>2016-12-24T12:21:26Z</time>
      </trkpt>
      <trkpt lat="47.09485" lon="-1.51426">
        <ele>8.29</ele>
        <time>2016-12-24T12:21:30Z</time>
      </trkpt>
      <trkpt lat="47.09494" lon="-1.51399">
        <ele>8.33</ele>
        <time>2016-12-24T12:21:33Z</time>
      </trkpt>
      <trkpt lat="47.09502" lon="-1.51373">
        <ele>8.55</ele>
        <time>2016-12-24T12:21:36Z</time>
      </trkpt>
      <trkpt lat="47.09506" lon="-1.51342">
        <ele>8.29</ele>
        <time>2016-12-24T12:21:39Z</time>
      </trkpt>
      <trkpt lat="47.09504" lon="-1.51313">
        <ele>8.12</ele>
        <time>2016-12-24T12:21:42Z</time>
      </trkpt>
      <trkpt lat="47.09497" lon="-1.51283">
        <ele>7.6</ele>
        <time>2016-12-24T12:21:45Z</time>
      </trkpt>
      <trkpt lat="47.09488" lon="-1.5125">
        <ele>7.24</ele>
        <time>2016-12-24T12:21:49Z</time>
      </trkpt>
      <trkpt lat="47.0948" lon="-1.51223">
        <ele>7.01</ele>
        <time>2016-12-24T12:21:52Z</time>
      </trkpt>
      <trkpt lat="47.09472" lon="-1.51192">
        <ele>8.56</ele>
        <time>2016-12-24T12:21:55Z</time>
      </trkpt>
      <trkpt lat="47.09464" lon="-1.51164">
        <ele>8.28</ele>
        <time>2016-12-24T12:21:58Z</time>
      </trkpt>
      <trkpt lat="47.09456" lon="-1.51133">
        <ele>7.12</ele>
        <time>2016-12-24T12:22:01Z</time>
      </trkpt>
      <trkpt lat="47.09447" lon="-1.51108">
        <ele>7.01</ele>
        <time>2016-12-24T12:22:04Z</time>
      </trkpt>
      <trkpt lat="47.0944" lon="-1.51081">
        <ele>6.74</ele>
        <time>2016-12-24T12:22:07Z</time>
      </trkpt>
      <trkpt lat="47.09432" lon="-1.51051">
        <ele>5.89</ele>
        <time>2016-12-24T12:22:10Z</time>
      </trkpt>
      <trkpt lat="47.09426" lon="-1.51023">
        <ele>5.12</ele>
        <time>2016-12-24T12:22:13Z</time>
      </trkpt>
      <trkpt lat="47.09419" lon="-1.50998">
        <ele>5.66</ele>
        <time>2016-12-24T12:22:16Z</time>
      </trkpt>
      <trkpt lat="47.09411" lon="-1.5097">
        <ele>5.02</ele>
        <time>2016-12-24T12:22:19Z</time>
      </trkpt>
      <trkpt lat="47.09403" lon="-1.50945">
        <ele>4</ele>
        <time>2016-12-24T12:22:22Z</time>
      </trkpt>
      <trkpt lat="47.09395" lon="-1.50918">
        <ele>3.77</ele>
        <time>2016-12-24T12:22:25Z</time>
      </trkpt>
      <trkpt lat="47.0939" lon="-1.50891">
        <ele>3.95</ele>
        <time>2016-12-24T12:22:28Z</time>
      </trkpt>
      <trkpt lat="47.09387" lon="-1.50864">
        <ele>4.18</ele>
        <time>2016-12-24T12:22:31Z</time>
      </trkpt>
      <trkpt lat="47.09388" lon="-1.50835">
        <ele>4.58</ele>
        <time>2016-12-24T12:22:34Z</time>
      </trkpt>
      <trkpt lat="47.09389" lon="-1.50808">
        <ele>5.83</ele>
        <time>2016-12-24T12:22:37Z</time>
      </trkpt>
      <trkpt lat="47.09394" lon="-1.50778">
        <ele>6.9</ele>
        <time>2016-12-24T12:22:41Z</time>
      </trkpt>
      <trkpt lat="47.094" lon="-1.50746">
        <ele>8.62</ele>
        <time>2016-12-24T12:22:45Z</time>
      </trkpt>
      <trkpt lat="47.09406" lon="-1.50718">
        <ele>7.24</ele>
        <time>2016-12-24T12:22:49Z</time>
      </trkpt>
      <trkpt lat="47.09412" lon="-1.50686">
        <ele>9.29</ele>
        <time>2016-12-24T12:22:53Z</time>
      </trkpt>
      <trkpt lat="47.09417" lon="-1.5066">
        <ele>11</ele>
        <time>2016-12-24T12:22:57Z</time>
      </trkpt>
      <trkpt lat="47.09421" lon="-1.50633">
        <ele>12.3</ele>
        <time>2016-12-24T12:23:01Z</time>
      </trkpt>
      <trkpt lat="47.09426" lon="-1.50604">
        <ele>13.17</ele>
        <time>2016-12-24T12:23:05Z</time>
      </trkpt>
      <trkpt lat="47.0943" lon="-1.50577">
        <ele>14.94</ele>
        <time>2016-12-24T12:23:09Z</time>
      </trkpt>
      <trkpt lat="47.09435" lon="-1.50551">
        <ele>15.28</ele>
        <time>2016-12-24T12:23:13Z</time>
      </trkpt>
      <trkpt lat="47.0944" lon="-1.50522">
        <ele>16.2</ele>
        <time>2016-12-24T12:23:17Z</time>
      </trkpt>
      <trkpt lat="47.09446" lon="-1.50493">
        <ele>15.4</ele>
        <time>2016-12-24T12:23:21Z</time>
      </trkpt>
      <trkpt lat="47.09453" lon="-1.50461">
        <ele>14.11</ele>
        <time>2016-12-24T12:23:25Z</time>
      </trkpt>
      <trkpt lat="47.09458" lon="-1.5043">
        <ele>12.32</ele>
        <time>2016-12-24T12:23:28Z</time>
      </trkpt>
      <trkpt lat="47.09463" lon="-1.504">
        <ele>13.05</ele>
        <time>2016-12-24T12:23:31Z</time>
      </trkpt>
      <trkpt lat="47.09469" lon="-1.50367">
        <ele>12.29</ele>
        <time>2016-12-24T12:23:34Z</time>
      </trkpt>
      <trkpt lat="47.09475" lon="-1.50333">
        <ele>10.73</ele>
        <time>2016-12-24T12:23:37Z</time>
      </trkpt>
      <trkpt lat="47.0948" lon="-1.503">
        <ele>10.5</ele>
        <time>2016-12-24T12:23:40Z</time>
      </trkpt>
      <trkpt lat="47.09484" lon="-1.50269">
        <ele>10.63</ele>
        <time>2016-12-24T12:23:43Z</time>
      </trkpt>
      <trkpt lat="47.09489" lon="-1.50239">
        <ele>9.66</ele>
        <time>2016-12-24T12:23:46Z</time>
      </trkpt>
      <trkpt lat="47.09495" lon="-1.50208">
        <ele>9.01</ele>
        <time>2016-12-24T12:23:50Z</time>
      </trkpt>
      <trkpt lat="47.09501" lon="-1.50174">
        <ele>9.92</ele>
        <time>2016-12-24T12:23:54Z</time>
      </trkpt>
      <trkpt lat="47.09506" lon="-1.50144">
        <ele>8.91</ele>
        <time>2016-12-24T12:23:58Z</time>
      </trkpt>
      <trkpt lat="47.09511" lon="-1.50115">
        <ele>10.39</ele>
        <time>2016-12-24T12:24:02Z</time>
      </trkpt>
      <trkpt lat="47.09516" lon="-1.50081">
        <ele>11.41</ele>
        <time>2016-12-24T12:24:06Z</time>
      </trkpt>
      <trkpt lat="47.09521" lon="-1.50048">
        <ele>12.8</ele>
        <time>2016-12-24T12:24:10Z</time>
      </trkpt>
      <trkpt lat="47.09525" lon="-1.5002">
        <ele>13.57</ele>
        <time>2016-12-24T12:24:14Z</time>
      </trkpt>
      <trkpt lat="47.09529" lon="-1.49993">
        <ele>12.93</ele>
        <time>2016-12-24T12:24:17Z</time>
      </trkpt>
      <trkpt lat="47.09535" lon="-1.4996">
        <ele>12.67</ele>
        <time>2016-12-24T12:24:21Z</time>
      </trkpt>
      <trkpt lat="47.09542" lon="-1.49931">
        <ele>15.37</ele>
        <time>2016-12-24T12:24:25Z</time>
      </trkpt>
      <trkpt lat="47.09549" lon="-1.499">
        <ele>17.34</ele>
        <time>2016-12-24T12:24:29Z</time>
      </trkpt>
      <trkpt lat="47.09556" lon="-1.49871">
        <ele>18.75</ele>
        <time>2016-12-24T12:24:33Z</time>
      </trkpt>
      <trkpt lat="47.09564" lon="-1.49845">
        <ele>17.77</ele>
        <time>2016-12-24T12:24:37Z</time>
      </trkpt>
      <trkpt lat="47.09572" lon="-1.4982">
        <ele>19.97</ele>
        <time>2016-12-24T12:24:41Z</time>
      </trkpt>
      <trkpt lat="47.09581" lon="-1.49796">
        <ele>20.25</ele>
        <time>2016-12-24T12:24:44Z</time>
      </trkpt>
      <trkpt lat="47.0959" lon="-1.49767">
        <ele>19.75</ele>
        <time>2016-12-24T12:24:48Z</time>
      </trkpt>
      <trkpt lat="47.096" lon="-1.49737">
        <ele>19.98</ele>
        <time>2016-12-24T12:24:52Z</time>
      </trkpt>
      <trkpt lat="47.09612" lon="-1.49707">
        <ele>18.46</ele>
        <time>2016-12-24T12:24:56Z</time>
      </trkpt>
      <trkpt lat="47.09621" lon="-1.49684">
        <ele>19.06</ele>
        <time>2016-12-24T12:24:59Z</time>
      </trkpt>
      <trkpt lat="47.09629" lon="-1.49659">
        <ele>19.78</ele>
        <time>2016-12-24T12:25:02Z</time>
      </trkpt>
      <trkpt lat="47.09637" lon="-1.49634">
        <ele>19.4</ele>
        <time>2016-12-24T12:25:05Z</time>
      </trkpt>
      <trkpt lat="47.09646" lon="-1.4961">
        <ele>19.73</ele>
        <time>2016-12-24T12:25:08Z</time>
      </trkpt>
      <trkpt lat="47.09658" lon="-1.4958">
        <ele>21.26</ele>
        <time>2016-12-24T12:25:12Z</time>
      </trkpt>
      <trkpt lat="47.09665" lon="-1.49555">
        <ele>21.37</ele>
        <time>2016-12-24T12:25:15Z</time>
      </trkpt>
      <trkpt lat="47.09673" lon="-1.4953">
        <ele>20.14</ele>
        <time>2016-12-24T12:25:18Z</time>
      </trkpt>
      <trkpt lat="47.09681" lon="-1.49497">
        <ele>18.7</ele>
        <time>2016-12-24T12:25:22Z</time>
      </trkpt>
      <trkpt lat="47.09684" lon="-1.49464">
        <ele>18.19</ele>
        <time>2016-12-24T12:25:26Z</time>
      </trkpt>
      <trkpt lat="47.09692" lon="-1.49431">
        <ele>18.63</ele>
        <time>2016-12-24T12:25:30Z</time>
      </trkpt>
      <trkpt lat="47.09696" lon="-1.49402">
        <ele>19.96</ele>
        <time>2016-12-24T12:25:33Z</time>
      </trkpt>
      <trkpt lat="47.097" lon="-1.49374">
        <ele>20.67</ele>
        <time>2016-12-24T12:25:36Z</time>
      </trkpt>
      <trkpt lat="47.09703" lon="-1.49347">
        <ele>21.22</ele>
        <time>2016-12-24T12:25:39Z</time>
      </trkpt>
      <trkpt lat="47.09707" lon="-1.49313">
        <ele>21.12</ele>
        <time>2016-12-24T12:25:43Z</time>
      </trkpt>
      <trkpt lat="47.0971" lon="-1.49279">
        <ele>20.91</ele>
        <time>2016-12-24T12:25:47Z</time>
      </trkpt>
      <trkpt lat="47.09718" lon="-1.49248">
        <ele>20.83</ele>
        <time>2016-12-24T12:25:51Z</time>
      </trkpt>
      <trkpt lat="47.09726" lon="-1.49224">
        <ele>20.89</ele>
        <time>2016-12-24T12:25:54Z</time>
      </trkpt>
      <trkpt lat="47.09735" lon="-1.49199">
        <ele>20.79</ele>
        <time>2016-12-24T12:25:57Z</time>
      </trkpt>
      <trkpt lat="47.09744" lon="-1.49171">
        <ele>21.28</ele>
        <time>2016-12-24T12:26:00Z</time>
      </trkpt>
      <trkpt lat="47.09752" lon="-1.49142">
        <ele>20.31</ele>
        <time>2016-12-24T12:26:03Z</time>
      </trkpt>
      <trkpt lat="47.0976" lon="-1.49117">
        <ele>19.53</ele>
        <time>2016-12-24T12:26:06Z</time>
      </trkpt>
      <trkpt lat="47.09768" lon="-1.49086">
        <ele>18.64</ele>
        <time>2016-12-24T12:26:09Z</time>
      </trkpt>
      <trkpt lat="47.09774" lon="-1.49058">
        <ele>18.25</ele>
        <time>2016-12-24T12:26:14Z</time>
      </trkpt>
      <trkpt lat="47.09792" lon="-1.49069">
        <ele>16.8</ele>
        <time>2016-12-24T12:26:18Z</time>
      </trkpt>
      <trkpt lat="47.09812" lon="-1.49081">
        <ele>17.44</ele>
        <time>2016-12-24T12:26:21Z</time>
      </trkpt>
      <trkpt lat="47.09833" lon="-1.49094">
        <ele>18.75</ele>
        <time>2016-12-24T12:26:25Z</time>
      </trkpt>
      <trkpt lat="47.09851" lon="-1.49101">
        <ele>21.34</ele>
        <time>2016-12-24T12:26:29Z</time>
      </trkpt>
      <trkpt lat="47.0987" lon="-1.49103">
        <ele>22.01</ele>
        <time>2016-12-24T12:26:32Z</time>
      </trkpt>
      <trkpt lat="47.09889" lon="-1.49103">
        <ele>21.61</ele>
        <time>2016-12-24T12:26:35Z</time>
      </trkpt>
      <trkpt lat="47.09909" lon="-1.49098">
        <ele>19.69</ele>
        <time>2016-12-24T12:26:38Z</time>
      </trkpt>
      <trkpt lat="47.09927" lon="-1.49091">
        <ele>18.86</ele>
        <time>2016-12-24T12:26:41Z</time>
      </trkpt>
      <trkpt lat="47.09945" lon="-1.49082">
        <ele>19.42</ele>
        <time>2016-12-24T12:26:44Z</time>
      </trkpt>
      <trkpt lat="47.09962" lon="-1.4907">
        <ele>20.76</ele>
        <time>2016-12-24T12:26:47Z</time>
      </trkpt>
      <trkpt lat="47.09977" lon="-1.49056">
        <ele>19.68</ele>
        <time>2016-12-24T12:26:50Z</time>
      </trkpt>
      <trkpt lat="47.09997" lon="-1.49038">
        <ele>18.92</ele>
        <time>2016-12-24T12:26:54Z</time>
      </trkpt>
      <trkpt lat="47.10015" lon="-1.4903">
        <ele>17.29</ele>
        <time>2016-12-24T12:26:57Z</time>
      </trkpt>
      <trkpt lat="47.10039" lon="-1.49031">
        <ele>19.62</ele>
        <time>2016-12-24T12:27:01Z</time>
      </trkpt>
      <trkpt lat="47.10061" lon="-1.49032">
        <ele>20.75</ele>
        <time>2016-12-24T12:27:05Z</time>
      </trkpt>
      <trkpt lat="47.10085" lon="-1.49033">
        <ele>20.11</ele>
        <time>2016-12-24T12:27:09Z</time>
      </trkpt>
      <trkpt lat="47.1011" lon="-1.49031">
        <ele>19.15</ele>
        <time>2016-12-24T12:27:13Z</time>
      </trkpt>
      <trkpt lat="47.10128" lon="-1.49024">
        <ele>18.88</ele>
        <time>2016-12-24T12:27:16Z</time>
      </trkpt>
      <trkpt lat="47.10148" lon="-1.49013">
        <ele>19.39</ele>
        <time>2016-12-24T12:27:20Z</time>
      </trkpt>
      <trkpt lat="47.1017" lon="-1.48999">
        <ele>19.86</ele>
        <time>2016-12-24T12:27:24Z</time>
      </trkpt>
      <trkpt lat="47.10191" lon="-1.4899">
        <ele>20</ele>
        <time>2016-12-24T12:27:28Z</time>
      </trkpt>
      <trkpt lat="47.10213" lon="-1.48987">
        <ele>20.04</ele>
        <time>2016-12-24T12:27:32Z</time>
      </trkpt>
      <trkpt lat="47.10235" lon="-1.48988">
        <ele>20.42</ele>
        <time>2016-12-24T12:27:36Z</time>
      </trkpt>
      <trkpt lat="47.10256" lon="-1.48988">
        <ele>20.11</ele>
        <time>2016-12-24T12:27:40Z</time>
      </trkpt>
      <trkpt lat="47.10279" lon="-1.48991">
        <ele>20.15</ele>
        <time>2016-12-24T12:27:44Z</time>
      </trkpt>
      <trkpt lat="47.10301" lon="-1.48993">
        <ele>21.39</ele>
        <time>2016-12-24T12:27:48Z</time>
      </trkpt>
      <trkpt lat="47.1032" lon="-1.48996">
        <ele>21.4</ele>
        <time>2016-12-24T12:27:51Z</time>
      </trkpt>
      <trkpt lat="47.10339" lon="-1.48999">
        <ele>22.17</ele>
        <time>2016-12-24T12:27:54Z</time>
      </trkpt>
      <trkpt lat="47.10358" lon="-1.49">
        <ele>21.93</ele>
        <time>2016-12-24T12:27:58Z</time>
      </trkpt>
      <trkpt lat="47.10378" lon="-1.49002">
        <ele>21.06</ele>
        <time>2016-12-24T12:28:01Z</time>
      </trkpt>
      <trkpt lat="47.10401" lon="-1.49003">
        <ele>20.2</ele>
        <time>2016-12-24T12:28:05Z</time>
      </trkpt>
      <trkpt lat="47.10419" lon="-1.49005">
        <ele>20.88</ele>
        <time>2016-12-24T12:28:08Z</time>
      </trkpt>
      <trkpt lat="47.10439" lon="-1.49007">
        <ele>21.07</ele>
        <time>2016-12-24T12:28:11Z</time>
      </trkpt>
      <trkpt lat="47.10459" lon="-1.49008">
        <ele>20.58</ele>
        <time>2016-12-24T12:28:14Z</time>
      </trkpt>
      <trkpt lat="47.1048" lon="-1.49005">
        <ele>20.46</ele>
        <time>2016-12-24T12:28:17Z</time>
      </trkpt>
      <trkpt lat="47.10498" lon="-1.48998">
        <ele>18.58</ele>
        <time>2016-12-24T12:28:20Z</time>
      </trkpt>
      <trkpt lat="47.10516" lon="-1.48991">
        <ele>17.25</ele>
        <time>2016-12-24T12:28:23Z</time>
      </trkpt>
      <trkpt lat="47.10537" lon="-1.48988">
        <ele>15.77</ele>
        <time>2016-12-24T12:28:26Z</time>
      </trkpt>
      <trkpt lat="47.10557" lon="-1.48989">
        <ele>15.66</ele>
        <time>2016-12-24T12:28:29Z</time>
      </trkpt>
      <trkpt lat="47.1058" lon="-1.48991">
        <ele>15.75</ele>
        <time>2016-12-24T12:28:33Z</time>
      </trkpt>
      <trkpt lat="47.106" lon="-1.48993">
        <ele>15.86</ele>
        <time>2016-12-24T12:28:36Z</time>
      </trkpt>
      <trkpt lat="47.10621" lon="-1.48993">
        <ele>16.38</ele>
        <time>2016-12-24T12:28:39Z</time>
      </trkpt>
      <trkpt lat="47.10639" lon="-1.48989">
        <ele>16.61</ele>
        <time>2016-12-24T12:28:42Z</time>
      </trkpt>
      <trkpt lat="47.10659" lon="-1.48982">
        <ele>16.64</ele>
        <time>2016-12-24T12:28:45Z</time>
      </trkpt>
      <trkpt lat="47.10682" lon="-1.48968">
        <ele>17.79</ele>
        <time>2016-12-24T12:28:49Z</time>
      </trkpt>
      <trkpt lat="47.10701" lon="-1.48956">
        <ele>17.91</ele>
        <time>2016-12-24T12:28:52Z</time>
      </trkpt>
      <trkpt lat="47.10718" lon="-1.48946">
        <ele>16.73</ele>
        <time>2016-12-24T12:28:55Z</time>
      </trkpt>
      <trkpt lat="47.10735" lon="-1.48936">
        <ele>17.31</ele>
        <time>2016-12-24T12:28:58Z</time>
      </trkpt>
      <trkpt lat="47.10757" lon="-1.48926">
        <ele>18.61</ele>
        <time>2016-12-24T12:29:02Z</time>
      </trkpt>
      <trkpt lat="47.10775" lon="-1.4892">
        <ele>20.09</ele>
        <time>2016-12-24T12:29:05Z</time>
      </trkpt>
      <trkpt lat="47.10797" lon="-1.48912">
        <ele>21.75</ele>
        <time>2016-12-24T12:29:09Z</time>
      </trkpt>
      <trkpt lat="47.1082" lon="-1.48904">
        <ele>21.97</ele>
        <time>2016-12-24T12:29:13Z</time>
      </trkpt>
      <trkpt lat="47.1084" lon="-1.48895">
        <ele>21.58</ele>
        <time>2016-12-24T12:29:16Z</time>
      </trkpt>
      <trkpt lat="47.10862" lon="-1.48888">
        <ele>21.39</ele>
        <time>2016-12-24T12:29:20Z</time>
      </trkpt>
      <trkpt lat="47.10884" lon="-1.48879">
        <ele>21.64</ele>
        <time>2016-12-24T12:29:25Z</time>
      </trkpt>
      <trkpt lat="47.10903" lon="-1.48871">
        <ele>24.68</ele>
        <time>2016-12-24T12:29:29Z</time>
      </trkpt>
      <trkpt lat="47.10922" lon="-1.48863">
        <ele>26.3</ele>
        <time>2016-12-24T12:29:33Z</time>
      </trkpt>
      <trkpt lat="47.1094" lon="-1.48857">
        <ele>26.42</ele>
        <time>2016-12-24T12:29:37Z</time>
      </trkpt>
      <trkpt lat="47.10958" lon="-1.4885">
        <ele>26.85</ele>
        <time>2016-12-24T12:29:41Z</time>
      </trkpt>
      <trkpt lat="47.10979" lon="-1.4884">
        <ele>26.98</ele>
        <time>2016-12-24T12:29:46Z</time>
      </trkpt>
      <trkpt lat="47.11" lon="-1.48833">
        <ele>28.88</ele>
        <time>2016-12-24T12:29:51Z</time>
      </trkpt>
      <trkpt lat="47.1102" lon="-1.48826">
        <ele>29.8</ele>
        <time>2016-12-24T12:29:55Z</time>
      </trkpt>
      <trkpt lat="47.1104" lon="-1.48818">
        <ele>33.24</ele>
        <time>2016-12-24T12:30:00Z</time>
      </trkpt>
      <trkpt lat="47.11061" lon="-1.48809">
        <ele>32.8</ele>
        <time>2016-12-24T12:30:04Z</time>
      </trkpt>
      <trkpt lat="47.11082" lon="-1.48799">
        <ele>32.31</ele>
        <time>2016-12-24T12:30:08Z</time>
      </trkpt>
      <trkpt lat="47.111" lon="-1.4879">
        <ele>29.84</ele>
        <time>2016-12-24T12:30:12Z</time>
      </trkpt>
      <trkpt lat="47.11121" lon="-1.48782">
        <ele>28.15</ele>
        <time>2016-12-24T12:30:16Z</time>
      </trkpt>
      <trkpt lat="47.11143" lon="-1.48773">
        <ele>27.44</ele>
        <time>2016-12-24T12:30:20Z</time>
      </trkpt>
      <trkpt lat="47.11164" lon="-1.48764">
        <ele>28.91</ele>
        <time>2016-12-24T12:30:24Z</time>
      </trkpt>
      <trkpt lat="47.11184" lon="-1.48757">
        <ele>26.87</ele>
        <time>2016-12-24T12:30:27Z</time>
      </trkpt>
      <trkpt lat="47.11205" lon="-1.48749">
        <ele>25</ele>
        <time>2016-12-24T12:30:30Z</time>
      </trkpt>
      <trkpt lat="47.11227" lon="-1.4874">
        <ele>23.07</ele>
        <time>2016-12-24T12:30:33Z</time>
      </trkpt>
      <trkpt lat="47.11247" lon="-1.48732">
        <ele>21.53</ele>
        <time>2016-12-24T12:30:36Z</time>
      </trkpt>
      <trkpt lat="47.11265" lon="-1.48725">
        <ele>20.31</ele>
        <time>2016-12-24T12:30:39Z</time>
      </trkpt>
      <trkpt lat="47.11286" lon="-1.48718">
        <ele>21.3</ele>
        <time>2016-12-24T12:30:43Z</time>
      </trkpt>
      <trkpt lat="47.11306" lon="-1.48711">
        <ele>25.06</ele>
        <time>2016-12-24T12:30:47Z</time>
      </trkpt>
      <trkpt lat="47.11327" lon="-1.48704">
        <ele>26.33</ele>
        <time>2016-12-24T12:30:51Z</time>
      </trkpt>
      <trkpt lat="47.11348" lon="-1.48696">
        <ele>25.47</ele>
        <time>2016-12-24T12:30:56Z</time>
      </trkpt>
      <trkpt lat="47.11367" lon="-1.48689">
        <ele>27.07</ele>
        <time>2016-12-24T12:31:00Z</time>
      </trkpt>
      <trkpt lat="47.11389" lon="-1.4868">
        <ele>29.52</ele>
        <time>2016-12-24T12:31:05Z</time>
      </trkpt>
      <trkpt lat="47.1141" lon="-1.48673">
        <ele>29.7</ele>
        <time>2016-12-24T12:31:10Z</time>
      </trkpt>
      <trkpt lat="47.1143" lon="-1.48669">
        <ele>30.73</ele>
        <time>2016-12-24T12:31:15Z</time>
      </trkpt>
      <trkpt lat="47.11449" lon="-1.48666">
        <ele>33.36</ele>
        <time>2016-12-24T12:31:20Z</time>
      </trkpt>
      <trkpt lat="47.11467" lon="-1.4866">
        <ele>35.25</ele>
        <time>2016-12-24T12:31:25Z</time>
      </trkpt>
      <trkpt lat="47.11486" lon="-1.48653">
        <ele>40.01</ele>
        <time>2016-12-24T12:31:30Z</time>
      </trkpt>
      <trkpt lat="47.11507" lon="-1.48649">
        <ele>39.37</ele>
        <time>2016-12-24T12:31:35Z</time>
      </trkpt>
      <trkpt lat="47.11526" lon="-1.48643">
        <ele>39.75</ele>
        <time>2016-12-24T12:31:40Z</time>
      </trkpt>
      <trkpt lat="47.11546" lon="-1.48638">
        <ele>40.05</ele>
        <time>2016-12-24T12:31:45Z</time>
      </trkpt>
      <trkpt lat="47.11564" lon="-1.48634">
        <ele>41.52</ele>
        <time>2016-12-24T12:31:49Z</time>
      </trkpt>
      <trkpt lat="47.11583" lon="-1.48631">
        <ele>42.57</ele>
        <time>2016-12-24T12:31:54Z</time>
      </trkpt>
      <trkpt lat="47.11606" lon="-1.48627">
        <ele>43.26</ele>
        <time>2016-12-24T12:31:59Z</time>
      </trkpt>
      <trkpt lat="47.11624" lon="-1.48625">
        <ele>44.03</ele>
        <time>2016-12-24T12:32:03Z</time>
      </trkpt>
      <trkpt lat="47.11645" lon="-1.48621">
        <ele>44.51</ele>
        <time>2016-12-24T12:32:08Z</time>
      </trkpt>
      <trkpt lat="47.11667" lon="-1.48615">
        <ele>44.13</ele>
        <time>2016-12-24T12:32:13Z</time>
      </trkpt>
      <trkpt lat="47.11687" lon="-1.48609">
        <ele>44.67</ele>
        <time>2016-12-24T12:32:18Z</time>
      </trkpt>
      <trkpt lat="47.11705" lon="-1.48596">
        <ele>42.6</ele>
        <time>2016-12-24T12:32:23Z</time>
      </trkpt>
      <trkpt lat="47.1172" lon="-1.48579">
        <ele>41.31</ele>
        <time>2016-12-24T12:32:27Z</time>
      </trkpt>
      <trkpt lat="47.1173" lon="-1.48557">
        <ele>44.12</ele>
        <time>2016-12-24T12:32:31Z</time>
      </trkpt>
      <trkpt lat="47.11739" lon="-1.48533">
        <ele>45.31</ele>
        <time>2016-12-24T12:32:35Z</time>
      </trkpt>
      <trkpt lat="47.11755" lon="-1.48512">
        <ele>47.35</ele>
        <time>2016-12-24T12:32:40Z</time>
      </trkpt>
      <trkpt lat="47.11751" lon="-1.48484">
        <ele>49.48</ele>
        <time>2016-12-24T12:32:44Z</time>
      </trkpt>
      <trkpt lat="47.11747" lon="-1.48456">
        <ele>49.14</ele>
        <time>2016-12-24T12:32:48Z</time>
      </trkpt>
      <trkpt lat="47.11745" lon="-1.48424">
        <ele>48.77</ele>
        <time>2016-12-24T12:32:53Z</time>
      </trkpt>
      <trkpt lat="47.11744" lon="-1.48394">
        <ele>49</ele>
        <time>2016-12-24T12:32:57Z</time>
      </trkpt>
      <trkpt lat="47.11741" lon="-1.48365">
        <ele>50.46</ele>
        <time>2016-12-24T12:33:01Z</time>
      </trkpt>
      <trkpt lat="47.11729" lon="-1.48337">
        <ele>54.28</ele>
        <time>2016-12-24T12:33:06Z</time>
      </trkpt>
      <trkpt lat="47.11718" lon="-1.48316">
        <ele>54.85</ele>
        <time>2016-12-24T12:33:10Z</time>
      </trkpt>
      <trkpt lat="47.11704" lon="-1.48294">
        <ele>55.88</ele>
        <time>2016-12-24T12:33:14Z</time>
      </trkpt>
      <trkpt lat="47.11688" lon="-1.48267">
        <ele>56.99</ele>
        <time>2016-12-24T12:33:18Z</time>
      </trkpt>
      <trkpt lat="47.11676" lon="-1.48244">
        <ele>57.41</ele>
        <time>2016-12-24T12:33:23Z</time>
      </trkpt>
      <trkpt lat="47.11664" lon="-1.4822">
        <ele>56.93</ele>
        <time>2016-12-24T12:33:27Z</time>
      </trkpt>
      <trkpt lat="47.1165" lon="-1.48194">
        <ele>55.63</ele>
        <time>2016-12-24T12:33:32Z</time>
      </trkpt>
      <trkpt lat="47.11635" lon="-1.48165">
        <ele>54</ele>
        <time>2016-12-24T12:33:36Z</time>
      </trkpt>
      <trkpt lat="47.11622" lon="-1.48142">
        <ele>51.51</ele>
        <time>2016-12-24T12:33:39Z</time>
      </trkpt>
      <trkpt lat="47.11608" lon="-1.48117">
        <ele>51.28</ele>
        <time>2016-12-24T12:33:43Z</time>
      </trkpt>
      <trkpt lat="47.11596" lon="-1.48093">
        <ele>51.73</ele>
        <time>2016-12-24T12:33:47Z</time>
      </trkpt>
      <trkpt lat="47.11584" lon="-1.48071">
        <ele>51.87</ele>
        <time>2016-12-24T12:33:50Z</time>
      </trkpt>
      <trkpt lat="47.11578" lon="-1.48044">
        <ele>52.74</ele>
        <time>2016-12-24T12:33:53Z</time>
      </trkpt>
      <trkpt lat="47.11583" lon="-1.48018">
        <ele>53.68</ele>
        <time>2016-12-24T12:33:56Z</time>
      </trkpt>
      <trkpt lat="47.11595" lon="-1.47991">
        <ele>55.11</ele>
        <time>2016-12-24T12:34:00Z</time>
      </trkpt>
      <trkpt lat="47.11606" lon="-1.47967">
        <ele>55.45</ele>
        <time>2016-12-24T12:34:03Z</time>
      </trkpt>
      <trkpt lat="47.11618" lon="-1.4794">
        <ele>54.51</ele>
        <time>2016-12-24T12:34:07Z</time>
      </trkpt>
      <trkpt lat="47.11628" lon="-1.47917">
        <ele>53.33</ele>
        <time>2016-12-24T12:34:10Z</time>
      </trkpt>
      <trkpt lat="47.11636" lon="-1.47891">
        <ele>52.68</ele>
        <time>2016-12-24T12:34:13Z</time>
      </trkpt>
      <trkpt lat="47.11638" lon="-1.4786">
        <ele>52.38</ele>
        <time>2016-12-24T12:34:16Z</time>
      </trkpt>
      <trkpt lat="47.11634" lon="-1.47831">
        <ele>51.38</ele>
        <time>2016-12-24T12:34:19Z</time>
      </trkpt>
      <trkpt lat="47.1163" lon="-1.478">
        <ele>52.87</ele>
        <time>2016-12-24T12:34:23Z</time>
      </trkpt>
      <trkpt lat="47.11628" lon="-1.47773">
        <ele>54.63</ele>
        <time>2016-12-24T12:34:26Z</time>
      </trkpt>
      <trkpt lat="47.11632" lon="-1.47741">
        <ele>55.88</ele>
        <time>2016-12-24T12:34:29Z</time>
      </trkpt>
      <trkpt lat="47.11633" lon="-1.47708">
        <ele>54.88</ele>
        <time>2016-12-24T12:34:32Z</time>
      </trkpt>
      <trkpt lat="47.11635" lon="-1.47677">
        <ele>52.98</ele>
        <time>2016-12-24T12:34:35Z</time>
      </trkpt>
      <trkpt lat="47.11636" lon="-1.47647">
        <ele>51.37</ele>
        <time>2016-12-24T12:34:38Z</time>
      </trkpt>
      <trkpt lat="47.11635" lon="-1.47621">
        <ele>50.55</ele>
        <time>2016-12-24T12:34:41Z</time>
      </trkpt>
      <trkpt lat="47.11636" lon="-1.47592">
        <ele>49.69</ele>
        <time>2016-12-24T12:34:44Z</time>
      </trkpt>
      <trkpt lat="47.11636" lon="-1.47564">
        <ele>49.69</ele>
        <time>2016-12-24T12:34:47Z</time>
      </trkpt>
      <trkpt lat="47.11636" lon="-1.47533">
        <ele>48.58</ele>
        <time>2016-12-24T12:34:50Z</time>
      </trkpt>
      <trkpt lat="47.11635" lon="-1.47505">
        <ele>48.16</ele>
        <time>2016-12-24T12:34:53Z</time>
      </trkpt>
      <trkpt lat="47.11634" lon="-1.47477">
        <ele>47.13</ele>
        <time>2016-12-24T12:34:56Z</time>
      </trkpt>
      <trkpt lat="47.11635" lon="-1.47442">
        <ele>47.09</ele>
        <time>2016-12-24T12:35:00Z</time>
      </trkpt>
      <trkpt lat="47.11634" lon="-1.4741">
        <ele>47.32</ele>
        <time>2016-12-24T12:35:04Z</time>
      </trkpt>
      <trkpt lat="47.11631" lon="-1.47378">
        <ele>48.2</ele>
        <time>2016-12-24T12:35:08Z</time>
      </trkpt>
      <trkpt lat="47.11633" lon="-1.47348">
        <ele>49</ele>
        <time>2016-12-24T12:35:11Z</time>
      </trkpt>
      <trkpt lat="47.11634" lon="-1.47319">
        <ele>49.23</ele>
        <time>2016-12-24T12:35:14Z</time>
      </trkpt>
      <trkpt lat="47.11635" lon="-1.47286">
        <ele>48.55</ele>
        <time>2016-12-24T12:35:17Z</time>
      </trkpt>
      <trkpt lat="47.11635" lon="-1.47256">
        <ele>47.07</ele>
        <time>2016-12-24T12:35:20Z</time>
      </trkpt>
      <trkpt lat="47.11636" lon="-1.47223">
        <ele>46.48</ele>
        <time>2016-12-24T12:35:23Z</time>
      </trkpt>
      <trkpt lat="47.11636" lon="-1.47191">
        <ele>46.24</ele>
        <time>2016-12-24T12:35:26Z</time>
      </trkpt>
      <trkpt lat="47.11636" lon="-1.47153">
        <ele>46.18</ele>
        <time>2016-12-24T12:35:29Z</time>
      </trkpt>
      <trkpt lat="47.11636" lon="-1.4712">
        <ele>46.44</ele>
        <time>2016-12-24T12:35:32Z</time>
      </trkpt>
      <trkpt lat="47.11636" lon="-1.47087">
        <ele>46.19</ele>
        <time>2016-12-24T12:35:35Z</time>
      </trkpt>
      <trkpt lat="47.11636" lon="-1.47053">
        <ele>45.06</ele>
        <time>2016-12-24T12:35:38Z</time>
      </trkpt>
      <trkpt lat="47.11635" lon="-1.47018">
        <ele>45.16</ele>
        <time>2016-12-24T12:35:41Z</time>
      </trkpt>
      <trkpt lat="47.11636" lon="-1.46983">
        <ele>45.08</ele>
        <time>2016-12-24T12:35:44Z</time>
      </trkpt>
      <trkpt lat="47.11635" lon="-1.46949">
        <ele>44.9</ele>
        <time>2016-12-24T12:35:47Z</time>
      </trkpt>
      <trkpt lat="47.11636" lon="-1.46914">
        <ele>44.44</ele>
        <time>2016-12-24T12:35:50Z</time>
      </trkpt>
      <trkpt lat="47.11636" lon="-1.46882">
        <ele>44.8</ele>
        <time>2016-12-24T12:35:53Z</time>
      </trkpt>
      <trkpt lat="47.11635" lon="-1.46846">
        <ele>44.52</ele>
        <time>2016-12-24T12:35:56Z</time>
      </trkpt>
      <trkpt lat="47.11635" lon="-1.4681">
        <ele>45.93</ele>
        <time>2016-12-24T12:35:59Z</time>
      </trkpt>
      <trkpt lat="47.11635" lon="-1.46775">
        <ele>45.75</ele>
        <time>2016-12-24T12:36:02Z</time>
      </trkpt>
      <trkpt lat="47.11635" lon="-1.46739">
        <ele>43.71</ele>
        <time>2016-12-24T12:36:05Z</time>
      </trkpt>
      <trkpt lat="47.11635" lon="-1.46705">
        <ele>44.01</ele>
        <time>2016-12-24T12:36:08Z</time>
      </trkpt>
      <trkpt lat="47.11636" lon="-1.46671">
        <ele>42.67</ele>
        <time>2016-12-24T12:36:11Z</time>
      </trkpt>
      <trkpt lat="47.11639" lon="-1.46641">
        <ele>42.14</ele>
        <time>2016-12-24T12:36:14Z</time>
      </trkpt>
      <trkpt lat="47.11642" lon="-1.46607">
        <ele>43.33</ele>
        <time>2016-12-24T12:36:17Z</time>
      </trkpt>
      <trkpt lat="47.11646" lon="-1.46576">
        <ele>44.5</ele>
        <time>2016-12-24T12:36:20Z</time>
      </trkpt>
      <trkpt lat="47.1165" lon="-1.46546">
        <ele>44.43</ele>
        <time>2016-12-24T12:36:23Z</time>
      </trkpt>
      <trkpt lat="47.11654" lon="-1.46516">
        <ele>43.12</ele>
        <time>2016-12-24T12:36:26Z</time>
      </trkpt>
      <trkpt lat="47.11657" lon="-1.46486">
        <ele>41.79</ele>
        <time>2016-12-24T12:36:29Z</time>
      </trkpt>
      <trkpt lat="47.11662" lon="-1.46456">
        <ele>43.03</ele>
        <time>2016-12-24T12:36:32Z</time>
      </trkpt>
      <trkpt lat="47.11664" lon="-1.46425">
        <ele>44.45</ele>
        <time>2016-12-24T12:36:35Z</time>
      </trkpt>
      <trkpt lat="47.11663" lon="-1.46392">
        <ele>44.23</ele>
        <time>2016-12-24T12:36:38Z</time>
      </trkpt>
      <trkpt lat="47.11661" lon="-1.46363">
        <ele>44.38</ele>
        <time>2016-12-24T12:36:41Z</time>
      </trkpt>
      <trkpt lat="47.11658" lon="-1.46332">
        <ele>44.4</ele>
        <time>2016-12-24T12:36:44Z</time>
      </trkpt>
      <trkpt lat="47.11655" lon="-1.46302">
        <ele>44.26</ele>
        <time>2016-12-24T12:36:47Z</time>
      </trkpt>
      <trkpt lat="47.11651" lon="-1.4627">
        <ele>43.34</ele>
        <time>2016-12-24T12:36:50Z</time>
      </trkpt>
      <trkpt lat="47.11648" lon="-1.46239">
        <ele>43.24</ele>
        <time>2016-12-24T12:36:53Z</time>
      </trkpt>
      <trkpt lat="47.11646" lon="-1.46207">
        <ele>42.8</ele>
        <time>2016-12-24T12:36:56Z</time>
      </trkpt>
      <trkpt lat="47.11645" lon="-1.46175">
        <ele>43.18</ele>
        <time>2016-12-24T12:36:59Z</time>
      </trkpt>
      <trkpt lat="47.11644" lon="-1.46143">
        <ele>43.93</ele>
        <time>2016-12-24T12:37:02Z</time>
      </trkpt>
      <trkpt lat="47.11644" lon="-1.46111">
        <ele>43.64</ele>
        <time>2016-12-24T12:37:05Z</time>
      </trkpt>
      <trkpt lat="47.11642" lon="-1.46079">
        <ele>43.1</ele>
        <time>2016-12-24T12:37:08Z</time>
      </trkpt>
      <trkpt lat="47.1164" lon="-1.46049">
        <ele>41.66</ele>
        <time>2016-12-24T12:37:11Z</time>
      </trkpt>
      <trkpt lat="47.11638" lon="-1.46019">
        <ele>42.1</ele>
        <time>2016-12-24T12:37:14Z</time>
      </trkpt>
      <trkpt lat="47.11636" lon="-1.45986">
        <ele>44.31</ele>
        <time>2016-12-24T12:37:17Z</time>
      </trkpt>
      <trkpt lat="47.11632" lon="-1.45958">
        <ele>44.47</ele>
        <time>2016-12-24T12:37:20Z</time>
      </trkpt>
      <trkpt lat="47.11627" lon="-1.45928">
        <ele>43.94</ele>
        <time>2016-12-24T12:37:23Z</time>
      </trkpt>
      <trkpt lat="47.11621" lon="-1.45895">
        <ele>43.9</ele>
        <time>2016-12-24T12:37:26Z</time>
      </trkpt>
      <trkpt lat="47.11616" lon="-1.45868">
        <ele>44.01</ele>
        <time>2016-12-24T12:37:29Z</time>
      </trkpt>
      <trkpt lat="47.11606" lon="-1.4584">
        <ele>45.56</ele>
        <time>2016-12-24T12:37:32Z</time>
      </trkpt>
      <trkpt lat="47.11592" lon="-1.45817">
        <ele>46.94</ele>
        <time>2016-12-24T12:37:35Z</time>
      </trkpt>
      <trkpt lat="47.11577" lon="-1.45799">
        <ele>47.34</ele>
        <time>2016-12-24T12:37:38Z</time>
      </trkpt>
      <trkpt lat="47.1156" lon="-1.45781">
        <ele>46.93</ele>
        <time>2016-12-24T12:37:41Z</time>
      </trkpt>
      <trkpt lat="47.11544" lon="-1.45762">
        <ele>47.63</ele>
        <time>2016-12-24T12:37:44Z</time>
      </trkpt>
      <trkpt lat="47.1153" lon="-1.45744">
        <ele>47.86</ele>
        <time>2016-12-24T12:37:47Z</time>
      </trkpt>
      <trkpt lat="47.11518" lon="-1.45717">
        <ele>47.56</ele>
        <time>2016-12-24T12:37:50Z</time>
      </trkpt>
      <trkpt lat="47.11509" lon="-1.4569">
        <ele>46.62</ele>
        <time>2016-12-24T12:37:53Z</time>
      </trkpt>
      <trkpt lat="47.11501" lon="-1.45663">
        <ele>46.8</ele>
        <time>2016-12-24T12:37:56Z</time>
      </trkpt>
      <trkpt lat="47.11494" lon="-1.45634">
        <ele>47.15</ele>
        <time>2016-12-24T12:37:59Z</time>
      </trkpt>
      <trkpt lat="47.11485" lon="-1.45608">
        <ele>47.68</ele>
        <time>2016-12-24T12:38:02Z</time>
      </trkpt>
      <trkpt lat="47.11475" lon="-1.45582">
        <ele>48.07</ele>
        <time>2016-12-24T12:38:05Z</time>
      </trkpt>
      <trkpt lat="47.11461" lon="-1.45559">
        <ele>49.4</ele>
        <time>2016-12-24T12:38:08Z</time>
      </trkpt>
      <trkpt lat="47.11445" lon="-1.45537">
        <ele>48.52</ele>
        <time>2016-12-24T12:38:11Z</time>
      </trkpt>
      <trkpt lat="47.11428" lon="-1.45517">
        <ele>47.62</ele>
        <time>2016-12-24T12:38:14Z</time>
      </trkpt>
      <trkpt lat="47.11413" lon="-1.45494">
        <ele>47.44</ele>
        <time>2016-12-24T12:38:17Z</time>
      </trkpt>
      <trkpt lat="47.11406" lon="-1.45465">
        <ele>46.79</ele>
        <time>2016-12-24T12:38:20Z</time>
      </trkpt>
      <trkpt lat="47.11407" lon="-1.45434">
        <ele>44.76</ele>
        <time>2016-12-24T12:38:23Z</time>
      </trkpt>
      <trkpt lat="47.1141" lon="-1.45406">
        <ele>44.92</ele>
        <time>2016-12-24T12:38:26Z</time>
      </trkpt>
      <trkpt lat="47.11415" lon="-1.45375">
        <ele>44.78</ele>
        <time>2016-12-24T12:38:29Z</time>
      </trkpt>
      <trkpt lat="47.1142" lon="-1.45348">
        <ele>44.57</ele>
        <time>2016-12-24T12:38:32Z</time>
      </trkpt>
      <trkpt lat="47.11426" lon="-1.4532">
        <ele>45.07</ele>
        <time>2016-12-24T12:38:35Z</time>
      </trkpt>
      <trkpt lat="47.11432" lon="-1.45288">
        <ele>44.73</ele>
        <time>2016-12-24T12:38:38Z</time>
      </trkpt>
      <trkpt lat="47.11437" lon="-1.4526">
        <ele>43.78</ele>
        <time>2016-12-24T12:38:41Z</time>
      </trkpt>
      <trkpt lat="47.11445" lon="-1.45232">
        <ele>44.89</ele>
        <time>2016-12-24T12:38:44Z</time>
      </trkpt>
      <trkpt lat="47.11453" lon="-1.45208">
        <ele>44.95</ele>
        <time>2016-12-24T12:38:47Z</time>
      </trkpt>
      <trkpt lat="47.11465" lon="-1.45182">
        <ele>45.31</ele>
        <time>2016-12-24T12:38:50Z</time>
      </trkpt>
      <trkpt lat="47.11478" lon="-1.4516">
        <ele>45.58</ele>
        <time>2016-12-24T12:38:53Z</time>
      </trkpt>
      <trkpt lat="47.1149" lon="-1.45138">
        <ele>44.86</ele>
        <time>2016-12-24T12:38:56Z</time>
      </trkpt>
      <trkpt lat="47.11504" lon="-1.45111">
        <ele>45.9</ele>
        <time>2016-12-24T12:39:00Z</time>
      </trkpt>
      <trkpt lat="47.11517" lon="-1.45086">
        <ele>45.68</ele>
        <time>2016-12-24T12:39:03Z</time>
      </trkpt>
      <trkpt lat="47.11531" lon="-1.45059">
        <ele>45.09</ele>
        <time>2016-12-24T12:39:07Z</time>
      </trkpt>
      <trkpt lat="47.11541" lon="-1.45034">
        <ele>45</ele>
        <time>2016-12-24T12:39:10Z</time>
      </trkpt>
      <trkpt lat="47.1155" lon="-1.45008">
        <ele>44.53</ele>
        <time>2016-12-24T12:39:13Z</time>
      </trkpt>
      <trkpt lat="47.11556" lon="-1.44983">
        <ele>44.8</ele>
        <time>2016-12-24T12:39:16Z</time>
      </trkpt>
      <trkpt lat="47.11563" lon="-1.44957">
        <ele>44.52</ele>
        <time>2016-12-24T12:39:19Z</time>
      </trkpt>
      <trkpt lat="47.11571" lon="-1.44923">
        <ele>45.8</ele>
        <time>2016-12-24T12:39:23Z</time>
      </trkpt>
      <trkpt lat="47.11578" lon="-1.44898">
        <ele>46.98</ele>
        <time>2016-12-24T12:39:26Z</time>
      </trkpt>
      <trkpt lat="47.11587" lon="-1.44872">
        <ele>46.51</ele>
        <time>2016-12-24T12:39:29Z</time>
      </trkpt>
      <trkpt lat="47.11596" lon="-1.44849">
        <ele>46.78</ele>
        <time>2016-12-24T12:39:32Z</time>
      </trkpt>
      <trkpt lat="47.11607" lon="-1.44823">
        <ele>46.45</ele>
        <time>2016-12-24T12:39:35Z</time>
      </trkpt>
      <trkpt lat="47.11618" lon="-1.44798">
        <ele>45.74</ele>
        <time>2016-12-24T12:39:38Z</time>
      </trkpt>
      <trkpt lat="47.11629" lon="-1.44771">
        <ele>44.83</ele>
        <time>2016-12-24T12:39:41Z</time>
      </trkpt>
      <trkpt lat="47.1164" lon="-1.44746">
        <ele>43.62</ele>
        <time>2016-12-24T12:39:44Z</time>
      </trkpt>
      <trkpt lat="47.11652" lon="-1.44716">
        <ele>44.44</ele>
        <time>2016-12-24T12:39:47Z</time>
      </trkpt>
      <trkpt lat="47.11664" lon="-1.44689">
        <ele>44.72</ele>
        <time>2016-12-24T12:39:50Z</time>
      </trkpt>
      <trkpt lat="47.11671" lon="-1.4466">
        <ele>43.32</ele>
        <time>2016-12-24T12:39:53Z</time>
      </trkpt>
      <trkpt lat="47.11674" lon="-1.44629">
        <ele>42.19</ele>
        <time>2016-12-24T12:39:56Z</time>
      </trkpt>
      <trkpt lat="47.11673" lon="-1.44598">
        <ele>42.47</ele>
        <time>2016-12-24T12:39:59Z</time>
      </trkpt>
      <trkpt lat="47.11673" lon="-1.44565">
        <ele>41.88</ele>
        <time>2016-12-24T12:40:02Z</time>
      </trkpt>
      <trkpt lat="47.11671" lon="-1.44532">
        <ele>39.47</ele>
        <time>2016-12-24T12:40:05Z</time>
      </trkpt>
      <trkpt lat="47.11673" lon="-1.44499">
        <ele>38.29</ele>
        <time>2016-12-24T12:40:08Z</time>
      </trkpt>
      <trkpt lat="47.11681" lon="-1.44466">
        <ele>37.24</ele>
        <time>2016-12-24T12:40:11Z</time>
      </trkpt>
      <trkpt lat="47.11691" lon="-1.44438">
        <ele>36.07</ele>
        <time>2016-12-24T12:40:14Z</time>
      </trkpt>
      <trkpt lat="47.11702" lon="-1.44409">
        <ele>36.63</ele>
        <time>2016-12-24T12:40:17Z</time>
      </trkpt>
      <trkpt lat="47.1171" lon="-1.44377">
        <ele>37.06</ele>
        <time>2016-12-24T12:40:20Z</time>
      </trkpt>
      <trkpt lat="47.11711" lon="-1.44347">
        <ele>36.85</ele>
        <time>2016-12-24T12:40:23Z</time>
      </trkpt>
      <trkpt lat="47.1171" lon="-1.44319">
        <ele>36.41</ele>
        <time>2016-12-24T12:40:26Z</time>
      </trkpt>
      <trkpt lat="47.11708" lon="-1.4429">
        <ele>37.71</ele>
        <time>2016-12-24T12:40:29Z</time>
      </trkpt>
      <trkpt lat="47.11709" lon="-1.44263">
        <ele>37.97</ele>
        <time>2016-12-24T12:40:32Z</time>
      </trkpt>
      <trkpt lat="47.11719" lon="-1.44232">
        <ele>38.06</ele>
        <time>2016-12-24T12:40:36Z</time>
      </trkpt>
      <trkpt lat="47.11738" lon="-1.44209">
        <ele>39.44</ele>
        <time>2016-12-24T12:40:40Z</time>
      </trkpt>
      <trkpt lat="47.11757" lon="-1.44197">
        <ele>38.95</ele>
        <time>2016-12-24T12:40:44Z</time>
      </trkpt>
      <trkpt lat="47.11778" lon="-1.44187">
        <ele>36.98</ele>
        <time>2016-12-24T12:40:48Z</time>
      </trkpt>
      <trkpt lat="47.11797" lon="-1.44177">
        <ele>40.13</ele>
        <time>2016-12-24T12:40:52Z</time>
      </trkpt>
      <trkpt lat="47.11816" lon="-1.44169">
        <ele>43.02</ele>
        <time>2016-12-24T12:40:56Z</time>
      </trkpt>
      <trkpt lat="47.11836" lon="-1.44158">
        <ele>42.95</ele>
        <time>2016-12-24T12:41:00Z</time>
      </trkpt>
      <trkpt lat="47.11856" lon="-1.44149">
        <ele>42.68</ele>
        <time>2016-12-24T12:41:04Z</time>
      </trkpt>
      <trkpt lat="47.11877" lon="-1.44139">
        <ele>44.58</ele>
        <time>2016-12-24T12:41:09Z</time>
      </trkpt>
      <trkpt lat="47.11895" lon="-1.44125">
        <ele>45.77</ele>
        <time>2016-12-24T12:41:13Z</time>
      </trkpt>
      <trkpt lat="47.11912" lon="-1.44103">
        <ele>47.6</ele>
        <time>2016-12-24T12:41:17Z</time>
      </trkpt>
      <trkpt lat="47.11923" lon="-1.4408">
        <ele>46.07</ele>
        <time>2016-12-24T12:41:21Z</time>
      </trkpt>
      <trkpt lat="47.11931" lon="-1.44049">
        <ele>45.13</ele>
        <time>2016-12-24T12:41:25Z</time>
      </trkpt>
      <trkpt lat="47.11939" lon="-1.4402">
        <ele>44.15</ele>
        <time>2016-12-24T12:41:29Z</time>
      </trkpt>
      <trkpt lat="47.11945" lon="-1.43989">
        <ele>42.03</ele>
        <time>2016-12-24T12:41:33Z</time>
      </trkpt>
      <trkpt lat="47.11953" lon="-1.43957">
        <ele>43.46</ele>
        <time>2016-12-24T12:41:37Z</time>
      </trkpt>
      <trkpt lat="47.11961" lon="-1.43931">
        <ele>43.16</ele>
        <time>2016-12-24T12:41:40Z</time>
      </trkpt>
      <trkpt lat="47.11968" lon="-1.43903">
        <ele>43.79</ele>
        <time>2016-12-24T12:41:43Z</time>
      </trkpt>
      <trkpt lat="47.11976" lon="-1.43873">
        <ele>44.41</ele>
        <time>2016-12-24T12:41:46Z</time>
      </trkpt>
      <trkpt lat="47.11984" lon="-1.43845">
        <ele>44.21</ele>
        <time>2016-12-24T12:41:49Z</time>
      </trkpt>
      <trkpt lat="47.11994" lon="-1.43813">
        <ele>43.7</ele>
        <time>2016-12-24T12:41:52Z</time>
      </trkpt>
      <trkpt lat="47.12004" lon="-1.43781">
        <ele>42.13</ele>
        <time>2016-12-24T12:41:55Z</time>
      </trkpt>
      <trkpt lat="47.12013" lon="-1.4375">
        <ele>41.43</ele>
        <time>2016-12-24T12:41:58Z</time>
      </trkpt>
      <trkpt lat="47.12023" lon="-1.43721">
        <ele>40.8</ele>
        <time>2016-12-24T12:42:01Z</time>
      </trkpt>
      <trkpt lat="47.12036" lon="-1.43694">
        <ele>40.48</ele>
        <time>2016-12-24T12:42:04Z</time>
      </trkpt>
      <trkpt lat="47.12051" lon="-1.43668">
        <ele>39.29</ele>
        <time>2016-12-24T12:42:07Z</time>
      </trkpt>
      <trkpt lat="47.12067" lon="-1.43642">
        <ele>38.06</ele>
        <time>2016-12-24T12:42:10Z</time>
      </trkpt>
      <trkpt lat="47.12078" lon="-1.43619">
        <ele>37.97</ele>
        <time>2016-12-24T12:42:13Z</time>
      </trkpt>
      <trkpt lat="47.12085" lon="-1.43591">
        <ele>37.26</ele>
        <time>2016-12-24T12:42:16Z</time>
      </trkpt>
      <trkpt lat="47.12089" lon="-1.43563">
        <ele>37.47</ele>
        <time>2016-12-24T12:42:19Z</time>
      </trkpt>
      <trkpt lat="47.12091" lon="-1.43529">
        <ele>38.98</ele>
        <time>2016-12-24T12:42:23Z</time>
      </trkpt>
      <trkpt lat="47.12093" lon="-1.43501">
        <ele>39.69</ele>
        <time>2016-12-24T12:42:26Z</time>
      </trkpt>
      <trkpt lat="47.12096" lon="-1.43468">
        <ele>41.48</ele>
        <time>2016-12-24T12:42:30Z</time>
      </trkpt>
      <trkpt lat="47.12099" lon="-1.43442">
        <ele>41.27</ele>
        <time>2016-12-24T12:42:33Z</time>
      </trkpt>
      <trkpt lat="47.12104" lon="-1.43415">
        <ele>41.28</ele>
        <time>2016-12-24T12:42:36Z</time>
      </trkpt>
      <trkpt lat="47.12113" lon="-1.43385">
        <ele>42.72</ele>
        <time>2016-12-24T12:42:40Z</time>
      </trkpt>
      <trkpt lat="47.12124" lon="-1.43356">
        <ele>44.27</ele>
        <time>2016-12-24T12:42:44Z</time>
      </trkpt>
      <trkpt lat="47.12134" lon="-1.4333">
        <ele>45.62</ele>
        <time>2016-12-24T12:42:48Z</time>
      </trkpt>
      <trkpt lat="47.12142" lon="-1.43306">
        <ele>45.13</ele>
        <time>2016-12-24T12:42:51Z</time>
      </trkpt>
      <trkpt lat="47.12151" lon="-1.43275">
        <ele>46.92</ele>
        <time>2016-12-24T12:42:55Z</time>
      </trkpt>
      <trkpt lat="47.12157" lon="-1.43246">
        <ele>46.83</ele>
        <time>2016-12-24T12:42:59Z</time>
      </trkpt>
      <trkpt lat="47.12162" lon="-1.43214">
        <ele>48.62</ele>
        <time>2016-12-24T12:43:03Z</time>
      </trkpt>
      <trkpt lat="47.12166" lon="-1.43181">
        <ele>49.18</ele>
        <time>2016-12-24T12:43:07Z</time>
      </trkpt>
      <trkpt lat="47.12168" lon="-1.43153">
        <ele>49.51</ele>
        <time>2016-12-24T12:43:11Z</time>
      </trkpt>
      <trkpt lat="47.12173" lon="-1.43121">
        <ele>50.77</ele>
        <time>2016-12-24T12:43:15Z</time>
      </trkpt>
      <trkpt lat="47.1218" lon="-1.43095">
        <ele>51.73</ele>
        <time>2016-12-24T12:43:18Z</time>
      </trkpt>
      <trkpt lat="47.12191" lon="-1.43064">
        <ele>52.45</ele>
        <time>2016-12-24T12:43:22Z</time>
      </trkpt>
      <trkpt lat="47.12202" lon="-1.43041">
        <ele>51.76</ele>
        <time>2016-12-24T12:43:25Z</time>
      </trkpt>
      <trkpt lat="47.12213" lon="-1.43019">
        <ele>51.24</ele>
        <time>2016-12-24T12:43:28Z</time>
      </trkpt>
      <trkpt lat="47.12226" lon="-1.42991">
        <ele>49.55</ele>
        <time>2016-12-24T12:43:32Z</time>
      </trkpt>
      <trkpt lat="47.12238" lon="-1.4297">
        <ele>48.19</ele>
        <time>2016-12-24T12:43:35Z</time>
      </trkpt>
      <trkpt lat="47.12251" lon="-1.42941">
        <ele>48.88</ele>
        <time>2016-12-24T12:43:39Z</time>
      </trkpt>
      <trkpt lat="47.12259" lon="-1.42916">
        <ele>49.32</ele>
        <time>2016-12-24T12:43:42Z</time>
      </trkpt>
      <trkpt lat="47.12266" lon="-1.42883">
        <ele>50.18</ele>
        <time>2016-12-24T12:43:46Z</time>
      </trkpt>
      <trkpt lat="47.1227" lon="-1.42857">
        <ele>50.73</ele>
        <time>2016-12-24T12:43:49Z</time>
      </trkpt>
      <trkpt lat="47.12273" lon="-1.4283">
        <ele>51.79</ele>
        <time>2016-12-24T12:43:52Z</time>
      </trkpt>
      <trkpt lat="47.12276" lon="-1.42802">
        <ele>52.18</ele>
        <time>2016-12-24T12:43:55Z</time>
      </trkpt>
      <trkpt lat="47.12279" lon="-1.42776">
        <ele>52.13</ele>
        <time>2016-12-24T12:43:58Z</time>
      </trkpt>
      <trkpt lat="47.12282" lon="-1.4275">
        <ele>53.17</ele>
        <time>2016-12-24T12:44:01Z</time>
      </trkpt>
      <trkpt lat="47.12285" lon="-1.42721">
        <ele>52.65</ele>
        <time>2016-12-24T12:44:04Z</time>
      </trkpt>
      <trkpt lat="47.12289" lon="-1.42695">
        <ele>53.41</ele>
        <time>2016-12-24T12:44:07Z</time>
      </trkpt>
      <trkpt lat="47.12293" lon="-1.42668">
        <ele>53.84</ele>
        <time>2016-12-24T12:44:10Z</time>
      </trkpt>
      <trkpt lat="47.12297" lon="-1.42638">
        <ele>52.3</ele>
        <time>2016-12-24T12:44:13Z</time>
      </trkpt>
      <trkpt lat="47.12302" lon="-1.42612">
        <ele>52.3</ele>
        <time>2016-12-24T12:44:16Z</time>
      </trkpt>
      <trkpt lat="47.12313" lon="-1.42589">
        <ele>53.27</ele>
        <time>2016-12-24T12:44:19Z</time>
      </trkpt>
      <trkpt lat="47.12329" lon="-1.42572">
        <ele>53.51</ele>
        <time>2016-12-24T12:44:22Z</time>
      </trkpt>
      <trkpt lat="47.12346" lon="-1.42559">
        <ele>53.93</ele>
        <time>2016-12-24T12:44:25Z</time>
      </trkpt>
      <trkpt lat="47.12368" lon="-1.42542">
        <ele>54.67</ele>
        <time>2016-12-24T12:44:29Z</time>
      </trkpt>
      <trkpt lat="47.12386" lon="-1.42529">
        <ele>55.85</ele>
        <time>2016-12-24T12:44:32Z</time>
      </trkpt>
      <trkpt lat="47.12397" lon="-1.42507">
        <ele>56.58</ele>
        <time>2016-12-24T12:44:35Z</time>
      </trkpt>
      <trkpt lat="47.12396" lon="-1.42479">
        <ele>56.88</ele>
        <time>2016-12-24T12:44:38Z</time>
      </trkpt>
      <trkpt lat="47.12395" lon="-1.42452">
        <ele>57.63</ele>
        <time>2016-12-24T12:44:41Z</time>
      </trkpt>
      <trkpt lat="47.12394" lon="-1.42425">
        <ele>56.93</ele>
        <time>2016-12-24T12:44:44Z</time>
      </trkpt>
      <trkpt lat="47.124" lon="-1.42392">
        <ele>56.8</ele>
        <time>2016-12-24T12:44:48Z</time>
      </trkpt>
      <trkpt lat="47.12412" lon="-1.42373">
        <ele>56.54</ele>
        <time>2016-12-24T12:44:51Z</time>
      </trkpt>
      <trkpt lat="47.12432" lon="-1.42364">
        <ele>57.67</ele>
        <time>2016-12-24T12:44:55Z</time>
      </trkpt>
      <trkpt lat="47.12453" lon="-1.42381">
        <ele>58.6</ele>
        <time>2016-12-24T12:44:59Z</time>
      </trkpt>
      <trkpt lat="47.12472" lon="-1.42376">
        <ele>58.95</ele>
        <time>2016-12-24T12:45:02Z</time>
      </trkpt>
      <trkpt lat="47.12495" lon="-1.42363">
        <ele>61.79</ele>
        <time>2016-12-24T12:45:06Z</time>
      </trkpt>
      <trkpt lat="47.12512" lon="-1.4235">
        <ele>63.14</ele>
        <time>2016-12-24T12:45:09Z</time>
      </trkpt>
      <trkpt lat="47.12529" lon="-1.42339">
        <ele>61.84</ele>
        <time>2016-12-24T12:45:12Z</time>
      </trkpt>
      <trkpt lat="47.12547" lon="-1.42332">
        <ele>59.71</ele>
        <time>2016-12-24T12:45:15Z</time>
      </trkpt>
      <trkpt lat="47.12564" lon="-1.42322">
        <ele>57.26</ele>
        <time>2016-12-24T12:45:18Z</time>
      </trkpt>
      <trkpt lat="47.12581" lon="-1.42312">
        <ele>56.7</ele>
        <time>2016-12-24T12:45:21Z</time>
      </trkpt>
      <trkpt lat="47.12598" lon="-1.42299">
        <ele>56.82</ele>
        <time>2016-12-24T12:45:24Z</time>
      </trkpt>
      <trkpt lat="47.12615" lon="-1.42286">
        <ele>57.54</ele>
        <time>2016-12-24T12:45:27Z</time>
      </trkpt>
      <trkpt lat="47.12633" lon="-1.42271">
        <ele>58.03</ele>
        <time>2016-12-24T12:45:30Z</time>
      </trkpt>
      <trkpt lat="47.1265" lon="-1.42257">
        <ele>57.47</ele>
        <time>2016-12-24T12:45:33Z</time>
      </trkpt>
      <trkpt lat="47.12672" lon="-1.4225">
        <ele>57.25</ele>
        <time>2016-12-24T12:45:36Z</time>
      </trkpt>
      <trkpt lat="47.12693" lon="-1.42242">
        <ele>56.45</ele>
        <time>2016-12-24T12:45:39Z</time>
      </trkpt>
      <trkpt lat="47.12715" lon="-1.42232">
        <ele>55.49</ele>
        <time>2016-12-24T12:45:43Z</time>
      </trkpt>
      <trkpt lat="47.12719" lon="-1.42266">
        <ele>55.8</ele>
        <time>2016-12-24T12:45:47Z</time>
      </trkpt>
      <trkpt lat="47.12718" lon="-1.42295">
        <ele>56.89</ele>
        <time>2016-12-24T12:45:50Z</time>
      </trkpt>
      <trkpt lat="47.12724" lon="-1.4233">
        <ele>56.1</ele>
        <time>2016-12-24T12:45:54Z</time>
      </trkpt>
      <trkpt lat="47.12734" lon="-1.42361">
        <ele>54.52</ele>
        <time>2016-12-24T12:45:58Z</time>
      </trkpt>
      <trkpt lat="47.12746" lon="-1.42391">
        <ele>53.88</ele>
        <time>2016-12-24T12:46:03Z</time>
      </trkpt>
      <trkpt lat="47.12759" lon="-1.42417">
        <ele>55.78</ele>
        <time>2016-12-24T12:46:07Z</time>
      </trkpt>
      <trkpt lat="47.12771" lon="-1.42438">
        <ele>55.58</ele>
        <time>2016-12-24T12:46:10Z</time>
      </trkpt>
      <trkpt lat="47.12783" lon="-1.42462">
        <ele>53.86</ele>
        <time>2016-12-24T12:46:13Z</time>
      </trkpt>
      <trkpt lat="47.12797" lon="-1.42487">
        <ele>52.96</ele>
        <time>2016-12-24T12:46:17Z</time>
      </trkpt>
      <trkpt lat="47.12813" lon="-1.42516">
        <ele>52.25</ele>
        <time>2016-12-24T12:46:21Z</time>
      </trkpt>
      <trkpt lat="47.12826" lon="-1.42544">
        <ele>51.56</ele>
        <time>2016-12-24T12:46:25Z</time>
      </trkpt>
      <trkpt lat="47.12838" lon="-1.42573">
        <ele>52.87</ele>
        <time>2016-12-24T12:46:29Z</time>
      </trkpt>
      <trkpt lat="47.12847" lon="-1.42601">
        <ele>53.92</ele>
        <time>2016-12-24T12:46:33Z</time>
      </trkpt>
      <trkpt lat="47.12856" lon="-1.42626">
        <ele>53.59</ele>
        <time>2016-12-24T12:46:36Z</time>
      </trkpt>
      <trkpt lat="47.12864" lon="-1.42655">
        <ele>53.33</ele>
        <time>2016-12-24T12:46:40Z</time>
      </trkpt>
      <trkpt lat="47.12873" lon="-1.42684">
        <ele>53.82</ele>
        <time>2016-12-24T12:46:44Z</time>
      </trkpt>
      <trkpt lat="47.1288" lon="-1.42711">
        <ele>53.8</ele>
        <time>2016-12-24T12:46:48Z</time>
      </trkpt>
      <trkpt lat="47.1289" lon="-1.42742">
        <ele>54.5</ele>
        <time>2016-12-24T12:46:52Z</time>
      </trkpt>
      <trkpt lat="47.12898" lon="-1.42771">
        <ele>55.69</ele>
        <time>2016-12-24T12:46:56Z</time>
      </trkpt>
      <trkpt lat="47.12906" lon="-1.428">
        <ele>55.4</ele>
        <time>2016-12-24T12:47:00Z</time>
      </trkpt>
      <trkpt lat="47.12916" lon="-1.42829">
        <ele>54.61</ele>
        <time>2016-12-24T12:47:04Z</time>
      </trkpt>
      <trkpt lat="47.12923" lon="-1.42853">
        <ele>55.84</ele>
        <time>2016-12-24T12:47:08Z</time>
      </trkpt>
      <trkpt lat="47.12932" lon="-1.4288">
        <ele>57.36</ele>
        <time>2016-12-24T12:47:11Z</time>
      </trkpt>
      <trkpt lat="47.1294" lon="-1.42908">
        <ele>57.5</ele>
        <time>2016-12-24T12:47:15Z</time>
      </trkpt>
      <trkpt lat="47.12951" lon="-1.42933">
        <ele>54.91</ele>
        <time>2016-12-24T12:47:19Z</time>
      </trkpt>
      <trkpt lat="47.12963" lon="-1.42958">
        <ele>55.31</ele>
        <time>2016-12-24T12:47:23Z</time>
      </trkpt>
      <trkpt lat="47.12976" lon="-1.42984">
        <ele>56.06</ele>
        <time>2016-12-24T12:47:27Z</time>
      </trkpt>
      <trkpt lat="47.12987" lon="-1.43006">
        <ele>54.45</ele>
        <time>2016-12-24T12:47:30Z</time>
      </trkpt>
      <trkpt lat="47.13" lon="-1.43031">
        <ele>54.37</ele>
        <time>2016-12-24T12:47:34Z</time>
      </trkpt>
      <trkpt lat="47.13014" lon="-1.43059">
        <ele>53.54</ele>
        <time>2016-12-24T12:47:38Z</time>
      </trkpt>
      <trkpt lat="47.13028" lon="-1.43084">
        <ele>53.27</ele>
        <time>2016-12-24T12:47:42Z</time>
      </trkpt>
      <trkpt lat="47.1304" lon="-1.43114">
        <ele>53.36</ele>
        <time>2016-12-24T12:47:46Z</time>
      </trkpt>
      <trkpt lat="47.13052" lon="-1.43143">
        <ele>51.67</ele>
        <time>2016-12-24T12:47:50Z</time>
      </trkpt>
      <trkpt lat="47.13063" lon="-1.43174">
        <ele>53.67</ele>
        <time>2016-12-24T12:47:54Z</time>
      </trkpt>
      <trkpt lat="47.13074" lon="-1.43205">
        <ele>54.33</ele>
        <time>2016-12-24T12:47:58Z</time>
      </trkpt>
      <trkpt lat="47.13084" lon="-1.43233">
        <ele>52.86</ele>
        <time>2016-12-24T12:48:02Z</time>
      </trkpt>
      <trkpt lat="47.13095" lon="-1.43263">
        <ele>51.81</ele>
        <time>2016-12-24T12:48:06Z</time>
      </trkpt>
      <trkpt lat="47.13105" lon="-1.43287">
        <ele>51.08</ele>
        <time>2016-12-24T12:48:09Z</time>
      </trkpt>
      <trkpt lat="47.13117" lon="-1.4332">
        <ele>49.52</ele>
        <time>2016-12-24T12:48:13Z</time>
      </trkpt>
      <trkpt lat="47.13127" lon="-1.43345">
        <ele>48.79</ele>
        <time>2016-12-24T12:48:16Z</time>
      </trkpt>
      <trkpt lat="47.1314" lon="-1.43368">
        <ele>48.63</ele>
        <time>2016-12-24T12:48:19Z</time>
      </trkpt>
      <trkpt lat="47.13153" lon="-1.43389">
        <ele>48.05</ele>
        <time>2016-12-24T12:48:22Z</time>
      </trkpt>
      <trkpt lat="47.13168" lon="-1.43411">
        <ele>48.1</ele>
        <time>2016-12-24T12:48:25Z</time>
      </trkpt>
      <trkpt lat="47.13182" lon="-1.43433">
        <ele>47.02</ele>
        <time>2016-12-24T12:48:28Z</time>
      </trkpt>
      <trkpt lat="47.13197" lon="-1.43456">
        <ele>45.89</ele>
        <time>2016-12-24T12:48:31Z</time>
      </trkpt>
      <trkpt lat="47.13214" lon="-1.4348">
        <ele>44.77</ele>
        <time>2016-12-24T12:48:35Z</time>
      </trkpt>
      <trkpt lat="47.1323" lon="-1.43498">
        <ele>44</ele>
        <time>2016-12-24T12:48:38Z</time>
      </trkpt>
      <trkpt lat="47.13246" lon="-1.43512">
        <ele>42.65</ele>
        <time>2016-12-24T12:48:41Z</time>
      </trkpt>
      <trkpt lat="47.13265" lon="-1.43533">
        <ele>43.83</ele>
        <time>2016-12-24T12:48:45Z</time>
      </trkpt>
      <trkpt lat="47.13278" lon="-1.43558">
        <ele>45.4</ele>
        <time>2016-12-24T12:48:49Z</time>
      </trkpt>
      <trkpt lat="47.1329" lon="-1.43584">
        <ele>47.71</ele>
        <time>2016-12-24T12:48:53Z</time>
      </trkpt>
      <trkpt lat="47.13303" lon="-1.43612">
        <ele>47.73</ele>
        <time>2016-12-24T12:48:57Z</time>
      </trkpt>
      <trkpt lat="47.13315" lon="-1.4364">
        <ele>48.47</ele>
        <time>2016-12-24T12:49:01Z</time>
      </trkpt>
      <trkpt lat="47.13326" lon="-1.43663">
        <ele>47.92</ele>
        <time>2016-12-24T12:49:04Z</time>
      </trkpt>
      <trkpt lat="47.13338" lon="-1.43682">
        <ele>48.12</ele>
        <time>2016-12-24T12:49:07Z</time>
      </trkpt>
      <trkpt lat="47.13354" lon="-1.43698">
        <ele>49.17</ele>
        <time>2016-12-24T12:49:11Z</time>
      </trkpt>
      <trkpt lat="47.13373" lon="-1.43718">
        <ele>48.33</ele>
        <time>2016-12-24T12:49:15Z</time>
      </trkpt>
      <trkpt lat="47.1339" lon="-1.43735">
        <ele>50.77</ele>
        <time>2016-12-24T12:49:19Z</time>
      </trkpt>
      <trkpt lat="47.13407" lon="-1.43754">
        <ele>51.65</ele>
        <time>2016-12-24T12:49:23Z</time>
      </trkpt>
      <trkpt lat="47.13423" lon="-1.43775">
        <ele>51.75</ele>
        <time>2016-12-24T12:49:27Z</time>
      </trkpt>
      <trkpt lat="47.13436" lon="-1.43798">
        <ele>50.49</ele>
        <time>2016-12-24T12:49:31Z</time>
      </trkpt>
      <trkpt lat="47.13447" lon="-1.43822">
        <ele>50.31</ele>
        <time>2016-12-24T12:49:34Z</time>
      </trkpt>
      <trkpt lat="47.13459" lon="-1.4385">
        <ele>48.87</ele>
        <time>2016-12-24T12:49:38Z</time>
      </trkpt>
      <trkpt lat="47.13469" lon="-1.4388">
        <ele>49.25</ele>
        <time>2016-12-24T12:49:42Z</time>
      </trkpt>
      <trkpt lat="47.13475" lon="-1.43914">
        <ele>46.91</ele>
        <time>2016-12-24T12:49:46Z</time>
      </trkpt>
      <trkpt lat="47.1348" lon="-1.4394">
        <ele>44.43</ele>
        <time>2016-12-24T12:49:49Z</time>
      </trkpt>
      <trkpt lat="47.13484" lon="-1.43966">
        <ele>44.1</ele>
        <time>2016-12-24T12:49:52Z</time>
      </trkpt>
      <trkpt lat="47.13489" lon="-1.43994">
        <ele>44.8</ele>
        <time>2016-12-24T12:49:55Z</time>
      </trkpt>
      <trkpt lat="47.13495" lon="-1.44024">
        <ele>43.88</ele>
        <time>2016-12-24T12:49:58Z</time>
      </trkpt>
      <trkpt lat="47.135" lon="-1.44053">
        <ele>42.11</ele>
        <time>2016-12-24T12:50:01Z</time>
      </trkpt>
      <trkpt lat="47.13507" lon="-1.44084">
        <ele>39.82</ele>
        <time>2016-12-24T12:50:04Z</time>
      </trkpt>
      <trkpt lat="47.13513" lon="-1.44117">
        <ele>37.03</ele>
        <time>2016-12-24T12:50:07Z</time>
      </trkpt>
      <trkpt lat="47.1352" lon="-1.44143">
        <ele>35.97</ele>
        <time>2016-12-24T12:50:10Z</time>
      </trkpt>
      <trkpt lat="47.13533" lon="-1.44166">
        <ele>36.58</ele>
        <time>2016-12-24T12:50:13Z</time>
      </trkpt>
      <trkpt lat="47.13549" lon="-1.44184">
        <ele>38.78</ele>
        <time>2016-12-24T12:50:16Z</time>
      </trkpt>
      <trkpt lat="47.13572" lon="-1.44197">
        <ele>40.35</ele>
        <time>2016-12-24T12:50:19Z</time>
      </trkpt>
      <trkpt lat="47.13592" lon="-1.44207">
        <ele>40.21</ele>
        <time>2016-12-24T12:50:22Z</time>
      </trkpt>
      <trkpt lat="47.13612" lon="-1.44217">
        <ele>39.68</ele>
        <time>2016-12-24T12:50:25Z</time>
      </trkpt>
      <trkpt lat="47.13632" lon="-1.4423">
        <ele>39.65</ele>
        <time>2016-12-24T12:50:28Z</time>
      </trkpt>
      <trkpt lat="47.13651" lon="-1.44247">
        <ele>38.85</ele>
        <time>2016-12-24T12:50:31Z</time>
      </trkpt>
      <trkpt lat="47.13668" lon="-1.44272">
        <ele>38.13</ele>
        <time>2016-12-24T12:50:35Z</time>
      </trkpt>
      <trkpt lat="47.1368" lon="-1.44296">
        <ele>36.76</ele>
        <time>2016-12-24T12:50:40Z</time>
      </trkpt>
      <trkpt lat="47.13692" lon="-1.44322">
        <ele>38.01</ele>
        <time>2016-12-24T12:50:44Z</time>
      </trkpt>
      <trkpt lat="47.13705" lon="-1.44346">
        <ele>39.3</ele>
        <time>2016-12-24T12:50:48Z</time>
      </trkpt>
      <trkpt lat="47.13718" lon="-1.44373">
        <ele>39.29</ele>
        <time>2016-12-24T12:50:52Z</time>
      </trkpt>
      <trkpt lat="47.1373" lon="-1.44398">
        <ele>40.26</ele>
        <time>2016-12-24T12:50:57Z</time>
      </trkpt>
      <trkpt lat="47.13742" lon="-1.44425">
        <ele>40.51</ele>
        <time>2016-12-24T12:51:02Z</time>
      </trkpt>
      <trkpt lat="47.13753" lon="-1.44454">
        <ele>42.1</ele>
        <time>2016-12-24T12:51:07Z</time>
      </trkpt>
      <trkpt lat="47.1376" lon="-1.44479">
        <ele>43.82</ele>
        <time>2016-12-24T12:51:11Z</time>
      </trkpt>
      <trkpt lat="47.13767" lon="-1.44506">
        <ele>43.77</ele>
        <time>2016-12-24T12:51:15Z</time>
      </trkpt>
      <trkpt lat="47.13773" lon="-1.44532">
        <ele>45.28</ele>
        <time>2016-12-24T12:51:19Z</time>
      </trkpt>
      <trkpt lat="47.1378" lon="-1.44564">
        <ele>46.59</ele>
        <time>2016-12-24T12:51:24Z</time>
      </trkpt>
      <trkpt lat="47.13787" lon="-1.44595">
        <ele>47.11</ele>
        <time>2016-12-24T12:51:29Z</time>
      </trkpt>
      <trkpt lat="47.13792" lon="-1.44621">
        <ele>46.25</ele>
        <time>2016-12-24T12:51:33Z</time>
      </trkpt>
      <trkpt lat="47.13799" lon="-1.44649">
        <ele>44</ele>
        <time>2016-12-24T12:51:37Z</time>
      </trkpt>
      <trkpt lat="47.13808" lon="-1.44677">
        <ele>45.47</ele>
        <time>2016-12-24T12:51:41Z</time>
      </trkpt>
      <trkpt lat="47.13815" lon="-1.44702">
        <ele>45.61</ele>
        <time>2016-12-24T12:51:45Z</time>
      </trkpt>
      <trkpt lat="47.13823" lon="-1.44726">
        <ele>44.07</ele>
        <time>2016-12-24T12:51:48Z</time>
      </trkpt>
      <trkpt lat="47.13837" lon="-1.44752">
        <ele>42.71</ele>
        <time>2016-12-24T12:51:52Z</time>
      </trkpt>
      <trkpt lat="47.1385" lon="-1.44776">
        <ele>40.77</ele>
        <time>2016-12-24T12:51:55Z</time>
      </trkpt>
      <trkpt lat="47.13865" lon="-1.44801">
        <ele>41.7</ele>
        <time>2016-12-24T12:51:59Z</time>
      </trkpt>
      <trkpt lat="47.13877" lon="-1.44823">
        <ele>43.67</ele>
        <time>2016-12-24T12:52:02Z</time>
      </trkpt>
      <trkpt lat="47.13892" lon="-1.44852">
        <ele>43.54</ele>
        <time>2016-12-24T12:52:06Z</time>
      </trkpt>
      <trkpt lat="47.13903" lon="-1.44877">
        <ele>42.5</ele>
        <time>2016-12-24T12:52:09Z</time>
      </trkpt>
      <trkpt lat="47.13912" lon="-1.44908">
        <ele>42.28</ele>
        <time>2016-12-24T12:52:12Z</time>
      </trkpt>
      <trkpt lat="47.13918" lon="-1.44936">
        <ele>42.55</ele>
        <time>2016-12-24T12:52:15Z</time>
      </trkpt>
      <trkpt lat="47.13924" lon="-1.4497">
        <ele>42.11</ele>
        <time>2016-12-24T12:52:18Z</time>
      </trkpt>
      <trkpt lat="47.1393" lon="-1.45002">
        <ele>38.43</ele>
        <time>2016-12-24T12:52:21Z</time>
      </trkpt>
      <trkpt lat="47.13935" lon="-1.45033">
        <ele>35.88</ele>
        <time>2016-12-24T12:52:24Z</time>
      </trkpt>
      <trkpt lat="47.13941" lon="-1.45065">
        <ele>33.31</ele>
        <time>2016-12-24T12:52:27Z</time>
      </trkpt>
      <trkpt lat="47.13948" lon="-1.45098">
        <ele>32.61</ele>
        <time>2016-12-24T12:52:30Z</time>
      </trkpt>
      <trkpt lat="47.13952" lon="-1.45124">
        <ele>32.2</ele>
        <time>2016-12-24T12:52:33Z</time>
      </trkpt>
      <trkpt lat="47.13957" lon="-1.45152">
        <ele>30.84</ele>
        <time>2016-12-24T12:52:36Z</time>
      </trkpt>
      <trkpt lat="47.13963" lon="-1.45182">
        <ele>30.82</ele>
        <time>2016-12-24T12:52:39Z</time>
      </trkpt>
      <trkpt lat="47.13969" lon="-1.45212">
        <ele>30.53</ele>
        <time>2016-12-24T12:52:42Z</time>
      </trkpt>
      <trkpt lat="47.13974" lon="-1.45239">
        <ele>29.3</ele>
        <time>2016-12-24T12:52:45Z</time>
      </trkpt>
      <trkpt lat="47.13978" lon="-1.45266">
        <ele>28.84</ele>
        <time>2016-12-24T12:52:48Z</time>
      </trkpt>
      <trkpt lat="47.13987" lon="-1.45299">
        <ele>30.33</ele>
        <time>2016-12-24T12:52:52Z</time>
      </trkpt>
      <trkpt lat="47.13995" lon="-1.45324">
        <ele>29.99</ele>
        <time>2016-12-24T12:52:55Z</time>
      </trkpt>
      <trkpt lat="47.14005" lon="-1.45347">
        <ele>31.61</ele>
        <time>2016-12-24T12:52:58Z</time>
      </trkpt>
      <trkpt lat="47.14018" lon="-1.45373">
        <ele>33.26</ele>
        <time>2016-12-24T12:53:01Z</time>
      </trkpt>
      <trkpt lat="47.14029" lon="-1.45394">
        <ele>34.7</ele>
        <time>2016-12-24T12:53:04Z</time>
      </trkpt>
      <trkpt lat="47.1404" lon="-1.45416">
        <ele>34.42</ele>
        <time>2016-12-24T12:53:07Z</time>
      </trkpt>
      <trkpt lat="47.14052" lon="-1.4544">
        <ele>34.52</ele>
        <time>2016-12-24T12:53:10Z</time>
      </trkpt>
      <trkpt lat="47.14064" lon="-1.45464">
        <ele>33.07</ele>
        <time>2016-12-24T12:53:13Z</time>
      </trkpt>
      <trkpt lat="47.14075" lon="-1.45487">
        <ele>32.53</ele>
        <time>2016-12-24T12:53:16Z</time>
      </trkpt>
      <trkpt lat="47.14086" lon="-1.45508">
        <ele>31</ele>
        <time>2016-12-24T12:53:19Z</time>
      </trkpt>
      <trkpt lat="47.14098" lon="-1.45534">
        <ele>30.89</ele>
        <time>2016-12-24T12:53:22Z</time>
      </trkpt>
      <trkpt lat="47.14112" lon="-1.45561">
        <ele>30.96</ele>
        <time>2016-12-24T12:53:26Z</time>
      </trkpt>
      <trkpt lat="47.14123" lon="-1.45584">
        <ele>31.08</ele>
        <time>2016-12-24T12:53:29Z</time>
      </trkpt>
      <trkpt lat="47.14134" lon="-1.45607">
        <ele>31.08</ele>
        <time>2016-12-24T12:53:32Z</time>
      </trkpt>
      <trkpt lat="47.14146" lon="-1.45629">
        <ele>31.7</ele>
        <time>2016-12-24T12:53:35Z</time>
      </trkpt>
      <trkpt lat="47.1416" lon="-1.45649">
        <ele>31.65</ele>
        <time>2016-12-24T12:53:38Z</time>
      </trkpt>
      <trkpt lat="47.14178" lon="-1.4567">
        <ele>31.74</ele>
        <time>2016-12-24T12:53:42Z</time>
      </trkpt>
      <trkpt lat="47.14194" lon="-1.45685">
        <ele>34.22</ele>
        <time>2016-12-24T12:53:45Z</time>
      </trkpt>
      <trkpt lat="47.14211" lon="-1.45695">
        <ele>34.37</ele>
        <time>2016-12-24T12:53:48Z</time>
      </trkpt>
      <trkpt lat="47.1423" lon="-1.45702">
        <ele>34.24</ele>
        <time>2016-12-24T12:53:51Z</time>
      </trkpt>
      <trkpt lat="47.14249" lon="-1.45704">
        <ele>33.49</ele>
        <time>2016-12-24T12:53:54Z</time>
      </trkpt>
      <trkpt lat="47.1427" lon="-1.45702">
        <ele>33.27</ele>
        <time>2016-12-24T12:53:57Z</time>
      </trkpt>
      <trkpt lat="47.1429" lon="-1.45699">
        <ele>32.98</ele>
        <time>2016-12-24T12:54:00Z</time>
      </trkpt>
      <trkpt lat="47.14309" lon="-1.45694">
        <ele>31.78</ele>
        <time>2016-12-24T12:54:03Z</time>
      </trkpt>
      <trkpt lat="47.14328" lon="-1.4569">
        <ele>32</ele>
        <time>2016-12-24T12:54:06Z</time>
      </trkpt>
      <trkpt lat="47.14346" lon="-1.45686">
        <ele>33.74</ele>
        <time>2016-12-24T12:54:09Z</time>
      </trkpt>
      <trkpt lat="47.14366" lon="-1.45682">
        <ele>34.4</ele>
        <time>2016-12-24T12:54:12Z</time>
      </trkpt>
      <trkpt lat="47.14386" lon="-1.45681">
        <ele>32.77</ele>
        <time>2016-12-24T12:54:15Z</time>
      </trkpt>
      <trkpt lat="47.14404" lon="-1.45682">
        <ele>31.93</ele>
        <time>2016-12-24T12:54:18Z</time>
      </trkpt>
      <trkpt lat="47.14424" lon="-1.45688">
        <ele>30.92</ele>
        <time>2016-12-24T12:54:21Z</time>
      </trkpt>
      <trkpt lat="47.14443" lon="-1.45699">
        <ele>31.7</ele>
        <time>2016-12-24T12:54:24Z</time>
      </trkpt>
      <trkpt lat="47.1446" lon="-1.45715">
        <ele>31.8</ele>
        <time>2016-12-24T12:54:27Z</time>
      </trkpt>
      <trkpt lat="47.14477" lon="-1.45737">
        <ele>31.31</ele>
        <time>2016-12-24T12:54:30Z</time>
      </trkpt>
      <trkpt lat="47.14491" lon="-1.45759">
        <ele>29.37</ele>
        <time>2016-12-24T12:54:33Z</time>
      </trkpt>
      <trkpt lat="47.14505" lon="-1.45783">
        <ele>27.95</ele>
        <time>2016-12-24T12:54:36Z</time>
      </trkpt>
      <trkpt lat="47.14521" lon="-1.45807">
        <ele>25.89</ele>
        <time>2016-12-24T12:54:39Z</time>
      </trkpt>
      <trkpt lat="47.14537" lon="-1.45832">
        <ele>24.54</ele>
        <time>2016-12-24T12:54:42Z</time>
      </trkpt>
      <trkpt lat="47.14551" lon="-1.4585">
        <ele>23.62</ele>
        <time>2016-12-24T12:54:45Z</time>
      </trkpt>
      <trkpt lat="47.14565" lon="-1.45871">
        <ele>22.66</ele>
        <time>2016-12-24T12:54:48Z</time>
      </trkpt>
      <trkpt lat="47.14579" lon="-1.45893">
        <ele>26.63</ele>
        <time>2016-12-24T12:54:52Z</time>
      </trkpt>
      <trkpt lat="47.14591" lon="-1.45913">
        <ele>28.05</ele>
        <time>2016-12-24T12:54:55Z</time>
      </trkpt>
      <trkpt lat="47.14608" lon="-1.45931">
        <ele>30.44</ele>
        <time>2016-12-24T12:54:59Z</time>
      </trkpt>
      <trkpt lat="47.14628" lon="-1.45946">
        <ele>34.15</ele>
        <time>2016-12-24T12:55:03Z</time>
      </trkpt>
      <trkpt lat="47.14646" lon="-1.4595">
        <ele>35.54</ele>
        <time>2016-12-24T12:55:06Z</time>
      </trkpt>
      <trkpt lat="47.1467" lon="-1.45949">
        <ele>35.12</ele>
        <time>2016-12-24T12:55:10Z</time>
      </trkpt>
      <trkpt lat="47.14692" lon="-1.45945">
        <ele>35.41</ele>
        <time>2016-12-24T12:55:14Z</time>
      </trkpt>
      <trkpt lat="47.14715" lon="-1.45942">
        <ele>36.02</ele>
        <time>2016-12-24T12:55:18Z</time>
      </trkpt>
      <trkpt lat="47.14737" lon="-1.45939">
        <ele>37.35</ele>
        <time>2016-12-24T12:55:22Z</time>
      </trkpt>
      <trkpt lat="47.14756" lon="-1.45937">
        <ele>35.92</ele>
        <time>2016-12-24T12:55:25Z</time>
      </trkpt>
      <trkpt lat="47.14779" lon="-1.45937">
        <ele>35.89</ele>
        <time>2016-12-24T12:55:28Z</time>
      </trkpt>
      <trkpt lat="47.14804" lon="-1.45934">
        <ele>33.73</ele>
        <time>2016-12-24T12:55:31Z</time>
      </trkpt>
      <trkpt lat="47.14829" lon="-1.45932">
        <ele>31.95</ele>
        <time>2016-12-24T12:55:34Z</time>
      </trkpt>
      <trkpt lat="47.14855" lon="-1.45928">
        <ele>30.46</ele>
        <time>2016-12-24T12:55:37Z</time>
      </trkpt>
      <trkpt lat="47.14882" lon="-1.45926">
        <ele>29.33</ele>
        <time>2016-12-24T12:55:40Z</time>
      </trkpt>
      <trkpt lat="47.14901" lon="-1.45931">
        <ele>27.83</ele>
        <time>2016-12-24T12:55:42Z</time>
      </trkpt>
      <trkpt lat="47.14918" lon="-1.45944">
        <ele>26.08</ele>
        <time>2016-12-24T12:55:44Z</time>
      </trkpt>
      <trkpt lat="47.1493" lon="-1.45969">
        <ele>24.46</ele>
        <time>2016-12-24T12:55:46Z</time>
      </trkpt>
      <trkpt lat="47.1494" lon="-1.45994">
        <ele>22.94</ele>
        <time>2016-12-24T12:55:48Z</time>
      </trkpt>
      <trkpt lat="47.14948" lon="-1.46031">
        <ele>18.67</ele>
        <time>2016-12-24T12:55:51Z</time>
      </trkpt>
      <trkpt lat="47.14954" lon="-1.46058">
        <ele>16.18</ele>
        <time>2016-12-24T12:55:53Z</time>
      </trkpt>
      <trkpt lat="47.14958" lon="-1.46085">
        <ele>15.23</ele>
        <time>2016-12-24T12:55:55Z</time>
      </trkpt>
      <trkpt lat="47.14962" lon="-1.46121">
        <ele>15.8</ele>
        <time>2016-12-24T12:55:58Z</time>
      </trkpt>
      <trkpt lat="47.14964" lon="-1.4616">
        <ele>14.56</ele>
        <time>2016-12-24T12:56:01Z</time>
      </trkpt>
      <trkpt lat="47.14963" lon="-1.46195">
        <ele>12.94</ele>
        <time>2016-12-24T12:56:04Z</time>
      </trkpt>
      <trkpt lat="47.14961" lon="-1.46231">
        <ele>11.56</ele>
        <time>2016-12-24T12:56:07Z</time>
      </trkpt>
      <trkpt lat="47.14963" lon="-1.4627">
        <ele>10.67</ele>
        <time>2016-12-24T12:56:10Z</time>
      </trkpt>
      <trkpt lat="47.14967" lon="-1.46306">
        <ele>7.28</ele>
        <time>2016-12-24T12:56:13Z</time>
      </trkpt>
      <trkpt lat="47.1497" lon="-1.46344">
        <ele>5.21</ele>
        <time>2016-12-24T12:56:16Z</time>
      </trkpt>
      <trkpt lat="47.1497" lon="-1.46376">
        <ele>4.08</ele>
        <time>2016-12-24T12:56:19Z</time>
      </trkpt>
      <trkpt lat="47.14968" lon="-1.46403">
        <ele>3.9</ele>
        <time>2016-12-24T12:56:22Z</time>
      </trkpt>
      <trkpt lat="47.14965" lon="-1.46434">
        <ele>4.46</ele>
        <time>2016-12-24T12:56:25Z</time>
      </trkpt>
      <trkpt lat="47.14958" lon="-1.46459">
        <ele>6.25</ele>
        <time>2016-12-24T12:56:28Z</time>
      </trkpt>
      <trkpt lat="47.14951" lon="-1.46487">
        <ele>5.43</ele>
        <time>2016-12-24T12:56:31Z</time>
      </trkpt>
      <trkpt lat="47.14945" lon="-1.46521">
        <ele>4.72</ele>
        <time>2016-12-24T12:56:35Z</time>
      </trkpt>
      <trkpt lat="47.14942" lon="-1.46554">
        <ele>8.32</ele>
        <time>2016-12-24T12:56:39Z</time>
      </trkpt>
      <trkpt lat="47.14945" lon="-1.46588">
        <ele>10.31</ele>
        <time>2016-12-24T12:56:44Z</time>
      </trkpt>
      <trkpt lat="47.14949" lon="-1.46619">
        <ele>11.01</ele>
        <time>2016-12-24T12:56:48Z</time>
      </trkpt>
      <trkpt lat="47.14953" lon="-1.46646">
        <ele>11.16</ele>
        <time>2016-12-24T12:56:52Z</time>
      </trkpt>
      <trkpt lat="47.14955" lon="-1.46677">
        <ele>12.58</ele>
        <time>2016-12-24T12:56:56Z</time>
      </trkpt>
      <trkpt lat="47.14953" lon="-1.46707">
        <ele>13.86</ele>
        <time>2016-12-24T12:57:00Z</time>
      </trkpt>
      <trkpt lat="47.14942" lon="-1.46737">
        <ele>11.75</ele>
        <time>2016-12-24T12:57:04Z</time>
      </trkpt>
      <trkpt lat="47.14932" lon="-1.46761">
        <ele>10.54</ele>
        <time>2016-12-24T12:57:07Z</time>
      </trkpt>
      <trkpt lat="47.14926" lon="-1.46787">
        <ele>7.57</ele>
        <time>2016-12-24T12:57:10Z</time>
      </trkpt>
      <trkpt lat="47.14923" lon="-1.46813">
        <ele>4.71</ele>
        <time>2016-12-24T12:57:13Z</time>
      </trkpt>
      <trkpt lat="47.14924" lon="-1.46849">
        <ele>2.47</ele>
        <time>2016-12-24T12:57:17Z</time>
      </trkpt>
      <trkpt lat="47.1494" lon="-1.46862">
        <ele>2.24</ele>
        <time>2016-12-24T12:57:21Z</time>
      </trkpt>
      <trkpt lat="47.14959" lon="-1.46861">
        <ele>4.49</ele>
        <time>2016-12-24T12:57:24Z</time>
      </trkpt>
      <trkpt lat="47.14978" lon="-1.46863">
        <ele>6.95</ele>
        <time>2016-12-24T12:57:27Z</time>
      </trkpt>
      <trkpt lat="47.15002" lon="-1.46863">
        <ele>8.17</ele>
        <time>2016-12-24T12:57:31Z</time>
      </trkpt>
      <trkpt lat="47.15021" lon="-1.46864">
        <ele>14.83</ele>
        <time>2016-12-24T12:57:34Z</time>
      </trkpt>
      <trkpt lat="47.1504" lon="-1.46864">
        <ele>18.34</ele>
        <time>2016-12-24T12:57:37Z</time>
      </trkpt>
      <trkpt lat="47.15058" lon="-1.46862">
        <ele>20.63</ele>
        <time>2016-12-24T12:57:40Z</time>
      </trkpt>
      <trkpt lat="47.15079" lon="-1.46858">
        <ele>20.11</ele>
        <time>2016-12-24T12:57:43Z</time>
      </trkpt>
      <trkpt lat="47.15101" lon="-1.46855">
        <ele>17.46</ele>
        <time>2016-12-24T12:57:47Z</time>
      </trkpt>
      <trkpt lat="47.15119" lon="-1.46854">
        <ele>16.68</ele>
        <time>2016-12-24T12:57:50Z</time>
      </trkpt>
      <trkpt lat="47.15138" lon="-1.46851">
        <ele>14.94</ele>
        <time>2016-12-24T12:57:53Z</time>
      </trkpt>
      <trkpt lat="47.15158" lon="-1.4685">
        <ele>15.93</ele>
        <time>2016-12-24T12:57:57Z</time>
      </trkpt>
      <trkpt lat="47.15178" lon="-1.46848">
        <ele>17.15</ele>
        <time>2016-12-24T12:58:00Z</time>
      </trkpt>
      <trkpt lat="47.152" lon="-1.46845">
        <ele>16.88</ele>
        <time>2016-12-24T12:58:03Z</time>
      </trkpt>
      <trkpt lat="47.15222" lon="-1.46842">
        <ele>15.39</ele>
        <time>2016-12-24T12:58:06Z</time>
      </trkpt>
      <trkpt lat="47.15244" lon="-1.46838">
        <ele>16.37</ele>
        <time>2016-12-24T12:58:09Z</time>
      </trkpt>
      <trkpt lat="47.15262" lon="-1.46834">
        <ele>16.48</ele>
        <time>2016-12-24T12:58:12Z</time>
      </trkpt>
      <trkpt lat="47.15282" lon="-1.46829">
        <ele>15.67</ele>
        <time>2016-12-24T12:58:15Z</time>
      </trkpt>
      <trkpt lat="47.153" lon="-1.46823">
        <ele>16.2</ele>
        <time>2016-12-24T12:58:18Z</time>
      </trkpt>
      <trkpt lat="47.1532" lon="-1.46814">
        <ele>15.39</ele>
        <time>2016-12-24T12:58:21Z</time>
      </trkpt>
      <trkpt lat="47.15338" lon="-1.46806">
        <ele>14.63</ele>
        <time>2016-12-24T12:58:24Z</time>
      </trkpt>
      <trkpt lat="47.15356" lon="-1.46797">
        <ele>14.94</ele>
        <time>2016-12-24T12:58:27Z</time>
      </trkpt>
      <trkpt lat="47.15379" lon="-1.46784">
        <ele>17.28</ele>
        <time>2016-12-24T12:58:31Z</time>
      </trkpt>
      <trkpt lat="47.15399" lon="-1.46771">
        <ele>17.19</ele>
        <time>2016-12-24T12:58:34Z</time>
      </trkpt>
      <trkpt lat="47.15416" lon="-1.4676">
        <ele>17.14</ele>
        <time>2016-12-24T12:58:37Z</time>
      </trkpt>
      <trkpt lat="47.15436" lon="-1.46745">
        <ele>15.39</ele>
        <time>2016-12-24T12:58:41Z</time>
      </trkpt>
      <trkpt lat="47.1543" lon="-1.46719">
        <ele>12.58</ele>
        <time>2016-12-24T12:58:47Z</time>
      </trkpt>
      <trkpt lat="47.15414" lon="-1.46738">
        <ele>10.95</ele>
        <time>2016-12-24T12:58:51Z</time>
      </trkpt>
      <trkpt lat="47.15396" lon="-1.46759">
        <ele>8.83</ele>
        <time>2016-12-24T12:58:55Z</time>
      </trkpt>
      <trkpt lat="47.15375" lon="-1.46769">
        <ele>7.26</ele>
        <time>2016-12-24T12:58:58Z</time>
      </trkpt>
      <trkpt lat="47.15358" lon="-1.46774">
        <ele>6.49</ele>
        <time>2016-12-24T12:59:02Z</time>
      </trkpt>
      <trkpt lat="47.15345" lon="-1.46795">
        <ele>5.51</ele>
        <time>2016-12-24T12:59:08Z</time>
      </trkpt>
      <trkpt lat="47.15351" lon="-1.46821">
        <ele>5.73</ele>
        <time>2016-12-24T12:59:12Z</time>
      </trkpt>
      <trkpt lat="47.15366" lon="-1.46841">
        <ele>3.51</ele>
        <time>2016-12-24T12:59:15Z</time>
      </trkpt>
      <trkpt lat="47.15384" lon="-1.46861">
        <ele>1.73</ele>
        <time>2016-12-24T12:59:18Z</time>
      </trkpt>
      <trkpt lat="47.154" lon="-1.46884">
        <ele>-0.3</ele>
        <time>2016-12-24T12:59:22Z</time>
      </trkpt>
      <trkpt lat="47.15411" lon="-1.46905">
        <ele>-0.73</ele>
        <time>2016-12-24T12:59:25Z</time>
      </trkpt>
      <trkpt lat="47.15429" lon="-1.46928">
        <ele>3.64</ele>
        <time>2016-12-24T12:59:29Z</time>
      </trkpt>
      <trkpt lat="47.15446" lon="-1.46951">
        <ele>6.57</ele>
        <time>2016-12-24T12:59:33Z</time>
      </trkpt>
      <trkpt lat="47.1546" lon="-1.46968">
        <ele>7.24</ele>
        <time>2016-12-24T12:59:36Z</time>
      </trkpt>
      <trkpt lat="47.15476" lon="-1.46984">
        <ele>7.51</ele>
        <time>2016-12-24T12:59:39Z</time>
      </trkpt>
      <trkpt lat="47.15496" lon="-1.47">
        <ele>5.64</ele>
        <time>2016-12-24T12:59:43Z</time>
      </trkpt>
      <trkpt lat="47.15517" lon="-1.47008">
        <ele>6.02</ele>
        <time>2016-12-24T12:59:47Z</time>
      </trkpt>
      <trkpt lat="47.15536" lon="-1.47013">
        <ele>7.9</ele>
        <time>2016-12-24T12:59:50Z</time>
      </trkpt>
      <trkpt lat="47.15558" lon="-1.4702">
        <ele>10.24</ele>
        <time>2016-12-24T12:59:54Z</time>
      </trkpt>
      <trkpt lat="47.1558" lon="-1.4703">
        <ele>11.5</ele>
        <time>2016-12-24T12:59:58Z</time>
      </trkpt>
      <trkpt lat="47.15599" lon="-1.47038">
        <ele>12.46</ele>
        <time>2016-12-24T13:00:02Z</time>
      </trkpt>
      <trkpt lat="47.15621" lon="-1.47039">
        <ele>11.42</ele>
        <time>2016-12-24T13:00:06Z</time>
      </trkpt>
      <trkpt lat="47.15642" lon="-1.47046">
        <ele>12.49</ele>
        <time>2016-12-24T13:00:10Z</time>
      </trkpt>
      <trkpt lat="47.15654" lon="-1.47068">
        <ele>10.24</ele>
        <time>2016-12-24T13:00:13Z</time>
      </trkpt>
      <trkpt lat="47.15667" lon="-1.47085">
        <ele>8.12</ele>
        <time>2016-12-24T13:00:16Z</time>
      </trkpt>
      <trkpt lat="47.15688" lon="-1.47099">
        <ele>8.85</ele>
        <time>2016-12-24T13:00:20Z</time>
      </trkpt>
      <trkpt lat="47.15706" lon="-1.47119">
        <ele>10.4</ele>
        <time>2016-12-24T13:00:24Z</time>
      </trkpt>
      <trkpt lat="47.15724" lon="-1.47142">
        <ele>11.28</ele>
        <time>2016-12-24T13:00:28Z</time>
      </trkpt>
      <trkpt lat="47.15742" lon="-1.47163">
        <ele>10.46</ele>
        <time>2016-12-24T13:00:32Z</time>
      </trkpt>
      <trkpt lat="47.15757" lon="-1.4718">
        <ele>10.07</ele>
        <time>2016-12-24T13:00:35Z</time>
      </trkpt>
      <trkpt lat="47.15775" lon="-1.47198">
        <ele>11.72</ele>
        <time>2016-12-24T13:00:39Z</time>
      </trkpt>
      <trkpt lat="47.15791" lon="-1.47217">
        <ele>12.23</ele>
        <time>2016-12-24T13:00:43Z</time>
      </trkpt>
      <trkpt lat="47.15805" lon="-1.47242">
        <ele>5.8</ele>
        <time>2016-12-24T13:00:47Z</time>
      </trkpt>
      <trkpt lat="47.15817" lon="-1.47264">
        <ele>2.27</ele>
        <time>2016-12-24T13:00:50Z</time>
      </trkpt>
      <trkpt lat="47.15826" lon="-1.47287">
        <ele>0.49</ele>
        <time>2016-12-24T13:00:53Z</time>
      </trkpt>
      <trkpt lat="47.15841" lon="-1.47315">
        <ele>1.74</ele>
        <time>2016-12-24T13:00:57Z</time>
      </trkpt>
      <trkpt lat="47.15854" lon="-1.47338">
        <ele>4.66</ele>
        <time>2016-12-24T13:01:01Z</time>
      </trkpt>
      <trkpt lat="47.15866" lon="-1.47358">
        <ele>4.49</ele>
        <time>2016-12-24T13:01:04Z</time>
      </trkpt>
      <trkpt lat="47.15882" lon="-1.47382">
        <ele>3.48</ele>
        <time>2016-12-24T13:01:08Z</time>
      </trkpt>
      <trkpt lat="47.15897" lon="-1.47405">
        <ele>1.12</ele>
        <time>2016-12-24T13:01:12Z</time>
      </trkpt>
      <trkpt lat="47.1591" lon="-1.47428">
        <ele>0.62</ele>
        <time>2016-12-24T13:01:16Z</time>
      </trkpt>
      <trkpt lat="47.15929" lon="-1.47446">
        <ele>4.26</ele>
        <time>2016-12-24T13:01:20Z</time>
      </trkpt>
      <trkpt lat="47.15947" lon="-1.47462">
        <ele>8.99</ele>
        <time>2016-12-24T13:01:24Z</time>
      </trkpt>
      <trkpt lat="47.15961" lon="-1.47478">
        <ele>10.66</ele>
        <time>2016-12-24T13:01:27Z</time>
      </trkpt>
      <trkpt lat="47.15981" lon="-1.47501">
        <ele>6.77</ele>
        <time>2016-12-24T13:01:31Z</time>
      </trkpt>
      <trkpt lat="47.15999" lon="-1.47516">
        <ele>6.11</ele>
        <time>2016-12-24T13:01:35Z</time>
      </trkpt>
      <trkpt lat="47.16012" lon="-1.47536">
        <ele>5.76</ele>
        <time>2016-12-24T13:01:42Z</time>
      </trkpt>
      <trkpt lat="47.16025" lon="-1.47557">
        <ele>4.86</ele>
        <time>2016-12-24T13:01:48Z</time>
      </trkpt>
      <trkpt lat="47.1604" lon="-1.4758">
        <ele>2.76</ele>
        <time>2016-12-24T13:01:52Z</time>
      </trkpt>
      <trkpt lat="47.16054" lon="-1.47605">
        <ele>3.1</ele>
        <time>2016-12-24T13:01:56Z</time>
      </trkpt>
      <trkpt lat="47.16065" lon="-1.47627">
        <ele>1.78</ele>
        <time>2016-12-24T13:01:59Z</time>
      </trkpt>
      <trkpt lat="47.1608" lon="-1.47655">
        <ele>1.76</ele>
        <time>2016-12-24T13:02:03Z</time>
      </trkpt>
      <trkpt lat="47.16092" lon="-1.47684">
        <ele>1.9</ele>
        <time>2016-12-24T13:02:07Z</time>
      </trkpt>
      <trkpt lat="47.16105" lon="-1.4771">
        <ele>1.96</ele>
        <time>2016-12-24T13:02:11Z</time>
      </trkpt>
      <trkpt lat="47.16116" lon="-1.47739">
        <ele>0.26</ele>
        <time>2016-12-24T13:02:15Z</time>
      </trkpt>
      <trkpt lat="47.16125" lon="-1.47768">
        <ele>-0.22</ele>
        <time>2016-12-24T13:02:19Z</time>
      </trkpt>
      <trkpt lat="47.16136" lon="-1.47795">
        <ele>0.31</ele>
        <time>2016-12-24T13:02:23Z</time>
      </trkpt>
      <trkpt lat="47.16153" lon="-1.47811">
        <ele>4.05</ele>
        <time>2016-12-24T13:02:27Z</time>
      </trkpt>
      <trkpt lat="47.16156" lon="-1.47846">
        <ele>6.97</ele>
        <time>2016-12-24T13:02:32Z</time>
      </trkpt>
      <trkpt lat="47.1616" lon="-1.47879">
        <ele>6.9</ele>
        <time>2016-12-24T13:02:36Z</time>
      </trkpt>
      <trkpt lat="47.16168" lon="-1.47909">
        <ele>4.13</ele>
        <time>2016-12-24T13:02:40Z</time>
      </trkpt>
      <trkpt lat="47.16182" lon="-1.47936">
        <ele>0.04</ele>
        <time>2016-12-24T13:02:44Z</time>
      </trkpt>
      <trkpt lat="47.16195" lon="-1.47961">
        <ele>0.48</ele>
        <time>2016-12-24T13:02:48Z</time>
      </trkpt>
      <trkpt lat="47.16194" lon="-1.47996">
        <ele>1.59</ele>
        <time>2016-12-24T13:02:52Z</time>
      </trkpt>
      <trkpt lat="47.16204" lon="-1.48024">
        <ele>4.11</ele>
        <time>2016-12-24T13:02:56Z</time>
      </trkpt>
      <trkpt lat="47.16222" lon="-1.48046">
        <ele>4.68</ele>
        <time>2016-12-24T13:03:00Z</time>
      </trkpt>
      <trkpt lat="47.1624" lon="-1.48067">
        <ele>7.21</ele>
        <time>2016-12-24T13:03:04Z</time>
      </trkpt>
      <trkpt lat="47.16256" lon="-1.48089">
        <ele>7.49</ele>
        <time>2016-12-24T13:03:08Z</time>
      </trkpt>
      <trkpt lat="47.16271" lon="-1.48108">
        <ele>7.64</ele>
        <time>2016-12-24T13:03:12Z</time>
      </trkpt>
      <trkpt lat="47.16288" lon="-1.48131">
        <ele>6.54</ele>
        <time>2016-12-24T13:03:16Z</time>
      </trkpt>
      <trkpt lat="47.16303" lon="-1.48147">
        <ele>6.18</ele>
        <time>2016-12-24T13:03:19Z</time>
      </trkpt>
      <trkpt lat="47.16318" lon="-1.48167">
        <ele>6.94</ele>
        <time>2016-12-24T13:03:23Z</time>
      </trkpt>
      <trkpt lat="47.16335" lon="-1.48185">
        <ele>8.4</ele>
        <time>2016-12-24T13:03:27Z</time>
      </trkpt>
      <trkpt lat="47.16359" lon="-1.48191">
        <ele>10.3</ele>
        <time>2016-12-24T13:03:31Z</time>
      </trkpt>
      <trkpt lat="47.16381" lon="-1.48193">
        <ele>10.09</ele>
        <time>2016-12-24T13:03:35Z</time>
      </trkpt>
      <trkpt lat="47.16401" lon="-1.48195">
        <ele>10.05</ele>
        <time>2016-12-24T13:03:39Z</time>
      </trkpt>
      <trkpt lat="47.1642" lon="-1.48198">
        <ele>11.32</ele>
        <time>2016-12-24T13:03:42Z</time>
      </trkpt>
      <trkpt lat="47.16441" lon="-1.48198">
        <ele>12.38</ele>
        <time>2016-12-24T13:03:47Z</time>
      </trkpt>
      <trkpt lat="47.16464" lon="-1.48193">
        <ele>14.56</ele>
        <time>2016-12-24T13:03:51Z</time>
      </trkpt>
      <trkpt lat="47.16481" lon="-1.48182">
        <ele>13.95</ele>
        <time>2016-12-24T13:03:55Z</time>
      </trkpt>
      <trkpt lat="47.16498" lon="-1.48168">
        <ele>12.26</ele>
        <time>2016-12-24T13:04:02Z</time>
      </trkpt>
      <trkpt lat="47.16515" lon="-1.48149">
        <ele>10.82</ele>
        <time>2016-12-24T13:04:13Z</time>
      </trkpt>
      <trkpt lat="47.16531" lon="-1.48128">
        <ele>8.19</ele>
        <time>2016-12-24T13:04:17Z</time>
      </trkpt>
      <trkpt lat="47.16548" lon="-1.48112">
        <ele>7.84</ele>
        <time>2016-12-24T13:04:21Z</time>
      </trkpt>
      <trkpt lat="47.1657" lon="-1.48102">
        <ele>8.35</ele>
        <time>2016-12-24T13:04:26Z</time>
      </trkpt>
      <trkpt lat="47.16591" lon="-1.48088">
        <ele>9.77</ele>
        <time>2016-12-24T13:04:30Z</time>
      </trkpt>
      <trkpt lat="47.16611" lon="-1.48074">
        <ele>9.31</ele>
        <time>2016-12-24T13:04:34Z</time>
      </trkpt>
      <trkpt lat="47.16632" lon="-1.48059">
        <ele>7.04</ele>
        <time>2016-12-24T13:04:38Z</time>
      </trkpt>
      <trkpt lat="47.16649" lon="-1.48047">
        <ele>6.28</ele>
        <time>2016-12-24T13:04:41Z</time>
      </trkpt>
      <trkpt lat="47.16668" lon="-1.48035">
        <ele>7.05</ele>
        <time>2016-12-24T13:04:45Z</time>
      </trkpt>
      <trkpt lat="47.16688" lon="-1.48019">
        <ele>4.73</ele>
        <time>2016-12-24T13:04:49Z</time>
      </trkpt>
      <trkpt lat="47.16705" lon="-1.48009">
        <ele>3.9</ele>
        <time>2016-12-24T13:04:52Z</time>
      </trkpt>
      <trkpt lat="47.16727" lon="-1.47999">
        <ele>5.1</ele>
        <time>2016-12-24T13:04:56Z</time>
      </trkpt>
      <trkpt lat="47.1675" lon="-1.47993">
        <ele>5.03</ele>
        <time>2016-12-24T13:05:00Z</time>
      </trkpt>
      <trkpt lat="47.16773" lon="-1.47994">
        <ele>7.39</ele>
        <time>2016-12-24T13:05:04Z</time>
      </trkpt>
      <trkpt lat="47.1679" lon="-1.48001">
        <ele>7.39</ele>
        <time>2016-12-24T13:05:08Z</time>
      </trkpt>
      <trkpt lat="47.16812" lon="-1.48015">
        <ele>8.29</ele>
        <time>2016-12-24T13:05:12Z</time>
      </trkpt>
      <trkpt lat="47.16821" lon="-1.48041">
        <ele>9.48</ele>
        <time>2016-12-24T13:05:15Z</time>
      </trkpt>
      <trkpt lat="47.16833" lon="-1.48062">
        <ele>9.41</ele>
        <time>2016-12-24T13:05:18Z</time>
      </trkpt>
      <trkpt lat="47.1685" lon="-1.48086">
        <ele>9.76</ele>
        <time>2016-12-24T13:05:22Z</time>
      </trkpt>
      <trkpt lat="47.16865" lon="-1.48101">
        <ele>7.58</ele>
        <time>2016-12-24T13:05:25Z</time>
      </trkpt>
      <trkpt lat="47.16878" lon="-1.4812">
        <ele>4.61</ele>
        <time>2016-12-24T13:05:28Z</time>
      </trkpt>
      <trkpt lat="47.16891" lon="-1.48146">
        <ele>3.6</ele>
        <time>2016-12-24T13:05:32Z</time>
      </trkpt>
      <trkpt lat="47.16904" lon="-1.48172">
        <ele>1.25</ele>
        <time>2016-12-24T13:05:36Z</time>
      </trkpt>
      <trkpt lat="47.16918" lon="-1.48193">
        <ele>1.51</ele>
        <time>2016-12-24T13:05:39Z</time>
      </trkpt>
      <trkpt lat="47.16929" lon="-1.48215">
        <ele>3.23</ele>
        <time>2016-12-24T13:05:42Z</time>
      </trkpt>
      <trkpt lat="47.16937" lon="-1.48239">
        <ele>2.14</ele>
        <time>2016-12-24T13:05:45Z</time>
      </trkpt>
      <trkpt lat="47.16943" lon="-1.48266">
        <ele>-0.1</ele>
        <time>2016-12-24T13:05:48Z</time>
      </trkpt>
      <trkpt lat="47.16946" lon="-1.48293">
        <ele>-0.23</ele>
        <time>2016-12-24T13:05:51Z</time>
      </trkpt>
      <trkpt lat="47.16942" lon="-1.48325">
        <ele>2.53</ele>
        <time>2016-12-24T13:05:55Z</time>
      </trkpt>
      <trkpt lat="47.16936" lon="-1.48352">
        <ele>5.37</ele>
        <time>2016-12-24T13:05:58Z</time>
      </trkpt>
      <trkpt lat="47.16924" lon="-1.48383">
        <ele>5.78</ele>
        <time>2016-12-24T13:06:02Z</time>
      </trkpt>
      <trkpt lat="47.16917" lon="-1.48407">
        <ele>0.84</ele>
        <time>2016-12-24T13:06:05Z</time>
      </trkpt>
      <trkpt lat="47.16911" lon="-1.48436">
        <ele>-1.97</ele>
        <time>2016-12-24T13:06:08Z</time>
      </trkpt>
      <trkpt lat="47.16904" lon="-1.48461">
        <ele>-2.2</ele>
        <time>2016-12-24T13:06:11Z</time>
      </trkpt>
      <trkpt lat="47.16893" lon="-1.4849">
        <ele>-2.26</ele>
        <time>2016-12-24T13:06:15Z</time>
      </trkpt>
      <trkpt lat="47.16888" lon="-1.48519">
        <ele>-2.74</ele>
        <time>2016-12-24T13:06:18Z</time>
      </trkpt>
      <trkpt lat="47.16886" lon="-1.48552">
        <ele>0.74</ele>
        <time>2016-12-24T13:06:22Z</time>
      </trkpt>
      <trkpt lat="47.16887" lon="-1.48581">
        <ele>2.4</ele>
        <time>2016-12-24T13:06:25Z</time>
      </trkpt>
      <trkpt lat="47.1689" lon="-1.48608">
        <ele>6.03</ele>
        <time>2016-12-24T13:06:28Z</time>
      </trkpt>
      <trkpt lat="47.16893" lon="-1.48637">
        <ele>8.2</ele>
        <time>2016-12-24T13:06:31Z</time>
      </trkpt>
      <trkpt lat="47.16899" lon="-1.48664">
        <ele>10.44</ele>
        <time>2016-12-24T13:06:35Z</time>
      </trkpt>
      <trkpt lat="47.16903" lon="-1.48691">
        <ele>11.26</ele>
        <time>2016-12-24T13:06:38Z</time>
      </trkpt>
      <trkpt lat="47.16909" lon="-1.48722">
        <ele>11.58</ele>
        <time>2016-12-24T13:06:42Z</time>
      </trkpt>
      <trkpt lat="47.16916" lon="-1.48749">
        <ele>12.22</ele>
        <time>2016-12-24T13:06:45Z</time>
      </trkpt>
      <trkpt lat="47.16926" lon="-1.4878">
        <ele>13.73</ele>
        <time>2016-12-24T13:06:49Z</time>
      </trkpt>
      <trkpt lat="47.16934" lon="-1.48811">
        <ele>9.6</ele>
        <time>2016-12-24T13:06:53Z</time>
      </trkpt>
      <trkpt lat="47.16941" lon="-1.48842">
        <ele>8.28</ele>
        <time>2016-12-24T13:06:57Z</time>
      </trkpt>
      <trkpt lat="47.16948" lon="-1.48867">
        <ele>10.96</ele>
        <time>2016-12-24T13:07:00Z</time>
      </trkpt>
      <trkpt lat="47.16956" lon="-1.48899">
        <ele>9.65</ele>
        <time>2016-12-24T13:07:04Z</time>
      </trkpt>
      <trkpt lat="47.16962" lon="-1.48931">
        <ele>11.26</ele>
        <time>2016-12-24T13:07:08Z</time>
      </trkpt>
      <trkpt lat="47.16969" lon="-1.48959">
        <ele>13.67</ele>
        <time>2016-12-24T13:07:11Z</time>
      </trkpt>
      <trkpt lat="47.16974" lon="-1.48985">
        <ele>10.82</ele>
        <time>2016-12-24T13:07:14Z</time>
      </trkpt>
      <trkpt lat="47.16982" lon="-1.49011">
        <ele>10.46</ele>
        <time>2016-12-24T13:07:17Z</time>
      </trkpt>
      <trkpt lat="47.16991" lon="-1.49043">
        <ele>8.26</ele>
        <time>2016-12-24T13:07:21Z</time>
      </trkpt>
      <trkpt lat="47.16999" lon="-1.49069">
        <ele>10.29</ele>
        <time>2016-12-24T13:07:24Z</time>
      </trkpt>
      <trkpt lat="47.17007" lon="-1.49098">
        <ele>11.29</ele>
        <time>2016-12-24T13:07:27Z</time>
      </trkpt>
      <trkpt lat="47.17014" lon="-1.49124">
        <ele>12.61</ele>
        <time>2016-12-24T13:07:30Z</time>
      </trkpt>
      <trkpt lat="47.17026" lon="-1.49155">
        <ele>8.43</ele>
        <time>2016-12-24T13:07:34Z</time>
      </trkpt>
      <trkpt lat="47.17034" lon="-1.49181">
        <ele>6.39</ele>
        <time>2016-12-24T13:07:37Z</time>
      </trkpt>
      <trkpt lat="47.17041" lon="-1.49206">
        <ele>5.19</ele>
        <time>2016-12-24T13:07:40Z</time>
      </trkpt>
      <trkpt lat="47.17049" lon="-1.49239">
        <ele>3.94</ele>
        <time>2016-12-24T13:07:44Z</time>
      </trkpt>
      <trkpt lat="47.17058" lon="-1.49266">
        <ele>3.82</ele>
        <time>2016-12-24T13:07:47Z</time>
      </trkpt>
      <trkpt lat="47.17064" lon="-1.49292">
        <ele>5.09</ele>
        <time>2016-12-24T13:07:50Z</time>
      </trkpt>
      <trkpt lat="47.1707" lon="-1.4932">
        <ele>5.5</ele>
        <time>2016-12-24T13:07:53Z</time>
      </trkpt>
      <trkpt lat="47.17079" lon="-1.49352">
        <ele>5.1</ele>
        <time>2016-12-24T13:07:57Z</time>
      </trkpt>
      <trkpt lat="47.17088" lon="-1.49382">
        <ele>5.85</ele>
        <time>2016-12-24T13:08:01Z</time>
      </trkpt>
      <trkpt lat="47.17099" lon="-1.49408">
        <ele>5.96</ele>
        <time>2016-12-24T13:08:05Z</time>
      </trkpt>
      <trkpt lat="47.17108" lon="-1.49435">
        <ele>5.34</ele>
        <time>2016-12-24T13:08:08Z</time>
      </trkpt>
      <trkpt lat="47.17118" lon="-1.49461">
        <ele>5.82</ele>
        <time>2016-12-24T13:08:11Z</time>
      </trkpt>
      <trkpt lat="47.17125" lon="-1.49491">
        <ele>9.04</ele>
        <time>2016-12-24T13:08:15Z</time>
      </trkpt>
      <trkpt lat="47.1713" lon="-1.49517">
        <ele>10.85</ele>
        <time>2016-12-24T13:08:18Z</time>
      </trkpt>
      <trkpt lat="47.17136" lon="-1.49543">
        <ele>7.25</ele>
        <time>2016-12-24T13:08:21Z</time>
      </trkpt>
      <trkpt lat="47.17143" lon="-1.4957">
        <ele>2.35</ele>
        <time>2016-12-24T13:08:24Z</time>
      </trkpt>
      <trkpt lat="47.1715" lon="-1.49596">
        <ele>0.49</ele>
        <time>2016-12-24T13:08:27Z</time>
      </trkpt>
      <trkpt lat="47.17157" lon="-1.49621">
        <ele>0.95</ele>
        <time>2016-12-24T13:08:30Z</time>
      </trkpt>
      <trkpt lat="47.17163" lon="-1.49649">
        <ele>0.42</ele>
        <time>2016-12-24T13:08:33Z</time>
      </trkpt>
      <trkpt lat="47.17171" lon="-1.49674">
        <ele>-1.19</ele>
        <time>2016-12-24T13:08:36Z</time>
      </trkpt>
      <trkpt lat="47.17178" lon="-1.49703">
        <ele>-2.73</ele>
        <time>2016-12-24T13:08:39Z</time>
      </trkpt>
      <trkpt lat="47.17186" lon="-1.49732">
        <ele>-2.66</ele>
        <time>2016-12-24T13:08:43Z</time>
      </trkpt>
      <trkpt lat="47.17194" lon="-1.49757">
        <ele>-0.96</ele>
        <time>2016-12-24T13:08:46Z</time>
      </trkpt>
      <trkpt lat="47.17205" lon="-1.49788">
        <ele>0.71</ele>
        <time>2016-12-24T13:08:50Z</time>
      </trkpt>
      <trkpt lat="47.17213" lon="-1.49813">
        <ele>2.38</ele>
        <time>2016-12-24T13:08:53Z</time>
      </trkpt>
      <trkpt lat="47.17223" lon="-1.49839">
        <ele>3.08</ele>
        <time>2016-12-24T13:08:56Z</time>
      </trkpt>
      <trkpt lat="47.17232" lon="-1.49864">
        <ele>3.64</ele>
        <time>2016-12-24T13:08:59Z</time>
      </trkpt>
      <trkpt lat="47.17243" lon="-1.49893">
        <ele>3.81</ele>
        <time>2016-12-24T13:09:03Z</time>
      </trkpt>
      <trkpt lat="47.17252" lon="-1.49918">
        <ele>1.68</ele>
        <time>2016-12-24T13:09:06Z</time>
      </trkpt>
      <trkpt lat="47.17263" lon="-1.49948">
        <ele>0.48</ele>
        <time>2016-12-24T13:09:10Z</time>
      </trkpt>
      <trkpt lat="47.1727" lon="-1.49979">
        <ele>0.04</ele>
        <time>2016-12-24T13:09:14Z</time>
      </trkpt>
      <trkpt lat="47.1728" lon="-1.50006">
        <ele>-0.45</ele>
        <time>2016-12-24T13:09:17Z</time>
      </trkpt>
      <trkpt lat="47.1729" lon="-1.50029">
        <ele>-1.09</ele>
        <time>2016-12-24T13:09:20Z</time>
      </trkpt>
      <trkpt lat="47.17303" lon="-1.50048">
        <ele>-0.97</ele>
        <time>2016-12-24T13:09:23Z</time>
      </trkpt>
      <trkpt lat="47.17317" lon="-1.50074">
        <ele>-3.4</ele>
        <time>2016-12-24T13:09:27Z</time>
      </trkpt>
      <trkpt lat="47.1733" lon="-1.50099">
        <ele>-3.82</ele>
        <time>2016-12-24T13:09:31Z</time>
      </trkpt>
      <trkpt lat="47.17341" lon="-1.50124">
        <ele>-4.99</ele>
        <time>2016-12-24T13:09:34Z</time>
      </trkpt>
      <trkpt lat="47.17352" lon="-1.50148">
        <ele>-3.99</ele>
        <time>2016-12-24T13:09:37Z</time>
      </trkpt>
      <trkpt lat="47.17363" lon="-1.50173">
        <ele>-3.42</ele>
        <time>2016-12-24T13:09:40Z</time>
      </trkpt>
      <trkpt lat="47.17374" lon="-1.50203">
        <ele>-2.44</ele>
        <time>2016-12-24T13:09:44Z</time>
      </trkpt>
      <trkpt lat="47.17387" lon="-1.50232">
        <ele>0.7</ele>
        <time>2016-12-24T13:09:48Z</time>
      </trkpt>
      <trkpt lat="47.17399" lon="-1.50257">
        <ele>2.22</ele>
        <time>2016-12-24T13:09:51Z</time>
      </trkpt>
      <trkpt lat="47.17411" lon="-1.50285">
        <ele>-1.43</ele>
        <time>2016-12-24T13:09:55Z</time>
      </trkpt>
      <trkpt lat="47.17423" lon="-1.50316">
        <ele>-2.82</ele>
        <time>2016-12-24T13:09:59Z</time>
      </trkpt>
      <trkpt lat="47.17434" lon="-1.50345">
        <ele>-3.38</ele>
        <time>2016-12-24T13:10:03Z</time>
      </trkpt>
      <trkpt lat="47.17449" lon="-1.50373">
        <ele>-1.63</ele>
        <time>2016-12-24T13:10:07Z</time>
      </trkpt>
      <trkpt lat="47.17461" lon="-1.50395">
        <ele>-1.11</ele>
        <time>2016-12-24T13:10:10Z</time>
      </trkpt>
      <trkpt lat="47.17475" lon="-1.5042">
        <ele>0.46</ele>
        <time>2016-12-24T13:10:14Z</time>
      </trkpt>
      <trkpt lat="47.17489" lon="-1.50444">
        <ele>-0.52</ele>
        <time>2016-12-24T13:10:17Z</time>
      </trkpt>
      <trkpt lat="47.175" lon="-1.50467">
        <ele>-2.05</ele>
        <time>2016-12-24T13:10:21Z</time>
      </trkpt>
      <trkpt lat="47.17515" lon="-1.50495">
        <ele>1.75</ele>
        <time>2016-12-24T13:10:25Z</time>
      </trkpt>
      <trkpt lat="47.17526" lon="-1.50517">
        <ele>5.11</ele>
        <time>2016-12-24T13:10:28Z</time>
      </trkpt>
      <trkpt lat="47.17539" lon="-1.50542">
        <ele>4.25</ele>
        <time>2016-12-24T13:10:32Z</time>
      </trkpt>
      <trkpt lat="47.17552" lon="-1.50564">
        <ele>5.01</ele>
        <time>2016-12-24T13:10:35Z</time>
      </trkpt>
      <trkpt lat="47.17567" lon="-1.50591">
        <ele>5.8</ele>
        <time>2016-12-24T13:10:39Z</time>
      </trkpt>
      <trkpt lat="47.17583" lon="-1.50615">
        <ele>7.54</ele>
        <time>2016-12-24T13:10:43Z</time>
      </trkpt>
      <trkpt lat="47.17596" lon="-1.50634">
        <ele>6.82</ele>
        <time>2016-12-24T13:10:46Z</time>
      </trkpt>
      <trkpt lat="47.17611" lon="-1.50653">
        <ele>6.79</ele>
        <time>2016-12-24T13:10:49Z</time>
      </trkpt>
      <trkpt lat="47.17627" lon="-1.50677">
        <ele>5.73</ele>
        <time>2016-12-24T13:10:53Z</time>
      </trkpt>
      <trkpt lat="47.17643" lon="-1.50699">
        <ele>4.11</ele>
        <time>2016-12-24T13:10:57Z</time>
      </trkpt>
      <trkpt lat="47.17646" lon="-1.50729">
        <ele>4.68</ele>
        <time>2016-12-24T13:11:01Z</time>
      </trkpt>
      <trkpt lat="47.17634" lon="-1.50756">
        <ele>4.54</ele>
        <time>2016-12-24T13:11:05Z</time>
      </trkpt>
      <trkpt lat="47.17637" lon="-1.50788">
        <ele>6.25</ele>
        <time>2016-12-24T13:11:09Z</time>
      </trkpt>
      <trkpt lat="47.17655" lon="-1.50809">
        <ele>1.05</ele>
        <time>2016-12-24T13:11:15Z</time>
      </trkpt>
      <trkpt lat="47.17675" lon="-1.50812">
        <ele>3.92</ele>
        <time>2016-12-24T13:11:18Z</time>
      </trkpt>
      <trkpt lat="47.17691" lon="-1.50797">
        <ele>8.53</ele>
        <time>2016-12-24T13:11:21Z</time>
      </trkpt>
      <trkpt lat="47.17709" lon="-1.50793">
        <ele>9.63</ele>
        <time>2016-12-24T13:11:25Z</time>
      </trkpt>
      <trkpt lat="47.17725" lon="-1.5081">
        <ele>9.6</ele>
        <time>2016-12-24T13:11:28Z</time>
      </trkpt>
      <trkpt lat="47.17739" lon="-1.5083">
        <ele>9.2</ele>
        <time>2016-12-24T13:11:31Z</time>
      </trkpt>
      <trkpt lat="47.17754" lon="-1.50849">
        <ele>7.69</ele>
        <time>2016-12-24T13:11:34Z</time>
      </trkpt>
      <trkpt lat="47.1777" lon="-1.50869">
        <ele>6.73</ele>
        <time>2016-12-24T13:11:38Z</time>
      </trkpt>
      <trkpt lat="47.17786" lon="-1.50886">
        <ele>6.63</ele>
        <time>2016-12-24T13:11:41Z</time>
      </trkpt>
      <trkpt lat="47.17803" lon="-1.50904">
        <ele>6.23</ele>
        <time>2016-12-24T13:11:45Z</time>
      </trkpt>
      <trkpt lat="47.17818" lon="-1.50919">
        <ele>5.44</ele>
        <time>2016-12-24T13:11:48Z</time>
      </trkpt>
      <trkpt lat="47.17834" lon="-1.50935">
        <ele>4.72</ele>
        <time>2016-12-24T13:11:51Z</time>
      </trkpt>
      <trkpt lat="47.17853" lon="-1.50954">
        <ele>3.26</ele>
        <time>2016-12-24T13:11:55Z</time>
      </trkpt>
      <trkpt lat="47.1787" lon="-1.50978">
        <ele>5.69</ele>
        <time>2016-12-24T13:11:59Z</time>
      </trkpt>
      <trkpt lat="47.17886" lon="-1.51002">
        <ele>6.08</ele>
        <time>2016-12-24T13:12:03Z</time>
      </trkpt>
      <trkpt lat="47.179" lon="-1.51021">
        <ele>4.88</ele>
        <time>2016-12-24T13:12:06Z</time>
      </trkpt>
      <trkpt lat="47.17915" lon="-1.51044">
        <ele>5.61</ele>
        <time>2016-12-24T13:12:10Z</time>
      </trkpt>
      <trkpt lat="47.17927" lon="-1.51064">
        <ele>7.48</ele>
        <time>2016-12-24T13:12:13Z</time>
      </trkpt>
      <trkpt lat="47.17942" lon="-1.5109">
        <ele>8.01</ele>
        <time>2016-12-24T13:12:17Z</time>
      </trkpt>
      <trkpt lat="47.17959" lon="-1.5111">
        <ele>8.21</ele>
        <time>2016-12-24T13:12:21Z</time>
      </trkpt>
      <trkpt lat="47.17976" lon="-1.51126">
        <ele>8.86</ele>
        <time>2016-12-24T13:12:24Z</time>
      </trkpt>
      <trkpt lat="47.17994" lon="-1.51138">
        <ele>9.77</ele>
        <time>2016-12-24T13:12:28Z</time>
      </trkpt>
      <trkpt lat="47.18016" lon="-1.51149">
        <ele>10.34</ele>
        <time>2016-12-24T13:12:32Z</time>
      </trkpt>
      <trkpt lat="47.1804" lon="-1.51154">
        <ele>9.39</ele>
        <time>2016-12-24T13:12:36Z</time>
      </trkpt>
      <trkpt lat="47.18057" lon="-1.51169">
        <ele>7.44</ele>
        <time>2016-12-24T13:12:40Z</time>
      </trkpt>
      <trkpt lat="47.18057" lon="-1.51196">
        <ele>5.82</ele>
        <time>2016-12-24T13:12:43Z</time>
      </trkpt>
      <trkpt lat="47.1806" lon="-1.51228">
        <ele>7.56</ele>
        <time>2016-12-24T13:12:47Z</time>
      </trkpt>
      <trkpt lat="47.18062" lon="-1.51263">
        <ele>4.8</ele>
        <time>2016-12-24T13:12:51Z</time>
      </trkpt>
      <trkpt lat="47.18066" lon="-1.51294">
        <ele>3.61</ele>
        <time>2016-12-24T13:12:55Z</time>
      </trkpt>
      <trkpt lat="47.18071" lon="-1.51327">
        <ele>3.88</ele>
        <time>2016-12-24T13:12:59Z</time>
      </trkpt>
      <trkpt lat="47.1808" lon="-1.5136">
        <ele>4.75</ele>
        <time>2016-12-24T13:13:03Z</time>
      </trkpt>
      <trkpt lat="47.18092" lon="-1.51391">
        <ele>5.07</ele>
        <time>2016-12-24T13:13:07Z</time>
      </trkpt>
      <trkpt lat="47.18102" lon="-1.51417">
        <ele>3.99</ele>
        <time>2016-12-24T13:13:11Z</time>
      </trkpt>
      <trkpt lat="47.18111" lon="-1.51441">
        <ele>3.29</ele>
        <time>2016-12-24T13:13:14Z</time>
      </trkpt>
      <trkpt lat="47.1812" lon="-1.51466">
        <ele>3.1</ele>
        <time>2016-12-24T13:13:17Z</time>
      </trkpt>
      <trkpt lat="47.18127" lon="-1.51496">
        <ele>3.93</ele>
        <time>2016-12-24T13:13:20Z</time>
      </trkpt>
      <trkpt lat="47.18135" lon="-1.51523">
        <ele>4.52</ele>
        <time>2016-12-24T13:13:24Z</time>
      </trkpt>
      <trkpt lat="47.18139" lon="-1.51551">
        <ele>4.06</ele>
        <time>2016-12-24T13:13:27Z</time>
      </trkpt>
      <trkpt lat="47.18142" lon="-1.51578">
        <ele>3.66</ele>
        <time>2016-12-24T13:13:30Z</time>
      </trkpt>
      <trkpt lat="47.18144" lon="-1.51606">
        <ele>3.2</ele>
        <time>2016-12-24T13:13:33Z</time>
      </trkpt>
      <trkpt lat="47.18147" lon="-1.51637">
        <ele>4.04</ele>
        <time>2016-12-24T13:13:36Z</time>
      </trkpt>
      <trkpt lat="47.1815" lon="-1.51665">
        <ele>4.63</ele>
        <time>2016-12-24T13:13:39Z</time>
      </trkpt>
      <trkpt lat="47.18152" lon="-1.51691">
        <ele>5.48</ele>
        <time>2016-12-24T13:13:42Z</time>
      </trkpt>
      <trkpt lat="47.18155" lon="-1.51725">
        <ele>3.5</ele>
        <time>2016-12-24T13:13:46Z</time>
      </trkpt>
      <trkpt lat="47.18149" lon="-1.51756">
        <ele>2.96</ele>
        <time>2016-12-24T13:13:50Z</time>
      </trkpt>
      <trkpt lat="47.18138" lon="-1.5178">
        <ele>0.22</ele>
        <time>2016-12-24T13:13:54Z</time>
      </trkpt>
      <trkpt lat="47.18123" lon="-1.51802">
        <ele>-0.22</ele>
        <time>2016-12-24T13:13:58Z</time>
      </trkpt>
      <trkpt lat="47.18107" lon="-1.51817">
        <ele>-2.14</ele>
        <time>2016-12-24T13:14:01Z</time>
      </trkpt>
      <trkpt lat="47.18099" lon="-1.51842">
        <ele>-1.24</ele>
        <time>2016-12-24T13:14:04Z</time>
      </trkpt>
      <trkpt lat="47.18103" lon="-1.5187">
        <ele>0.94</ele>
        <time>2016-12-24T13:14:08Z</time>
      </trkpt>
      <trkpt lat="47.18109" lon="-1.51896">
        <ele>0.61</ele>
        <time>2016-12-24T13:14:14Z</time>
      </trkpt>
      <trkpt lat="47.18113" lon="-1.51927">
        <ele>0.47</ele>
        <time>2016-12-24T13:14:20Z</time>
      </trkpt>
      <trkpt lat="47.18114" lon="-1.51954">
        <ele>2.24</ele>
        <time>2016-12-24T13:14:23Z</time>
      </trkpt>
      <trkpt lat="47.18115" lon="-1.51983">
        <ele>3.25</ele>
        <time>2016-12-24T13:14:28Z</time>
      </trkpt>
      <trkpt lat="47.18118" lon="-1.52012">
        <ele>3.18</ele>
        <time>2016-12-24T13:14:32Z</time>
      </trkpt>
      <trkpt lat="47.18123" lon="-1.52042">
        <ele>5.27</ele>
        <time>2016-12-24T13:14:35Z</time>
      </trkpt>
      <trkpt lat="47.18128" lon="-1.52074">
        <ele>5.79</ele>
        <time>2016-12-24T13:14:38Z</time>
      </trkpt>
      <trkpt lat="47.18132" lon="-1.52103">
        <ele>6.69</ele>
        <time>2016-12-24T13:14:41Z</time>
      </trkpt>
      <trkpt lat="47.18147" lon="-1.52132">
        <ele>2.24</ele>
        <time>2016-12-24T13:14:45Z</time>
      </trkpt>
      <trkpt lat="47.18159" lon="-1.52154">
        <ele>-0.2</ele>
        <time>2016-12-24T13:14:48Z</time>
      </trkpt>
      <trkpt lat="47.18168" lon="-1.52179">
        <ele>0.05</ele>
        <time>2016-12-24T13:14:51Z</time>
      </trkpt>
      <trkpt lat="47.18175" lon="-1.52205">
        <ele>-1.16</ele>
        <time>2016-12-24T13:14:54Z</time>
      </trkpt>
      <trkpt lat="47.18182" lon="-1.5223">
        <ele>-1.23</ele>
        <time>2016-12-24T13:14:57Z</time>
      </trkpt>
      <trkpt lat="47.18192" lon="-1.52264">
        <ele>-1.15</ele>
        <time>2016-12-24T13:15:01Z</time>
      </trkpt>
      <trkpt lat="47.18194" lon="-1.52293">
        <ele>-1.84</ele>
        <time>2016-12-24T13:15:04Z</time>
      </trkpt>
      <trkpt lat="47.18191" lon="-1.52326">
        <ele>-2.76</ele>
        <time>2016-12-24T13:15:08Z</time>
      </trkpt>
      <trkpt lat="47.18184" lon="-1.52352">
        <ele>-2.26</ele>
        <time>2016-12-24T13:15:11Z</time>
      </trkpt>
      <trkpt lat="47.18184" lon="-1.52386">
        <ele>2.17</ele>
        <time>2016-12-24T13:15:16Z</time>
      </trkpt>
      <trkpt lat="47.18187" lon="-1.52413">
        <ele>1.59</ele>
        <time>2016-12-24T13:15:20Z</time>
      </trkpt>
      <trkpt lat="47.182" lon="-1.5244">
        <ele>-0.48</ele>
        <time>2016-12-24T13:15:25Z</time>
      </trkpt>
      <trkpt lat="47.18197" lon="-1.52471">
        <ele>-4.82</ele>
        <time>2016-12-24T13:15:29Z</time>
      </trkpt>
      <trkpt lat="47.18195" lon="-1.52504">
        <ele>-1.82</ele>
        <time>2016-12-24T13:15:33Z</time>
      </trkpt>
      <trkpt lat="47.182" lon="-1.5254">
        <ele>-4.68</ele>
        <time>2016-12-24T13:15:37Z</time>
      </trkpt>
      <trkpt lat="47.18209" lon="-1.52567">
        <ele>-4.95</ele>
        <time>2016-12-24T13:15:41Z</time>
      </trkpt>
      <trkpt lat="47.18218" lon="-1.52594">
        <ele>-6.62</ele>
        <time>2016-12-24T13:15:45Z</time>
      </trkpt>
      <trkpt lat="47.18236" lon="-1.52614">
        <ele>-7.58</ele>
        <time>2016-12-24T13:15:49Z</time>
      </trkpt>
      <trkpt lat="47.18245" lon="-1.52644">
        <ele>-8.42</ele>
        <time>2016-12-24T13:15:53Z</time>
      </trkpt>
      <trkpt lat="47.18241" lon="-1.52677">
        <ele>-5.97</ele>
        <time>2016-12-24T13:15:57Z</time>
      </trkpt>
      <trkpt lat="47.18236" lon="-1.52704">
        <ele>-2.81</ele>
        <time>2016-12-24T13:16:00Z</time>
      </trkpt>
      <trkpt lat="47.18233" lon="-1.52733">
        <ele>1.06</ele>
        <time>2016-12-24T13:16:04Z</time>
      </trkpt>
      <trkpt lat="47.18239" lon="-1.52763">
        <ele>-0.73</ele>
        <time>2016-12-24T13:16:11Z</time>
      </trkpt>
      <trkpt lat="47.18244" lon="-1.52793">
        <ele>-1.8</ele>
        <time>2016-12-24T13:16:16Z</time>
      </trkpt>
      <trkpt lat="47.18254" lon="-1.52821">
        <ele>-3.63</ele>
        <time>2016-12-24T13:16:20Z</time>
      </trkpt>
      <trkpt lat="47.18265" lon="-1.52849">
        <ele>-2.5</ele>
        <time>2016-12-24T13:16:24Z</time>
      </trkpt>
      <trkpt lat="47.18269" lon="-1.52874">
        <ele>-4.47</ele>
        <time>2016-12-24T13:16:27Z</time>
      </trkpt>
      <trkpt lat="47.18276" lon="-1.52901">
        <ele>-5.5</ele>
        <time>2016-12-24T13:16:31Z</time>
      </trkpt>
      <trkpt lat="47.18288" lon="-1.52924">
        <ele>-6.79</ele>
        <time>2016-12-24T13:16:35Z</time>
      </trkpt>
      <trkpt lat="47.18303" lon="-1.5295">
        <ele>-8.33</ele>
        <time>2016-12-24T13:16:39Z</time>
      </trkpt>
      <trkpt lat="47.18311" lon="-1.52978">
        <ele>-6.93</ele>
        <time>2016-12-24T13:16:42Z</time>
      </trkpt>
      <trkpt lat="47.18318" lon="-1.53004">
        <ele>-3.72</ele>
        <time>2016-12-24T13:16:46Z</time>
      </trkpt>
      <trkpt lat="47.1833" lon="-1.53029">
        <ele>-3.92</ele>
        <time>2016-12-24T13:16:51Z</time>
      </trkpt>
      <trkpt lat="47.18342" lon="-1.53051">
        <ele>-2.39</ele>
        <time>2016-12-24T13:16:55Z</time>
      </trkpt>
      <trkpt lat="47.18361" lon="-1.53055">
        <ele>-1.01</ele>
        <time>2016-12-24T13:17:00Z</time>
      </trkpt>
      <trkpt lat="47.18354" lon="-1.53083">
        <ele>0.68</ele>
        <time>2016-12-24T13:17:09Z</time>
      </trkpt>
      <trkpt lat="47.18335" lon="-1.53103">
        <ele>3.39</ele>
        <time>2016-12-24T13:17:14Z</time>
      </trkpt>
      <trkpt lat="47.18316" lon="-1.53117">
        <ele>1.06</ele>
        <time>2016-12-24T13:17:18Z</time>
      </trkpt>
      <trkpt lat="47.18297" lon="-1.53133">
        <ele>-0.73</ele>
        <time>2016-12-24T13:17:23Z</time>
      </trkpt>
      <trkpt lat="47.1828" lon="-1.53146">
        <ele>-1.07</ele>
        <time>2016-12-24T13:17:27Z</time>
      </trkpt>
      <trkpt lat="47.18263" lon="-1.53161">
        <ele>-4.32</ele>
        <time>2016-12-24T13:17:31Z</time>
      </trkpt>
      <trkpt lat="47.18249" lon="-1.53179">
        <ele>-4.89</ele>
        <time>2016-12-24T13:17:36Z</time>
      </trkpt>
      <trkpt lat="47.18268" lon="-1.53176">
        <ele>-1.45</ele>
        <time>2016-12-24T13:17:44Z</time>
      </trkpt>
      <trkpt lat="47.18283" lon="-1.53161">
        <ele>1.61</ele>
        <time>2016-12-24T13:17:48Z</time>
      </trkpt>
      <trkpt lat="47.18304" lon="-1.53178">
        <ele>1.69</ele>
        <time>2016-12-24T13:17:53Z</time>
      </trkpt>
      <trkpt lat="47.18317" lon="-1.53199">
        <ele>1.53</ele>
        <time>2016-12-24T13:17:57Z</time>
      </trkpt>
      <trkpt lat="47.18332" lon="-1.53221">
        <ele>0.54</ele>
        <time>2016-12-24T13:18:01Z</time>
      </trkpt>
      <trkpt lat="47.18347" lon="-1.53244">
        <ele>-0.32</ele>
        <time>2016-12-24T13:18:05Z</time>
      </trkpt>
      <trkpt lat="47.18364" lon="-1.53264">
        <ele>-1.15</ele>
        <time>2016-12-24T13:18:09Z</time>
      </trkpt>
      <trkpt lat="47.1838" lon="-1.53283">
        <ele>-0.76</ele>
        <time>2016-12-24T13:18:12Z</time>
      </trkpt>
      <trkpt lat="47.18395" lon="-1.53304">
        <ele>-2.44</ele>
        <time>2016-12-24T13:18:15Z</time>
      </trkpt>
      <trkpt lat="47.18408" lon="-1.53322">
        <ele>-1.93</ele>
        <time>2016-12-24T13:18:18Z</time>
      </trkpt>
      <trkpt lat="47.18424" lon="-1.53339">
        <ele>-0.96</ele>
        <time>2016-12-24T13:18:21Z</time>
      </trkpt>
      <trkpt lat="47.1844" lon="-1.5336">
        <ele>-0.35</ele>
        <time>2016-12-24T13:18:25Z</time>
      </trkpt>
      <trkpt lat="47.18458" lon="-1.53379">
        <ele>-0.87</ele>
        <time>2016-12-24T13:18:29Z</time>
      </trkpt>
      <trkpt lat="47.18473" lon="-1.53395">
        <ele>1.58</ele>
        <time>2016-12-24T13:18:32Z</time>
      </trkpt>
      <trkpt lat="47.18489" lon="-1.53414">
        <ele>3.68</ele>
        <time>2016-12-24T13:18:36Z</time>
      </trkpt>
      <trkpt lat="47.18504" lon="-1.53435">
        <ele>0.76</ele>
        <time>2016-12-24T13:18:40Z</time>
      </trkpt>
      <trkpt lat="47.18523" lon="-1.53451">
        <ele>0.91</ele>
        <time>2016-12-24T13:18:44Z</time>
      </trkpt>
      <trkpt lat="47.18544" lon="-1.5347">
        <ele>1.67</ele>
        <time>2016-12-24T13:18:48Z</time>
      </trkpt>
      <trkpt lat="47.18562" lon="-1.53488">
        <ele>5.35</ele>
        <time>2016-12-24T13:18:52Z</time>
      </trkpt>
      <trkpt lat="47.1858" lon="-1.53505">
        <ele>6.78</ele>
        <time>2016-12-24T13:18:55Z</time>
      </trkpt>
      <trkpt lat="47.18596" lon="-1.53518">
        <ele>5.9</ele>
        <time>2016-12-24T13:18:58Z</time>
      </trkpt>
      <trkpt lat="47.18615" lon="-1.5353">
        <ele>5.81</ele>
        <time>2016-12-24T13:19:02Z</time>
      </trkpt>
      <trkpt lat="47.18634" lon="-1.53542">
        <ele>4.99</ele>
        <time>2016-12-24T13:19:06Z</time>
      </trkpt>
      <trkpt lat="47.18652" lon="-1.53554">
        <ele>2.23</ele>
        <time>2016-12-24T13:19:09Z</time>
      </trkpt>
      <trkpt lat="47.18672" lon="-1.53565">
        <ele>0.2</ele>
        <time>2016-12-24T13:19:12Z</time>
      </trkpt>
      <trkpt lat="47.1869" lon="-1.53574">
        <ele>5.69</ele>
        <time>2016-12-24T13:19:15Z</time>
      </trkpt>
      <trkpt lat="47.18713" lon="-1.53582">
        <ele>9.45</ele>
        <time>2016-12-24T13:19:19Z</time>
      </trkpt>
      <trkpt lat="47.18733" lon="-1.53587">
        <ele>10.2</ele>
        <time>2016-12-24T13:19:22Z</time>
      </trkpt>
      <trkpt lat="47.18752" lon="-1.53592">
        <ele>11.29</ele>
        <time>2016-12-24T13:19:25Z</time>
      </trkpt>
      <trkpt lat="47.1877" lon="-1.53598">
        <ele>13.34</ele>
        <time>2016-12-24T13:19:28Z</time>
      </trkpt>
      <trkpt lat="47.18792" lon="-1.53606">
        <ele>13.11</ele>
        <time>2016-12-24T13:19:32Z</time>
      </trkpt>
      <trkpt lat="47.18811" lon="-1.53612">
        <ele>12.27</ele>
        <time>2016-12-24T13:19:35Z</time>
      </trkpt>
      <trkpt lat="47.1883" lon="-1.53617">
        <ele>9.78</ele>
        <time>2016-12-24T13:19:38Z</time>
      </trkpt>
      <trkpt lat="47.18852" lon="-1.53626">
        <ele>5.49</ele>
        <time>2016-12-24T13:19:42Z</time>
      </trkpt>
      <trkpt lat="47.1887" lon="-1.53634">
        <ele>1.58</ele>
        <time>2016-12-24T13:19:45Z</time>
      </trkpt>
      <trkpt lat="47.18888" lon="-1.53648">
        <ele>-0.91</ele>
        <time>2016-12-24T13:19:49Z</time>
      </trkpt>
      <trkpt lat="47.18907" lon="-1.53658">
        <ele>0.48</ele>
        <time>2016-12-24T13:19:53Z</time>
      </trkpt>
      <trkpt lat="47.18925" lon="-1.53671">
        <ele>2.75</ele>
        <time>2016-12-24T13:19:57Z</time>
      </trkpt>
      <trkpt lat="47.18941" lon="-1.53687">
        <ele>6.4</ele>
        <time>2016-12-24T13:20:01Z</time>
      </trkpt>
      <trkpt lat="47.18961" lon="-1.53702">
        <ele>6.28</ele>
        <time>2016-12-24T13:20:05Z</time>
      </trkpt>
      <trkpt lat="47.18981" lon="-1.53716">
        <ele>4.98</ele>
        <time>2016-12-24T13:20:09Z</time>
      </trkpt>
      <trkpt lat="47.19" lon="-1.53731">
        <ele>5.97</ele>
        <time>2016-12-24T13:20:13Z</time>
      </trkpt>
      <trkpt lat="47.19017" lon="-1.5375">
        <ele>4.85</ele>
        <time>2016-12-24T13:20:17Z</time>
      </trkpt>
      <trkpt lat="47.19036" lon="-1.53773">
        <ele>3.99</ele>
        <time>2016-12-24T13:20:21Z</time>
      </trkpt>
      <trkpt lat="47.19049" lon="-1.53793">
        <ele>2.58</ele>
        <time>2016-12-24T13:20:24Z</time>
      </trkpt>
      <trkpt lat="47.19064" lon="-1.5381">
        <ele>-0.28</ele>
        <time>2016-12-24T13:20:28Z</time>
      </trkpt>
      <trkpt lat="47.19079" lon="-1.53827">
        <ele>-2.05</ele>
        <time>2016-12-24T13:20:31Z</time>
      </trkpt>
      <trkpt lat="47.19094" lon="-1.53845">
        <ele>-5.68</ele>
        <time>2016-12-24T13:20:34Z</time>
      </trkpt>
      <trkpt lat="47.19111" lon="-1.53865">
        <ele>-6.98</ele>
        <time>2016-12-24T13:20:38Z</time>
      </trkpt>
      <trkpt lat="47.19125" lon="-1.53889">
        <ele>-7.32</ele>
        <time>2016-12-24T13:20:42Z</time>
      </trkpt>
      <trkpt lat="47.19143" lon="-1.53902">
        <ele>-3.42</ele>
        <time>2016-12-24T13:20:46Z</time>
      </trkpt>
      <trkpt lat="47.19161" lon="-1.53926">
        <ele>-0.02</ele>
        <time>2016-12-24T13:20:50Z</time>
      </trkpt>
      <trkpt lat="47.19175" lon="-1.53954">
        <ele>0.38</ele>
        <time>2016-12-24T13:20:53Z</time>
      </trkpt>
      <trkpt lat="47.19187" lon="-1.53979">
        <ele>0.11</ele>
        <time>2016-12-24T13:20:56Z</time>
      </trkpt>
      <trkpt lat="47.192" lon="-1.54001">
        <ele>-0.62</ele>
        <time>2016-12-24T13:20:59Z</time>
      </trkpt>
      <trkpt lat="47.19212" lon="-1.54026">
        <ele>-0.57</ele>
        <time>2016-12-24T13:21:03Z</time>
      </trkpt>
      <trkpt lat="47.19225" lon="-1.54048">
        <ele>-1.51</ele>
        <time>2016-12-24T13:21:07Z</time>
      </trkpt>
      <trkpt lat="47.19237" lon="-1.54069">
        <ele>-0.2</ele>
        <time>2016-12-24T13:21:10Z</time>
      </trkpt>
      <trkpt lat="47.19248" lon="-1.54093">
        <ele>0.12</ele>
        <time>2016-12-24T13:21:13Z</time>
      </trkpt>
      <trkpt lat="47.19259" lon="-1.5412">
        <ele>1.45</ele>
        <time>2016-12-24T13:21:17Z</time>
      </trkpt>
      <trkpt lat="47.19272" lon="-1.54149">
        <ele>-1.48</ele>
        <time>2016-12-24T13:21:21Z</time>
      </trkpt>
      <trkpt lat="47.19284" lon="-1.54172">
        <ele>-2.25</ele>
        <time>2016-12-24T13:21:24Z</time>
      </trkpt>
      <trkpt lat="47.19301" lon="-1.54191">
        <ele>-3.79</ele>
        <time>2016-12-24T13:21:28Z</time>
      </trkpt>
      <trkpt lat="47.19315" lon="-1.54214">
        <ele>-4.7</ele>
        <time>2016-12-24T13:21:32Z</time>
      </trkpt>
      <trkpt lat="47.19325" lon="-1.54241">
        <ele>-2.05</ele>
        <time>2016-12-24T13:21:36Z</time>
      </trkpt>
      <trkpt lat="47.19336" lon="-1.54263">
        <ele>-2.31</ele>
        <time>2016-12-24T13:21:39Z</time>
      </trkpt>
      <trkpt lat="47.1935" lon="-1.54286">
        <ele>-1.36</ele>
        <time>2016-12-24T13:21:43Z</time>
      </trkpt>
      <trkpt lat="47.19367" lon="-1.54308">
        <ele>-3.16</ele>
        <time>2016-12-24T13:21:47Z</time>
      </trkpt>
      <trkpt lat="47.19384" lon="-1.54331">
        <ele>-3.6</ele>
        <time>2016-12-24T13:21:51Z</time>
      </trkpt>
      <trkpt lat="47.19397" lon="-1.5435">
        <ele>-3.65</ele>
        <time>2016-12-24T13:21:54Z</time>
      </trkpt>
      <trkpt lat="47.1941" lon="-1.54371">
        <ele>-2.28</ele>
        <time>2016-12-24T13:21:58Z</time>
      </trkpt>
      <trkpt lat="47.19427" lon="-1.54392">
        <ele>-0.02</ele>
        <time>2016-12-24T13:22:02Z</time>
      </trkpt>
      <trkpt lat="47.19439" lon="-1.54417">
        <ele>2.86</ele>
        <time>2016-12-24T13:22:06Z</time>
      </trkpt>
      <trkpt lat="47.19451" lon="-1.5444">
        <ele>4.24</ele>
        <time>2016-12-24T13:22:10Z</time>
      </trkpt>
      <trkpt lat="47.19462" lon="-1.54463">
        <ele>3.96</ele>
        <time>2016-12-24T13:22:15Z</time>
      </trkpt>
      <trkpt lat="47.19474" lon="-1.54483">
        <ele>3.47</ele>
        <time>2016-12-24T13:22:20Z</time>
      </trkpt>
      <trkpt lat="47.19479" lon="-1.54509">
        <ele>3.29</ele>
        <time>2016-12-24T13:22:25Z</time>
      </trkpt>
      <trkpt lat="47.19484" lon="-1.54539">
        <ele>5.58</ele>
        <time>2016-12-24T13:22:50Z</time>
      </trkpt>
      <trkpt lat="47.19491" lon="-1.54565">
        <ele>5.89</ele>
        <time>2016-12-24T13:22:53Z</time>
      </trkpt>
      <trkpt lat="47.19498" lon="-1.54594">
        <ele>3.93</ele>
        <time>2016-12-24T13:22:57Z</time>
      </trkpt>
      <trkpt lat="47.19514" lon="-1.54609">
        <ele>2.37</ele>
        <time>2016-12-24T13:23:01Z</time>
      </trkpt>
      <trkpt lat="47.19533" lon="-1.54629">
        <ele>3.42</ele>
        <time>2016-12-24T13:23:05Z</time>
      </trkpt>
      <trkpt lat="47.19546" lon="-1.54647">
        <ele>1.79</ele>
        <time>2016-12-24T13:23:08Z</time>
      </trkpt>
      <trkpt lat="47.19561" lon="-1.54671">
        <ele>4.14</ele>
        <time>2016-12-24T13:23:12Z</time>
      </trkpt>
      <trkpt lat="47.19575" lon="-1.5469">
        <ele>6.23</ele>
        <time>2016-12-24T13:23:15Z</time>
      </trkpt>
      <trkpt lat="47.19588" lon="-1.54715">
        <ele>5.53</ele>
        <time>2016-12-24T13:23:19Z</time>
      </trkpt>
      <trkpt lat="47.19605" lon="-1.54735">
        <ele>7.26</ele>
        <time>2016-12-24T13:23:23Z</time>
      </trkpt>
      <trkpt lat="47.19618" lon="-1.54754">
        <ele>8.46</ele>
        <time>2016-12-24T13:23:26Z</time>
      </trkpt>
      <trkpt lat="47.19631" lon="-1.54774">
        <ele>10.59</ele>
        <time>2016-12-24T13:23:29Z</time>
      </trkpt>
      <trkpt lat="47.19643" lon="-1.54795">
        <ele>9.81</ele>
        <time>2016-12-24T13:23:32Z</time>
      </trkpt>
      <trkpt lat="47.19657" lon="-1.54817">
        <ele>9.37</ele>
        <time>2016-12-24T13:23:36Z</time>
      </trkpt>
      <trkpt lat="47.1967" lon="-1.5484">
        <ele>4.64</ele>
        <time>2016-12-24T13:23:40Z</time>
      </trkpt>
      <trkpt lat="47.19678" lon="-1.54865">
        <ele>3.15</ele>
        <time>2016-12-24T13:23:43Z</time>
      </trkpt>
      <trkpt lat="47.1968" lon="-1.54894">
        <ele>1.11</ele>
        <time>2016-12-24T13:23:47Z</time>
      </trkpt>
      <trkpt lat="47.19677" lon="-1.54927">
        <ele>-1.49</ele>
        <time>2016-12-24T13:23:51Z</time>
      </trkpt>
      <trkpt lat="47.19688" lon="-1.54951">
        <ele>-1.29</ele>
        <time>2016-12-24T13:23:56Z</time>
      </trkpt>
      <trkpt lat="47.19708" lon="-1.54953">
        <ele>-1.35</ele>
        <time>2016-12-24T13:24:01Z</time>
      </trkpt>
      <trkpt lat="47.19708" lon="-1.5498">
        <ele>-1.58</ele>
        <time>2016-12-24T13:24:09Z</time>
      </trkpt>
      <trkpt lat="47.19688" lon="-1.54987">
        <ele>0.93</ele>
        <time>2016-12-24T13:24:15Z</time>
      </trkpt>
      <trkpt lat="47.1967" lon="-1.55004">
        <ele>6.41</ele>
        <time>2016-12-24T13:24:19Z</time>
      </trkpt>
      <trkpt lat="47.19664" lon="-1.55038">
        <ele>7.32</ele>
        <time>2016-12-24T13:24:24Z</time>
      </trkpt>
      <trkpt lat="47.19666" lon="-1.55066">
        <ele>7.9</ele>
        <time>2016-12-24T13:24:27Z</time>
      </trkpt>
      <trkpt lat="47.1967" lon="-1.55097">
        <ele>8.67</ele>
        <time>2016-12-24T13:24:31Z</time>
      </trkpt>
      <trkpt lat="47.19674" lon="-1.55128">
        <ele>7.92</ele>
        <time>2016-12-24T13:24:35Z</time>
      </trkpt>
      <trkpt lat="47.19677" lon="-1.55159">
        <ele>6.68</ele>
        <time>2016-12-24T13:24:39Z</time>
      </trkpt>
      <trkpt lat="47.19679" lon="-1.55191">
        <ele>6.05</ele>
        <time>2016-12-24T13:24:44Z</time>
      </trkpt>
      <trkpt lat="47.19678" lon="-1.55221">
        <ele>4.56</ele>
        <time>2016-12-24T13:24:49Z</time>
      </trkpt>
      <trkpt lat="47.1967" lon="-1.55245">
        <ele>2.12</ele>
        <time>2016-12-24T13:24:54Z</time>
      </trkpt>
      <trkpt lat="47.19667" lon="-1.55273">
        <ele>-1.75</ele>
        <time>2016-12-24T13:24:58Z</time>
      </trkpt>
      <trkpt lat="47.19664" lon="-1.55304">
        <ele>-0.74</ele>
        <time>2016-12-24T13:25:03Z</time>
      </trkpt>
      <trkpt lat="47.19662" lon="-1.55334">
        <ele>-0.56</ele>
        <time>2016-12-24T13:25:07Z</time>
      </trkpt>
      <trkpt lat="47.19661" lon="-1.5536">
        <ele>-0.45</ele>
        <time>2016-12-24T13:25:11Z</time>
      </trkpt>
      <trkpt lat="47.19656" lon="-1.55395">
        <ele>-1.07</ele>
        <time>2016-12-24T13:25:15Z</time>
      </trkpt>
      <trkpt lat="47.19659" lon="-1.55428">
        <ele>-0.36</ele>
        <time>2016-12-24T13:25:19Z</time>
      </trkpt>
      <trkpt lat="47.19662" lon="-1.55462">
        <ele>-0.9</ele>
        <time>2016-12-24T13:25:24Z</time>
      </trkpt>
      <trkpt lat="47.19673" lon="-1.55485">
        <ele>-1.37</ele>
        <time>2016-12-24T13:25:30Z</time>
      </trkpt>
      <trkpt lat="47.19679" lon="-1.55512">
        <ele>-1.76</ele>
        <time>2016-12-24T13:25:34Z</time>
      </trkpt>
      <trkpt lat="47.19686" lon="-1.55537">
        <ele>-2.51</ele>
        <time>2016-12-24T13:25:38Z</time>
      </trkpt>
      <trkpt lat="47.19691" lon="-1.55562">
        <ele>-3.43</ele>
        <time>2016-12-24T13:25:43Z</time>
      </trkpt>
      <trkpt lat="47.19673" lon="-1.55566">
        <ele>-1.15</ele>
        <time>2016-12-24T13:25:52Z</time>
      </trkpt>
      <trkpt lat="47.19665" lon="-1.55594">
        <ele>-1.44</ele>
        <time>2016-12-24T13:25:57Z</time>
      </trkpt>
      <trkpt lat="47.19657" lon="-1.5562">
        <ele>-1.65</ele>
        <time>2016-12-24T13:26:01Z</time>
      </trkpt>
      <trkpt lat="47.19638" lon="-1.55614">
        <ele>-2.61</ele>
        <time>2016-12-24T13:26:06Z</time>
      </trkpt>
      <trkpt lat="47.19634" lon="-1.55643">
        <ele>-0.17</ele>
        <time>2016-12-24T13:26:12Z</time>
      </trkpt>
      <trkpt lat="47.1964" lon="-1.55672">
        <ele>3.17</ele>
        <time>2016-12-24T13:26:15Z</time>
      </trkpt>
      <trkpt lat="47.19644" lon="-1.55699">
        <ele>4.94</ele>
        <time>2016-12-24T13:26:19Z</time>
      </trkpt>
      <trkpt lat="47.19652" lon="-1.55732">
        <ele>5.82</ele>
        <time>2016-12-24T13:26:23Z</time>
      </trkpt>
      <trkpt lat="47.1966" lon="-1.55764">
        <ele>5.62</ele>
        <time>2016-12-24T13:26:27Z</time>
      </trkpt>
      <trkpt lat="47.19665" lon="-1.55796">
        <ele>5.12</ele>
        <time>2016-12-24T13:26:31Z</time>
      </trkpt>
      <trkpt lat="47.19666" lon="-1.55823">
        <ele>3.83</ele>
        <time>2016-12-24T13:26:34Z</time>
      </trkpt>
      <trkpt lat="47.19667" lon="-1.55859">
        <ele>1.87</ele>
        <time>2016-12-24T13:26:38Z</time>
      </trkpt>
      <trkpt lat="47.19666" lon="-1.55886">
        <ele>0.46</ele>
        <time>2016-12-24T13:26:41Z</time>
      </trkpt>
      <trkpt lat="47.19664" lon="-1.55919">
        <ele>-4.38</ele>
        <time>2016-12-24T13:26:45Z</time>
      </trkpt>
      <trkpt lat="47.19662" lon="-1.55945">
        <ele>-5.89</ele>
        <time>2016-12-24T13:26:48Z</time>
      </trkpt>
      <trkpt lat="47.1966" lon="-1.55979">
        <ele>-4.76</ele>
        <time>2016-12-24T13:26:52Z</time>
      </trkpt>
      <trkpt lat="47.19656" lon="-1.56013">
        <ele>-4.57</ele>
        <time>2016-12-24T13:26:56Z</time>
      </trkpt>
      <trkpt lat="47.19653" lon="-1.56047">
        <ele>-3.96</ele>
        <time>2016-12-24T13:27:00Z</time>
      </trkpt>
      <trkpt lat="47.19651" lon="-1.56074">
        <ele>-4.51</ele>
        <time>2016-12-24T13:27:03Z</time>
      </trkpt>
      <trkpt lat="47.19647" lon="-1.56102">
        <ele>-4.47</ele>
        <time>2016-12-24T13:27:06Z</time>
      </trkpt>
      <trkpt lat="47.19645" lon="-1.56134">
        <ele>-3.09</ele>
        <time>2016-12-24T13:27:10Z</time>
      </trkpt>
      <trkpt lat="47.19643" lon="-1.56162">
        <ele>-2.6</ele>
        <time>2016-12-24T13:27:14Z</time>
      </trkpt>
      <trkpt lat="47.19663" lon="-1.56169">
        <ele>1.62</ele>
        <time>2016-12-24T13:27:19Z</time>
      </trkpt>
      <trkpt lat="47.19678" lon="-1.56186">
        <ele>3.53</ele>
        <time>2016-12-24T13:27:23Z</time>
      </trkpt>
      <trkpt lat="47.19677" lon="-1.56213">
        <ele>3.83</ele>
        <time>2016-12-24T13:27:26Z</time>
      </trkpt>
      <trkpt lat="47.19672" lon="-1.56245">
        <ele>4.43</ele>
        <time>2016-12-24T13:27:30Z</time>
      </trkpt>
      <trkpt lat="47.19653" lon="-1.56256">
        <ele>4.97</ele>
        <time>2016-12-24T13:27:34Z</time>
      </trkpt>
      <trkpt lat="47.19634" lon="-1.56267">
        <ele>7</ele>
        <time>2016-12-24T13:27:40Z</time>
      </trkpt>
      <trkpt lat="47.1963" lon="-1.56297">
        <ele>5.07</ele>
        <time>2016-12-24T13:27:43Z</time>
      </trkpt>
      <trkpt lat="47.19629" lon="-1.56324">
        <ele>4.58</ele>
        <time>2016-12-24T13:27:46Z</time>
      </trkpt>
      <trkpt lat="47.19628" lon="-1.56356">
        <ele>2.6</ele>
        <time>2016-12-24T13:27:50Z</time>
      </trkpt>
      <trkpt lat="47.19628" lon="-1.56391">
        <ele>0.25</ele>
        <time>2016-12-24T13:27:54Z</time>
      </trkpt>
      <trkpt lat="47.1963" lon="-1.56418">
        <ele>-1.3</ele>
        <time>2016-12-24T13:27:57Z</time>
      </trkpt>
      <trkpt lat="47.19632" lon="-1.56445">
        <ele>-4.11</ele>
        <time>2016-12-24T13:28:00Z</time>
      </trkpt>
      <trkpt lat="47.19633" lon="-1.56478">
        <ele>-4.39</ele>
        <time>2016-12-24T13:28:04Z</time>
      </trkpt>
      <trkpt lat="47.19635" lon="-1.56513">
        <ele>-4.62</ele>
        <time>2016-12-24T13:28:08Z</time>
      </trkpt>
      <trkpt lat="47.19634" lon="-1.56541">
        <ele>-7.08</ele>
        <time>2016-12-24T13:28:11Z</time>
      </trkpt>
      <trkpt lat="47.19634" lon="-1.56571">
        <ele>-6.69</ele>
        <time>2016-12-24T13:28:15Z</time>
      </trkpt>
      <trkpt lat="47.19633" lon="-1.56605">
        <ele>-5.18</ele>
        <time>2016-12-24T13:28:19Z</time>
      </trkpt>
      <trkpt lat="47.19632" lon="-1.56636">
        <ele>-3.77</ele>
        <time>2016-12-24T13:28:23Z</time>
      </trkpt>
      <trkpt lat="47.19631" lon="-1.56667">
        <ele>-2.75</ele>
        <time>2016-12-24T13:28:26Z</time>
      </trkpt>
      <trkpt lat="47.19629" lon="-1.56693">
        <ele>-2.24</ele>
        <time>2016-12-24T13:28:29Z</time>
      </trkpt>
      <trkpt lat="47.19625" lon="-1.56728">
        <ele>-3.75</ele>
        <time>2016-12-24T13:28:33Z</time>
      </trkpt>
      <trkpt lat="47.19622" lon="-1.56755">
        <ele>-3.59</ele>
        <time>2016-12-24T13:28:36Z</time>
      </trkpt>
      <trkpt lat="47.1962" lon="-1.56787">
        <ele>-1.64</ele>
        <time>2016-12-24T13:28:40Z</time>
      </trkpt>
      <trkpt lat="47.19618" lon="-1.56823">
        <ele>-0.26</ele>
        <time>2016-12-24T13:28:44Z</time>
      </trkpt>
      <trkpt lat="47.19617" lon="-1.56851">
        <ele>0.2</ele>
        <time>2016-12-24T13:28:47Z</time>
      </trkpt>
      <trkpt lat="47.19616" lon="-1.56878">
        <ele>1.56</ele>
        <time>2016-12-24T13:28:51Z</time>
      </trkpt>
      <trkpt lat="47.19613" lon="-1.56907">
        <ele>0.35</ele>
        <time>2016-12-24T13:28:54Z</time>
      </trkpt>
      <trkpt lat="47.19611" lon="-1.56941">
        <ele>-0.54</ele>
        <time>2016-12-24T13:28:58Z</time>
      </trkpt>
      <trkpt lat="47.19609" lon="-1.56969">
        <ele>-0.23</ele>
        <time>2016-12-24T13:29:01Z</time>
      </trkpt>
      <trkpt lat="47.19608" lon="-1.57004">
        <ele>-2.06</ele>
        <time>2016-12-24T13:29:05Z</time>
      </trkpt>
      <trkpt lat="47.19606" lon="-1.57033">
        <ele>-2.57</ele>
        <time>2016-12-24T13:29:09Z</time>
      </trkpt>
      <trkpt lat="47.19603" lon="-1.57061">
        <ele>-4</ele>
        <time>2016-12-24T13:29:12Z</time>
      </trkpt>
      <trkpt lat="47.19602" lon="-1.57093">
        <ele>-1.14</ele>
        <time>2016-12-24T13:29:16Z</time>
      </trkpt>
      <trkpt lat="47.196" lon="-1.57126">
        <ele>-4.07</ele>
        <time>2016-12-24T13:29:20Z</time>
      </trkpt>
      <trkpt lat="47.19597" lon="-1.5716">
        <ele>-5</ele>
        <time>2016-12-24T13:29:24Z</time>
      </trkpt>
      <trkpt lat="47.19596" lon="-1.57194">
        <ele>-6.13</ele>
        <time>2016-12-24T13:29:28Z</time>
      </trkpt>
      <trkpt lat="47.19594" lon="-1.57221">
        <ele>-6.7</ele>
        <time>2016-12-24T13:29:32Z</time>
      </trkpt>
      <trkpt lat="47.1959" lon="-1.57255">
        <ele>-7.04</ele>
        <time>2016-12-24T13:29:36Z</time>
      </trkpt>
      <trkpt lat="47.19589" lon="-1.57288">
        <ele>-5.93</ele>
        <time>2016-12-24T13:29:40Z</time>
      </trkpt>
      <trkpt lat="47.19586" lon="-1.57317">
        <ele>-6.64</ele>
        <time>2016-12-24T13:29:44Z</time>
      </trkpt>
      <trkpt lat="47.1958" lon="-1.57349">
        <ele>-6.94</ele>
        <time>2016-12-24T13:29:48Z</time>
      </trkpt>
      <trkpt lat="47.19573" lon="-1.5738">
        <ele>-7.72</ele>
        <time>2016-12-24T13:29:52Z</time>
      </trkpt>
      <trkpt lat="47.19566" lon="-1.57411">
        <ele>-8.78</ele>
        <time>2016-12-24T13:29:56Z</time>
      </trkpt>
      <trkpt lat="47.1956" lon="-1.57436">
        <ele>-9.64</ele>
        <time>2016-12-24T13:29:59Z</time>
      </trkpt>
      <trkpt lat="47.19555" lon="-1.57466">
        <ele>-8.06</ele>
        <time>2016-12-24T13:30:03Z</time>
      </trkpt>
      <trkpt lat="47.1955" lon="-1.57492">
        <ele>-6.6</ele>
        <time>2016-12-24T13:30:06Z</time>
      </trkpt>
      <trkpt lat="47.19545" lon="-1.57523">
        <ele>-5.46</ele>
        <time>2016-12-24T13:30:10Z</time>
      </trkpt>
      <trkpt lat="47.19541" lon="-1.57556">
        <ele>-9.42</ele>
        <time>2016-12-24T13:30:14Z</time>
      </trkpt>
      <trkpt lat="47.19536" lon="-1.57586">
        <ele>-12.04</ele>
        <time>2016-12-24T13:30:18Z</time>
      </trkpt>
      <trkpt lat="47.19528" lon="-1.57618">
        <ele>-11.93</ele>
        <time>2016-12-24T13:30:22Z</time>
      </trkpt>
      <trkpt lat="47.1952" lon="-1.57651">
        <ele>-12.89</ele>
        <time>2016-12-24T13:30:26Z</time>
      </trkpt>
      <trkpt lat="47.19514" lon="-1.57685">
        <ele>-12.25</ele>
        <time>2016-12-24T13:30:30Z</time>
      </trkpt>
      <trkpt lat="47.19507" lon="-1.57715">
        <ele>-11.39</ele>
        <time>2016-12-24T13:30:34Z</time>
      </trkpt>
      <trkpt lat="47.195" lon="-1.57747">
        <ele>-9.71</ele>
        <time>2016-12-24T13:30:38Z</time>
      </trkpt>
      <trkpt lat="47.19494" lon="-1.57777">
        <ele>-9.27</ele>
        <time>2016-12-24T13:30:42Z</time>
      </trkpt>
      <trkpt lat="47.19489" lon="-1.57803">
        <ele>-9.63</ele>
        <time>2016-12-24T13:30:45Z</time>
      </trkpt>
      <trkpt lat="47.19484" lon="-1.57829">
        <ele>-11.85</ele>
        <time>2016-12-24T13:30:49Z</time>
      </trkpt>
      <trkpt lat="47.19481" lon="-1.5786">
        <ele>-11.78</ele>
        <time>2016-12-24T13:30:53Z</time>
      </trkpt>
      <trkpt lat="47.19479" lon="-1.57889">
        <ele>-12.73</ele>
        <time>2016-12-24T13:30:56Z</time>
      </trkpt>
      <trkpt lat="47.19474" lon="-1.57922">
        <ele>-11.1</ele>
        <time>2016-12-24T13:31:00Z</time>
      </trkpt>
      <trkpt lat="47.19472" lon="-1.57949">
        <ele>-11.48</ele>
        <time>2016-12-24T13:31:03Z</time>
      </trkpt>
      <trkpt lat="47.19468" lon="-1.57979">
        <ele>-9.42</ele>
        <time>2016-12-24T13:31:07Z</time>
      </trkpt>
      <trkpt lat="47.19464" lon="-1.58009">
        <ele>-7.18</ele>
        <time>2016-12-24T13:31:11Z</time>
      </trkpt>
      <trkpt lat="47.19462" lon="-1.58041">
        <ele>-6.16</ele>
        <time>2016-12-24T13:31:15Z</time>
      </trkpt>
      <trkpt lat="47.19457" lon="-1.5807">
        <ele>-5.8</ele>
        <time>2016-12-24T13:31:19Z</time>
      </trkpt>
      <trkpt lat="47.19452" lon="-1.58096">
        <ele>-8.03</ele>
        <time>2016-12-24T13:31:23Z</time>
      </trkpt>
      <trkpt lat="47.19438" lon="-1.58115">
        <ele>-6.02</ele>
        <time>2016-12-24T13:31:27Z</time>
      </trkpt>
      <trkpt lat="47.1942" lon="-1.58138">
        <ele>-2.31</ele>
        <time>2016-12-24T13:31:31Z</time>
      </trkpt>
      <trkpt lat="47.19405" lon="-1.5816">
        <ele>-2.55</ele>
        <time>2016-12-24T13:31:35Z</time>
      </trkpt>
      <trkpt lat="47.1939" lon="-1.58187">
        <ele>-4.93</ele>
        <time>2016-12-24T13:31:39Z</time>
      </trkpt>
      <trkpt lat="47.19378" lon="-1.58216">
        <ele>-8.46</ele>
        <time>2016-12-24T13:31:43Z</time>
      </trkpt>
      <trkpt lat="47.19369" lon="-1.58242">
        <ele>-10.06</ele>
        <time>2016-12-24T13:31:47Z</time>
      </trkpt>
      <trkpt lat="47.19357" lon="-1.58272">
        <ele>-7.88</ele>
        <time>2016-12-24T13:31:51Z</time>
      </trkpt>
      <trkpt lat="47.19341" lon="-1.58294">
        <ele>-6.02</ele>
        <time>2016-12-24T13:31:55Z</time>
      </trkpt>
      <trkpt lat="47.19325" lon="-1.58307">
        <ele>-5.05</ele>
        <time>2016-12-24T13:31:58Z</time>
      </trkpt>
      <trkpt lat="47.19304" lon="-1.58323">
        <ele>-4.22</ele>
        <time>2016-12-24T13:32:02Z</time>
      </trkpt>
      <trkpt lat="47.19284" lon="-1.58338">
        <ele>-4.29</ele>
        <time>2016-12-24T13:32:06Z</time>
      </trkpt>
      <trkpt lat="47.19266" lon="-1.58356">
        <ele>-4.05</ele>
        <time>2016-12-24T13:32:10Z</time>
      </trkpt>
      <trkpt lat="47.19249" lon="-1.58375">
        <ele>-1.94</ele>
        <time>2016-12-24T13:32:14Z</time>
      </trkpt>
      <trkpt lat="47.19233" lon="-1.58391">
        <ele>-2.12</ele>
        <time>2016-12-24T13:32:17Z</time>
      </trkpt>
      <trkpt lat="47.19214" lon="-1.58406">
        <ele>-0.26</ele>
        <time>2016-12-24T13:32:21Z</time>
      </trkpt>
      <trkpt lat="47.19199" lon="-1.58421">
        <ele>-1.6</ele>
        <time>2016-12-24T13:32:24Z</time>
      </trkpt>
      <trkpt lat="47.19181" lon="-1.58439">
        <ele>-5.17</ele>
        <time>2016-12-24T13:32:28Z</time>
      </trkpt>
      <trkpt lat="47.19164" lon="-1.58457">
        <ele>-5.14</ele>
        <time>2016-12-24T13:32:32Z</time>
      </trkpt>
      <trkpt lat="47.19148" lon="-1.58476">
        <ele>-5.32</ele>
        <time>2016-12-24T13:32:36Z</time>
      </trkpt>
      <trkpt lat="47.1913" lon="-1.5849">
        <ele>-6.32</ele>
        <time>2016-12-24T13:32:41Z</time>
      </trkpt>
      <trkpt lat="47.19111" lon="-1.58506">
        <ele>-6.37</ele>
        <time>2016-12-24T13:32:44Z</time>
      </trkpt>
      <trkpt lat="47.19093" lon="-1.58524">
        <ele>-6.91</ele>
        <time>2016-12-24T13:32:48Z</time>
      </trkpt>
      <trkpt lat="47.19078" lon="-1.58539">
        <ele>-5.82</ele>
        <time>2016-12-24T13:32:51Z</time>
      </trkpt>
      <trkpt lat="47.19062" lon="-1.58552">
        <ele>-5.09</ele>
        <time>2016-12-24T13:32:54Z</time>
      </trkpt>
      <trkpt lat="47.19044" lon="-1.58567">
        <ele>-3.26</ele>
        <time>2016-12-24T13:32:58Z</time>
      </trkpt>
      <trkpt lat="47.19027" lon="-1.58584">
        <ele>-2.42</ele>
        <time>2016-12-24T13:33:01Z</time>
      </trkpt>
      <trkpt lat="47.19009" lon="-1.58602">
        <ele>-1.11</ele>
        <time>2016-12-24T13:33:05Z</time>
      </trkpt>
      <trkpt lat="47.18993" lon="-1.58617">
        <ele>6</ele>
        <time>2016-12-24T13:33:08Z</time>
      </trkpt>
      <trkpt lat="47.18974" lon="-1.58636">
        <ele>0.62</ele>
        <time>2016-12-24T13:33:12Z</time>
      </trkpt>
      <trkpt lat="47.18958" lon="-1.58652">
        <ele>-1.07</ele>
        <time>2016-12-24T13:33:15Z</time>
      </trkpt>
      <trkpt lat="47.18939" lon="-1.58672">
        <ele>0.45</ele>
        <time>2016-12-24T13:33:19Z</time>
      </trkpt>
      <trkpt lat="47.18918" lon="-1.58689">
        <ele>-0.39</ele>
        <time>2016-12-24T13:33:23Z</time>
      </trkpt>
      <trkpt lat="47.18897" lon="-1.58705">
        <ele>-0.2</ele>
        <time>2016-12-24T13:33:27Z</time>
      </trkpt>
      <trkpt lat="47.1888" lon="-1.58715">
        <ele>0.36</ele>
        <time>2016-12-24T13:33:30Z</time>
      </trkpt>
      <trkpt lat="47.18859" lon="-1.58728">
        <ele>-0.66</ele>
        <time>2016-12-24T13:33:34Z</time>
      </trkpt>
      <trkpt lat="47.1884" lon="-1.58743">
        <ele>-0.33</ele>
        <time>2016-12-24T13:33:38Z</time>
      </trkpt>
      <trkpt lat="47.18829" lon="-1.58766">
        <ele>-0.96</ele>
        <time>2016-12-24T13:33:42Z</time>
      </trkpt>
      <trkpt lat="47.18818" lon="-1.58791">
        <ele>-2.04</ele>
        <time>2016-12-24T13:33:46Z</time>
      </trkpt>
      <trkpt lat="47.188" lon="-1.58809">
        <ele>-1.06</ele>
        <time>2016-12-24T13:33:50Z</time>
      </trkpt>
      <trkpt lat="47.18785" lon="-1.58829">
        <ele>-1.05</ele>
        <time>2016-12-24T13:33:54Z</time>
      </trkpt>
      <trkpt lat="47.18778" lon="-1.58856">
        <ele>-3.77</ele>
        <time>2016-12-24T13:33:57Z</time>
      </trkpt>
      <trkpt lat="47.18774" lon="-1.58883">
        <ele>-6.14</ele>
        <time>2016-12-24T13:34:00Z</time>
      </trkpt>
      <trkpt lat="47.18772" lon="-1.58913">
        <ele>-8.8</ele>
        <time>2016-12-24T13:34:04Z</time>
      </trkpt>
      <trkpt lat="47.18768" lon="-1.58944">
        <ele>-10.16</ele>
        <time>2016-12-24T13:34:08Z</time>
      </trkpt>
      <trkpt lat="47.18765" lon="-1.58978">
        <ele>-12.11</ele>
        <time>2016-12-24T13:34:12Z</time>
      </trkpt>
      <trkpt lat="47.18761" lon="-1.5901">
        <ele>-12.21</ele>
        <time>2016-12-24T13:34:16Z</time>
      </trkpt>
      <trkpt lat="47.18759" lon="-1.5904">
        <ele>-11.09</ele>
        <time>2016-12-24T13:34:20Z</time>
      </trkpt>
      <trkpt lat="47.18754" lon="-1.59075">
        <ele>-13.06</ele>
        <time>2016-12-24T13:34:24Z</time>
      </trkpt>
      <trkpt lat="47.18751" lon="-1.59104">
        <ele>-13.36</ele>
        <time>2016-12-24T13:34:28Z</time>
      </trkpt>
      <trkpt lat="47.18747" lon="-1.59139">
        <ele>-11</ele>
        <time>2016-12-24T13:34:32Z</time>
      </trkpt>
      <trkpt lat="47.18744" lon="-1.59166">
        <ele>-9.82</ele>
        <time>2016-12-24T13:34:35Z</time>
      </trkpt>
      <trkpt lat="47.1874" lon="-1.592">
        <ele>-7.13</ele>
        <time>2016-12-24T13:34:39Z</time>
      </trkpt>
      <trkpt lat="47.18738" lon="-1.59231">
        <ele>-8.88</ele>
        <time>2016-12-24T13:34:43Z</time>
      </trkpt>
      <trkpt lat="47.18733" lon="-1.59261">
        <ele>-9.94</ele>
        <time>2016-12-24T13:34:47Z</time>
      </trkpt>
      <trkpt lat="47.1873" lon="-1.59293">
        <ele>-11.75</ele>
        <time>2016-12-24T13:34:51Z</time>
      </trkpt>
      <trkpt lat="47.18727" lon="-1.59325">
        <ele>-11.02</ele>
        <time>2016-12-24T13:34:55Z</time>
      </trkpt>
      <trkpt lat="47.18725" lon="-1.59353">
        <ele>-6.63</ele>
        <time>2016-12-24T13:34:59Z</time>
      </trkpt>
      <trkpt lat="47.18721" lon="-1.59385">
        <ele>-7.07</ele>
        <time>2016-12-24T13:35:03Z</time>
      </trkpt>
      <trkpt lat="47.18717" lon="-1.59419">
        <ele>-9.29</ele>
        <time>2016-12-24T13:35:07Z</time>
      </trkpt>
      <trkpt lat="47.18713" lon="-1.59455">
        <ele>-9.82</ele>
        <time>2016-12-24T13:35:11Z</time>
      </trkpt>
      <trkpt lat="47.18709" lon="-1.59488">
        <ele>-11.34</ele>
        <time>2016-12-24T13:35:15Z</time>
      </trkpt>
      <trkpt lat="47.18707" lon="-1.59519">
        <ele>-10.7</ele>
        <time>2016-12-24T13:35:19Z</time>
      </trkpt>
      <trkpt lat="47.18703" lon="-1.59546">
        <ele>-12.08</ele>
        <time>2016-12-24T13:35:22Z</time>
      </trkpt>
      <trkpt lat="47.187" lon="-1.59575">
        <ele>-12.12</ele>
        <time>2016-12-24T13:35:26Z</time>
      </trkpt>
      <trkpt lat="47.18696" lon="-1.59608">
        <ele>-11.58</ele>
        <time>2016-12-24T13:35:30Z</time>
      </trkpt>
      <trkpt lat="47.18693" lon="-1.5964">
        <ele>-11.96</ele>
        <time>2016-12-24T13:35:34Z</time>
      </trkpt>
      <trkpt lat="47.1869" lon="-1.5967">
        <ele>-11.17</ele>
        <time>2016-12-24T13:35:38Z</time>
      </trkpt>
      <trkpt lat="47.18685" lon="-1.59701">
        <ele>-11.23</ele>
        <time>2016-12-24T13:35:42Z</time>
      </trkpt>
      <trkpt lat="47.18681" lon="-1.59735">
        <ele>-12.94</ele>
        <time>2016-12-24T13:35:46Z</time>
      </trkpt>
      <trkpt lat="47.18682" lon="-1.59765">
        <ele>-10.94</ele>
        <time>2016-12-24T13:35:50Z</time>
      </trkpt>
      <trkpt lat="47.18682" lon="-1.59797">
        <ele>-6.95</ele>
        <time>2016-12-24T13:35:54Z</time>
      </trkpt>
      <trkpt lat="47.18676" lon="-1.59825">
        <ele>-4.94</ele>
        <time>2016-12-24T13:35:57Z</time>
      </trkpt>
      <trkpt lat="47.18659" lon="-1.59844">
        <ele>-3.05</ele>
        <time>2016-12-24T13:36:01Z</time>
      </trkpt>
      <trkpt lat="47.18635" lon="-1.59836">
        <ele>-3.91</ele>
        <time>2016-12-24T13:36:05Z</time>
      </trkpt>
      <trkpt lat="47.18614" lon="-1.59834">
        <ele>-2.18</ele>
        <time>2016-12-24T13:36:09Z</time>
      </trkpt>
      <trkpt lat="47.18621" lon="-1.59866">
        <ele>-3.28</ele>
        <time>2016-12-24T13:36:13Z</time>
      </trkpt>
      <trkpt lat="47.18616" lon="-1.59897">
        <ele>-3.91</ele>
        <time>2016-12-24T13:36:17Z</time>
      </trkpt>
      <trkpt lat="47.18608" lon="-1.59927">
        <ele>-2.4</ele>
        <time>2016-12-24T13:36:21Z</time>
      </trkpt>
      <trkpt lat="47.18601" lon="-1.59956">
        <ele>-2.99</ele>
        <time>2016-12-24T13:36:26Z</time>
      </trkpt>
      <trkpt lat="47.18592" lon="-1.59981">
        <ele>-3.62</ele>
        <time>2016-12-24T13:36:58Z</time>
      </trkpt>
      <trkpt lat="47.18582" lon="-1.60004">
        <ele>-3.89</ele>
        <time>2016-12-24T13:37:06Z</time>
      </trkpt>
      <trkpt lat="47.18574" lon="-1.6003">
        <ele>-3.27</ele>
        <time>2016-12-24T13:37:10Z</time>
      </trkpt>
      <trkpt lat="47.18564" lon="-1.60058">
        <ele>-0.1</ele>
        <time>2016-12-24T13:37:15Z</time>
      </trkpt>
      <trkpt lat="47.18554" lon="-1.60085">
        <ele>0.9</ele>
        <time>2016-12-24T13:37:19Z</time>
      </trkpt>
      <trkpt lat="47.18542" lon="-1.60114">
        <ele>-0.17</ele>
        <time>2016-12-24T13:37:23Z</time>
      </trkpt>
      <trkpt lat="47.18529" lon="-1.60143">
        <ele>-0.93</ele>
        <time>2016-12-24T13:37:27Z</time>
      </trkpt>
      <trkpt lat="47.18518" lon="-1.60168">
        <ele>-1.53</ele>
        <time>2016-12-24T13:37:31Z</time>
      </trkpt>
      <trkpt lat="47.18504" lon="-1.60196">
        <ele>-2.31</ele>
        <time>2016-12-24T13:37:35Z</time>
      </trkpt>
      <trkpt lat="47.18493" lon="-1.60218">
        <ele>-2.37</ele>
        <time>2016-12-24T13:37:38Z</time>
      </trkpt>
      <trkpt lat="47.18479" lon="-1.60245">
        <ele>-1.47</ele>
        <time>2016-12-24T13:37:42Z</time>
      </trkpt>
      <trkpt lat="47.18465" lon="-1.60271">
        <ele>-0.79</ele>
        <time>2016-12-24T13:37:46Z</time>
      </trkpt>
      <trkpt lat="47.1845" lon="-1.60297">
        <ele>-1.65</ele>
        <time>2016-12-24T13:37:50Z</time>
      </trkpt>
      <trkpt lat="47.18438" lon="-1.60318">
        <ele>-2.36</ele>
        <time>2016-12-24T13:37:53Z</time>
      </trkpt>
      <trkpt lat="47.18421" lon="-1.60342">
        <ele>-2.64</ele>
        <time>2016-12-24T13:37:57Z</time>
      </trkpt>
      <trkpt lat="47.18405" lon="-1.60367">
        <ele>-1.83</ele>
        <time>2016-12-24T13:38:01Z</time>
      </trkpt>
      <trkpt lat="47.18391" lon="-1.60387">
        <ele>-1.56</ele>
        <time>2016-12-24T13:38:04Z</time>
      </trkpt>
      <trkpt lat="47.18372" lon="-1.60411">
        <ele>-3.35</ele>
        <time>2016-12-24T13:38:08Z</time>
      </trkpt>
      <trkpt lat="47.18358" lon="-1.60428">
        <ele>-3.33</ele>
        <time>2016-12-24T13:38:11Z</time>
      </trkpt>
      <trkpt lat="47.18341" lon="-1.60449">
        <ele>-1.76</ele>
        <time>2016-12-24T13:38:15Z</time>
      </trkpt>
      <trkpt lat="47.18325" lon="-1.60468">
        <ele>-1.45</ele>
        <time>2016-12-24T13:38:18Z</time>
      </trkpt>
      <trkpt lat="47.18311" lon="-1.60484">
        <ele>-1.86</ele>
        <time>2016-12-24T13:38:21Z</time>
      </trkpt>
      <trkpt lat="47.18296" lon="-1.60502">
        <ele>-2.37</ele>
        <time>2016-12-24T13:38:24Z</time>
      </trkpt>
      <trkpt lat="47.1828" lon="-1.60517">
        <ele>-3.19</ele>
        <time>2016-12-24T13:38:27Z</time>
      </trkpt>
      <trkpt lat="47.18259" lon="-1.60536">
        <ele>-5.21</ele>
        <time>2016-12-24T13:38:31Z</time>
      </trkpt>
      <trkpt lat="47.18242" lon="-1.60549">
        <ele>-4.61</ele>
        <time>2016-12-24T13:38:34Z</time>
      </trkpt>
      <trkpt lat="47.18224" lon="-1.60561">
        <ele>-4.26</ele>
        <time>2016-12-24T13:38:37Z</time>
      </trkpt>
      <trkpt lat="47.18205" lon="-1.60572">
        <ele>-3.14</ele>
        <time>2016-12-24T13:38:41Z</time>
      </trkpt>
      <trkpt lat="47.18187" lon="-1.60581">
        <ele>-5.19</ele>
        <time>2016-12-24T13:38:45Z</time>
      </trkpt>
      <trkpt lat="47.18171" lon="-1.60598">
        <ele>-4.13</ele>
        <time>2016-12-24T13:38:51Z</time>
      </trkpt>
      <trkpt lat="47.18149" lon="-1.60602">
        <ele>-3.74</ele>
        <time>2016-12-24T13:38:55Z</time>
      </trkpt>
      <trkpt lat="47.18127" lon="-1.60601">
        <ele>0.06</ele>
        <time>2016-12-24T13:38:59Z</time>
      </trkpt>
      <trkpt lat="47.18104" lon="-1.60595">
        <ele>-0.44</ele>
        <time>2016-12-24T13:39:03Z</time>
      </trkpt>
      <trkpt lat="47.18084" lon="-1.60585">
        <ele>-0.72</ele>
        <time>2016-12-24T13:39:06Z</time>
      </trkpt>
      <trkpt lat="47.18066" lon="-1.60573">
        <ele>-0.86</ele>
        <time>2016-12-24T13:39:09Z</time>
      </trkpt>
      <trkpt lat="47.18049" lon="-1.60562">
        <ele>0.71</ele>
        <time>2016-12-24T13:39:12Z</time>
      </trkpt>
      <trkpt lat="47.18027" lon="-1.6055">
        <ele>0.85</ele>
        <time>2016-12-24T13:39:16Z</time>
      </trkpt>
      <trkpt lat="47.18008" lon="-1.60549">
        <ele>1.22</ele>
        <time>2016-12-24T13:39:19Z</time>
      </trkpt>
      <trkpt lat="47.1799" lon="-1.60554">
        <ele>0.61</ele>
        <time>2016-12-24T13:39:22Z</time>
      </trkpt>
      <trkpt lat="47.17969" lon="-1.60563">
        <ele>1.3</ele>
        <time>2016-12-24T13:39:26Z</time>
      </trkpt>
      <trkpt lat="47.17951" lon="-1.60572">
        <ele>4.11</ele>
        <time>2016-12-24T13:39:30Z</time>
      </trkpt>
      <trkpt lat="47.17933" lon="-1.60582">
        <ele>6.42</ele>
        <time>2016-12-24T13:39:33Z</time>
      </trkpt>
      <trkpt lat="47.17913" lon="-1.60584">
        <ele>5</ele>
        <time>2016-12-24T13:39:38Z</time>
      </trkpt>
      <trkpt lat="47.17903" lon="-1.60607">
        <ele>3.42</ele>
        <time>2016-12-24T13:39:41Z</time>
      </trkpt>
      <trkpt lat="47.17896" lon="-1.60637">
        <ele>1.21</ele>
        <time>2016-12-24T13:39:44Z</time>
      </trkpt>
      <trkpt lat="47.17885" lon="-1.60666">
        <ele>-2.92</ele>
        <time>2016-12-24T13:39:48Z</time>
      </trkpt>
      <trkpt lat="47.17877" lon="-1.60693">
        <ele>-3.46</ele>
        <time>2016-12-24T13:39:51Z</time>
      </trkpt>
      <trkpt lat="47.17869" lon="-1.60719">
        <ele>-5.59</ele>
        <time>2016-12-24T13:39:54Z</time>
      </trkpt>
      <trkpt lat="47.17861" lon="-1.60751">
        <ele>-5.12</ele>
        <time>2016-12-24T13:39:58Z</time>
      </trkpt>
      <trkpt lat="47.17856" lon="-1.60778">
        <ele>-5.77</ele>
        <time>2016-12-24T13:40:01Z</time>
      </trkpt>
      <trkpt lat="47.1785" lon="-1.6081">
        <ele>-6.8</ele>
        <time>2016-12-24T13:40:04Z</time>
      </trkpt>
      <trkpt lat="47.17843" lon="-1.60837">
        <ele>-6.44</ele>
        <time>2016-12-24T13:40:07Z</time>
      </trkpt>
      <trkpt lat="47.17831" lon="-1.60866">
        <ele>-5.57</ele>
        <time>2016-12-24T13:40:11Z</time>
      </trkpt>
      <trkpt lat="47.17816" lon="-1.6089">
        <ele>-4.26</ele>
        <time>2016-12-24T13:40:15Z</time>
      </trkpt>
      <trkpt lat="47.17797" lon="-1.60908">
        <ele>-1.48</ele>
        <time>2016-12-24T13:40:19Z</time>
      </trkpt>
      <trkpt lat="47.17775" lon="-1.60923">
        <ele>-1.52</ele>
        <time>2016-12-24T13:40:23Z</time>
      </trkpt>
      <trkpt lat="47.17754" lon="-1.60937">
        <ele>-0.61</ele>
        <time>2016-12-24T13:40:27Z</time>
      </trkpt>
      <trkpt lat="47.17735" lon="-1.60951">
        <ele>-1.32</ele>
        <time>2016-12-24T13:40:30Z</time>
      </trkpt>
      <trkpt lat="47.17715" lon="-1.60964">
        <ele>-2.67</ele>
        <time>2016-12-24T13:40:34Z</time>
      </trkpt>
      <trkpt lat="47.17693" lon="-1.60978">
        <ele>-1.32</ele>
        <time>2016-12-24T13:40:38Z</time>
      </trkpt>
      <trkpt lat="47.17669" lon="-1.60978">
        <ele>0.4</ele>
        <time>2016-12-24T13:40:42Z</time>
      </trkpt>
      <trkpt lat="47.17651" lon="-1.60982">
        <ele>-0.17</ele>
        <time>2016-12-24T13:40:45Z</time>
      </trkpt>
      <trkpt lat="47.17629" lon="-1.60997">
        <ele>-0.51</ele>
        <time>2016-12-24T13:40:49Z</time>
      </trkpt>
      <trkpt lat="47.1761" lon="-1.61013">
        <ele>0.18</ele>
        <time>2016-12-24T13:40:53Z</time>
      </trkpt>
      <trkpt lat="47.17593" lon="-1.61029">
        <ele>1.32</ele>
        <time>2016-12-24T13:40:57Z</time>
      </trkpt>
      <trkpt lat="47.17574" lon="-1.61045">
        <ele>0.48</ele>
        <time>2016-12-24T13:41:01Z</time>
      </trkpt>
      <trkpt lat="47.17558" lon="-1.61059">
        <ele>-0.87</ele>
        <time>2016-12-24T13:41:04Z</time>
      </trkpt>
      <trkpt lat="47.17541" lon="-1.61071">
        <ele>-0.35</ele>
        <time>2016-12-24T13:41:07Z</time>
      </trkpt>
      <trkpt lat="47.17522" lon="-1.61087">
        <ele>-1.7</ele>
        <time>2016-12-24T13:41:11Z</time>
      </trkpt>
      <trkpt lat="47.17503" lon="-1.61102">
        <ele>-0.06</ele>
        <time>2016-12-24T13:41:15Z</time>
      </trkpt>
      <trkpt lat="47.17483" lon="-1.61103">
        <ele>-0.38</ele>
        <time>2016-12-24T13:41:19Z</time>
      </trkpt>
      <trkpt lat="47.17463" lon="-1.61093">
        <ele>-0.17</ele>
        <time>2016-12-24T13:41:23Z</time>
      </trkpt>
      <trkpt lat="47.17446" lon="-1.61075">
        <ele>1.87</ele>
        <time>2016-12-24T13:41:27Z</time>
      </trkpt>
      <trkpt lat="47.17434" lon="-1.61047">
        <ele>3.52</ele>
        <time>2016-12-24T13:41:31Z</time>
      </trkpt>
      <trkpt lat="47.17425" lon="-1.61015">
        <ele>3.87</ele>
        <time>2016-12-24T13:41:36Z</time>
      </trkpt>
      <trkpt lat="47.17424" lon="-1.61046">
        <ele>3.17</ele>
        <time>2016-12-24T13:41:44Z</time>
      </trkpt>
      <trkpt lat="47.17433" lon="-1.61074">
        <ele>0.06</ele>
        <time>2016-12-24T13:41:49Z</time>
      </trkpt>
      <trkpt lat="47.17443" lon="-1.61098">
        <ele>-1.63</ele>
        <time>2016-12-24T13:41:53Z</time>
      </trkpt>
      <trkpt lat="47.17454" lon="-1.61124">
        <ele>0.29</ele>
        <time>2016-12-24T13:41:58Z</time>
      </trkpt>
      <trkpt lat="47.17466" lon="-1.61152">
        <ele>3.72</ele>
        <time>2016-12-24T13:42:03Z</time>
      </trkpt>
      <trkpt lat="47.17478" lon="-1.61181">
        <ele>0.85</ele>
        <time>2016-12-24T13:42:08Z</time>
      </trkpt>
      <trkpt lat="47.17488" lon="-1.61206">
        <ele>1.84</ele>
        <time>2016-12-24T13:42:13Z</time>
      </trkpt>
      <trkpt lat="47.17498" lon="-1.61229">
        <ele>-1.53</ele>
        <time>2016-12-24T13:42:17Z</time>
      </trkpt>
      <trkpt lat="47.1751" lon="-1.61255">
        <ele>-3.35</ele>
        <time>2016-12-24T13:42:22Z</time>
      </trkpt>
      <trkpt lat="47.17526" lon="-1.61278">
        <ele>-6.15</ele>
        <time>2016-12-24T13:42:27Z</time>
      </trkpt>
      <trkpt lat="47.17545" lon="-1.61285">
        <ele>-6.07</ele>
        <time>2016-12-24T13:42:31Z</time>
      </trkpt>
      <trkpt lat="47.1756" lon="-1.61301">
        <ele>-5.74</ele>
        <time>2016-12-24T13:42:35Z</time>
      </trkpt>
      <trkpt lat="47.17561" lon="-1.61333">
        <ele>-7</ele>
        <time>2016-12-24T13:42:39Z</time>
      </trkpt>
      <trkpt lat="47.17547" lon="-1.61352">
        <ele>-5.58</ele>
        <time>2016-12-24T13:42:43Z</time>
      </trkpt>
      <trkpt lat="47.17531" lon="-1.61368">
        <ele>-2.11</ele>
        <time>2016-12-24T13:42:47Z</time>
      </trkpt>
      <trkpt lat="47.17522" lon="-1.61399">
        <ele>-0.88</ele>
        <time>2016-12-24T13:42:51Z</time>
      </trkpt>
      <trkpt lat="47.17516" lon="-1.61427">
        <ele>-2.67</ele>
        <time>2016-12-24T13:42:55Z</time>
      </trkpt>
      <trkpt lat="47.1751" lon="-1.61452">
        <ele>-1.52</ele>
        <time>2016-12-24T13:43:00Z</time>
      </trkpt>
      <trkpt lat="47.17494" lon="-1.61466">
        <ele>1.81</ele>
        <time>2016-12-24T13:43:05Z</time>
      </trkpt>
      <trkpt lat="47.17473" lon="-1.61473">
        <ele>6.7</ele>
        <time>2016-12-24T13:43:10Z</time>
      </trkpt>
      <trkpt lat="47.17455" lon="-1.6148">
        <ele>8.97</ele>
        <time>2016-12-24T13:43:14Z</time>
      </trkpt>
      <trkpt lat="47.17438" lon="-1.61487">
        <ele>8.93</ele>
        <time>2016-12-24T13:43:18Z</time>
      </trkpt>
      <trkpt lat="47.17418" lon="-1.615">
        <ele>7.94</ele>
        <time>2016-12-24T13:43:23Z</time>
      </trkpt>
      <trkpt lat="47.17401" lon="-1.61511">
        <ele>6.86</ele>
        <time>2016-12-24T13:43:27Z</time>
      </trkpt>
      <trkpt lat="47.17383" lon="-1.61528">
        <ele>6.59</ele>
        <time>2016-12-24T13:43:32Z</time>
      </trkpt>
      <trkpt lat="47.17366" lon="-1.61543">
        <ele>8.89</ele>
        <time>2016-12-24T13:43:37Z</time>
      </trkpt>
      <trkpt lat="47.1735" lon="-1.61561">
        <ele>7.79</ele>
        <time>2016-12-24T13:43:42Z</time>
      </trkpt>
      <trkpt lat="47.17333" lon="-1.61581">
        <ele>5.96</ele>
        <time>2016-12-24T13:43:47Z</time>
      </trkpt>
      <trkpt lat="47.17319" lon="-1.61602">
        <ele>5.8</ele>
        <time>2016-12-24T13:43:51Z</time>
      </trkpt>
      <trkpt lat="47.17305" lon="-1.61623">
        <ele>6.22</ele>
        <time>2016-12-24T13:43:56Z</time>
      </trkpt>
      <trkpt lat="47.1729" lon="-1.61647">
        <ele>6.55</ele>
        <time>2016-12-24T13:44:00Z</time>
      </trkpt>
      <trkpt lat="47.17279" lon="-1.6167">
        <ele>1.91</ele>
        <time>2016-12-24T13:44:04Z</time>
      </trkpt>
      <trkpt lat="47.17265" lon="-1.61697">
        <ele>0.41</ele>
        <time>2016-12-24T13:44:09Z</time>
      </trkpt>
      <trkpt lat="47.17255" lon="-1.61721">
        <ele>-0.82</ele>
        <time>2016-12-24T13:44:13Z</time>
      </trkpt>
      <trkpt lat="47.17244" lon="-1.61746">
        <ele>-0.78</ele>
        <time>2016-12-24T13:44:17Z</time>
      </trkpt>
      <trkpt lat="47.1724" lon="-1.61777">
        <ele>-0.12</ele>
        <time>2016-12-24T13:44:21Z</time>
      </trkpt>
      <trkpt lat="47.1722" lon="-1.61793">
        <ele>0.61</ele>
        <time>2016-12-24T13:44:26Z</time>
      </trkpt>
      <trkpt lat="47.17202" lon="-1.61807">
        <ele>3.71</ele>
        <time>2016-12-24T13:44:30Z</time>
      </trkpt>
      <trkpt lat="47.17185" lon="-1.61821">
        <ele>5.62</ele>
        <time>2016-12-24T13:44:34Z</time>
      </trkpt>
      <trkpt lat="47.17168" lon="-1.61838">
        <ele>6.43</ele>
        <time>2016-12-24T13:44:38Z</time>
      </trkpt>
      <trkpt lat="47.1715" lon="-1.61856">
        <ele>7.35</ele>
        <time>2016-12-24T13:44:42Z</time>
      </trkpt>
      <trkpt lat="47.17132" lon="-1.61873">
        <ele>6.91</ele>
        <time>2016-12-24T13:44:46Z</time>
      </trkpt>
      <trkpt lat="47.17115" lon="-1.61889">
        <ele>7.6</ele>
        <time>2016-12-24T13:44:50Z</time>
      </trkpt>
      <trkpt lat="47.17098" lon="-1.61908">
        <ele>9.21</ele>
        <time>2016-12-24T13:44:54Z</time>
      </trkpt>
      <trkpt lat="47.1708" lon="-1.61927">
        <ele>9.77</ele>
        <time>2016-12-24T13:44:58Z</time>
      </trkpt>
      <trkpt lat="47.17064" lon="-1.61944">
        <ele>9.15</ele>
        <time>2016-12-24T13:45:02Z</time>
      </trkpt>
      <trkpt lat="47.17047" lon="-1.61964">
        <ele>9.65</ele>
        <time>2016-12-24T13:45:06Z</time>
      </trkpt>
      <trkpt lat="47.17031" lon="-1.61987">
        <ele>6.82</ele>
        <time>2016-12-24T13:45:10Z</time>
      </trkpt>
      <trkpt lat="47.17018" lon="-1.62009">
        <ele>4.03</ele>
        <time>2016-12-24T13:45:14Z</time>
      </trkpt>
      <trkpt lat="47.17002" lon="-1.62032">
        <ele>2.65</ele>
        <time>2016-12-24T13:45:18Z</time>
      </trkpt>
      <trkpt lat="47.16989" lon="-1.62057">
        <ele>3.31</ele>
        <time>2016-12-24T13:45:22Z</time>
      </trkpt>
      <trkpt lat="47.16976" lon="-1.62081">
        <ele>2.93</ele>
        <time>2016-12-24T13:45:26Z</time>
      </trkpt>
      <trkpt lat="47.16962" lon="-1.62104">
        <ele>3.34</ele>
        <time>2016-12-24T13:45:30Z</time>
      </trkpt>
      <trkpt lat="47.1695" lon="-1.62127">
        <ele>4.36</ele>
        <time>2016-12-24T13:45:34Z</time>
      </trkpt>
      <trkpt lat="47.16938" lon="-1.62153">
        <ele>4.63</ele>
        <time>2016-12-24T13:45:38Z</time>
      </trkpt>
      <trkpt lat="47.16925" lon="-1.6218">
        <ele>4.37</ele>
        <time>2016-12-24T13:45:42Z</time>
      </trkpt>
      <trkpt lat="47.16912" lon="-1.62202">
        <ele>2.06</ele>
        <time>2016-12-24T13:45:46Z</time>
      </trkpt>
      <trkpt lat="47.16896" lon="-1.62226">
        <ele>-1.38</ele>
        <time>2016-12-24T13:45:50Z</time>
      </trkpt>
      <trkpt lat="47.16879" lon="-1.62245">
        <ele>-1.45</ele>
        <time>2016-12-24T13:45:54Z</time>
      </trkpt>
      <trkpt lat="47.16864" lon="-1.62263">
        <ele>0.69</ele>
        <time>2016-12-24T13:45:58Z</time>
      </trkpt>
      <trkpt lat="47.16848" lon="-1.62284">
        <ele>0.02</ele>
        <time>2016-12-24T13:46:02Z</time>
      </trkpt>
      <trkpt lat="47.16832" lon="-1.62303">
        <ele>0.19</ele>
        <time>2016-12-24T13:46:06Z</time>
      </trkpt>
      <trkpt lat="47.16815" lon="-1.62319">
        <ele>1.9</ele>
        <time>2016-12-24T13:46:10Z</time>
      </trkpt>
      <trkpt lat="47.16797" lon="-1.62331">
        <ele>2.91</ele>
        <time>2016-12-24T13:46:14Z</time>
      </trkpt>
      <trkpt lat="47.16777" lon="-1.62343">
        <ele>3.74</ele>
        <time>2016-12-24T13:46:18Z</time>
      </trkpt>
      <trkpt lat="47.16756" lon="-1.62356">
        <ele>3.47</ele>
        <time>2016-12-24T13:46:22Z</time>
      </trkpt>
      <trkpt lat="47.16739" lon="-1.62376">
        <ele>1.44</ele>
        <time>2016-12-24T13:46:26Z</time>
      </trkpt>
      <trkpt lat="47.1673" lon="-1.62405">
        <ele>-0.85</ele>
        <time>2016-12-24T13:46:30Z</time>
      </trkpt>
      <trkpt lat="47.16727" lon="-1.62435">
        <ele>-0.52</ele>
        <time>2016-12-24T13:46:34Z</time>
      </trkpt>
      <trkpt lat="47.16719" lon="-1.62463">
        <ele>1.17</ele>
        <time>2016-12-24T13:46:38Z</time>
      </trkpt>
      <trkpt lat="47.16712" lon="-1.62492">
        <ele>4.15</ele>
        <time>2016-12-24T13:46:42Z</time>
      </trkpt>
      <trkpt lat="47.16706" lon="-1.6252">
        <ele>5.93</ele>
        <time>2016-12-24T13:46:46Z</time>
      </trkpt>
      <trkpt lat="47.16702" lon="-1.62547">
        <ele>8.23</ele>
        <time>2016-12-24T13:46:50Z</time>
      </trkpt>
      <trkpt lat="47.16699" lon="-1.62575">
        <ele>6</ele>
        <time>2016-12-24T13:46:54Z</time>
      </trkpt>
      <trkpt lat="47.16699" lon="-1.62605">
        <ele>6.35</ele>
        <time>2016-12-24T13:46:58Z</time>
      </trkpt>
      <trkpt lat="47.167" lon="-1.62636">
        <ele>6.95</ele>
        <time>2016-12-24T13:47:02Z</time>
      </trkpt>
      <trkpt lat="47.16703" lon="-1.62662">
        <ele>7.89</ele>
        <time>2016-12-24T13:47:06Z</time>
      </trkpt>
      <trkpt lat="47.1671" lon="-1.62688">
        <ele>8.41</ele>
        <time>2016-12-24T13:47:10Z</time>
      </trkpt>
      <trkpt lat="47.16728" lon="-1.62686">
        <ele>9.51</ele>
        <time>2016-12-24T13:47:14Z</time>
      </trkpt>
      <trkpt lat="47.16746" lon="-1.62671">
        <ele>10.92</ele>
        <time>2016-12-24T13:47:18Z</time>
      </trkpt>
      <trkpt lat="47.16765" lon="-1.62674">
        <ele>10.71</ele>
        <time>2016-12-24T13:47:23Z</time>
      </trkpt>
      <trkpt lat="47.1678" lon="-1.62658">
        <ele>9.21</ele>
        <time>2016-12-24T13:47:29Z</time>
      </trkpt>
    </trkseg>
  </trk>
</gpx>